<?xml version="1.0" encoding="UTF-8" standalone="no" ?>
<gpx xmlns="http://www.topografix.com/GPX/1/1" xmlns:xsi="http://www.w3.org/2001/XMLSchema-instance" xsi:schemaLocation="http://www.topografix.com/GPX/1/1 http://www.topografix.com/GPX/1/1/gpx.xsd" version="1.1" creator="VisuGPX - https://www.visugpx.com">
  <metadata>
    <name>Voiteur,Bréry,Frontenay,Blandans</name>
  </metadata>
  <trk>
    <name><![CDATA[Voiteur,Bréry,Frontenay,Blandans_1]]></name>
    <trkseg>
      <trkpt lat="46.75408" lon="5.61406">
        <ele>259.2</ele>
        <time>2019-11-21T07:46:24Z</time>
      </trkpt>
      <trkpt lat="46.75412" lon="5.61403">
        <ele>258.4</ele>
        <time>2019-11-21T07:46:38Z</time>
      </trkpt>
      <trkpt lat="46.75412" lon="5.61395">
        <ele>258.1</ele>
        <time>2019-11-21T07:47:01Z</time>
      </trkpt>
      <trkpt lat="46.75411" lon="5.61387">
        <ele>258.4</ele>
        <time>2019-11-21T07:47:10Z</time>
      </trkpt>
      <trkpt lat="46.75409" lon="5.6138">
        <ele>258.5</ele>
        <time>2019-11-21T07:47:17Z</time>
      </trkpt>
      <trkpt lat="46.75408" lon="5.61373">
        <ele>258.5</ele>
        <time>2019-11-21T07:47:20Z</time>
      </trkpt>
      <trkpt lat="46.75403" lon="5.61364">
        <ele>258.6</ele>
        <time>2019-11-21T07:47:32Z</time>
      </trkpt>
      <trkpt lat="46.754" lon="5.61359">
        <ele>258.5</ele>
        <time>2019-11-21T07:47:34Z</time>
      </trkpt>
      <trkpt lat="46.75395" lon="5.61354">
        <ele>258.4</ele>
        <time>2019-11-21T07:47:37Z</time>
      </trkpt>
      <trkpt lat="46.75391" lon="5.61349">
        <ele>258.3</ele>
        <time>2019-11-21T07:47:41Z</time>
      </trkpt>
      <trkpt lat="46.75387" lon="5.61345">
        <ele>258</ele>
        <time>2019-11-21T07:47:46Z</time>
      </trkpt>
      <trkpt lat="46.75383" lon="5.61339">
        <ele>257.9</ele>
        <time>2019-11-21T07:47:52Z</time>
      </trkpt>
      <trkpt lat="46.75379" lon="5.61334">
        <ele>257.7</ele>
        <time>2019-11-21T07:47:59Z</time>
      </trkpt>
      <trkpt lat="46.75378" lon="5.61327">
        <ele>257.6</ele>
        <time>2019-11-21T07:48:04Z</time>
      </trkpt>
      <trkpt lat="46.75381" lon="5.61321">
        <ele>257.5</ele>
        <time>2019-11-21T07:48:07Z</time>
      </trkpt>
      <trkpt lat="46.75385" lon="5.61316">
        <ele>257.4</ele>
        <time>2019-11-21T07:48:10Z</time>
      </trkpt>
      <trkpt lat="46.75388" lon="5.6131">
        <ele>257.1</ele>
        <time>2019-11-21T07:48:14Z</time>
      </trkpt>
      <trkpt lat="46.75391" lon="5.61305">
        <ele>256.6</ele>
        <time>2019-11-21T07:48:20Z</time>
      </trkpt>
      <trkpt lat="46.75393" lon="5.61298">
        <ele>256.3</ele>
        <time>2019-11-21T07:48:24Z</time>
      </trkpt>
      <trkpt lat="46.75396" lon="5.61292">
        <ele>256.1</ele>
        <time>2019-11-21T07:48:28Z</time>
      </trkpt>
      <trkpt lat="46.754" lon="5.61287">
        <ele>256</ele>
        <time>2019-11-21T07:48:32Z</time>
      </trkpt>
      <trkpt lat="46.75404" lon="5.61284">
        <ele>256</ele>
        <time>2019-11-21T07:48:36Z</time>
      </trkpt>
      <trkpt lat="46.75408" lon="5.61278">
        <ele>256.1</ele>
        <time>2019-11-21T07:48:42Z</time>
      </trkpt>
      <trkpt lat="46.75412" lon="5.61273">
        <ele>256.2</ele>
        <time>2019-11-21T07:48:48Z</time>
      </trkpt>
      <trkpt lat="46.75427" lon="5.61255">
        <ele>256.2</ele>
        <time>2019-11-21T07:49:13Z</time>
      </trkpt>
      <trkpt lat="46.75435" lon="5.61247">
        <ele>256.9</ele>
        <time>2019-11-21T07:49:26Z</time>
      </trkpt>
      <trkpt lat="46.7544" lon="5.61243">
        <ele>256.8</ele>
        <time>2019-11-21T07:49:30Z</time>
      </trkpt>
      <trkpt lat="46.75452" lon="5.61232">
        <ele>255.4</ele>
        <time>2019-11-21T07:49:45Z</time>
      </trkpt>
      <trkpt lat="46.75467" lon="5.61219">
        <ele>253.6</ele>
        <time>2019-11-21T07:50:01Z</time>
      </trkpt>
      <trkpt lat="46.75472" lon="5.61215">
        <ele>253.3</ele>
        <time>2019-11-21T07:50:06Z</time>
      </trkpt>
      <trkpt lat="46.75476" lon="5.6121">
        <ele>253</ele>
        <time>2019-11-21T07:50:10Z</time>
      </trkpt>
      <trkpt lat="46.7548" lon="5.61204">
        <ele>252.8</ele>
        <time>2019-11-21T07:50:14Z</time>
      </trkpt>
      <trkpt lat="46.75482" lon="5.61199">
        <ele>252.6</ele>
        <time>2019-11-21T07:50:17Z</time>
      </trkpt>
      <trkpt lat="46.75485" lon="5.61193">
        <ele>252.5</ele>
        <time>2019-11-21T07:50:20Z</time>
      </trkpt>
      <trkpt lat="46.75489" lon="5.61187">
        <ele>252.2</ele>
        <time>2019-11-21T07:50:24Z</time>
      </trkpt>
      <trkpt lat="46.75493" lon="5.61183">
        <ele>252</ele>
        <time>2019-11-21T07:50:29Z</time>
      </trkpt>
      <trkpt lat="46.75497" lon="5.61179">
        <ele>251.8</ele>
        <time>2019-11-21T07:50:35Z</time>
      </trkpt>
      <trkpt lat="46.75502" lon="5.61173">
        <ele>251.7</ele>
        <time>2019-11-21T07:50:39Z</time>
      </trkpt>
      <trkpt lat="46.75506" lon="5.61169">
        <ele>251.7</ele>
        <time>2019-11-21T07:50:43Z</time>
      </trkpt>
      <trkpt lat="46.7551" lon="5.61164">
        <ele>251.6</ele>
        <time>2019-11-21T07:50:48Z</time>
      </trkpt>
      <trkpt lat="46.75509" lon="5.61157">
        <ele>251.6</ele>
        <time>2019-11-21T07:50:52Z</time>
      </trkpt>
      <trkpt lat="46.75507" lon="5.61151">
        <ele>251.6</ele>
        <time>2019-11-21T07:50:56Z</time>
      </trkpt>
      <trkpt lat="46.75503" lon="5.61146">
        <ele>251.7</ele>
        <time>2019-11-21T07:51:01Z</time>
      </trkpt>
      <trkpt lat="46.75499" lon="5.61141">
        <ele>251.6</ele>
        <time>2019-11-21T07:51:06Z</time>
      </trkpt>
      <trkpt lat="46.75496" lon="5.61136">
        <ele>251.4</ele>
        <time>2019-11-21T07:51:11Z</time>
      </trkpt>
      <trkpt lat="46.75493" lon="5.61131">
        <ele>251.3</ele>
        <time>2019-11-21T07:51:15Z</time>
      </trkpt>
      <trkpt lat="46.7549" lon="5.61126">
        <ele>251.2</ele>
        <time>2019-11-21T07:51:20Z</time>
      </trkpt>
      <trkpt lat="46.75486" lon="5.6112">
        <ele>251</ele>
        <time>2019-11-21T07:51:25Z</time>
      </trkpt>
      <trkpt lat="46.75482" lon="5.61115">
        <ele>250.8</ele>
        <time>2019-11-21T07:51:32Z</time>
      </trkpt>
      <trkpt lat="46.75479" lon="5.6111">
        <ele>250.8</ele>
        <time>2019-11-21T07:51:36Z</time>
      </trkpt>
      <trkpt lat="46.75476" lon="5.61104">
        <ele>250.9</ele>
        <time>2019-11-21T07:51:40Z</time>
      </trkpt>
      <trkpt lat="46.75472" lon="5.61099">
        <ele>251</ele>
        <time>2019-11-21T07:51:44Z</time>
      </trkpt>
      <trkpt lat="46.75468" lon="5.61094">
        <ele>250.9</ele>
        <time>2019-11-21T07:51:49Z</time>
      </trkpt>
      <trkpt lat="46.75464" lon="5.61089">
        <ele>250.9</ele>
        <time>2019-11-21T07:51:55Z</time>
      </trkpt>
      <trkpt lat="46.75461" lon="5.61083">
        <ele>251.3</ele>
        <time>2019-11-21T07:52:00Z</time>
      </trkpt>
      <trkpt lat="46.75457" lon="5.61078">
        <ele>251.5</ele>
        <time>2019-11-21T07:52:04Z</time>
      </trkpt>
      <trkpt lat="46.75452" lon="5.61075">
        <ele>251.8</ele>
        <time>2019-11-21T07:52:09Z</time>
      </trkpt>
      <trkpt lat="46.75449" lon="5.61071">
        <ele>252.1</ele>
        <time>2019-11-21T07:52:13Z</time>
      </trkpt>
      <trkpt lat="46.75445" lon="5.61065">
        <ele>252.5</ele>
        <time>2019-11-21T07:52:18Z</time>
      </trkpt>
      <trkpt lat="46.75441" lon="5.6106">
        <ele>252.6</ele>
        <time>2019-11-21T07:52:22Z</time>
      </trkpt>
      <trkpt lat="46.75437" lon="5.61054">
        <ele>252.6</ele>
        <time>2019-11-21T07:52:26Z</time>
      </trkpt>
      <trkpt lat="46.75433" lon="5.6105">
        <ele>252.5</ele>
        <time>2019-11-21T07:52:29Z</time>
      </trkpt>
      <trkpt lat="46.75429" lon="5.61046">
        <ele>252.4</ele>
        <time>2019-11-21T07:52:33Z</time>
      </trkpt>
      <trkpt lat="46.75425" lon="5.61041">
        <ele>252.2</ele>
        <time>2019-11-21T07:52:37Z</time>
      </trkpt>
      <trkpt lat="46.75421" lon="5.61036">
        <ele>252.1</ele>
        <time>2019-11-21T07:52:41Z</time>
      </trkpt>
      <trkpt lat="46.75418" lon="5.61031">
        <ele>252.1</ele>
        <time>2019-11-21T07:52:47Z</time>
      </trkpt>
      <trkpt lat="46.75413" lon="5.61025">
        <ele>252.2</ele>
        <time>2019-11-21T07:52:52Z</time>
      </trkpt>
      <trkpt lat="46.7541" lon="5.61021">
        <ele>252.2</ele>
        <time>2019-11-21T07:52:56Z</time>
      </trkpt>
      <trkpt lat="46.75406" lon="5.61016">
        <ele>252.2</ele>
        <time>2019-11-21T07:53:00Z</time>
      </trkpt>
      <trkpt lat="46.75402" lon="5.61012">
        <ele>252.2</ele>
        <time>2019-11-21T07:53:05Z</time>
      </trkpt>
      <trkpt lat="46.75398" lon="5.61007">
        <ele>252.3</ele>
        <time>2019-11-21T07:53:09Z</time>
      </trkpt>
      <trkpt lat="46.75394" lon="5.61002">
        <ele>252.2</ele>
        <time>2019-11-21T07:53:13Z</time>
      </trkpt>
      <trkpt lat="46.75391" lon="5.60997">
        <ele>252.1</ele>
        <time>2019-11-21T07:53:17Z</time>
      </trkpt>
      <trkpt lat="46.75387" lon="5.60992">
        <ele>252</ele>
        <time>2019-11-21T07:53:22Z</time>
      </trkpt>
      <trkpt lat="46.75383" lon="5.60988">
        <ele>252.1</ele>
        <time>2019-11-21T07:53:27Z</time>
      </trkpt>
      <trkpt lat="46.75383" lon="5.60981">
        <ele>252.2</ele>
        <time>2019-11-21T07:53:34Z</time>
      </trkpt>
      <trkpt lat="46.75382" lon="5.60974">
        <ele>252.2</ele>
        <time>2019-11-21T07:53:38Z</time>
      </trkpt>
      <trkpt lat="46.7538" lon="5.60969">
        <ele>252.5</ele>
        <time>2019-11-21T07:53:43Z</time>
      </trkpt>
      <trkpt lat="46.75376" lon="5.60965">
        <ele>252.9</ele>
        <time>2019-11-21T07:53:49Z</time>
      </trkpt>
      <trkpt lat="46.75372" lon="5.6096">
        <ele>253.2</ele>
        <time>2019-11-21T07:53:55Z</time>
      </trkpt>
      <trkpt lat="46.75369" lon="5.60955">
        <ele>253.3</ele>
        <time>2019-11-21T07:53:59Z</time>
      </trkpt>
      <trkpt lat="46.75366" lon="5.60948">
        <ele>253.4</ele>
        <time>2019-11-21T07:54:03Z</time>
      </trkpt>
      <trkpt lat="46.75365" lon="5.60941">
        <ele>253.4</ele>
        <time>2019-11-21T07:54:07Z</time>
      </trkpt>
      <trkpt lat="46.75366" lon="5.60933">
        <ele>253.3</ele>
        <time>2019-11-21T07:54:12Z</time>
      </trkpt>
      <trkpt lat="46.75366" lon="5.60926">
        <ele>253.2</ele>
        <time>2019-11-21T07:54:17Z</time>
      </trkpt>
      <trkpt lat="46.75369" lon="5.60921">
        <ele>253.1</ele>
        <time>2019-11-21T07:54:21Z</time>
      </trkpt>
      <trkpt lat="46.75373" lon="5.60915">
        <ele>253</ele>
        <time>2019-11-21T07:54:25Z</time>
      </trkpt>
      <trkpt lat="46.75377" lon="5.60909">
        <ele>252.7</ele>
        <time>2019-11-21T07:54:31Z</time>
      </trkpt>
      <trkpt lat="46.7538" lon="5.60904">
        <ele>252.5</ele>
        <time>2019-11-21T07:54:34Z</time>
      </trkpt>
      <trkpt lat="46.75383" lon="5.60897">
        <ele>252.5</ele>
        <time>2019-11-21T07:54:39Z</time>
      </trkpt>
      <trkpt lat="46.75386" lon="5.6089">
        <ele>252.7</ele>
        <time>2019-11-21T07:54:43Z</time>
      </trkpt>
      <trkpt lat="46.75388" lon="5.60884">
        <ele>252.9</ele>
        <time>2019-11-21T07:54:48Z</time>
      </trkpt>
      <trkpt lat="46.75389" lon="5.60877">
        <ele>253.2</ele>
        <time>2019-11-21T07:54:53Z</time>
      </trkpt>
      <trkpt lat="46.75391" lon="5.60871">
        <ele>253.6</ele>
        <time>2019-11-21T07:54:57Z</time>
      </trkpt>
      <trkpt lat="46.75393" lon="5.60865">
        <ele>254</ele>
        <time>2019-11-21T07:55:01Z</time>
      </trkpt>
      <trkpt lat="46.75395" lon="5.60858">
        <ele>254.4</ele>
        <time>2019-11-21T07:55:05Z</time>
      </trkpt>
      <trkpt lat="46.75398" lon="5.60852">
        <ele>254.8</ele>
        <time>2019-11-21T07:55:09Z</time>
      </trkpt>
      <trkpt lat="46.75402" lon="5.60847">
        <ele>255.3</ele>
        <time>2019-11-21T07:55:14Z</time>
      </trkpt>
      <trkpt lat="46.75405" lon="5.60841">
        <ele>255.7</ele>
        <time>2019-11-21T07:55:18Z</time>
      </trkpt>
      <trkpt lat="46.75407" lon="5.60835">
        <ele>256</ele>
        <time>2019-11-21T07:55:22Z</time>
      </trkpt>
      <trkpt lat="46.75409" lon="5.60828">
        <ele>256.3</ele>
        <time>2019-11-21T07:55:26Z</time>
      </trkpt>
      <trkpt lat="46.7541" lon="5.6082">
        <ele>256.7</ele>
        <time>2019-11-21T07:55:31Z</time>
      </trkpt>
      <trkpt lat="46.7541" lon="5.60813">
        <ele>257</ele>
        <time>2019-11-21T07:55:37Z</time>
      </trkpt>
      <trkpt lat="46.75411" lon="5.60806">
        <ele>257</ele>
        <time>2019-11-21T07:55:43Z</time>
      </trkpt>
      <trkpt lat="46.75412" lon="5.60798">
        <ele>257</ele>
        <time>2019-11-21T07:55:49Z</time>
      </trkpt>
      <trkpt lat="46.75412" lon="5.60791">
        <ele>257.1</ele>
        <time>2019-11-21T07:55:55Z</time>
      </trkpt>
      <trkpt lat="46.75411" lon="5.60784">
        <ele>257.3</ele>
        <time>2019-11-21T07:55:59Z</time>
      </trkpt>
      <trkpt lat="46.75408" lon="5.60778">
        <ele>257.8</ele>
        <time>2019-11-21T07:56:05Z</time>
      </trkpt>
      <trkpt lat="46.75404" lon="5.60775">
        <ele>258.4</ele>
        <time>2019-11-21T07:56:11Z</time>
      </trkpt>
      <trkpt lat="46.75398" lon="5.60775">
        <ele>258.8</ele>
        <time>2019-11-21T07:56:17Z</time>
      </trkpt>
      <trkpt lat="46.75394" lon="5.60774">
        <ele>259.1</ele>
        <time>2019-11-21T07:56:21Z</time>
      </trkpt>
      <trkpt lat="46.75388" lon="5.60774">
        <ele>259.7</ele>
        <time>2019-11-21T07:56:26Z</time>
      </trkpt>
      <trkpt lat="46.75383" lon="5.60771">
        <ele>260.2</ele>
        <time>2019-11-21T07:56:31Z</time>
      </trkpt>
      <trkpt lat="46.75379" lon="5.60769">
        <ele>260.7</ele>
        <time>2019-11-21T07:56:36Z</time>
      </trkpt>
      <trkpt lat="46.75374" lon="5.60768">
        <ele>261</ele>
        <time>2019-11-21T07:56:41Z</time>
      </trkpt>
      <trkpt lat="46.75369" lon="5.60766">
        <ele>261.2</ele>
        <time>2019-11-21T07:56:45Z</time>
      </trkpt>
      <trkpt lat="46.75364" lon="5.60764">
        <ele>261.4</ele>
        <time>2019-11-21T07:56:49Z</time>
      </trkpt>
      <trkpt lat="46.7536" lon="5.6076">
        <ele>261.6</ele>
        <time>2019-11-21T07:56:53Z</time>
      </trkpt>
      <trkpt lat="46.75356" lon="5.60754">
        <ele>261.9</ele>
        <time>2019-11-21T07:56:57Z</time>
      </trkpt>
      <trkpt lat="46.75352" lon="5.6075">
        <ele>262.3</ele>
        <time>2019-11-21T07:57:02Z</time>
      </trkpt>
      <trkpt lat="46.7535" lon="5.60743">
        <ele>262.7</ele>
        <time>2019-11-21T07:57:07Z</time>
      </trkpt>
      <trkpt lat="46.75348" lon="5.60737">
        <ele>262.9</ele>
        <time>2019-11-21T07:57:11Z</time>
      </trkpt>
      <trkpt lat="46.75346" lon="5.6073">
        <ele>263</ele>
        <time>2019-11-21T07:57:15Z</time>
      </trkpt>
      <trkpt lat="46.75345" lon="5.60724">
        <ele>263.4</ele>
        <time>2019-11-21T07:57:19Z</time>
      </trkpt>
      <trkpt lat="46.75345" lon="5.60717">
        <ele>263.6</ele>
        <time>2019-11-21T07:57:22Z</time>
      </trkpt>
      <trkpt lat="46.75345" lon="5.60708">
        <ele>263.9</ele>
        <time>2019-11-21T07:57:26Z</time>
      </trkpt>
      <trkpt lat="46.75345" lon="5.607">
        <ele>264.1</ele>
        <time>2019-11-21T07:57:30Z</time>
      </trkpt>
      <trkpt lat="46.75345" lon="5.60694">
        <ele>264.4</ele>
        <time>2019-11-21T07:57:34Z</time>
      </trkpt>
      <trkpt lat="46.75344" lon="5.60686">
        <ele>264.7</ele>
        <time>2019-11-21T07:57:38Z</time>
      </trkpt>
      <trkpt lat="46.75343" lon="5.60679">
        <ele>264.9</ele>
        <time>2019-11-21T07:57:42Z</time>
      </trkpt>
      <trkpt lat="46.75343" lon="5.60672">
        <ele>265.1</ele>
        <time>2019-11-21T07:57:46Z</time>
      </trkpt>
      <trkpt lat="46.75342" lon="5.60665">
        <ele>265.4</ele>
        <time>2019-11-21T07:57:50Z</time>
      </trkpt>
      <trkpt lat="46.75342" lon="5.60658">
        <ele>265.7</ele>
        <time>2019-11-21T07:57:54Z</time>
      </trkpt>
      <trkpt lat="46.75342" lon="5.6065">
        <ele>266</ele>
        <time>2019-11-21T07:58:00Z</time>
      </trkpt>
      <trkpt lat="46.75343" lon="5.60643">
        <ele>266.3</ele>
        <time>2019-11-21T07:58:04Z</time>
      </trkpt>
      <trkpt lat="46.75343" lon="5.60636">
        <ele>266.5</ele>
        <time>2019-11-21T07:58:08Z</time>
      </trkpt>
      <trkpt lat="46.75344" lon="5.60629">
        <ele>266.5</ele>
        <time>2019-11-21T07:58:12Z</time>
      </trkpt>
      <trkpt lat="46.75344" lon="5.60621">
        <ele>266.5</ele>
        <time>2019-11-21T07:58:17Z</time>
      </trkpt>
      <trkpt lat="46.75346" lon="5.60614">
        <ele>266.3</ele>
        <time>2019-11-21T07:58:21Z</time>
      </trkpt>
      <trkpt lat="46.75346" lon="5.60608">
        <ele>266.2</ele>
        <time>2019-11-21T07:58:25Z</time>
      </trkpt>
      <trkpt lat="46.75346" lon="5.606">
        <ele>266.1</ele>
        <time>2019-11-21T07:58:29Z</time>
      </trkpt>
      <trkpt lat="46.75346" lon="5.60593">
        <ele>266</ele>
        <time>2019-11-21T07:58:33Z</time>
      </trkpt>
      <trkpt lat="46.75345" lon="5.60586">
        <ele>265.9</ele>
        <time>2019-11-21T07:58:37Z</time>
      </trkpt>
      <trkpt lat="46.75345" lon="5.60578">
        <ele>265.7</ele>
        <time>2019-11-21T07:58:42Z</time>
      </trkpt>
      <trkpt lat="46.75344" lon="5.60571">
        <ele>265.6</ele>
        <time>2019-11-21T07:58:47Z</time>
      </trkpt>
      <trkpt lat="46.75342" lon="5.60563">
        <ele>265.4</ele>
        <time>2019-11-21T07:58:52Z</time>
      </trkpt>
      <trkpt lat="46.75341" lon="5.60556">
        <ele>265.2</ele>
        <time>2019-11-21T07:58:57Z</time>
      </trkpt>
      <trkpt lat="46.7534" lon="5.60549">
        <ele>265.2</ele>
        <time>2019-11-21T07:59:01Z</time>
      </trkpt>
      <trkpt lat="46.75339" lon="5.60541">
        <ele>265.2</ele>
        <time>2019-11-21T07:59:05Z</time>
      </trkpt>
      <trkpt lat="46.75337" lon="5.60534">
        <ele>265.3</ele>
        <time>2019-11-21T07:59:09Z</time>
      </trkpt>
      <trkpt lat="46.75335" lon="5.60527">
        <ele>265.4</ele>
        <time>2019-11-21T07:59:14Z</time>
      </trkpt>
      <trkpt lat="46.75334" lon="5.6052">
        <ele>265.7</ele>
        <time>2019-11-21T07:59:20Z</time>
      </trkpt>
      <trkpt lat="46.75332" lon="5.60513">
        <ele>265.7</ele>
        <time>2019-11-21T07:59:25Z</time>
      </trkpt>
      <trkpt lat="46.75331" lon="5.60506">
        <ele>265.5</ele>
        <time>2019-11-21T07:59:30Z</time>
      </trkpt>
      <trkpt lat="46.75329" lon="5.60499">
        <ele>265.3</ele>
        <time>2019-11-21T07:59:34Z</time>
      </trkpt>
      <trkpt lat="46.75328" lon="5.60492">
        <ele>265.2</ele>
        <time>2019-11-21T07:59:38Z</time>
      </trkpt>
      <trkpt lat="46.75327" lon="5.60484">
        <ele>264.9</ele>
        <time>2019-11-21T07:59:43Z</time>
      </trkpt>
      <trkpt lat="46.75326" lon="5.60477">
        <ele>264.8</ele>
        <time>2019-11-21T07:59:47Z</time>
      </trkpt>
      <trkpt lat="46.75326" lon="5.6047">
        <ele>264.6</ele>
        <time>2019-11-21T07:59:51Z</time>
      </trkpt>
      <trkpt lat="46.75325" lon="5.60464">
        <ele>264.3</ele>
        <time>2019-11-21T07:59:55Z</time>
      </trkpt>
      <trkpt lat="46.75323" lon="5.60457">
        <ele>264.2</ele>
        <time>2019-11-21T07:59:59Z</time>
      </trkpt>
      <trkpt lat="46.75322" lon="5.60451">
        <ele>264.1</ele>
        <time>2019-11-21T08:00:03Z</time>
      </trkpt>
      <trkpt lat="46.7532" lon="5.60443">
        <ele>264.1</ele>
        <time>2019-11-21T08:00:07Z</time>
      </trkpt>
      <trkpt lat="46.75319" lon="5.60437">
        <ele>264.1</ele>
        <time>2019-11-21T08:00:11Z</time>
      </trkpt>
      <trkpt lat="46.75318" lon="5.60429">
        <ele>264.1</ele>
        <time>2019-11-21T08:00:16Z</time>
      </trkpt>
      <trkpt lat="46.75316" lon="5.60422">
        <ele>264.2</ele>
        <time>2019-11-21T08:00:21Z</time>
      </trkpt>
      <trkpt lat="46.75315" lon="5.60415">
        <ele>264.3</ele>
        <time>2019-11-21T08:00:25Z</time>
      </trkpt>
      <trkpt lat="46.75313" lon="5.60409">
        <ele>264.3</ele>
        <time>2019-11-21T08:00:30Z</time>
      </trkpt>
      <trkpt lat="46.75312" lon="5.60401">
        <ele>264.1</ele>
        <time>2019-11-21T08:00:36Z</time>
      </trkpt>
      <trkpt lat="46.75311" lon="5.60394">
        <ele>264</ele>
        <time>2019-11-21T08:00:40Z</time>
      </trkpt>
      <trkpt lat="46.7531" lon="5.60387">
        <ele>263.9</ele>
        <time>2019-11-21T08:00:44Z</time>
      </trkpt>
      <trkpt lat="46.75308" lon="5.6038">
        <ele>263.9</ele>
        <time>2019-11-21T08:00:48Z</time>
      </trkpt>
      <trkpt lat="46.75306" lon="5.60373">
        <ele>263.9</ele>
        <time>2019-11-21T08:00:53Z</time>
      </trkpt>
      <trkpt lat="46.75305" lon="5.60366">
        <ele>263.9</ele>
        <time>2019-11-21T08:00:58Z</time>
      </trkpt>
      <trkpt lat="46.75303" lon="5.60358">
        <ele>263.9</ele>
        <time>2019-11-21T08:01:03Z</time>
      </trkpt>
      <trkpt lat="46.75302" lon="5.60351">
        <ele>263.8</ele>
        <time>2019-11-21T08:01:07Z</time>
      </trkpt>
      <trkpt lat="46.75301" lon="5.60344">
        <ele>263.8</ele>
        <time>2019-11-21T08:01:11Z</time>
      </trkpt>
      <trkpt lat="46.753" lon="5.60337">
        <ele>263.9</ele>
        <time>2019-11-21T08:01:15Z</time>
      </trkpt>
      <trkpt lat="46.75298" lon="5.6033">
        <ele>263.9</ele>
        <time>2019-11-21T08:01:19Z</time>
      </trkpt>
      <trkpt lat="46.75296" lon="5.60323">
        <ele>263.9</ele>
        <time>2019-11-21T08:01:23Z</time>
      </trkpt>
      <trkpt lat="46.75294" lon="5.60316">
        <ele>264</ele>
        <time>2019-11-21T08:01:28Z</time>
      </trkpt>
      <trkpt lat="46.75292" lon="5.60309">
        <ele>264.1</ele>
        <time>2019-11-21T08:01:32Z</time>
      </trkpt>
      <trkpt lat="46.75291" lon="5.60302">
        <ele>264.2</ele>
        <time>2019-11-21T08:01:36Z</time>
      </trkpt>
      <trkpt lat="46.7529" lon="5.60295">
        <ele>264.2</ele>
        <time>2019-11-21T08:01:40Z</time>
      </trkpt>
      <trkpt lat="46.75288" lon="5.60289">
        <ele>264.2</ele>
        <time>2019-11-21T08:01:44Z</time>
      </trkpt>
      <trkpt lat="46.75287" lon="5.60281">
        <ele>264.1</ele>
        <time>2019-11-21T08:01:49Z</time>
      </trkpt>
      <trkpt lat="46.75286" lon="5.60275">
        <ele>264.2</ele>
        <time>2019-11-21T08:01:53Z</time>
      </trkpt>
      <trkpt lat="46.75285" lon="5.60267">
        <ele>264.2</ele>
        <time>2019-11-21T08:01:57Z</time>
      </trkpt>
      <trkpt lat="46.75283" lon="5.6026">
        <ele>264.1</ele>
        <time>2019-11-21T08:02:02Z</time>
      </trkpt>
      <trkpt lat="46.75281" lon="5.60253">
        <ele>264.1</ele>
        <time>2019-11-21T08:02:07Z</time>
      </trkpt>
      <trkpt lat="46.7528" lon="5.60247">
        <ele>264</ele>
        <time>2019-11-21T08:02:11Z</time>
      </trkpt>
      <trkpt lat="46.75278" lon="5.60239">
        <ele>264.1</ele>
        <time>2019-11-21T08:02:16Z</time>
      </trkpt>
      <trkpt lat="46.75277" lon="5.60233">
        <ele>264.2</ele>
        <time>2019-11-21T08:02:19Z</time>
      </trkpt>
      <trkpt lat="46.75276" lon="5.60225">
        <ele>264.3</ele>
        <time>2019-11-21T08:02:23Z</time>
      </trkpt>
      <trkpt lat="46.75274" lon="5.60217">
        <ele>264.3</ele>
        <time>2019-11-21T08:02:28Z</time>
      </trkpt>
      <trkpt lat="46.75272" lon="5.60211">
        <ele>264.4</ele>
        <time>2019-11-21T08:02:34Z</time>
      </trkpt>
      <trkpt lat="46.7527" lon="5.60203">
        <ele>264.6</ele>
        <time>2019-11-21T08:02:39Z</time>
      </trkpt>
      <trkpt lat="46.75268" lon="5.60196">
        <ele>264.8</ele>
        <time>2019-11-21T08:02:43Z</time>
      </trkpt>
      <trkpt lat="46.75267" lon="5.60189">
        <ele>265.1</ele>
        <time>2019-11-21T08:02:48Z</time>
      </trkpt>
      <trkpt lat="46.75265" lon="5.60183">
        <ele>265.3</ele>
        <time>2019-11-21T08:02:52Z</time>
      </trkpt>
      <trkpt lat="46.75263" lon="5.60176">
        <ele>265.4</ele>
        <time>2019-11-21T08:02:56Z</time>
      </trkpt>
      <trkpt lat="46.75262" lon="5.60169">
        <ele>265.4</ele>
        <time>2019-11-21T08:03:01Z</time>
      </trkpt>
      <trkpt lat="46.75261" lon="5.60162">
        <ele>265.5</ele>
        <time>2019-11-21T08:03:06Z</time>
      </trkpt>
      <trkpt lat="46.75259" lon="5.60154">
        <ele>265.6</ele>
        <time>2019-11-21T08:03:11Z</time>
      </trkpt>
      <trkpt lat="46.75257" lon="5.60147">
        <ele>265.7</ele>
        <time>2019-11-21T08:03:15Z</time>
      </trkpt>
      <trkpt lat="46.75255" lon="5.60141">
        <ele>266</ele>
        <time>2019-11-21T08:03:19Z</time>
      </trkpt>
      <trkpt lat="46.75252" lon="5.60135">
        <ele>266.3</ele>
        <time>2019-11-21T08:03:23Z</time>
      </trkpt>
      <trkpt lat="46.75249" lon="5.60128">
        <ele>266.7</ele>
        <time>2019-11-21T08:03:27Z</time>
      </trkpt>
      <trkpt lat="46.75246" lon="5.60122">
        <ele>267.1</ele>
        <time>2019-11-21T08:03:31Z</time>
      </trkpt>
      <trkpt lat="46.75243" lon="5.60116">
        <ele>267.7</ele>
        <time>2019-11-21T08:03:36Z</time>
      </trkpt>
      <trkpt lat="46.7524" lon="5.6011">
        <ele>268</ele>
        <time>2019-11-21T08:03:40Z</time>
      </trkpt>
      <trkpt lat="46.75237" lon="5.60104">
        <ele>268.3</ele>
        <time>2019-11-21T08:03:45Z</time>
      </trkpt>
      <trkpt lat="46.75233" lon="5.60098">
        <ele>268.6</ele>
        <time>2019-11-21T08:03:50Z</time>
      </trkpt>
      <trkpt lat="46.7523" lon="5.60093">
        <ele>269</ele>
        <time>2019-11-21T08:03:55Z</time>
      </trkpt>
      <trkpt lat="46.75227" lon="5.60087">
        <ele>269.3</ele>
        <time>2019-11-21T08:04:01Z</time>
      </trkpt>
      <trkpt lat="46.75223" lon="5.60081">
        <ele>269.5</ele>
        <time>2019-11-21T08:04:06Z</time>
      </trkpt>
      <trkpt lat="46.7522" lon="5.60077">
        <ele>269.5</ele>
        <time>2019-11-21T08:04:10Z</time>
      </trkpt>
      <trkpt lat="46.75217" lon="5.60069">
        <ele>269.7</ele>
        <time>2019-11-21T08:04:14Z</time>
      </trkpt>
      <trkpt lat="46.75215" lon="5.60063">
        <ele>269.9</ele>
        <time>2019-11-21T08:04:18Z</time>
      </trkpt>
      <trkpt lat="46.75212" lon="5.60057">
        <ele>270.2</ele>
        <time>2019-11-21T08:04:23Z</time>
      </trkpt>
      <trkpt lat="46.75209" lon="5.60051">
        <ele>270.2</ele>
        <time>2019-11-21T08:04:27Z</time>
      </trkpt>
      <trkpt lat="46.75207" lon="5.60045">
        <ele>270.5</ele>
        <time>2019-11-21T08:04:46Z</time>
      </trkpt>
      <trkpt lat="46.75205" lon="5.60038">
        <ele>270.6</ele>
        <time>2019-11-21T08:04:51Z</time>
      </trkpt>
      <trkpt lat="46.75204" lon="5.60031">
        <ele>270.7</ele>
        <time>2019-11-21T08:04:56Z</time>
      </trkpt>
      <trkpt lat="46.75202" lon="5.60023">
        <ele>270.6</ele>
        <time>2019-11-21T08:05:00Z</time>
      </trkpt>
      <trkpt lat="46.75201" lon="5.60016">
        <ele>270.6</ele>
        <time>2019-11-21T08:05:04Z</time>
      </trkpt>
      <trkpt lat="46.75199" lon="5.60009">
        <ele>270.7</ele>
        <time>2019-11-21T08:05:09Z</time>
      </trkpt>
      <trkpt lat="46.75197" lon="5.60001">
        <ele>270.9</ele>
        <time>2019-11-21T08:05:14Z</time>
      </trkpt>
      <trkpt lat="46.75196" lon="5.59994">
        <ele>271</ele>
        <time>2019-11-21T08:05:18Z</time>
      </trkpt>
      <trkpt lat="46.75194" lon="5.59987">
        <ele>271</ele>
        <time>2019-11-21T08:05:22Z</time>
      </trkpt>
      <trkpt lat="46.75192" lon="5.59981">
        <ele>271.1</ele>
        <time>2019-11-21T08:05:26Z</time>
      </trkpt>
      <trkpt lat="46.7519" lon="5.59975">
        <ele>271.2</ele>
        <time>2019-11-21T08:05:30Z</time>
      </trkpt>
      <trkpt lat="46.75189" lon="5.59968">
        <ele>271.4</ele>
        <time>2019-11-21T08:05:35Z</time>
      </trkpt>
      <trkpt lat="46.7519" lon="5.59961">
        <ele>271.4</ele>
        <time>2019-11-21T08:05:41Z</time>
      </trkpt>
      <trkpt lat="46.7519" lon="5.59953">
        <ele>271.4</ele>
        <time>2019-11-21T08:05:45Z</time>
      </trkpt>
      <trkpt lat="46.75191" lon="5.59946">
        <ele>271.4</ele>
        <time>2019-11-21T08:05:49Z</time>
      </trkpt>
      <trkpt lat="46.75193" lon="5.59939">
        <ele>271.4</ele>
        <time>2019-11-21T08:05:53Z</time>
      </trkpt>
      <trkpt lat="46.75198" lon="5.59936">
        <ele>271.4</ele>
        <time>2019-11-21T08:05:59Z</time>
      </trkpt>
      <trkpt lat="46.75203" lon="5.59935">
        <ele>271.4</ele>
        <time>2019-11-21T08:06:03Z</time>
      </trkpt>
      <trkpt lat="46.75209" lon="5.59935">
        <ele>271.3</ele>
        <time>2019-11-21T08:06:07Z</time>
      </trkpt>
      <trkpt lat="46.75214" lon="5.59937">
        <ele>271.2</ele>
        <time>2019-11-21T08:06:12Z</time>
      </trkpt>
      <trkpt lat="46.75219" lon="5.5994">
        <ele>270.9</ele>
        <time>2019-11-21T08:06:18Z</time>
      </trkpt>
      <trkpt lat="46.75223" lon="5.59943">
        <ele>270.6</ele>
        <time>2019-11-21T08:06:22Z</time>
      </trkpt>
      <trkpt lat="46.75228" lon="5.59946">
        <ele>270.4</ele>
        <time>2019-11-21T08:06:25Z</time>
      </trkpt>
      <trkpt lat="46.75233" lon="5.59951">
        <ele>270.1</ele>
        <time>2019-11-21T08:06:29Z</time>
      </trkpt>
      <trkpt lat="46.75236" lon="5.59958">
        <ele>269.9</ele>
        <time>2019-11-21T08:06:33Z</time>
      </trkpt>
      <trkpt lat="46.75239" lon="5.59963">
        <ele>269.7</ele>
        <time>2019-11-21T08:06:38Z</time>
      </trkpt>
      <trkpt lat="46.75244" lon="5.59966">
        <ele>269.7</ele>
        <time>2019-11-21T08:06:45Z</time>
      </trkpt>
      <trkpt lat="46.75249" lon="5.5997">
        <ele>269.8</ele>
        <time>2019-11-21T08:06:50Z</time>
      </trkpt>
      <trkpt lat="46.75253" lon="5.59973">
        <ele>269.6</ele>
        <time>2019-11-21T08:06:55Z</time>
      </trkpt>
      <trkpt lat="46.75258" lon="5.59975">
        <ele>269.3</ele>
        <time>2019-11-21T08:07:00Z</time>
      </trkpt>
      <trkpt lat="46.75262" lon="5.59979">
        <ele>269.2</ele>
        <time>2019-11-21T08:07:04Z</time>
      </trkpt>
      <trkpt lat="46.75266" lon="5.5998">
        <ele>269.2</ele>
        <time>2019-11-21T08:07:08Z</time>
      </trkpt>
      <trkpt lat="46.75271" lon="5.59984">
        <ele>269.2</ele>
        <time>2019-11-21T08:07:12Z</time>
      </trkpt>
      <trkpt lat="46.75275" lon="5.59988">
        <ele>269.1</ele>
        <time>2019-11-21T08:07:15Z</time>
      </trkpt>
      <trkpt lat="46.75279" lon="5.59993">
        <ele>268.9</ele>
        <time>2019-11-21T08:07:20Z</time>
      </trkpt>
      <trkpt lat="46.75283" lon="5.59996">
        <ele>268.8</ele>
        <time>2019-11-21T08:07:25Z</time>
      </trkpt>
      <trkpt lat="46.75288" lon="5.6">
        <ele>268.7</ele>
        <time>2019-11-21T08:07:29Z</time>
      </trkpt>
      <trkpt lat="46.75292" lon="5.60004">
        <ele>268.4</ele>
        <time>2019-11-21T08:07:33Z</time>
      </trkpt>
      <trkpt lat="46.75296" lon="5.60008">
        <ele>268.1</ele>
        <time>2019-11-21T08:07:38Z</time>
      </trkpt>
      <trkpt lat="46.75301" lon="5.6001">
        <ele>267.8</ele>
        <time>2019-11-21T08:07:42Z</time>
      </trkpt>
      <trkpt lat="46.75306" lon="5.60012">
        <ele>267.7</ele>
        <time>2019-11-21T08:07:47Z</time>
      </trkpt>
      <trkpt lat="46.75311" lon="5.60014">
        <ele>267.5</ele>
        <time>2019-11-21T08:07:52Z</time>
      </trkpt>
      <trkpt lat="46.75316" lon="5.60018">
        <ele>267.4</ele>
        <time>2019-11-21T08:07:57Z</time>
      </trkpt>
      <trkpt lat="46.7532" lon="5.60021">
        <ele>267.2</ele>
        <time>2019-11-21T08:08:03Z</time>
      </trkpt>
      <trkpt lat="46.75325" lon="5.60023">
        <ele>266.6</ele>
        <time>2019-11-21T08:08:10Z</time>
      </trkpt>
      <trkpt lat="46.7533" lon="5.60024">
        <ele>266.4</ele>
        <time>2019-11-21T08:08:13Z</time>
      </trkpt>
      <trkpt lat="46.75334" lon="5.60025">
        <ele>266.2</ele>
        <time>2019-11-21T08:08:16Z</time>
      </trkpt>
      <trkpt lat="46.75339" lon="5.60026">
        <ele>266</ele>
        <time>2019-11-21T08:08:20Z</time>
      </trkpt>
      <trkpt lat="46.75344" lon="5.60027">
        <ele>266.1</ele>
        <time>2019-11-21T08:08:24Z</time>
      </trkpt>
      <trkpt lat="46.75349" lon="5.60024">
        <ele>266</ele>
        <time>2019-11-21T08:08:29Z</time>
      </trkpt>
      <trkpt lat="46.75354" lon="5.6002">
        <ele>265.9</ele>
        <time>2019-11-21T08:08:33Z</time>
      </trkpt>
      <trkpt lat="46.75358" lon="5.60016">
        <ele>265.7</ele>
        <time>2019-11-21T08:08:37Z</time>
      </trkpt>
      <trkpt lat="46.75361" lon="5.60011">
        <ele>265.5</ele>
        <time>2019-11-21T08:08:41Z</time>
      </trkpt>
      <trkpt lat="46.75365" lon="5.60006">
        <ele>265.2</ele>
        <time>2019-11-21T08:08:45Z</time>
      </trkpt>
      <trkpt lat="46.75368" lon="5.6">
        <ele>264.4</ele>
        <time>2019-11-21T08:08:51Z</time>
      </trkpt>
      <trkpt lat="46.7537" lon="5.59992">
        <ele>263.8</ele>
        <time>2019-11-21T08:08:55Z</time>
      </trkpt>
      <trkpt lat="46.75372" lon="5.59985">
        <ele>263.2</ele>
        <time>2019-11-21T08:08:59Z</time>
      </trkpt>
      <trkpt lat="46.75373" lon="5.59977">
        <ele>262.6</ele>
        <time>2019-11-21T08:09:04Z</time>
      </trkpt>
      <trkpt lat="46.75372" lon="5.5997">
        <ele>262.3</ele>
        <time>2019-11-21T08:09:08Z</time>
      </trkpt>
      <trkpt lat="46.75372" lon="5.59962">
        <ele>262.1</ele>
        <time>2019-11-21T08:09:13Z</time>
      </trkpt>
      <trkpt lat="46.75371" lon="5.59956">
        <ele>261.8</ele>
        <time>2019-11-21T08:09:18Z</time>
      </trkpt>
      <trkpt lat="46.75372" lon="5.59948">
        <ele>261.7</ele>
        <time>2019-11-21T08:09:23Z</time>
      </trkpt>
      <trkpt lat="46.75372" lon="5.5994">
        <ele>261.6</ele>
        <time>2019-11-21T08:09:27Z</time>
      </trkpt>
      <trkpt lat="46.75373" lon="5.59933">
        <ele>261.5</ele>
        <time>2019-11-21T08:09:30Z</time>
      </trkpt>
      <trkpt lat="46.75373" lon="5.59926">
        <ele>261.6</ele>
        <time>2019-11-21T08:09:33Z</time>
      </trkpt>
      <trkpt lat="46.75375" lon="5.59919">
        <ele>261.9</ele>
        <time>2019-11-21T08:09:38Z</time>
      </trkpt>
      <trkpt lat="46.75375" lon="5.59912">
        <ele>262.3</ele>
        <time>2019-11-21T08:09:43Z</time>
      </trkpt>
      <trkpt lat="46.75378" lon="5.59906">
        <ele>262.5</ele>
        <time>2019-11-21T08:09:48Z</time>
      </trkpt>
      <trkpt lat="46.75381" lon="5.599">
        <ele>262.5</ele>
        <time>2019-11-21T08:09:51Z</time>
      </trkpt>
      <trkpt lat="46.75385" lon="5.59894">
        <ele>262.4</ele>
        <time>2019-11-21T08:09:55Z</time>
      </trkpt>
      <trkpt lat="46.75386" lon="5.59888">
        <ele>262.4</ele>
        <time>2019-11-21T08:09:58Z</time>
      </trkpt>
      <trkpt lat="46.75389" lon="5.59881">
        <ele>262.3</ele>
        <time>2019-11-21T08:10:03Z</time>
      </trkpt>
      <trkpt lat="46.75393" lon="5.59876">
        <ele>262.3</ele>
        <time>2019-11-21T08:10:08Z</time>
      </trkpt>
      <trkpt lat="46.75395" lon="5.59869">
        <ele>262.3</ele>
        <time>2019-11-21T08:10:11Z</time>
      </trkpt>
      <trkpt lat="46.75397" lon="5.59863">
        <ele>262.4</ele>
        <time>2019-11-21T08:10:15Z</time>
      </trkpt>
      <trkpt lat="46.754" lon="5.59857">
        <ele>262.4</ele>
        <time>2019-11-21T08:10:18Z</time>
      </trkpt>
      <trkpt lat="46.75402" lon="5.59851">
        <ele>262.4</ele>
        <time>2019-11-21T08:10:21Z</time>
      </trkpt>
      <trkpt lat="46.75403" lon="5.59844">
        <ele>262.5</ele>
        <time>2019-11-21T08:10:28Z</time>
      </trkpt>
      <trkpt lat="46.75405" lon="5.59838">
        <ele>262.5</ele>
        <time>2019-11-21T08:10:31Z</time>
      </trkpt>
      <trkpt lat="46.75407" lon="5.5983">
        <ele>262.6</ele>
        <time>2019-11-21T08:10:34Z</time>
      </trkpt>
      <trkpt lat="46.7541" lon="5.59824">
        <ele>262.5</ele>
        <time>2019-11-21T08:10:38Z</time>
      </trkpt>
      <trkpt lat="46.75415" lon="5.59827">
        <ele>262.4</ele>
        <time>2019-11-21T08:10:41Z</time>
      </trkpt>
      <trkpt lat="46.75418" lon="5.59833">
        <ele>262.1</ele>
        <time>2019-11-21T08:10:44Z</time>
      </trkpt>
      <trkpt lat="46.75421" lon="5.5983">
        <ele>260.5</ele>
        <time>2019-11-21T08:11:24Z</time>
      </trkpt>
      <trkpt lat="46.75422" lon="5.59823">
        <ele>260</ele>
        <time>2019-11-21T08:11:30Z</time>
      </trkpt>
      <trkpt lat="46.75434" lon="5.59807">
        <ele>257.8</ele>
        <time>2019-11-21T08:12:07Z</time>
      </trkpt>
      <trkpt lat="46.75437" lon="5.59801">
        <ele>257.4</ele>
        <time>2019-11-21T08:12:11Z</time>
      </trkpt>
      <trkpt lat="46.75438" lon="5.59793">
        <ele>257.1</ele>
        <time>2019-11-21T08:12:15Z</time>
      </trkpt>
      <trkpt lat="46.7544" lon="5.59771">
        <ele>255</ele>
        <time>2019-11-21T08:12:26Z</time>
      </trkpt>
      <trkpt lat="46.75442" lon="5.59763">
        <ele>254.2</ele>
        <time>2019-11-21T08:12:30Z</time>
      </trkpt>
      <trkpt lat="46.75443" lon="5.59756">
        <ele>253</ele>
        <time>2019-11-21T08:12:34Z</time>
      </trkpt>
      <trkpt lat="46.75444" lon="5.59748">
        <ele>251.4</ele>
        <time>2019-11-21T08:12:39Z</time>
      </trkpt>
      <trkpt lat="46.75446" lon="5.59741">
        <ele>250.3</ele>
        <time>2019-11-21T08:12:43Z</time>
      </trkpt>
      <trkpt lat="46.75449" lon="5.59734">
        <ele>249.7</ele>
        <time>2019-11-21T08:12:46Z</time>
      </trkpt>
      <trkpt lat="46.75453" lon="5.59728">
        <ele>249.4</ele>
        <time>2019-11-21T08:12:49Z</time>
      </trkpt>
      <trkpt lat="46.75456" lon="5.59723">
        <ele>249.3</ele>
        <time>2019-11-21T08:12:52Z</time>
      </trkpt>
      <trkpt lat="46.7546" lon="5.59719">
        <ele>249.4</ele>
        <time>2019-11-21T08:12:55Z</time>
      </trkpt>
      <trkpt lat="46.75464" lon="5.59715">
        <ele>249.6</ele>
        <time>2019-11-21T08:12:58Z</time>
      </trkpt>
      <trkpt lat="46.75474" lon="5.59704">
        <ele>251.5</ele>
        <time>2019-11-21T08:13:09Z</time>
      </trkpt>
      <trkpt lat="46.75485" lon="5.59687">
        <ele>252</ele>
        <time>2019-11-21T08:13:21Z</time>
      </trkpt>
      <trkpt lat="46.75489" lon="5.59682">
        <ele>252.4</ele>
        <time>2019-11-21T08:13:25Z</time>
      </trkpt>
      <trkpt lat="46.75492" lon="5.59677">
        <ele>252.8</ele>
        <time>2019-11-21T08:13:29Z</time>
      </trkpt>
      <trkpt lat="46.75496" lon="5.59671">
        <ele>253.1</ele>
        <time>2019-11-21T08:13:34Z</time>
      </trkpt>
      <trkpt lat="46.75498" lon="5.59664">
        <ele>253.3</ele>
        <time>2019-11-21T08:13:38Z</time>
      </trkpt>
      <trkpt lat="46.75502" lon="5.59659">
        <ele>253.6</ele>
        <time>2019-11-21T08:13:42Z</time>
      </trkpt>
      <trkpt lat="46.75505" lon="5.59654">
        <ele>253.8</ele>
        <time>2019-11-21T08:13:46Z</time>
      </trkpt>
      <trkpt lat="46.75507" lon="5.59647">
        <ele>254.1</ele>
        <time>2019-11-21T08:13:49Z</time>
      </trkpt>
      <trkpt lat="46.75506" lon="5.5964">
        <ele>254.5</ele>
        <time>2019-11-21T08:13:53Z</time>
      </trkpt>
      <trkpt lat="46.75511" lon="5.59624">
        <ele>254.6</ele>
        <time>2019-11-21T08:14:03Z</time>
      </trkpt>
      <trkpt lat="46.75517" lon="5.59609">
        <ele>254.4</ele>
        <time>2019-11-21T08:14:12Z</time>
      </trkpt>
      <trkpt lat="46.7552" lon="5.59603">
        <ele>254.5</ele>
        <time>2019-11-21T08:14:16Z</time>
      </trkpt>
      <trkpt lat="46.75524" lon="5.59598">
        <ele>254.6</ele>
        <time>2019-11-21T08:14:21Z</time>
      </trkpt>
      <trkpt lat="46.75526" lon="5.59592">
        <ele>254.6</ele>
        <time>2019-11-21T08:14:26Z</time>
      </trkpt>
      <trkpt lat="46.75528" lon="5.59585">
        <ele>254.6</ele>
        <time>2019-11-21T08:14:30Z</time>
      </trkpt>
      <trkpt lat="46.75527" lon="5.59577">
        <ele>254.6</ele>
        <time>2019-11-21T08:14:33Z</time>
      </trkpt>
      <trkpt lat="46.75526" lon="5.5957">
        <ele>254.7</ele>
        <time>2019-11-21T08:14:36Z</time>
      </trkpt>
      <trkpt lat="46.75525" lon="5.59563">
        <ele>254.8</ele>
        <time>2019-11-21T08:14:39Z</time>
      </trkpt>
      <trkpt lat="46.75526" lon="5.59556">
        <ele>254.9</ele>
        <time>2019-11-21T08:14:43Z</time>
      </trkpt>
      <trkpt lat="46.75525" lon="5.59549">
        <ele>255.1</ele>
        <time>2019-11-21T08:14:46Z</time>
      </trkpt>
      <trkpt lat="46.75524" lon="5.59542">
        <ele>255.2</ele>
        <time>2019-11-21T08:14:49Z</time>
      </trkpt>
      <trkpt lat="46.75524" lon="5.59535">
        <ele>255.4</ele>
        <time>2019-11-21T08:14:52Z</time>
      </trkpt>
      <trkpt lat="46.75523" lon="5.59528">
        <ele>255.7</ele>
        <time>2019-11-21T08:14:56Z</time>
      </trkpt>
      <trkpt lat="46.75523" lon="5.59521">
        <ele>256</ele>
        <time>2019-11-21T08:15:00Z</time>
      </trkpt>
      <trkpt lat="46.75522" lon="5.59514">
        <ele>256.3</ele>
        <time>2019-11-21T08:15:09Z</time>
      </trkpt>
      <trkpt lat="46.7552" lon="5.59506">
        <ele>256.3</ele>
        <time>2019-11-21T08:15:15Z</time>
      </trkpt>
      <trkpt lat="46.7552" lon="5.59498">
        <ele>256.2</ele>
        <time>2019-11-21T08:15:19Z</time>
      </trkpt>
      <trkpt lat="46.75519" lon="5.59491">
        <ele>256.1</ele>
        <time>2019-11-21T08:15:22Z</time>
      </trkpt>
      <trkpt lat="46.75519" lon="5.59484">
        <ele>256</ele>
        <time>2019-11-21T08:15:25Z</time>
      </trkpt>
      <trkpt lat="46.75519" lon="5.59475">
        <ele>255.9</ele>
        <time>2019-11-21T08:15:29Z</time>
      </trkpt>
      <trkpt lat="46.75519" lon="5.59469">
        <ele>255.8</ele>
        <time>2019-11-21T08:15:33Z</time>
      </trkpt>
      <trkpt lat="46.75519" lon="5.59462">
        <ele>255.8</ele>
        <time>2019-11-21T08:15:37Z</time>
      </trkpt>
      <trkpt lat="46.75521" lon="5.59456">
        <ele>255.8</ele>
        <time>2019-11-21T08:15:42Z</time>
      </trkpt>
      <trkpt lat="46.75523" lon="5.59448">
        <ele>255.8</ele>
        <time>2019-11-21T08:15:47Z</time>
      </trkpt>
      <trkpt lat="46.75524" lon="5.59441">
        <ele>256</ele>
        <time>2019-11-21T08:15:51Z</time>
      </trkpt>
      <trkpt lat="46.75524" lon="5.59435">
        <ele>256.2</ele>
        <time>2019-11-21T08:15:55Z</time>
      </trkpt>
      <trkpt lat="46.75524" lon="5.59427">
        <ele>256.3</ele>
        <time>2019-11-21T08:15:59Z</time>
      </trkpt>
      <trkpt lat="46.75524" lon="5.59419">
        <ele>256.5</ele>
        <time>2019-11-21T08:16:02Z</time>
      </trkpt>
      <trkpt lat="46.75525" lon="5.59412">
        <ele>256.7</ele>
        <time>2019-11-21T08:16:06Z</time>
      </trkpt>
      <trkpt lat="46.75525" lon="5.59404">
        <ele>257</ele>
        <time>2019-11-21T08:16:11Z</time>
      </trkpt>
      <trkpt lat="46.75528" lon="5.59398">
        <ele>257.5</ele>
        <time>2019-11-21T08:16:18Z</time>
      </trkpt>
      <trkpt lat="46.75531" lon="5.59392">
        <ele>257.6</ele>
        <time>2019-11-21T08:16:21Z</time>
      </trkpt>
      <trkpt lat="46.75533" lon="5.59384">
        <ele>257.7</ele>
        <time>2019-11-21T08:16:24Z</time>
      </trkpt>
      <trkpt lat="46.75534" lon="5.59376">
        <ele>257.8</ele>
        <time>2019-11-21T08:16:27Z</time>
      </trkpt>
      <trkpt lat="46.75536" lon="5.59369">
        <ele>258</ele>
        <time>2019-11-21T08:16:32Z</time>
      </trkpt>
      <trkpt lat="46.75536" lon="5.59361">
        <ele>258.1</ele>
        <time>2019-11-21T08:16:36Z</time>
      </trkpt>
      <trkpt lat="46.75536" lon="5.59354">
        <ele>258.2</ele>
        <time>2019-11-21T08:16:40Z</time>
      </trkpt>
      <trkpt lat="46.75536" lon="5.59346">
        <ele>258.3</ele>
        <time>2019-11-21T08:16:44Z</time>
      </trkpt>
      <trkpt lat="46.75537" lon="5.5934">
        <ele>258.3</ele>
        <time>2019-11-21T08:16:47Z</time>
      </trkpt>
      <trkpt lat="46.75538" lon="5.59331">
        <ele>258.4</ele>
        <time>2019-11-21T08:16:51Z</time>
      </trkpt>
      <trkpt lat="46.7554" lon="5.59323">
        <ele>258.4</ele>
        <time>2019-11-21T08:16:55Z</time>
      </trkpt>
      <trkpt lat="46.75541" lon="5.59315">
        <ele>258.4</ele>
        <time>2019-11-21T08:16:59Z</time>
      </trkpt>
      <trkpt lat="46.75541" lon="5.59306">
        <ele>258.4</ele>
        <time>2019-11-21T08:17:03Z</time>
      </trkpt>
      <trkpt lat="46.75542" lon="5.59298">
        <ele>258.3</ele>
        <time>2019-11-21T08:17:07Z</time>
      </trkpt>
      <trkpt lat="46.75543" lon="5.59291">
        <ele>258.2</ele>
        <time>2019-11-21T08:17:11Z</time>
      </trkpt>
      <trkpt lat="46.75543" lon="5.59283">
        <ele>258.2</ele>
        <time>2019-11-21T08:17:16Z</time>
      </trkpt>
      <trkpt lat="46.75543" lon="5.59276">
        <ele>258.2</ele>
        <time>2019-11-21T08:17:19Z</time>
      </trkpt>
      <trkpt lat="46.75544" lon="5.59269">
        <ele>258.3</ele>
        <time>2019-11-21T08:17:23Z</time>
      </trkpt>
      <trkpt lat="46.75545" lon="5.59262">
        <ele>258.4</ele>
        <time>2019-11-21T08:17:27Z</time>
      </trkpt>
      <trkpt lat="46.75544" lon="5.59255">
        <ele>258.5</ele>
        <time>2019-11-21T08:17:31Z</time>
      </trkpt>
      <trkpt lat="46.75545" lon="5.59247">
        <ele>258.3</ele>
        <time>2019-11-21T08:17:36Z</time>
      </trkpt>
      <trkpt lat="46.75546" lon="5.59239">
        <ele>258.1</ele>
        <time>2019-11-21T08:17:40Z</time>
      </trkpt>
      <trkpt lat="46.75548" lon="5.59232">
        <ele>258.1</ele>
        <time>2019-11-21T08:17:45Z</time>
      </trkpt>
      <trkpt lat="46.75551" lon="5.59226">
        <ele>258.1</ele>
        <time>2019-11-21T08:17:50Z</time>
      </trkpt>
      <trkpt lat="46.75552" lon="5.59219">
        <ele>258.2</ele>
        <time>2019-11-21T08:17:56Z</time>
      </trkpt>
      <trkpt lat="46.75551" lon="5.5921">
        <ele>258.2</ele>
        <time>2019-11-21T08:18:00Z</time>
      </trkpt>
      <trkpt lat="46.75551" lon="5.59203">
        <ele>258.4</ele>
        <time>2019-11-21T08:18:04Z</time>
      </trkpt>
      <trkpt lat="46.75549" lon="5.59195">
        <ele>258.3</ele>
        <time>2019-11-21T08:18:08Z</time>
      </trkpt>
      <trkpt lat="46.75546" lon="5.59188">
        <ele>258.2</ele>
        <time>2019-11-21T08:18:12Z</time>
      </trkpt>
      <trkpt lat="46.75545" lon="5.5918">
        <ele>258</ele>
        <time>2019-11-21T08:18:16Z</time>
      </trkpt>
      <trkpt lat="46.75545" lon="5.59173">
        <ele>257.6</ele>
        <time>2019-11-21T08:18:20Z</time>
      </trkpt>
      <trkpt lat="46.75544" lon="5.59166">
        <ele>257.2</ele>
        <time>2019-11-21T08:18:25Z</time>
      </trkpt>
      <trkpt lat="46.75544" lon="5.59158">
        <ele>257</ele>
        <time>2019-11-21T08:18:30Z</time>
      </trkpt>
      <trkpt lat="46.75546" lon="5.59151">
        <ele>257.1</ele>
        <time>2019-11-21T08:18:34Z</time>
      </trkpt>
      <trkpt lat="46.75548" lon="5.59144">
        <ele>257.4</ele>
        <time>2019-11-21T08:18:38Z</time>
      </trkpt>
      <trkpt lat="46.7555" lon="5.59136">
        <ele>257.7</ele>
        <time>2019-11-21T08:18:42Z</time>
      </trkpt>
      <trkpt lat="46.75552" lon="5.59131">
        <ele>258.1</ele>
        <time>2019-11-21T08:18:47Z</time>
      </trkpt>
      <trkpt lat="46.75554" lon="5.59123">
        <ele>258.8</ele>
        <time>2019-11-21T08:18:53Z</time>
      </trkpt>
      <trkpt lat="46.75557" lon="5.59116">
        <ele>259.1</ele>
        <time>2019-11-21T08:18:57Z</time>
      </trkpt>
      <trkpt lat="46.75558" lon="5.59108">
        <ele>259.5</ele>
        <time>2019-11-21T08:19:01Z</time>
      </trkpt>
      <trkpt lat="46.75561" lon="5.59103">
        <ele>260</ele>
        <time>2019-11-21T08:19:06Z</time>
      </trkpt>
      <trkpt lat="46.75565" lon="5.59099">
        <ele>260.5</ele>
        <time>2019-11-21T08:19:09Z</time>
      </trkpt>
      <trkpt lat="46.75568" lon="5.59092">
        <ele>261.2</ele>
        <time>2019-11-21T08:19:14Z</time>
      </trkpt>
      <trkpt lat="46.7557" lon="5.59084">
        <ele>261.6</ele>
        <time>2019-11-21T08:19:19Z</time>
      </trkpt>
      <trkpt lat="46.7557" lon="5.59077">
        <ele>261.8</ele>
        <time>2019-11-21T08:19:22Z</time>
      </trkpt>
      <trkpt lat="46.75571" lon="5.59059">
        <ele>262.1</ele>
        <time>2019-11-21T08:19:34Z</time>
      </trkpt>
      <trkpt lat="46.75569" lon="5.59051">
        <ele>262.1</ele>
        <time>2019-11-21T08:19:38Z</time>
      </trkpt>
      <trkpt lat="46.75567" lon="5.59046">
        <ele>262.2</ele>
        <time>2019-11-21T08:19:44Z</time>
      </trkpt>
      <trkpt lat="46.75563" lon="5.59041">
        <ele>262.5</ele>
        <time>2019-11-21T08:19:48Z</time>
      </trkpt>
      <trkpt lat="46.7556" lon="5.59036">
        <ele>262.6</ele>
        <time>2019-11-21T08:19:52Z</time>
      </trkpt>
      <trkpt lat="46.75556" lon="5.59032">
        <ele>262.6</ele>
        <time>2019-11-21T08:19:57Z</time>
      </trkpt>
      <trkpt lat="46.75552" lon="5.59029">
        <ele>262.6</ele>
        <time>2019-11-21T08:20:03Z</time>
      </trkpt>
      <trkpt lat="46.75547" lon="5.59028">
        <ele>262.5</ele>
        <time>2019-11-21T08:20:06Z</time>
      </trkpt>
      <trkpt lat="46.75541" lon="5.59024">
        <ele>262.5</ele>
        <time>2019-11-21T08:20:09Z</time>
      </trkpt>
      <trkpt lat="46.75537" lon="5.5902">
        <ele>262.7</ele>
        <time>2019-11-21T08:20:12Z</time>
      </trkpt>
      <trkpt lat="46.75532" lon="5.59016">
        <ele>262.8</ele>
        <time>2019-11-21T08:20:17Z</time>
      </trkpt>
      <trkpt lat="46.75527" lon="5.59014">
        <ele>262.8</ele>
        <time>2019-11-21T08:20:22Z</time>
      </trkpt>
      <trkpt lat="46.75522" lon="5.59012">
        <ele>262.7</ele>
        <time>2019-11-21T08:20:27Z</time>
      </trkpt>
      <trkpt lat="46.75517" lon="5.59013">
        <ele>262.6</ele>
        <time>2019-11-21T08:20:35Z</time>
      </trkpt>
      <trkpt lat="46.75512" lon="5.59015">
        <ele>262.5</ele>
        <time>2019-11-21T08:20:39Z</time>
      </trkpt>
      <trkpt lat="46.75506" lon="5.59015">
        <ele>262.2</ele>
        <time>2019-11-21T08:20:43Z</time>
      </trkpt>
      <trkpt lat="46.75501" lon="5.59016">
        <ele>262</ele>
        <time>2019-11-21T08:20:47Z</time>
      </trkpt>
      <trkpt lat="46.75496" lon="5.59016">
        <ele>262</ele>
        <time>2019-11-21T08:20:51Z</time>
      </trkpt>
      <trkpt lat="46.75491" lon="5.59019">
        <ele>262</ele>
        <time>2019-11-21T08:20:55Z</time>
      </trkpt>
      <trkpt lat="46.75486" lon="5.5902">
        <ele>262</ele>
        <time>2019-11-21T08:20:58Z</time>
      </trkpt>
      <trkpt lat="46.7548" lon="5.5902">
        <ele>262</ele>
        <time>2019-11-21T08:21:01Z</time>
      </trkpt>
      <trkpt lat="46.75475" lon="5.59019">
        <ele>261.8</ele>
        <time>2019-11-21T08:21:05Z</time>
      </trkpt>
      <trkpt lat="46.75469" lon="5.59018">
        <ele>261.8</ele>
        <time>2019-11-21T08:21:10Z</time>
      </trkpt>
      <trkpt lat="46.75465" lon="5.59015">
        <ele>262.2</ele>
        <time>2019-11-21T08:21:16Z</time>
      </trkpt>
      <trkpt lat="46.7546" lon="5.59013">
        <ele>262.3</ele>
        <time>2019-11-21T08:21:20Z</time>
      </trkpt>
      <trkpt lat="46.75454" lon="5.59012">
        <ele>262.3</ele>
        <time>2019-11-21T08:21:24Z</time>
      </trkpt>
      <trkpt lat="46.7545" lon="5.59011">
        <ele>262.3</ele>
        <time>2019-11-21T08:21:28Z</time>
      </trkpt>
      <trkpt lat="46.75445" lon="5.59011">
        <ele>262.3</ele>
        <time>2019-11-21T08:21:33Z</time>
      </trkpt>
      <trkpt lat="46.7544" lon="5.59012">
        <ele>262.3</ele>
        <time>2019-11-21T08:21:42Z</time>
      </trkpt>
      <trkpt lat="46.75435" lon="5.59012">
        <ele>262.9</ele>
        <time>2019-11-21T08:21:50Z</time>
      </trkpt>
      <trkpt lat="46.7543" lon="5.59015">
        <ele>263.5</ele>
        <time>2019-11-21T08:21:55Z</time>
      </trkpt>
      <trkpt lat="46.75425" lon="5.59015">
        <ele>263.6</ele>
        <time>2019-11-21T08:21:58Z</time>
      </trkpt>
      <trkpt lat="46.7542" lon="5.59017">
        <ele>263.7</ele>
        <time>2019-11-21T08:22:00Z</time>
      </trkpt>
      <trkpt lat="46.75415" lon="5.59018">
        <ele>264</ele>
        <time>2019-11-21T08:22:04Z</time>
      </trkpt>
      <trkpt lat="46.7541" lon="5.5902">
        <ele>264.2</ele>
        <time>2019-11-21T08:22:09Z</time>
      </trkpt>
      <trkpt lat="46.75399" lon="5.59022">
        <ele>265.3</ele>
        <time>2019-11-21T08:22:20Z</time>
      </trkpt>
      <trkpt lat="46.75384" lon="5.59028">
        <ele>267.2</ele>
        <time>2019-11-21T08:22:39Z</time>
      </trkpt>
      <trkpt lat="46.75379" lon="5.5903">
        <ele>267.5</ele>
        <time>2019-11-21T08:22:41Z</time>
      </trkpt>
      <trkpt lat="46.75372" lon="5.59033">
        <ele>268.1</ele>
        <time>2019-11-21T08:22:44Z</time>
      </trkpt>
      <trkpt lat="46.75368" lon="5.59037">
        <ele>268.4</ele>
        <time>2019-11-21T08:22:46Z</time>
      </trkpt>
      <trkpt lat="46.75363" lon="5.59037">
        <ele>269</ele>
        <time>2019-11-21T08:22:50Z</time>
      </trkpt>
      <trkpt lat="46.75358" lon="5.59036">
        <ele>269.5</ele>
        <time>2019-11-21T08:22:53Z</time>
      </trkpt>
      <trkpt lat="46.75353" lon="5.59034">
        <ele>270.2</ele>
        <time>2019-11-21T08:22:59Z</time>
      </trkpt>
      <trkpt lat="46.75348" lon="5.59031">
        <ele>270.8</ele>
        <time>2019-11-21T08:23:03Z</time>
      </trkpt>
      <trkpt lat="46.75344" lon="5.59028">
        <ele>271.4</ele>
        <time>2019-11-21T08:23:08Z</time>
      </trkpt>
      <trkpt lat="46.7534" lon="5.59024">
        <ele>271.6</ele>
        <time>2019-11-21T08:23:11Z</time>
      </trkpt>
      <trkpt lat="46.75332" lon="5.59017">
        <ele>272.3</ele>
        <time>2019-11-21T08:23:22Z</time>
      </trkpt>
      <trkpt lat="46.75328" lon="5.59014">
        <ele>272.6</ele>
        <time>2019-11-21T08:23:25Z</time>
      </trkpt>
      <trkpt lat="46.75322" lon="5.59013">
        <ele>273.1</ele>
        <time>2019-11-21T08:23:31Z</time>
      </trkpt>
      <trkpt lat="46.75317" lon="5.5901">
        <ele>273.4</ele>
        <time>2019-11-21T08:23:35Z</time>
      </trkpt>
      <trkpt lat="46.75304" lon="5.59001">
        <ele>273.3</ele>
        <time>2019-11-21T08:23:44Z</time>
      </trkpt>
      <trkpt lat="46.753" lon="5.58996">
        <ele>273.2</ele>
        <time>2019-11-21T08:23:49Z</time>
      </trkpt>
      <trkpt lat="46.75296" lon="5.58991">
        <ele>273.2</ele>
        <time>2019-11-21T08:23:51Z</time>
      </trkpt>
      <trkpt lat="46.75292" lon="5.58987">
        <ele>273.5</ele>
        <time>2019-11-21T08:23:56Z</time>
      </trkpt>
      <trkpt lat="46.75288" lon="5.58983">
        <ele>273.7</ele>
        <time>2019-11-21T08:23:59Z</time>
      </trkpt>
      <trkpt lat="46.75283" lon="5.58986">
        <ele>274.1</ele>
        <time>2019-11-21T08:24:05Z</time>
      </trkpt>
      <trkpt lat="46.75279" lon="5.58984">
        <ele>274.7</ele>
        <time>2019-11-21T08:24:09Z</time>
      </trkpt>
      <trkpt lat="46.75274" lon="5.58982">
        <ele>275.7</ele>
        <time>2019-11-21T08:24:15Z</time>
      </trkpt>
      <trkpt lat="46.75269" lon="5.58981">
        <ele>276.4</ele>
        <time>2019-11-21T08:24:19Z</time>
      </trkpt>
      <trkpt lat="46.75265" lon="5.58979">
        <ele>277.2</ele>
        <time>2019-11-21T08:24:23Z</time>
      </trkpt>
      <trkpt lat="46.7526" lon="5.58965">
        <ele>279.2</ele>
        <time>2019-11-21T08:24:32Z</time>
      </trkpt>
      <trkpt lat="46.75262" lon="5.58957">
        <ele>279.4</ele>
        <time>2019-11-21T08:24:39Z</time>
      </trkpt>
      <trkpt lat="46.75264" lon="5.5895">
        <ele>279.4</ele>
        <time>2019-11-21T08:24:42Z</time>
      </trkpt>
      <trkpt lat="46.7527" lon="5.58946">
        <ele>279.2</ele>
        <time>2019-11-21T08:24:46Z</time>
      </trkpt>
      <trkpt lat="46.75272" lon="5.58941">
        <ele>278.8</ele>
        <time>2019-11-21T08:24:49Z</time>
      </trkpt>
      <trkpt lat="46.75274" lon="5.58934">
        <ele>278.6</ele>
        <time>2019-11-21T08:24:51Z</time>
      </trkpt>
      <trkpt lat="46.75276" lon="5.58927">
        <ele>278.2</ele>
        <time>2019-11-21T08:24:54Z</time>
      </trkpt>
      <trkpt lat="46.7528" lon="5.58922">
        <ele>277.6</ele>
        <time>2019-11-21T08:24:58Z</time>
      </trkpt>
      <trkpt lat="46.75291" lon="5.58915">
        <ele>276.1</ele>
        <time>2019-11-21T08:25:11Z</time>
      </trkpt>
      <trkpt lat="46.75296" lon="5.58911">
        <ele>276.1</ele>
        <time>2019-11-21T08:25:16Z</time>
      </trkpt>
      <trkpt lat="46.75296" lon="5.58895">
        <ele>276</ele>
        <time>2019-11-21T08:25:33Z</time>
      </trkpt>
      <trkpt lat="46.75295" lon="5.58888">
        <ele>275.9</ele>
        <time>2019-11-21T08:25:37Z</time>
      </trkpt>
      <trkpt lat="46.75295" lon="5.5888">
        <ele>275.8</ele>
        <time>2019-11-21T08:25:43Z</time>
      </trkpt>
      <trkpt lat="46.75295" lon="5.58873">
        <ele>275.6</ele>
        <time>2019-11-21T08:25:48Z</time>
      </trkpt>
      <trkpt lat="46.75294" lon="5.58866">
        <ele>275.5</ele>
        <time>2019-11-21T08:25:52Z</time>
      </trkpt>
      <trkpt lat="46.75293" lon="5.58858">
        <ele>275.2</ele>
        <time>2019-11-21T08:25:56Z</time>
      </trkpt>
      <trkpt lat="46.75291" lon="5.58851">
        <ele>274.9</ele>
        <time>2019-11-21T08:26:00Z</time>
      </trkpt>
      <trkpt lat="46.75291" lon="5.58844">
        <ele>274.8</ele>
        <time>2019-11-21T08:26:03Z</time>
      </trkpt>
      <trkpt lat="46.75289" lon="5.58836">
        <ele>274.8</ele>
        <time>2019-11-21T08:26:09Z</time>
      </trkpt>
      <trkpt lat="46.75287" lon="5.58829">
        <ele>274.6</ele>
        <time>2019-11-21T08:26:13Z</time>
      </trkpt>
      <trkpt lat="46.75284" lon="5.58823">
        <ele>274.5</ele>
        <time>2019-11-21T08:26:17Z</time>
      </trkpt>
      <trkpt lat="46.75283" lon="5.58816">
        <ele>274.3</ele>
        <time>2019-11-21T08:26:21Z</time>
      </trkpt>
      <trkpt lat="46.75283" lon="5.58805">
        <ele>274.2</ele>
        <time>2019-11-21T08:26:33Z</time>
      </trkpt>
      <trkpt lat="46.75289" lon="5.58801">
        <ele>275.3</ele>
        <time>2019-11-21T08:26:51Z</time>
      </trkpt>
      <trkpt lat="46.75293" lon="5.58802">
        <ele>275.1</ele>
        <time>2019-11-21T08:27:00Z</time>
      </trkpt>
      <trkpt lat="46.75298" lon="5.58798">
        <ele>274.9</ele>
        <time>2019-11-21T08:27:03Z</time>
      </trkpt>
      <trkpt lat="46.75302" lon="5.58794">
        <ele>274.3</ele>
        <time>2019-11-21T08:27:09Z</time>
      </trkpt>
      <trkpt lat="46.75307" lon="5.58795">
        <ele>274.1</ele>
        <time>2019-11-21T08:27:13Z</time>
      </trkpt>
      <trkpt lat="46.75312" lon="5.58795">
        <ele>274</ele>
        <time>2019-11-21T08:27:18Z</time>
      </trkpt>
      <trkpt lat="46.75316" lon="5.58796">
        <ele>274.3</ele>
        <time>2019-11-21T08:27:22Z</time>
      </trkpt>
      <trkpt lat="46.75321" lon="5.58799">
        <ele>274.8</ele>
        <time>2019-11-21T08:27:28Z</time>
      </trkpt>
      <trkpt lat="46.75326" lon="5.58802">
        <ele>275.1</ele>
        <time>2019-11-21T08:27:32Z</time>
      </trkpt>
      <trkpt lat="46.7533" lon="5.58805">
        <ele>275.1</ele>
        <time>2019-11-21T08:27:36Z</time>
      </trkpt>
      <trkpt lat="46.7534" lon="5.58808">
        <ele>275.6</ele>
        <time>2019-11-21T08:27:48Z</time>
      </trkpt>
      <trkpt lat="46.75346" lon="5.5881">
        <ele>275.7</ele>
        <time>2019-11-21T08:27:52Z</time>
      </trkpt>
      <trkpt lat="46.75351" lon="5.5881">
        <ele>275.6</ele>
        <time>2019-11-21T08:27:55Z</time>
      </trkpt>
      <trkpt lat="46.75355" lon="5.5881">
        <ele>275.4</ele>
        <time>2019-11-21T08:28:00Z</time>
      </trkpt>
      <trkpt lat="46.7536" lon="5.5881">
        <ele>274.9</ele>
        <time>2019-11-21T08:28:06Z</time>
      </trkpt>
      <trkpt lat="46.75365" lon="5.58813">
        <ele>274.7</ele>
        <time>2019-11-21T08:28:12Z</time>
      </trkpt>
      <trkpt lat="46.7537" lon="5.58814">
        <ele>275.2</ele>
        <time>2019-11-21T08:28:16Z</time>
      </trkpt>
      <trkpt lat="46.75375" lon="5.58816">
        <ele>275.6</ele>
        <time>2019-11-21T08:28:22Z</time>
      </trkpt>
      <trkpt lat="46.7538" lon="5.58817">
        <ele>275.8</ele>
        <time>2019-11-21T08:28:26Z</time>
      </trkpt>
      <trkpt lat="46.75385" lon="5.58818">
        <ele>275.7</ele>
        <time>2019-11-21T08:28:30Z</time>
      </trkpt>
      <trkpt lat="46.7539" lon="5.58818">
        <ele>275.6</ele>
        <time>2019-11-21T08:28:33Z</time>
      </trkpt>
      <trkpt lat="46.75395" lon="5.58818">
        <ele>275.2</ele>
        <time>2019-11-21T08:28:38Z</time>
      </trkpt>
      <trkpt lat="46.75401" lon="5.58816">
        <ele>274.9</ele>
        <time>2019-11-21T08:28:41Z</time>
      </trkpt>
      <trkpt lat="46.75406" lon="5.58814">
        <ele>274.5</ele>
        <time>2019-11-21T08:28:47Z</time>
      </trkpt>
      <trkpt lat="46.75411" lon="5.58814">
        <ele>274.3</ele>
        <time>2019-11-21T08:28:52Z</time>
      </trkpt>
      <trkpt lat="46.75417" lon="5.58813">
        <ele>274.2</ele>
        <time>2019-11-21T08:28:57Z</time>
      </trkpt>
      <trkpt lat="46.75421" lon="5.58814">
        <ele>274</ele>
        <time>2019-11-21T08:29:01Z</time>
      </trkpt>
      <trkpt lat="46.75426" lon="5.58813">
        <ele>273.9</ele>
        <time>2019-11-21T08:29:05Z</time>
      </trkpt>
      <trkpt lat="46.7543" lon="5.58813">
        <ele>274</ele>
        <time>2019-11-21T08:29:09Z</time>
      </trkpt>
      <trkpt lat="46.75448" lon="5.58802">
        <ele>275.2</ele>
        <time>2019-11-21T08:29:26Z</time>
      </trkpt>
      <trkpt lat="46.75453" lon="5.58799">
        <ele>275.5</ele>
        <time>2019-11-21T08:29:33Z</time>
      </trkpt>
      <trkpt lat="46.75458" lon="5.58797">
        <ele>275.8</ele>
        <time>2019-11-21T08:29:39Z</time>
      </trkpt>
      <trkpt lat="46.75462" lon="5.5879">
        <ele>276.1</ele>
        <time>2019-11-21T08:29:43Z</time>
      </trkpt>
      <trkpt lat="46.75466" lon="5.58785">
        <ele>276.6</ele>
        <time>2019-11-21T08:29:47Z</time>
      </trkpt>
      <trkpt lat="46.75471" lon="5.58782">
        <ele>276.9</ele>
        <time>2019-11-21T08:29:51Z</time>
      </trkpt>
      <trkpt lat="46.75475" lon="5.58778">
        <ele>277.3</ele>
        <time>2019-11-21T08:29:56Z</time>
      </trkpt>
      <trkpt lat="46.75484" lon="5.5876">
        <ele>277.6</ele>
        <time>2019-11-21T08:30:06Z</time>
      </trkpt>
      <trkpt lat="46.75486" lon="5.58755">
        <ele>277.6</ele>
        <time>2019-11-21T08:30:09Z</time>
      </trkpt>
      <trkpt lat="46.75489" lon="5.5875">
        <ele>277.6</ele>
        <time>2019-11-21T08:30:13Z</time>
      </trkpt>
      <trkpt lat="46.75494" lon="5.58749">
        <ele>277.8</ele>
        <time>2019-11-21T08:30:19Z</time>
      </trkpt>
      <trkpt lat="46.75499" lon="5.58746">
        <ele>277.9</ele>
        <time>2019-11-21T08:30:25Z</time>
      </trkpt>
      <trkpt lat="46.75508" lon="5.58742">
        <ele>279.7</ele>
        <time>2019-11-21T08:30:37Z</time>
      </trkpt>
      <trkpt lat="46.75511" lon="5.58738">
        <ele>280.5</ele>
        <time>2019-11-21T08:30:42Z</time>
      </trkpt>
      <trkpt lat="46.75516" lon="5.58734">
        <ele>281</ele>
        <time>2019-11-21T08:30:48Z</time>
      </trkpt>
      <trkpt lat="46.7552" lon="5.58732">
        <ele>281</ele>
        <time>2019-11-21T08:30:52Z</time>
      </trkpt>
      <trkpt lat="46.75525" lon="5.58728">
        <ele>280.3</ele>
        <time>2019-11-21T08:30:57Z</time>
      </trkpt>
      <trkpt lat="46.7553" lon="5.58722">
        <ele>279</ele>
        <time>2019-11-21T08:31:02Z</time>
      </trkpt>
      <trkpt lat="46.75535" lon="5.58719">
        <ele>277.3</ele>
        <time>2019-11-21T08:31:08Z</time>
      </trkpt>
      <trkpt lat="46.7554" lon="5.58717">
        <ele>275.5</ele>
        <time>2019-11-21T08:31:14Z</time>
      </trkpt>
      <trkpt lat="46.75544" lon="5.58713">
        <ele>274.5</ele>
        <time>2019-11-21T08:31:18Z</time>
      </trkpt>
      <trkpt lat="46.75549" lon="5.58709">
        <ele>273.8</ele>
        <time>2019-11-21T08:31:22Z</time>
      </trkpt>
      <trkpt lat="46.75563" lon="5.58692">
        <ele>273.1</ele>
        <time>2019-11-21T08:31:41Z</time>
      </trkpt>
      <trkpt lat="46.75567" lon="5.58683">
        <ele>273.4</ele>
        <time>2019-11-21T08:31:44Z</time>
      </trkpt>
      <trkpt lat="46.75569" lon="5.58676">
        <ele>273.6</ele>
        <time>2019-11-21T08:31:46Z</time>
      </trkpt>
      <trkpt lat="46.75571" lon="5.58669">
        <ele>273.8</ele>
        <time>2019-11-21T08:31:49Z</time>
      </trkpt>
      <trkpt lat="46.75573" lon="5.58664">
        <ele>274</ele>
        <time>2019-11-21T08:31:55Z</time>
      </trkpt>
      <trkpt lat="46.75576" lon="5.58657">
        <ele>274.6</ele>
        <time>2019-11-21T08:32:01Z</time>
      </trkpt>
      <trkpt lat="46.75578" lon="5.58649">
        <ele>275.1</ele>
        <time>2019-11-21T08:32:05Z</time>
      </trkpt>
      <trkpt lat="46.75583" lon="5.58636">
        <ele>276.8</ele>
        <time>2019-11-21T08:32:20Z</time>
      </trkpt>
      <trkpt lat="46.75589" lon="5.58629">
        <ele>276.1</ele>
        <time>2019-11-21T08:32:33Z</time>
      </trkpt>
      <trkpt lat="46.75594" lon="5.58625">
        <ele>275.4</ele>
        <time>2019-11-21T08:32:39Z</time>
      </trkpt>
      <trkpt lat="46.75598" lon="5.5862">
        <ele>274.8</ele>
        <time>2019-11-21T08:32:43Z</time>
      </trkpt>
      <trkpt lat="46.75601" lon="5.58613">
        <ele>274.4</ele>
        <time>2019-11-21T08:32:47Z</time>
      </trkpt>
      <trkpt lat="46.75606" lon="5.58609">
        <ele>274.2</ele>
        <time>2019-11-21T08:32:51Z</time>
      </trkpt>
      <trkpt lat="46.75611" lon="5.58607">
        <ele>274.2</ele>
        <time>2019-11-21T08:32:55Z</time>
      </trkpt>
      <trkpt lat="46.75616" lon="5.58603">
        <ele>274.3</ele>
        <time>2019-11-21T08:33:00Z</time>
      </trkpt>
      <trkpt lat="46.7562" lon="5.58597">
        <ele>274.5</ele>
        <time>2019-11-21T08:33:04Z</time>
      </trkpt>
      <trkpt lat="46.75623" lon="5.58592">
        <ele>274.7</ele>
        <time>2019-11-21T08:33:08Z</time>
      </trkpt>
      <trkpt lat="46.75629" lon="5.58588">
        <ele>274.9</ele>
        <time>2019-11-21T08:33:13Z</time>
      </trkpt>
      <trkpt lat="46.75633" lon="5.58585">
        <ele>275.1</ele>
        <time>2019-11-21T08:33:17Z</time>
      </trkpt>
      <trkpt lat="46.75638" lon="5.58583">
        <ele>275.3</ele>
        <time>2019-11-21T08:33:22Z</time>
      </trkpt>
      <trkpt lat="46.75643" lon="5.58581">
        <ele>275.3</ele>
        <time>2019-11-21T08:33:26Z</time>
      </trkpt>
      <trkpt lat="46.75648" lon="5.58579">
        <ele>275.2</ele>
        <time>2019-11-21T08:33:30Z</time>
      </trkpt>
      <trkpt lat="46.75654" lon="5.58578">
        <ele>275.2</ele>
        <time>2019-11-21T08:33:36Z</time>
      </trkpt>
      <trkpt lat="46.75659" lon="5.58581">
        <ele>275.2</ele>
        <time>2019-11-21T08:33:40Z</time>
      </trkpt>
      <trkpt lat="46.75664" lon="5.58585">
        <ele>275</ele>
        <time>2019-11-21T08:33:43Z</time>
      </trkpt>
      <trkpt lat="46.75668" lon="5.58589">
        <ele>274.5</ele>
        <time>2019-11-21T08:33:47Z</time>
      </trkpt>
      <trkpt lat="46.75672" lon="5.58595">
        <ele>273.9</ele>
        <time>2019-11-21T08:33:51Z</time>
      </trkpt>
      <trkpt lat="46.75674" lon="5.58601">
        <ele>273.5</ele>
        <time>2019-11-21T08:33:54Z</time>
      </trkpt>
      <trkpt lat="46.75677" lon="5.58608">
        <ele>272.9</ele>
        <time>2019-11-21T08:33:59Z</time>
      </trkpt>
      <trkpt lat="46.7568" lon="5.58613">
        <ele>271.9</ele>
        <time>2019-11-21T08:34:07Z</time>
      </trkpt>
      <trkpt lat="46.75685" lon="5.58616">
        <ele>271.3</ele>
        <time>2019-11-21T08:34:13Z</time>
      </trkpt>
      <trkpt lat="46.7569" lon="5.58617">
        <ele>271</ele>
        <time>2019-11-21T08:34:18Z</time>
      </trkpt>
      <trkpt lat="46.75695" lon="5.58619">
        <ele>271</ele>
        <time>2019-11-21T08:34:22Z</time>
      </trkpt>
      <trkpt lat="46.757" lon="5.58621">
        <ele>271</ele>
        <time>2019-11-21T08:34:27Z</time>
      </trkpt>
      <trkpt lat="46.75705" lon="5.58622">
        <ele>270.7</ele>
        <time>2019-11-21T08:34:33Z</time>
      </trkpt>
      <trkpt lat="46.75709" lon="5.58625">
        <ele>270.6</ele>
        <time>2019-11-21T08:34:35Z</time>
      </trkpt>
      <trkpt lat="46.75713" lon="5.58629">
        <ele>270.5</ele>
        <time>2019-11-21T08:34:38Z</time>
      </trkpt>
      <trkpt lat="46.75718" lon="5.58632">
        <ele>270.5</ele>
        <time>2019-11-21T08:34:44Z</time>
      </trkpt>
      <trkpt lat="46.75722" lon="5.58633">
        <ele>270.3</ele>
        <time>2019-11-21T08:34:49Z</time>
      </trkpt>
      <trkpt lat="46.75727" lon="5.58634">
        <ele>270</ele>
        <time>2019-11-21T08:34:54Z</time>
      </trkpt>
      <trkpt lat="46.75731" lon="5.58635">
        <ele>269.6</ele>
        <time>2019-11-21T08:34:59Z</time>
      </trkpt>
      <trkpt lat="46.75736" lon="5.58638">
        <ele>269.3</ele>
        <time>2019-11-21T08:35:03Z</time>
      </trkpt>
      <trkpt lat="46.75741" lon="5.5864">
        <ele>269.1</ele>
        <time>2019-11-21T08:35:07Z</time>
      </trkpt>
      <trkpt lat="46.75746" lon="5.58644">
        <ele>268.9</ele>
        <time>2019-11-21T08:35:11Z</time>
      </trkpt>
      <trkpt lat="46.75751" lon="5.58647">
        <ele>269</ele>
        <time>2019-11-21T08:35:15Z</time>
      </trkpt>
      <trkpt lat="46.75756" lon="5.58649">
        <ele>269.1</ele>
        <time>2019-11-21T08:35:20Z</time>
      </trkpt>
      <trkpt lat="46.7576" lon="5.58653">
        <ele>268.9</ele>
        <time>2019-11-21T08:35:25Z</time>
      </trkpt>
      <trkpt lat="46.75765" lon="5.58656">
        <ele>268.7</ele>
        <time>2019-11-21T08:35:29Z</time>
      </trkpt>
      <trkpt lat="46.75769" lon="5.58658">
        <ele>268.3</ele>
        <time>2019-11-21T08:35:34Z</time>
      </trkpt>
      <trkpt lat="46.75774" lon="5.58661">
        <ele>267.8</ele>
        <time>2019-11-21T08:35:39Z</time>
      </trkpt>
      <trkpt lat="46.75779" lon="5.58664">
        <ele>267.3</ele>
        <time>2019-11-21T08:35:44Z</time>
      </trkpt>
      <trkpt lat="46.75785" lon="5.58666">
        <ele>266.8</ele>
        <time>2019-11-21T08:35:48Z</time>
      </trkpt>
      <trkpt lat="46.75789" lon="5.58668">
        <ele>266.5</ele>
        <time>2019-11-21T08:35:52Z</time>
      </trkpt>
      <trkpt lat="46.75794" lon="5.58669">
        <ele>265.6</ele>
        <time>2019-11-21T08:35:59Z</time>
      </trkpt>
      <trkpt lat="46.75799" lon="5.58671">
        <ele>264.7</ele>
        <time>2019-11-21T08:36:05Z</time>
      </trkpt>
      <trkpt lat="46.75804" lon="5.58672">
        <ele>264.1</ele>
        <time>2019-11-21T08:36:11Z</time>
      </trkpt>
      <trkpt lat="46.75808" lon="5.58673">
        <ele>263.9</ele>
        <time>2019-11-21T08:36:18Z</time>
      </trkpt>
      <trkpt lat="46.75814" lon="5.58675">
        <ele>263.8</ele>
        <time>2019-11-21T08:36:22Z</time>
      </trkpt>
      <trkpt lat="46.75818" lon="5.58678">
        <ele>263.7</ele>
        <time>2019-11-21T08:36:25Z</time>
      </trkpt>
      <trkpt lat="46.75824" lon="5.5868">
        <ele>263.6</ele>
        <time>2019-11-21T08:36:30Z</time>
      </trkpt>
      <trkpt lat="46.75828" lon="5.58681">
        <ele>263.4</ele>
        <time>2019-11-21T08:36:34Z</time>
      </trkpt>
      <trkpt lat="46.75833" lon="5.58685">
        <ele>263.1</ele>
        <time>2019-11-21T08:36:39Z</time>
      </trkpt>
      <trkpt lat="46.75838" lon="5.58688">
        <ele>262.6</ele>
        <time>2019-11-21T08:36:44Z</time>
      </trkpt>
      <trkpt lat="46.75843" lon="5.58692">
        <ele>262</ele>
        <time>2019-11-21T08:36:50Z</time>
      </trkpt>
      <trkpt lat="46.75847" lon="5.58697">
        <ele>261.4</ele>
        <time>2019-11-21T08:36:54Z</time>
      </trkpt>
      <trkpt lat="46.7585" lon="5.58701">
        <ele>261.1</ele>
        <time>2019-11-21T08:36:57Z</time>
      </trkpt>
      <trkpt lat="46.75855" lon="5.58707">
        <ele>260.6</ele>
        <time>2019-11-21T08:37:01Z</time>
      </trkpt>
      <trkpt lat="46.75859" lon="5.58712">
        <ele>260.2</ele>
        <time>2019-11-21T08:37:04Z</time>
      </trkpt>
      <trkpt lat="46.75862" lon="5.58717">
        <ele>259.6</ele>
        <time>2019-11-21T08:37:08Z</time>
      </trkpt>
      <trkpt lat="46.75865" lon="5.58723">
        <ele>258.8</ele>
        <time>2019-11-21T08:37:14Z</time>
      </trkpt>
      <trkpt lat="46.75869" lon="5.58728">
        <ele>258.3</ele>
        <time>2019-11-21T08:37:18Z</time>
      </trkpt>
      <trkpt lat="46.75873" lon="5.58732">
        <ele>258</ele>
        <time>2019-11-21T08:37:22Z</time>
      </trkpt>
      <trkpt lat="46.75878" lon="5.58737">
        <ele>257.6</ele>
        <time>2019-11-21T08:37:26Z</time>
      </trkpt>
      <trkpt lat="46.75882" lon="5.5874">
        <ele>257.4</ele>
        <time>2019-11-21T08:37:29Z</time>
      </trkpt>
      <trkpt lat="46.75886" lon="5.58744">
        <ele>257.1</ele>
        <time>2019-11-21T08:37:33Z</time>
      </trkpt>
      <trkpt lat="46.75891" lon="5.58748">
        <ele>256.9</ele>
        <time>2019-11-21T08:37:38Z</time>
      </trkpt>
      <trkpt lat="46.75895" lon="5.58751">
        <ele>256.8</ele>
        <time>2019-11-21T08:37:42Z</time>
      </trkpt>
      <trkpt lat="46.75899" lon="5.58755">
        <ele>256.8</ele>
        <time>2019-11-21T08:37:46Z</time>
      </trkpt>
      <trkpt lat="46.75904" lon="5.58758">
        <ele>256.8</ele>
        <time>2019-11-21T08:37:51Z</time>
      </trkpt>
      <trkpt lat="46.75909" lon="5.58761">
        <ele>256.8</ele>
        <time>2019-11-21T08:37:56Z</time>
      </trkpt>
      <trkpt lat="46.75914" lon="5.58763">
        <ele>256.8</ele>
        <time>2019-11-21T08:38:00Z</time>
      </trkpt>
      <trkpt lat="46.7592" lon="5.58764">
        <ele>256.8</ele>
        <time>2019-11-21T08:38:04Z</time>
      </trkpt>
      <trkpt lat="46.75924" lon="5.58765">
        <ele>256.9</ele>
        <time>2019-11-21T08:38:08Z</time>
      </trkpt>
      <trkpt lat="46.75929" lon="5.58767">
        <ele>257.1</ele>
        <time>2019-11-21T08:38:13Z</time>
      </trkpt>
      <trkpt lat="46.75934" lon="5.58768">
        <ele>256.9</ele>
        <time>2019-11-21T08:38:19Z</time>
      </trkpt>
      <trkpt lat="46.75939" lon="5.58768">
        <ele>256.7</ele>
        <time>2019-11-21T08:38:24Z</time>
      </trkpt>
      <trkpt lat="46.75943" lon="5.58768">
        <ele>256.6</ele>
        <time>2019-11-21T08:38:28Z</time>
      </trkpt>
      <trkpt lat="46.75949" lon="5.5877">
        <ele>256.6</ele>
        <time>2019-11-21T08:38:33Z</time>
      </trkpt>
      <trkpt lat="46.75953" lon="5.58771">
        <ele>256.6</ele>
        <time>2019-11-21T08:38:38Z</time>
      </trkpt>
      <trkpt lat="46.75957" lon="5.58764">
        <ele>256.8</ele>
        <time>2019-11-21T08:38:45Z</time>
      </trkpt>
      <trkpt lat="46.75959" lon="5.58757">
        <ele>257</ele>
        <time>2019-11-21T08:38:50Z</time>
      </trkpt>
      <trkpt lat="46.75961" lon="5.5875">
        <ele>257.1</ele>
        <time>2019-11-21T08:38:54Z</time>
      </trkpt>
      <trkpt lat="46.75963" lon="5.58744">
        <ele>257.1</ele>
        <time>2019-11-21T08:38:58Z</time>
      </trkpt>
      <trkpt lat="46.75964" lon="5.58737">
        <ele>257.1</ele>
        <time>2019-11-21T08:39:03Z</time>
      </trkpt>
      <trkpt lat="46.75966" lon="5.58729">
        <ele>257</ele>
        <time>2019-11-21T08:39:08Z</time>
      </trkpt>
      <trkpt lat="46.75967" lon="5.58723">
        <ele>256.9</ele>
        <time>2019-11-21T08:39:12Z</time>
      </trkpt>
      <trkpt lat="46.75968" lon="5.58715">
        <ele>256.8</ele>
        <time>2019-11-21T08:39:16Z</time>
      </trkpt>
      <trkpt lat="46.7597" lon="5.58708">
        <ele>256.6</ele>
        <time>2019-11-21T08:39:20Z</time>
      </trkpt>
      <trkpt lat="46.75972" lon="5.58701">
        <ele>256.3</ele>
        <time>2019-11-21T08:39:25Z</time>
      </trkpt>
      <trkpt lat="46.75974" lon="5.58694">
        <ele>256.2</ele>
        <time>2019-11-21T08:39:29Z</time>
      </trkpt>
      <trkpt lat="46.75976" lon="5.58687">
        <ele>256.1</ele>
        <time>2019-11-21T08:39:33Z</time>
      </trkpt>
      <trkpt lat="46.75978" lon="5.58682">
        <ele>256.1</ele>
        <time>2019-11-21T08:39:36Z</time>
      </trkpt>
      <trkpt lat="46.75981" lon="5.58676">
        <ele>256</ele>
        <time>2019-11-21T08:39:40Z</time>
      </trkpt>
      <trkpt lat="46.75983" lon="5.58669">
        <ele>255.8</ele>
        <time>2019-11-21T08:39:44Z</time>
      </trkpt>
      <trkpt lat="46.75984" lon="5.58663">
        <ele>255.8</ele>
        <time>2019-11-21T08:39:47Z</time>
      </trkpt>
      <trkpt lat="46.75985" lon="5.58656">
        <ele>255.7</ele>
        <time>2019-11-21T08:39:50Z</time>
      </trkpt>
      <trkpt lat="46.75986" lon="5.58648">
        <ele>255.7</ele>
        <time>2019-11-21T08:39:54Z</time>
      </trkpt>
      <trkpt lat="46.75987" lon="5.5864">
        <ele>255.5</ele>
        <time>2019-11-21T08:39:58Z</time>
      </trkpt>
      <trkpt lat="46.75988" lon="5.58633">
        <ele>255.3</ele>
        <time>2019-11-21T08:40:03Z</time>
      </trkpt>
      <trkpt lat="46.75989" lon="5.58625">
        <ele>255</ele>
        <time>2019-11-21T08:40:07Z</time>
      </trkpt>
      <trkpt lat="46.75992" lon="5.58618">
        <ele>254.7</ele>
        <time>2019-11-21T08:40:12Z</time>
      </trkpt>
      <trkpt lat="46.75993" lon="5.58611">
        <ele>254.5</ele>
        <time>2019-11-21T08:40:16Z</time>
      </trkpt>
      <trkpt lat="46.75995" lon="5.58605">
        <ele>254.5</ele>
        <time>2019-11-21T08:40:19Z</time>
      </trkpt>
      <trkpt lat="46.75997" lon="5.58597">
        <ele>254.6</ele>
        <time>2019-11-21T08:40:23Z</time>
      </trkpt>
      <trkpt lat="46.75998" lon="5.5859">
        <ele>254.7</ele>
        <time>2019-11-21T08:40:27Z</time>
      </trkpt>
      <trkpt lat="46.76" lon="5.58583">
        <ele>255</ele>
        <time>2019-11-21T08:40:32Z</time>
      </trkpt>
      <trkpt lat="46.76002" lon="5.58577">
        <ele>255.2</ele>
        <time>2019-11-21T08:40:36Z</time>
      </trkpt>
      <trkpt lat="46.76003" lon="5.58571">
        <ele>255.4</ele>
        <time>2019-11-21T08:40:40Z</time>
      </trkpt>
      <trkpt lat="46.76005" lon="5.58564">
        <ele>255.5</ele>
        <time>2019-11-21T08:40:44Z</time>
      </trkpt>
      <trkpt lat="46.76007" lon="5.58558">
        <ele>255.5</ele>
        <time>2019-11-21T08:40:48Z</time>
      </trkpt>
      <trkpt lat="46.76009" lon="5.5855">
        <ele>255.4</ele>
        <time>2019-11-21T08:40:53Z</time>
      </trkpt>
      <trkpt lat="46.76011" lon="5.58544">
        <ele>255.4</ele>
        <time>2019-11-21T08:40:56Z</time>
      </trkpt>
      <trkpt lat="46.76013" lon="5.58537">
        <ele>255.6</ele>
        <time>2019-11-21T08:41:01Z</time>
      </trkpt>
      <trkpt lat="46.76014" lon="5.5853">
        <ele>255.7</ele>
        <time>2019-11-21T08:41:06Z</time>
      </trkpt>
      <trkpt lat="46.76016" lon="5.58523">
        <ele>255.7</ele>
        <time>2019-11-21T08:41:10Z</time>
      </trkpt>
      <trkpt lat="46.76017" lon="5.58517">
        <ele>255.7</ele>
        <time>2019-11-21T08:41:14Z</time>
      </trkpt>
      <trkpt lat="46.76019" lon="5.5851">
        <ele>255.7</ele>
        <time>2019-11-21T08:41:19Z</time>
      </trkpt>
      <trkpt lat="46.7602" lon="5.58503">
        <ele>255.5</ele>
        <time>2019-11-21T08:41:23Z</time>
      </trkpt>
      <trkpt lat="46.76022" lon="5.58496">
        <ele>255.3</ele>
        <time>2019-11-21T08:41:28Z</time>
      </trkpt>
      <trkpt lat="46.76024" lon="5.5849">
        <ele>255.2</ele>
        <time>2019-11-21T08:41:32Z</time>
      </trkpt>
      <trkpt lat="46.76027" lon="5.58482">
        <ele>255.1</ele>
        <time>2019-11-21T08:41:36Z</time>
      </trkpt>
      <trkpt lat="46.76029" lon="5.58476">
        <ele>255</ele>
        <time>2019-11-21T08:41:40Z</time>
      </trkpt>
      <trkpt lat="46.76031" lon="5.58469">
        <ele>255.1</ele>
        <time>2019-11-21T08:41:45Z</time>
      </trkpt>
      <trkpt lat="46.76032" lon="5.58462">
        <ele>255.1</ele>
        <time>2019-11-21T08:41:49Z</time>
      </trkpt>
      <trkpt lat="46.76034" lon="5.58454">
        <ele>255.2</ele>
        <time>2019-11-21T08:41:53Z</time>
      </trkpt>
      <trkpt lat="46.76036" lon="5.58447">
        <ele>255.3</ele>
        <time>2019-11-21T08:41:58Z</time>
      </trkpt>
      <trkpt lat="46.76036" lon="5.5844">
        <ele>255.3</ele>
        <time>2019-11-21T08:42:03Z</time>
      </trkpt>
      <trkpt lat="46.76038" lon="5.58433">
        <ele>255</ele>
        <time>2019-11-21T08:42:09Z</time>
      </trkpt>
      <trkpt lat="46.76039" lon="5.58426">
        <ele>254.9</ele>
        <time>2019-11-21T08:42:13Z</time>
      </trkpt>
      <trkpt lat="46.76041" lon="5.58417">
        <ele>255.1</ele>
        <time>2019-11-21T08:42:17Z</time>
      </trkpt>
      <trkpt lat="46.76042" lon="5.58411">
        <ele>255.3</ele>
        <time>2019-11-21T08:42:22Z</time>
      </trkpt>
      <trkpt lat="46.76044" lon="5.58404">
        <ele>255.7</ele>
        <time>2019-11-21T08:42:27Z</time>
      </trkpt>
      <trkpt lat="46.76046" lon="5.58397">
        <ele>255.9</ele>
        <time>2019-11-21T08:42:31Z</time>
      </trkpt>
      <trkpt lat="46.76048" lon="5.5839">
        <ele>256.1</ele>
        <time>2019-11-21T08:42:35Z</time>
      </trkpt>
      <trkpt lat="46.7605" lon="5.58383">
        <ele>256</ele>
        <time>2019-11-21T08:42:40Z</time>
      </trkpt>
      <trkpt lat="46.76052" lon="5.58377">
        <ele>255.9</ele>
        <time>2019-11-21T08:42:45Z</time>
      </trkpt>
      <trkpt lat="46.76052" lon="5.5837">
        <ele>255.9</ele>
        <time>2019-11-21T08:42:48Z</time>
      </trkpt>
      <trkpt lat="46.76053" lon="5.58364">
        <ele>256.3</ele>
        <time>2019-11-21T08:42:56Z</time>
      </trkpt>
      <trkpt lat="46.76056" lon="5.58358">
        <ele>256.6</ele>
        <time>2019-11-21T08:43:01Z</time>
      </trkpt>
      <trkpt lat="46.76058" lon="5.5835">
        <ele>256.8</ele>
        <time>2019-11-21T08:43:05Z</time>
      </trkpt>
      <trkpt lat="46.76059" lon="5.58343">
        <ele>257</ele>
        <time>2019-11-21T08:43:09Z</time>
      </trkpt>
      <trkpt lat="46.76061" lon="5.58334">
        <ele>257.2</ele>
        <time>2019-11-21T08:43:13Z</time>
      </trkpt>
      <trkpt lat="46.76063" lon="5.58327">
        <ele>257.4</ele>
        <time>2019-11-21T08:43:17Z</time>
      </trkpt>
      <trkpt lat="46.76064" lon="5.5832">
        <ele>257.4</ele>
        <time>2019-11-21T08:43:21Z</time>
      </trkpt>
      <trkpt lat="46.76066" lon="5.58314">
        <ele>257.3</ele>
        <time>2019-11-21T08:43:26Z</time>
      </trkpt>
      <trkpt lat="46.76067" lon="5.58307">
        <ele>256.9</ele>
        <time>2019-11-21T08:43:31Z</time>
      </trkpt>
      <trkpt lat="46.76068" lon="5.58301">
        <ele>256.6</ele>
        <time>2019-11-21T08:43:35Z</time>
      </trkpt>
      <trkpt lat="46.7607" lon="5.58294">
        <ele>256.3</ele>
        <time>2019-11-21T08:43:39Z</time>
      </trkpt>
      <trkpt lat="46.76072" lon="5.58285">
        <ele>256.2</ele>
        <time>2019-11-21T08:43:43Z</time>
      </trkpt>
      <trkpt lat="46.76075" lon="5.58279">
        <ele>256</ele>
        <time>2019-11-21T08:43:47Z</time>
      </trkpt>
      <trkpt lat="46.76078" lon="5.58274">
        <ele>255.7</ele>
        <time>2019-11-21T08:43:51Z</time>
      </trkpt>
      <trkpt lat="46.7608" lon="5.58267">
        <ele>255.5</ele>
        <time>2019-11-21T08:43:56Z</time>
      </trkpt>
      <trkpt lat="46.76083" lon="5.58259">
        <ele>255.2</ele>
        <time>2019-11-21T08:44:01Z</time>
      </trkpt>
      <trkpt lat="46.76084" lon="5.58252">
        <ele>255</ele>
        <time>2019-11-21T08:44:05Z</time>
      </trkpt>
      <trkpt lat="46.76086" lon="5.58244">
        <ele>254.9</ele>
        <time>2019-11-21T08:44:10Z</time>
      </trkpt>
      <trkpt lat="46.76087" lon="5.58236">
        <ele>254.7</ele>
        <time>2019-11-21T08:44:15Z</time>
      </trkpt>
      <trkpt lat="46.76088" lon="5.5823">
        <ele>254.7</ele>
        <time>2019-11-21T08:44:18Z</time>
      </trkpt>
      <trkpt lat="46.76089" lon="5.58224">
        <ele>254.6</ele>
        <time>2019-11-21T08:44:22Z</time>
      </trkpt>
      <trkpt lat="46.76091" lon="5.58217">
        <ele>254.5</ele>
        <time>2019-11-21T08:44:27Z</time>
      </trkpt>
      <trkpt lat="46.76094" lon="5.58212">
        <ele>254.6</ele>
        <time>2019-11-21T08:44:32Z</time>
      </trkpt>
      <trkpt lat="46.76097" lon="5.58207">
        <ele>254.6</ele>
        <time>2019-11-21T08:44:37Z</time>
      </trkpt>
      <trkpt lat="46.76096" lon="5.582">
        <ele>254.4</ele>
        <time>2019-11-21T08:44:48Z</time>
      </trkpt>
      <trkpt lat="46.76099" lon="5.58202">
        <ele>253.2</ele>
        <time>2019-11-21T08:46:21Z</time>
      </trkpt>
      <trkpt lat="46.76094" lon="5.58204">
        <ele>253.3</ele>
        <time>2019-11-21T08:46:38Z</time>
      </trkpt>
      <trkpt lat="46.76099" lon="5.58204">
        <ele>252.9</ele>
        <time>2019-11-21T08:47:39Z</time>
      </trkpt>
      <trkpt lat="46.76098" lon="5.58205">
        <ele>254.1</ele>
        <time>2019-11-21T08:47:49Z</time>
      </trkpt>
      <trkpt lat="46.76098" lon="5.58198">
        <ele>254.6</ele>
        <time>2019-11-21T08:48:37Z</time>
      </trkpt>
      <trkpt lat="46.76097" lon="5.58205">
        <ele>254.8</ele>
        <time>2019-11-21T08:48:55Z</time>
      </trkpt>
      <trkpt lat="46.76092" lon="5.58204">
        <ele>254.1</ele>
        <time>2019-11-21T08:49:14Z</time>
      </trkpt>
      <trkpt lat="46.76096" lon="5.58199">
        <ele>251.9</ele>
        <time>2019-11-21T08:49:44Z</time>
      </trkpt>
      <trkpt lat="46.76097" lon="5.58193">
        <ele>253</ele>
        <time>2019-11-21T08:51:00Z</time>
      </trkpt>
      <trkpt lat="46.76095" lon="5.58185">
        <ele>253.4</ele>
        <time>2019-11-21T08:51:07Z</time>
      </trkpt>
      <trkpt lat="46.76094" lon="5.58178">
        <ele>253.8</ele>
        <time>2019-11-21T08:51:13Z</time>
      </trkpt>
      <trkpt lat="46.76093" lon="5.58171">
        <ele>253.9</ele>
        <time>2019-11-21T08:51:19Z</time>
      </trkpt>
      <trkpt lat="46.76093" lon="5.58164">
        <ele>253.7</ele>
        <time>2019-11-21T08:51:25Z</time>
      </trkpt>
      <trkpt lat="46.76095" lon="5.58157">
        <ele>253.7</ele>
        <time>2019-11-21T08:51:31Z</time>
      </trkpt>
      <trkpt lat="46.76099" lon="5.58152">
        <ele>253.7</ele>
        <time>2019-11-21T08:51:38Z</time>
      </trkpt>
      <trkpt lat="46.76105" lon="5.58152">
        <ele>253.4</ele>
        <time>2019-11-21T08:51:44Z</time>
      </trkpt>
      <trkpt lat="46.7611" lon="5.58154">
        <ele>253.2</ele>
        <time>2019-11-21T08:51:48Z</time>
      </trkpt>
      <trkpt lat="46.76115" lon="5.58155">
        <ele>253.1</ele>
        <time>2019-11-21T08:51:52Z</time>
      </trkpt>
      <trkpt lat="46.7612" lon="5.58156">
        <ele>253</ele>
        <time>2019-11-21T08:51:56Z</time>
      </trkpt>
      <trkpt lat="46.76125" lon="5.58157">
        <ele>253.1</ele>
        <time>2019-11-21T08:52:00Z</time>
      </trkpt>
      <trkpt lat="46.7613" lon="5.58157">
        <ele>253.1</ele>
        <time>2019-11-21T08:52:04Z</time>
      </trkpt>
      <trkpt lat="46.76135" lon="5.58157">
        <ele>253.2</ele>
        <time>2019-11-21T08:52:08Z</time>
      </trkpt>
      <trkpt lat="46.7614" lon="5.58158">
        <ele>253.2</ele>
        <time>2019-11-21T08:52:11Z</time>
      </trkpt>
      <trkpt lat="46.76145" lon="5.58159">
        <ele>253.1</ele>
        <time>2019-11-21T08:52:15Z</time>
      </trkpt>
      <trkpt lat="46.7615" lon="5.58161">
        <ele>253.1</ele>
        <time>2019-11-21T08:52:21Z</time>
      </trkpt>
      <trkpt lat="46.76155" lon="5.58162">
        <ele>253.2</ele>
        <time>2019-11-21T08:52:26Z</time>
      </trkpt>
      <trkpt lat="46.7616" lon="5.58163">
        <ele>253.3</ele>
        <time>2019-11-21T08:52:30Z</time>
      </trkpt>
      <trkpt lat="46.76165" lon="5.58165">
        <ele>253.4</ele>
        <time>2019-11-21T08:52:33Z</time>
      </trkpt>
      <trkpt lat="46.7617" lon="5.58167">
        <ele>253.4</ele>
        <time>2019-11-21T08:52:37Z</time>
      </trkpt>
      <trkpt lat="46.76176" lon="5.58167">
        <ele>253.3</ele>
        <time>2019-11-21T08:52:41Z</time>
      </trkpt>
      <trkpt lat="46.76181" lon="5.58169">
        <ele>253.2</ele>
        <time>2019-11-21T08:52:45Z</time>
      </trkpt>
      <trkpt lat="46.76185" lon="5.58171">
        <ele>253.1</ele>
        <time>2019-11-21T08:52:50Z</time>
      </trkpt>
      <trkpt lat="46.7619" lon="5.58174">
        <ele>253</ele>
        <time>2019-11-21T08:52:54Z</time>
      </trkpt>
      <trkpt lat="46.76195" lon="5.58177">
        <ele>253</ele>
        <time>2019-11-21T08:52:59Z</time>
      </trkpt>
      <trkpt lat="46.762" lon="5.5818">
        <ele>252.9</ele>
        <time>2019-11-21T08:53:04Z</time>
      </trkpt>
      <trkpt lat="46.76205" lon="5.58181">
        <ele>253</ele>
        <time>2019-11-21T08:53:09Z</time>
      </trkpt>
      <trkpt lat="46.7621" lon="5.58185">
        <ele>253.1</ele>
        <time>2019-11-21T08:53:13Z</time>
      </trkpt>
      <trkpt lat="46.76215" lon="5.58189">
        <ele>253.1</ele>
        <time>2019-11-21T08:53:17Z</time>
      </trkpt>
      <trkpt lat="46.76219" lon="5.58192">
        <ele>253.1</ele>
        <time>2019-11-21T08:53:21Z</time>
      </trkpt>
      <trkpt lat="46.76225" lon="5.58194">
        <ele>253.3</ele>
        <time>2019-11-21T08:53:26Z</time>
      </trkpt>
      <trkpt lat="46.7623" lon="5.58196">
        <ele>253.5</ele>
        <time>2019-11-21T08:53:30Z</time>
      </trkpt>
      <trkpt lat="46.76235" lon="5.58198">
        <ele>253.7</ele>
        <time>2019-11-21T08:53:34Z</time>
      </trkpt>
      <trkpt lat="46.76239" lon="5.582">
        <ele>253.7</ele>
        <time>2019-11-21T08:53:38Z</time>
      </trkpt>
      <trkpt lat="46.76245" lon="5.58201">
        <ele>253.8</ele>
        <time>2019-11-21T08:53:42Z</time>
      </trkpt>
      <trkpt lat="46.76251" lon="5.58202">
        <ele>253.7</ele>
        <time>2019-11-21T08:53:47Z</time>
      </trkpt>
      <trkpt lat="46.76256" lon="5.58203">
        <ele>253.7</ele>
        <time>2019-11-21T08:53:52Z</time>
      </trkpt>
      <trkpt lat="46.76261" lon="5.58206">
        <ele>253.9</ele>
        <time>2019-11-21T08:53:57Z</time>
      </trkpt>
      <trkpt lat="46.76265" lon="5.58209">
        <ele>254</ele>
        <time>2019-11-21T08:54:01Z</time>
      </trkpt>
      <trkpt lat="46.7627" lon="5.58212">
        <ele>254.1</ele>
        <time>2019-11-21T08:54:05Z</time>
      </trkpt>
      <trkpt lat="46.76275" lon="5.58214">
        <ele>254.3</ele>
        <time>2019-11-21T08:54:10Z</time>
      </trkpt>
      <trkpt lat="46.7628" lon="5.58216">
        <ele>254.5</ele>
        <time>2019-11-21T08:54:15Z</time>
      </trkpt>
      <trkpt lat="46.76285" lon="5.58217">
        <ele>254.5</ele>
        <time>2019-11-21T08:54:19Z</time>
      </trkpt>
      <trkpt lat="46.7629" lon="5.58219">
        <ele>254.4</ele>
        <time>2019-11-21T08:54:23Z</time>
      </trkpt>
      <trkpt lat="46.76295" lon="5.58222">
        <ele>254.4</ele>
        <time>2019-11-21T08:54:27Z</time>
      </trkpt>
      <trkpt lat="46.76299" lon="5.58224">
        <ele>254.5</ele>
        <time>2019-11-21T08:54:31Z</time>
      </trkpt>
      <trkpt lat="46.76304" lon="5.58227">
        <ele>254.5</ele>
        <time>2019-11-21T08:54:35Z</time>
      </trkpt>
      <trkpt lat="46.76309" lon="5.5823">
        <ele>254.3</ele>
        <time>2019-11-21T08:54:39Z</time>
      </trkpt>
      <trkpt lat="46.76313" lon="5.58233">
        <ele>254.1</ele>
        <time>2019-11-21T08:54:43Z</time>
      </trkpt>
      <trkpt lat="46.76319" lon="5.58237">
        <ele>253.9</ele>
        <time>2019-11-21T08:54:47Z</time>
      </trkpt>
      <trkpt lat="46.76323" lon="5.5824">
        <ele>253.8</ele>
        <time>2019-11-21T08:54:50Z</time>
      </trkpt>
      <trkpt lat="46.76327" lon="5.58243">
        <ele>253.6</ele>
        <time>2019-11-21T08:54:54Z</time>
      </trkpt>
      <trkpt lat="46.76332" lon="5.58246">
        <ele>253.5</ele>
        <time>2019-11-21T08:54:59Z</time>
      </trkpt>
      <trkpt lat="46.76336" lon="5.5825">
        <ele>253.5</ele>
        <time>2019-11-21T08:55:04Z</time>
      </trkpt>
      <trkpt lat="46.7634" lon="5.58254">
        <ele>253.5</ele>
        <time>2019-11-21T08:55:08Z</time>
      </trkpt>
      <trkpt lat="46.76345" lon="5.58258">
        <ele>253.6</ele>
        <time>2019-11-21T08:55:13Z</time>
      </trkpt>
      <trkpt lat="46.7635" lon="5.58262">
        <ele>253.7</ele>
        <time>2019-11-21T08:55:17Z</time>
      </trkpt>
      <trkpt lat="46.76355" lon="5.58265">
        <ele>253.8</ele>
        <time>2019-11-21T08:55:21Z</time>
      </trkpt>
      <trkpt lat="46.7636" lon="5.58267">
        <ele>253.8</ele>
        <time>2019-11-21T08:55:25Z</time>
      </trkpt>
      <trkpt lat="46.76365" lon="5.58269">
        <ele>253.9</ele>
        <time>2019-11-21T08:55:30Z</time>
      </trkpt>
      <trkpt lat="46.76369" lon="5.58272">
        <ele>253.9</ele>
        <time>2019-11-21T08:55:34Z</time>
      </trkpt>
      <trkpt lat="46.76375" lon="5.58274">
        <ele>253.8</ele>
        <time>2019-11-21T08:55:39Z</time>
      </trkpt>
      <trkpt lat="46.76379" lon="5.58277">
        <ele>253.7</ele>
        <time>2019-11-21T08:55:43Z</time>
      </trkpt>
      <trkpt lat="46.76384" lon="5.5828">
        <ele>253.6</ele>
        <time>2019-11-21T08:55:48Z</time>
      </trkpt>
      <trkpt lat="46.76389" lon="5.58281">
        <ele>253.8</ele>
        <time>2019-11-21T08:55:54Z</time>
      </trkpt>
      <trkpt lat="46.76393" lon="5.58284">
        <ele>254.1</ele>
        <time>2019-11-21T08:55:59Z</time>
      </trkpt>
      <trkpt lat="46.76397" lon="5.58288">
        <ele>254.4</ele>
        <time>2019-11-21T08:56:03Z</time>
      </trkpt>
      <trkpt lat="46.76401" lon="5.58292">
        <ele>254.5</ele>
        <time>2019-11-21T08:56:08Z</time>
      </trkpt>
      <trkpt lat="46.76406" lon="5.58295">
        <ele>254.5</ele>
        <time>2019-11-21T08:56:13Z</time>
      </trkpt>
      <trkpt lat="46.76411" lon="5.58298">
        <ele>254.5</ele>
        <time>2019-11-21T08:56:17Z</time>
      </trkpt>
      <trkpt lat="46.76415" lon="5.583">
        <ele>254.5</ele>
        <time>2019-11-21T08:56:21Z</time>
      </trkpt>
      <trkpt lat="46.7642" lon="5.58302">
        <ele>254.6</ele>
        <time>2019-11-21T08:56:26Z</time>
      </trkpt>
      <trkpt lat="46.76424" lon="5.58306">
        <ele>254.8</ele>
        <time>2019-11-21T08:56:31Z</time>
      </trkpt>
      <trkpt lat="46.76428" lon="5.5831">
        <ele>254.9</ele>
        <time>2019-11-21T08:56:36Z</time>
      </trkpt>
      <trkpt lat="46.76433" lon="5.58313">
        <ele>254.9</ele>
        <time>2019-11-21T08:56:41Z</time>
      </trkpt>
      <trkpt lat="46.76437" lon="5.58315">
        <ele>254.8</ele>
        <time>2019-11-21T08:56:45Z</time>
      </trkpt>
      <trkpt lat="46.76442" lon="5.58318">
        <ele>254.7</ele>
        <time>2019-11-21T08:56:50Z</time>
      </trkpt>
      <trkpt lat="46.76446" lon="5.5832">
        <ele>254.6</ele>
        <time>2019-11-21T08:56:54Z</time>
      </trkpt>
      <trkpt lat="46.76451" lon="5.58324">
        <ele>254.5</ele>
        <time>2019-11-21T08:56:58Z</time>
      </trkpt>
      <trkpt lat="46.76455" lon="5.58326">
        <ele>254.4</ele>
        <time>2019-11-21T08:57:02Z</time>
      </trkpt>
      <trkpt lat="46.7646" lon="5.58328">
        <ele>254.3</ele>
        <time>2019-11-21T08:57:06Z</time>
      </trkpt>
      <trkpt lat="46.76466" lon="5.5833">
        <ele>254.1</ele>
        <time>2019-11-21T08:57:10Z</time>
      </trkpt>
      <trkpt lat="46.76471" lon="5.58332">
        <ele>253.9</ele>
        <time>2019-11-21T08:57:14Z</time>
      </trkpt>
      <trkpt lat="46.76475" lon="5.58335">
        <ele>253.8</ele>
        <time>2019-11-21T08:57:18Z</time>
      </trkpt>
      <trkpt lat="46.76479" lon="5.58337">
        <ele>253.6</ele>
        <time>2019-11-21T08:57:22Z</time>
      </trkpt>
      <trkpt lat="46.76484" lon="5.58339">
        <ele>253.4</ele>
        <time>2019-11-21T08:57:26Z</time>
      </trkpt>
      <trkpt lat="46.76488" lon="5.58341">
        <ele>253.2</ele>
        <time>2019-11-21T08:57:29Z</time>
      </trkpt>
      <trkpt lat="46.76493" lon="5.58343">
        <ele>253</ele>
        <time>2019-11-21T08:57:32Z</time>
      </trkpt>
      <trkpt lat="46.76498" lon="5.58345">
        <ele>252.8</ele>
        <time>2019-11-21T08:57:36Z</time>
      </trkpt>
      <trkpt lat="46.76503" lon="5.58347">
        <ele>252.7</ele>
        <time>2019-11-21T08:57:40Z</time>
      </trkpt>
      <trkpt lat="46.76508" lon="5.58349">
        <ele>252.7</ele>
        <time>2019-11-21T08:57:44Z</time>
      </trkpt>
      <trkpt lat="46.76513" lon="5.58351">
        <ele>252.7</ele>
        <time>2019-11-21T08:57:48Z</time>
      </trkpt>
      <trkpt lat="46.76518" lon="5.58354">
        <ele>252.6</ele>
        <time>2019-11-21T08:57:53Z</time>
      </trkpt>
      <trkpt lat="46.76522" lon="5.58356">
        <ele>252.6</ele>
        <time>2019-11-21T08:57:57Z</time>
      </trkpt>
      <trkpt lat="46.76527" lon="5.58359">
        <ele>252.5</ele>
        <time>2019-11-21T08:58:01Z</time>
      </trkpt>
      <trkpt lat="46.76532" lon="5.58362">
        <ele>252.5</ele>
        <time>2019-11-21T08:58:05Z</time>
      </trkpt>
      <trkpt lat="46.76537" lon="5.58365">
        <ele>252.5</ele>
        <time>2019-11-21T08:58:09Z</time>
      </trkpt>
      <trkpt lat="46.76542" lon="5.58366">
        <ele>252.5</ele>
        <time>2019-11-21T08:58:13Z</time>
      </trkpt>
      <trkpt lat="46.76547" lon="5.58368">
        <ele>252.5</ele>
        <time>2019-11-21T08:58:19Z</time>
      </trkpt>
      <trkpt lat="46.76551" lon="5.58371">
        <ele>252.6</ele>
        <time>2019-11-21T08:58:23Z</time>
      </trkpt>
      <trkpt lat="46.76557" lon="5.58374">
        <ele>252.4</ele>
        <time>2019-11-21T08:58:28Z</time>
      </trkpt>
      <trkpt lat="46.76561" lon="5.58375">
        <ele>252.2</ele>
        <time>2019-11-21T08:58:32Z</time>
      </trkpt>
      <trkpt lat="46.76566" lon="5.58376">
        <ele>252</ele>
        <time>2019-11-21T08:58:36Z</time>
      </trkpt>
      <trkpt lat="46.76571" lon="5.58378">
        <ele>252.1</ele>
        <time>2019-11-21T08:58:40Z</time>
      </trkpt>
      <trkpt lat="46.76576" lon="5.5838">
        <ele>252.2</ele>
        <time>2019-11-21T08:58:44Z</time>
      </trkpt>
      <trkpt lat="46.76581" lon="5.58383">
        <ele>252.3</ele>
        <time>2019-11-21T08:58:48Z</time>
      </trkpt>
      <trkpt lat="46.76586" lon="5.58386">
        <ele>252.4</ele>
        <time>2019-11-21T08:58:53Z</time>
      </trkpt>
      <trkpt lat="46.76591" lon="5.58388">
        <ele>252.3</ele>
        <time>2019-11-21T08:58:57Z</time>
      </trkpt>
      <trkpt lat="46.76595" lon="5.58391">
        <ele>252.2</ele>
        <time>2019-11-21T08:59:01Z</time>
      </trkpt>
      <trkpt lat="46.766" lon="5.58393">
        <ele>252.1</ele>
        <time>2019-11-21T08:59:06Z</time>
      </trkpt>
      <trkpt lat="46.76605" lon="5.58396">
        <ele>252</ele>
        <time>2019-11-21T08:59:11Z</time>
      </trkpt>
      <trkpt lat="46.7661" lon="5.58399">
        <ele>251.9</ele>
        <time>2019-11-21T08:59:15Z</time>
      </trkpt>
      <trkpt lat="46.76615" lon="5.584">
        <ele>251.7</ele>
        <time>2019-11-21T08:59:20Z</time>
      </trkpt>
      <trkpt lat="46.76621" lon="5.58402">
        <ele>251.7</ele>
        <time>2019-11-21T08:59:25Z</time>
      </trkpt>
      <trkpt lat="46.76625" lon="5.58403">
        <ele>251.7</ele>
        <time>2019-11-21T08:59:29Z</time>
      </trkpt>
      <trkpt lat="46.7663" lon="5.58405">
        <ele>251.7</ele>
        <time>2019-11-21T08:59:32Z</time>
      </trkpt>
      <trkpt lat="46.76634" lon="5.58409">
        <ele>251.7</ele>
        <time>2019-11-21T08:59:36Z</time>
      </trkpt>
      <trkpt lat="46.76639" lon="5.58411">
        <ele>251.7</ele>
        <time>2019-11-21T08:59:41Z</time>
      </trkpt>
      <trkpt lat="46.76644" lon="5.58413">
        <ele>251.5</ele>
        <time>2019-11-21T08:59:45Z</time>
      </trkpt>
      <trkpt lat="46.76648" lon="5.58415">
        <ele>251.2</ele>
        <time>2019-11-21T08:59:49Z</time>
      </trkpt>
      <trkpt lat="46.76653" lon="5.58417">
        <ele>251.1</ele>
        <time>2019-11-21T08:59:53Z</time>
      </trkpt>
      <trkpt lat="46.76658" lon="5.58419">
        <ele>250.9</ele>
        <time>2019-11-21T08:59:57Z</time>
      </trkpt>
      <trkpt lat="46.76663" lon="5.58421">
        <ele>250.8</ele>
        <time>2019-11-21T09:00:01Z</time>
      </trkpt>
      <trkpt lat="46.76667" lon="5.58423">
        <ele>250.7</ele>
        <time>2019-11-21T09:00:05Z</time>
      </trkpt>
      <trkpt lat="46.76672" lon="5.58425">
        <ele>250.6</ele>
        <time>2019-11-21T09:00:09Z</time>
      </trkpt>
      <trkpt lat="46.76677" lon="5.58426">
        <ele>250.5</ele>
        <time>2019-11-21T09:00:13Z</time>
      </trkpt>
      <trkpt lat="46.76682" lon="5.58428">
        <ele>250.5</ele>
        <time>2019-11-21T09:00:17Z</time>
      </trkpt>
      <trkpt lat="46.76687" lon="5.5843">
        <ele>250.5</ele>
        <time>2019-11-21T09:00:22Z</time>
      </trkpt>
      <trkpt lat="46.76692" lon="5.58433">
        <ele>250.6</ele>
        <time>2019-11-21T09:00:26Z</time>
      </trkpt>
      <trkpt lat="46.76696" lon="5.58435">
        <ele>250.7</ele>
        <time>2019-11-21T09:00:30Z</time>
      </trkpt>
      <trkpt lat="46.76701" lon="5.58437">
        <ele>250.8</ele>
        <time>2019-11-21T09:00:34Z</time>
      </trkpt>
      <trkpt lat="46.76705" lon="5.58439">
        <ele>250.9</ele>
        <time>2019-11-21T09:00:38Z</time>
      </trkpt>
      <trkpt lat="46.7671" lon="5.58441">
        <ele>250.8</ele>
        <time>2019-11-21T09:00:42Z</time>
      </trkpt>
      <trkpt lat="46.76715" lon="5.58443">
        <ele>250.7</ele>
        <time>2019-11-21T09:00:46Z</time>
      </trkpt>
      <trkpt lat="46.7672" lon="5.58446">
        <ele>250.7</ele>
        <time>2019-11-21T09:00:51Z</time>
      </trkpt>
      <trkpt lat="46.76725" lon="5.58448">
        <ele>250.7</ele>
        <time>2019-11-21T09:00:55Z</time>
      </trkpt>
      <trkpt lat="46.76731" lon="5.5845">
        <ele>250.8</ele>
        <time>2019-11-21T09:01:00Z</time>
      </trkpt>
      <trkpt lat="46.76735" lon="5.58452">
        <ele>250.8</ele>
        <time>2019-11-21T09:01:04Z</time>
      </trkpt>
      <trkpt lat="46.7674" lon="5.58454">
        <ele>250.7</ele>
        <time>2019-11-21T09:01:09Z</time>
      </trkpt>
      <trkpt lat="46.76744" lon="5.58456">
        <ele>250.6</ele>
        <time>2019-11-21T09:01:13Z</time>
      </trkpt>
      <trkpt lat="46.7675" lon="5.58459">
        <ele>250.7</ele>
        <time>2019-11-21T09:01:18Z</time>
      </trkpt>
      <trkpt lat="46.76754" lon="5.58461">
        <ele>250.9</ele>
        <time>2019-11-21T09:01:22Z</time>
      </trkpt>
      <trkpt lat="46.7676" lon="5.58462">
        <ele>251.1</ele>
        <time>2019-11-21T09:01:26Z</time>
      </trkpt>
      <trkpt lat="46.76765" lon="5.58464">
        <ele>251.2</ele>
        <time>2019-11-21T09:01:30Z</time>
      </trkpt>
      <trkpt lat="46.7677" lon="5.58466">
        <ele>251.3</ele>
        <time>2019-11-21T09:01:34Z</time>
      </trkpt>
      <trkpt lat="46.76775" lon="5.58468">
        <ele>251.3</ele>
        <time>2019-11-21T09:01:38Z</time>
      </trkpt>
      <trkpt lat="46.76779" lon="5.5847">
        <ele>251.3</ele>
        <time>2019-11-21T09:01:42Z</time>
      </trkpt>
      <trkpt lat="46.76784" lon="5.58473">
        <ele>251.2</ele>
        <time>2019-11-21T09:01:47Z</time>
      </trkpt>
      <trkpt lat="46.76789" lon="5.58475">
        <ele>251.1</ele>
        <time>2019-11-21T09:01:51Z</time>
      </trkpt>
      <trkpt lat="46.76794" lon="5.58478">
        <ele>250.8</ele>
        <time>2019-11-21T09:01:56Z</time>
      </trkpt>
      <trkpt lat="46.76799" lon="5.58481">
        <ele>250.7</ele>
        <time>2019-11-21T09:02:00Z</time>
      </trkpt>
      <trkpt lat="46.76803" lon="5.58483">
        <ele>250.5</ele>
        <time>2019-11-21T09:02:03Z</time>
      </trkpt>
      <trkpt lat="46.76808" lon="5.58485">
        <ele>250.3</ele>
        <time>2019-11-21T09:02:06Z</time>
      </trkpt>
      <trkpt lat="46.76812" lon="5.58486">
        <ele>250.1</ele>
        <time>2019-11-21T09:02:09Z</time>
      </trkpt>
      <trkpt lat="46.76818" lon="5.58486">
        <ele>249.7</ele>
        <time>2019-11-21T09:02:13Z</time>
      </trkpt>
      <trkpt lat="46.76823" lon="5.58489">
        <ele>249.5</ele>
        <time>2019-11-21T09:02:18Z</time>
      </trkpt>
      <trkpt lat="46.76827" lon="5.58492">
        <ele>249.5</ele>
        <time>2019-11-21T09:02:22Z</time>
      </trkpt>
      <trkpt lat="46.76832" lon="5.58495">
        <ele>249.5</ele>
        <time>2019-11-21T09:02:25Z</time>
      </trkpt>
      <trkpt lat="46.76836" lon="5.58497">
        <ele>249.7</ele>
        <time>2019-11-21T09:02:30Z</time>
      </trkpt>
      <trkpt lat="46.76841" lon="5.58499">
        <ele>249.8</ele>
        <time>2019-11-21T09:02:34Z</time>
      </trkpt>
      <trkpt lat="46.76846" lon="5.58502">
        <ele>249.8</ele>
        <time>2019-11-21T09:02:38Z</time>
      </trkpt>
      <trkpt lat="46.76851" lon="5.58505">
        <ele>249.8</ele>
        <time>2019-11-21T09:02:42Z</time>
      </trkpt>
      <trkpt lat="46.76855" lon="5.58507">
        <ele>250</ele>
        <time>2019-11-21T09:02:46Z</time>
      </trkpt>
      <trkpt lat="46.7686" lon="5.58509">
        <ele>250.1</ele>
        <time>2019-11-21T09:02:50Z</time>
      </trkpt>
      <trkpt lat="46.76864" lon="5.58511">
        <ele>250.2</ele>
        <time>2019-11-21T09:02:55Z</time>
      </trkpt>
      <trkpt lat="46.76869" lon="5.58513">
        <ele>250.2</ele>
        <time>2019-11-21T09:03:00Z</time>
      </trkpt>
      <trkpt lat="46.76875" lon="5.58514">
        <ele>250</ele>
        <time>2019-11-21T09:03:07Z</time>
      </trkpt>
      <trkpt lat="46.7688" lon="5.58513">
        <ele>249.8</ele>
        <time>2019-11-21T09:03:12Z</time>
      </trkpt>
      <trkpt lat="46.76885" lon="5.58511">
        <ele>249.7</ele>
        <time>2019-11-21T09:03:16Z</time>
      </trkpt>
      <trkpt lat="46.7689" lon="5.5851">
        <ele>249.4</ele>
        <time>2019-11-21T09:03:20Z</time>
      </trkpt>
      <trkpt lat="46.76895" lon="5.58512">
        <ele>248.9</ele>
        <time>2019-11-21T09:03:26Z</time>
      </trkpt>
      <trkpt lat="46.769" lon="5.58515">
        <ele>248.3</ele>
        <time>2019-11-21T09:03:31Z</time>
      </trkpt>
      <trkpt lat="46.76905" lon="5.58518">
        <ele>247.9</ele>
        <time>2019-11-21T09:03:35Z</time>
      </trkpt>
      <trkpt lat="46.76909" lon="5.5852">
        <ele>247.5</ele>
        <time>2019-11-21T09:03:39Z</time>
      </trkpt>
      <trkpt lat="46.76914" lon="5.58522">
        <ele>247.1</ele>
        <time>2019-11-21T09:03:43Z</time>
      </trkpt>
      <trkpt lat="46.76919" lon="5.58524">
        <ele>246.4</ele>
        <time>2019-11-21T09:03:48Z</time>
      </trkpt>
      <trkpt lat="46.76924" lon="5.58527">
        <ele>245.8</ele>
        <time>2019-11-21T09:03:52Z</time>
      </trkpt>
      <trkpt lat="46.76929" lon="5.5853">
        <ele>245.2</ele>
        <time>2019-11-21T09:03:57Z</time>
      </trkpt>
      <trkpt lat="46.76933" lon="5.58534">
        <ele>244.7</ele>
        <time>2019-11-21T09:04:01Z</time>
      </trkpt>
      <trkpt lat="46.76938" lon="5.58537">
        <ele>244.3</ele>
        <time>2019-11-21T09:04:05Z</time>
      </trkpt>
      <trkpt lat="46.76943" lon="5.58539">
        <ele>244</ele>
        <time>2019-11-21T09:04:09Z</time>
      </trkpt>
      <trkpt lat="46.76948" lon="5.58542">
        <ele>243.6</ele>
        <time>2019-11-21T09:04:14Z</time>
      </trkpt>
      <trkpt lat="46.76953" lon="5.58544">
        <ele>243.4</ele>
        <time>2019-11-21T09:04:18Z</time>
      </trkpt>
      <trkpt lat="46.76957" lon="5.58548">
        <ele>243</ele>
        <time>2019-11-21T09:04:22Z</time>
      </trkpt>
      <trkpt lat="46.76962" lon="5.58551">
        <ele>242.6</ele>
        <time>2019-11-21T09:04:27Z</time>
      </trkpt>
      <trkpt lat="46.76967" lon="5.58555">
        <ele>242.4</ele>
        <time>2019-11-21T09:04:31Z</time>
      </trkpt>
      <trkpt lat="46.76972" lon="5.58559">
        <ele>242</ele>
        <time>2019-11-21T09:04:35Z</time>
      </trkpt>
      <trkpt lat="46.76977" lon="5.58563">
        <ele>241.6</ele>
        <time>2019-11-21T09:04:40Z</time>
      </trkpt>
      <trkpt lat="46.76981" lon="5.58567">
        <ele>241.2</ele>
        <time>2019-11-21T09:04:45Z</time>
      </trkpt>
      <trkpt lat="46.76985" lon="5.5857">
        <ele>241</ele>
        <time>2019-11-21T09:04:49Z</time>
      </trkpt>
      <trkpt lat="46.7699" lon="5.58572">
        <ele>240.8</ele>
        <time>2019-11-21T09:04:54Z</time>
      </trkpt>
      <trkpt lat="46.76995" lon="5.58574">
        <ele>240.6</ele>
        <time>2019-11-21T09:04:58Z</time>
      </trkpt>
      <trkpt lat="46.77" lon="5.58577">
        <ele>240.2</ele>
        <time>2019-11-21T09:05:02Z</time>
      </trkpt>
      <trkpt lat="46.77004" lon="5.5858">
        <ele>240</ele>
        <time>2019-11-21T09:05:05Z</time>
      </trkpt>
      <trkpt lat="46.77009" lon="5.58583">
        <ele>239.8</ele>
        <time>2019-11-21T09:05:10Z</time>
      </trkpt>
      <trkpt lat="46.77014" lon="5.58584">
        <ele>239.8</ele>
        <time>2019-11-21T09:05:14Z</time>
      </trkpt>
      <trkpt lat="46.77019" lon="5.58585">
        <ele>239.8</ele>
        <time>2019-11-21T09:05:18Z</time>
      </trkpt>
      <trkpt lat="46.77024" lon="5.58589">
        <ele>239.6</ele>
        <time>2019-11-21T09:05:22Z</time>
      </trkpt>
      <trkpt lat="46.77028" lon="5.58593">
        <ele>239.4</ele>
        <time>2019-11-21T09:05:27Z</time>
      </trkpt>
      <trkpt lat="46.77033" lon="5.58598">
        <ele>239.2</ele>
        <time>2019-11-21T09:05:31Z</time>
      </trkpt>
      <trkpt lat="46.77038" lon="5.58601">
        <ele>239.1</ele>
        <time>2019-11-21T09:05:35Z</time>
      </trkpt>
      <trkpt lat="46.77042" lon="5.58603">
        <ele>238.9</ele>
        <time>2019-11-21T09:05:39Z</time>
      </trkpt>
      <trkpt lat="46.77048" lon="5.58606">
        <ele>238.7</ele>
        <time>2019-11-21T09:05:44Z</time>
      </trkpt>
      <trkpt lat="46.77052" lon="5.58609">
        <ele>238.4</ele>
        <time>2019-11-21T09:05:48Z</time>
      </trkpt>
      <trkpt lat="46.77057" lon="5.58611">
        <ele>238.2</ele>
        <time>2019-11-21T09:05:52Z</time>
      </trkpt>
      <trkpt lat="46.77062" lon="5.58614">
        <ele>238</ele>
        <time>2019-11-21T09:05:56Z</time>
      </trkpt>
      <trkpt lat="46.77066" lon="5.58616">
        <ele>237.8</ele>
        <time>2019-11-21T09:06:00Z</time>
      </trkpt>
      <trkpt lat="46.77071" lon="5.58619">
        <ele>237.6</ele>
        <time>2019-11-21T09:06:05Z</time>
      </trkpt>
      <trkpt lat="46.77075" lon="5.58622">
        <ele>237.5</ele>
        <time>2019-11-21T09:06:08Z</time>
      </trkpt>
      <trkpt lat="46.77079" lon="5.58625">
        <ele>237.5</ele>
        <time>2019-11-21T09:06:12Z</time>
      </trkpt>
      <trkpt lat="46.77084" lon="5.58627">
        <ele>237.5</ele>
        <time>2019-11-21T09:06:16Z</time>
      </trkpt>
      <trkpt lat="46.7709" lon="5.58629">
        <ele>237.6</ele>
        <time>2019-11-21T09:06:20Z</time>
      </trkpt>
      <trkpt lat="46.77095" lon="5.58631">
        <ele>237.6</ele>
        <time>2019-11-21T09:06:25Z</time>
      </trkpt>
      <trkpt lat="46.77099" lon="5.58634">
        <ele>237.6</ele>
        <time>2019-11-21T09:06:29Z</time>
      </trkpt>
      <trkpt lat="46.77103" lon="5.58637">
        <ele>237.7</ele>
        <time>2019-11-21T09:06:34Z</time>
      </trkpt>
      <trkpt lat="46.77108" lon="5.5864">
        <ele>237.6</ele>
        <time>2019-11-21T09:06:39Z</time>
      </trkpt>
      <trkpt lat="46.77113" lon="5.58645">
        <ele>237.8</ele>
        <time>2019-11-21T09:06:43Z</time>
      </trkpt>
      <trkpt lat="46.77117" lon="5.58648">
        <ele>237.8</ele>
        <time>2019-11-21T09:06:47Z</time>
      </trkpt>
      <trkpt lat="46.77122" lon="5.5865">
        <ele>237.9</ele>
        <time>2019-11-21T09:06:51Z</time>
      </trkpt>
      <trkpt lat="46.77126" lon="5.58652">
        <ele>237.8</ele>
        <time>2019-11-21T09:06:55Z</time>
      </trkpt>
      <trkpt lat="46.77131" lon="5.58655">
        <ele>237.8</ele>
        <time>2019-11-21T09:06:59Z</time>
      </trkpt>
      <trkpt lat="46.77135" lon="5.58657">
        <ele>237.8</ele>
        <time>2019-11-21T09:07:03Z</time>
      </trkpt>
      <trkpt lat="46.77141" lon="5.58661">
        <ele>237.8</ele>
        <time>2019-11-21T09:07:08Z</time>
      </trkpt>
      <trkpt lat="46.77146" lon="5.58664">
        <ele>237.7</ele>
        <time>2019-11-21T09:07:13Z</time>
      </trkpt>
      <trkpt lat="46.77151" lon="5.58667">
        <ele>237.7</ele>
        <time>2019-11-21T09:07:18Z</time>
      </trkpt>
      <trkpt lat="46.77155" lon="5.58671">
        <ele>237.8</ele>
        <time>2019-11-21T09:07:21Z</time>
      </trkpt>
      <trkpt lat="46.7716" lon="5.58673">
        <ele>237.8</ele>
        <time>2019-11-21T09:07:25Z</time>
      </trkpt>
      <trkpt lat="46.77166" lon="5.58676">
        <ele>237.7</ele>
        <time>2019-11-21T09:07:29Z</time>
      </trkpt>
      <trkpt lat="46.77171" lon="5.58679">
        <ele>237.6</ele>
        <time>2019-11-21T09:07:33Z</time>
      </trkpt>
      <trkpt lat="46.77176" lon="5.58683">
        <ele>237.4</ele>
        <time>2019-11-21T09:07:38Z</time>
      </trkpt>
      <trkpt lat="46.7718" lon="5.58687">
        <ele>237.3</ele>
        <time>2019-11-21T09:07:43Z</time>
      </trkpt>
      <trkpt lat="46.77184" lon="5.58691">
        <ele>237.3</ele>
        <time>2019-11-21T09:07:47Z</time>
      </trkpt>
      <trkpt lat="46.77189" lon="5.58693">
        <ele>237.4</ele>
        <time>2019-11-21T09:07:51Z</time>
      </trkpt>
      <trkpt lat="46.77194" lon="5.58696">
        <ele>237.6</ele>
        <time>2019-11-21T09:07:55Z</time>
      </trkpt>
      <trkpt lat="46.77199" lon="5.58699">
        <ele>237.9</ele>
        <time>2019-11-21T09:07:59Z</time>
      </trkpt>
      <trkpt lat="46.77204" lon="5.58703">
        <ele>238.3</ele>
        <time>2019-11-21T09:08:04Z</time>
      </trkpt>
      <trkpt lat="46.77208" lon="5.58706">
        <ele>238.4</ele>
        <time>2019-11-21T09:08:08Z</time>
      </trkpt>
      <trkpt lat="46.77214" lon="5.58709">
        <ele>238.7</ele>
        <time>2019-11-21T09:08:13Z</time>
      </trkpt>
      <trkpt lat="46.77219" lon="5.58712">
        <ele>238.7</ele>
        <time>2019-11-21T09:08:16Z</time>
      </trkpt>
      <trkpt lat="46.77223" lon="5.58716">
        <ele>238.7</ele>
        <time>2019-11-21T09:08:20Z</time>
      </trkpt>
      <trkpt lat="46.77228" lon="5.58718">
        <ele>238.6</ele>
        <time>2019-11-21T09:08:25Z</time>
      </trkpt>
      <trkpt lat="46.77234" lon="5.58722">
        <ele>238.4</ele>
        <time>2019-11-21T09:08:30Z</time>
      </trkpt>
      <trkpt lat="46.77239" lon="5.58724">
        <ele>238.1</ele>
        <time>2019-11-21T09:08:34Z</time>
      </trkpt>
      <trkpt lat="46.77244" lon="5.58727">
        <ele>237.9</ele>
        <time>2019-11-21T09:08:39Z</time>
      </trkpt>
      <trkpt lat="46.77247" lon="5.58732">
        <ele>237.9</ele>
        <time>2019-11-21T09:08:44Z</time>
      </trkpt>
      <trkpt lat="46.77251" lon="5.58734">
        <ele>238</ele>
        <time>2019-11-21T09:08:48Z</time>
      </trkpt>
      <trkpt lat="46.77256" lon="5.58736">
        <ele>238</ele>
        <time>2019-11-21T09:08:52Z</time>
      </trkpt>
      <trkpt lat="46.7726" lon="5.58741">
        <ele>238.1</ele>
        <time>2019-11-21T09:08:57Z</time>
      </trkpt>
      <trkpt lat="46.77264" lon="5.58748">
        <ele>238.1</ele>
        <time>2019-11-21T09:09:02Z</time>
      </trkpt>
      <trkpt lat="46.77268" lon="5.58753">
        <ele>238.1</ele>
        <time>2019-11-21T09:09:06Z</time>
      </trkpt>
      <trkpt lat="46.77272" lon="5.58757">
        <ele>238</ele>
        <time>2019-11-21T09:09:11Z</time>
      </trkpt>
      <trkpt lat="46.77277" lon="5.58757">
        <ele>237.7</ele>
        <time>2019-11-21T09:09:16Z</time>
      </trkpt>
      <trkpt lat="46.77282" lon="5.58757">
        <ele>237.5</ele>
        <time>2019-11-21T09:09:22Z</time>
      </trkpt>
      <trkpt lat="46.77288" lon="5.58755">
        <ele>237.6</ele>
        <time>2019-11-21T09:09:28Z</time>
      </trkpt>
      <trkpt lat="46.77292" lon="5.58755">
        <ele>237.6</ele>
        <time>2019-11-21T09:09:33Z</time>
      </trkpt>
      <trkpt lat="46.77297" lon="5.58755">
        <ele>237.6</ele>
        <time>2019-11-21T09:09:37Z</time>
      </trkpt>
      <trkpt lat="46.77302" lon="5.58754">
        <ele>237.8</ele>
        <time>2019-11-21T09:09:41Z</time>
      </trkpt>
      <trkpt lat="46.77307" lon="5.58754">
        <ele>237.8</ele>
        <time>2019-11-21T09:09:45Z</time>
      </trkpt>
      <trkpt lat="46.77313" lon="5.58755">
        <ele>237.7</ele>
        <time>2019-11-21T09:09:49Z</time>
      </trkpt>
      <trkpt lat="46.77318" lon="5.58755">
        <ele>237.6</ele>
        <time>2019-11-21T09:09:54Z</time>
      </trkpt>
      <trkpt lat="46.77323" lon="5.58756">
        <ele>237.5</ele>
        <time>2019-11-21T09:09:58Z</time>
      </trkpt>
      <trkpt lat="46.77327" lon="5.58757">
        <ele>237.3</ele>
        <time>2019-11-21T09:10:02Z</time>
      </trkpt>
      <trkpt lat="46.77332" lon="5.58759">
        <ele>237.1</ele>
        <time>2019-11-21T09:10:07Z</time>
      </trkpt>
      <trkpt lat="46.77337" lon="5.58761">
        <ele>236.9</ele>
        <time>2019-11-21T09:10:11Z</time>
      </trkpt>
      <trkpt lat="46.77342" lon="5.58763">
        <ele>236.7</ele>
        <time>2019-11-21T09:10:15Z</time>
      </trkpt>
      <trkpt lat="46.77348" lon="5.58765">
        <ele>236.4</ele>
        <time>2019-11-21T09:10:19Z</time>
      </trkpt>
      <trkpt lat="46.77353" lon="5.58766">
        <ele>236.2</ele>
        <time>2019-11-21T09:10:23Z</time>
      </trkpt>
      <trkpt lat="46.77357" lon="5.58769">
        <ele>236.2</ele>
        <time>2019-11-21T09:10:27Z</time>
      </trkpt>
      <trkpt lat="46.77362" lon="5.58772">
        <ele>236.3</ele>
        <time>2019-11-21T09:10:32Z</time>
      </trkpt>
      <trkpt lat="46.77367" lon="5.58774">
        <ele>236.4</ele>
        <time>2019-11-21T09:10:37Z</time>
      </trkpt>
      <trkpt lat="46.77372" lon="5.58775">
        <ele>236.5</ele>
        <time>2019-11-21T09:10:42Z</time>
      </trkpt>
      <trkpt lat="46.77377" lon="5.58776">
        <ele>236.6</ele>
        <time>2019-11-21T09:10:46Z</time>
      </trkpt>
      <trkpt lat="46.77381" lon="5.58778">
        <ele>236.8</ele>
        <time>2019-11-21T09:10:50Z</time>
      </trkpt>
      <trkpt lat="46.77385" lon="5.58782">
        <ele>236.9</ele>
        <time>2019-11-21T09:10:55Z</time>
      </trkpt>
      <trkpt lat="46.7739" lon="5.58786">
        <ele>237.1</ele>
        <time>2019-11-21T09:11:00Z</time>
      </trkpt>
      <trkpt lat="46.77395" lon="5.5879">
        <ele>237.3</ele>
        <time>2019-11-21T09:11:04Z</time>
      </trkpt>
      <trkpt lat="46.774" lon="5.58793">
        <ele>237.6</ele>
        <time>2019-11-21T09:11:09Z</time>
      </trkpt>
      <trkpt lat="46.77405" lon="5.58796">
        <ele>237.9</ele>
        <time>2019-11-21T09:11:13Z</time>
      </trkpt>
      <trkpt lat="46.7741" lon="5.58799">
        <ele>238</ele>
        <time>2019-11-21T09:11:17Z</time>
      </trkpt>
      <trkpt lat="46.77415" lon="5.58803">
        <ele>238.1</ele>
        <time>2019-11-21T09:11:21Z</time>
      </trkpt>
      <trkpt lat="46.77419" lon="5.58806">
        <ele>238.3</ele>
        <time>2019-11-21T09:11:25Z</time>
      </trkpt>
      <trkpt lat="46.77422" lon="5.58812">
        <ele>238.5</ele>
        <time>2019-11-21T09:11:30Z</time>
      </trkpt>
      <trkpt lat="46.77424" lon="5.58818">
        <ele>238.7</ele>
        <time>2019-11-21T09:11:34Z</time>
      </trkpt>
      <trkpt lat="46.77428" lon="5.58822">
        <ele>238.8</ele>
        <time>2019-11-21T09:11:39Z</time>
      </trkpt>
      <trkpt lat="46.77433" lon="5.58826">
        <ele>238.9</ele>
        <time>2019-11-21T09:11:43Z</time>
      </trkpt>
      <trkpt lat="46.77437" lon="5.5883">
        <ele>239</ele>
        <time>2019-11-21T09:11:48Z</time>
      </trkpt>
      <trkpt lat="46.77441" lon="5.58833">
        <ele>239.1</ele>
        <time>2019-11-21T09:11:52Z</time>
      </trkpt>
      <trkpt lat="46.77446" lon="5.58835">
        <ele>239.2</ele>
        <time>2019-11-21T09:11:56Z</time>
      </trkpt>
      <trkpt lat="46.77451" lon="5.58837">
        <ele>239.4</ele>
        <time>2019-11-21T09:12:00Z</time>
      </trkpt>
      <trkpt lat="46.77457" lon="5.5884">
        <ele>239.6</ele>
        <time>2019-11-21T09:12:05Z</time>
      </trkpt>
      <trkpt lat="46.77462" lon="5.58841">
        <ele>239.7</ele>
        <time>2019-11-21T09:12:10Z</time>
      </trkpt>
      <trkpt lat="46.77467" lon="5.58842">
        <ele>240</ele>
        <time>2019-11-21T09:12:14Z</time>
      </trkpt>
      <trkpt lat="46.77472" lon="5.58842">
        <ele>240.3</ele>
        <time>2019-11-21T09:12:18Z</time>
      </trkpt>
      <trkpt lat="46.77477" lon="5.5884">
        <ele>240.6</ele>
        <time>2019-11-21T09:12:23Z</time>
      </trkpt>
      <trkpt lat="46.77482" lon="5.58839">
        <ele>240.8</ele>
        <time>2019-11-21T09:12:27Z</time>
      </trkpt>
      <trkpt lat="46.77487" lon="5.58838">
        <ele>241.1</ele>
        <time>2019-11-21T09:12:31Z</time>
      </trkpt>
      <trkpt lat="46.77491" lon="5.58837">
        <ele>241.4</ele>
        <time>2019-11-21T09:12:35Z</time>
      </trkpt>
      <trkpt lat="46.77496" lon="5.58836">
        <ele>241.6</ele>
        <time>2019-11-21T09:12:39Z</time>
      </trkpt>
      <trkpt lat="46.77501" lon="5.58837">
        <ele>241.8</ele>
        <time>2019-11-21T09:12:44Z</time>
      </trkpt>
      <trkpt lat="46.77505" lon="5.5884">
        <ele>241.9</ele>
        <time>2019-11-21T09:12:48Z</time>
      </trkpt>
      <trkpt lat="46.77509" lon="5.58845">
        <ele>242.2</ele>
        <time>2019-11-21T09:12:53Z</time>
      </trkpt>
      <trkpt lat="46.77513" lon="5.58848">
        <ele>242.2</ele>
        <time>2019-11-21T09:12:57Z</time>
      </trkpt>
      <trkpt lat="46.77519" lon="5.58851">
        <ele>242.3</ele>
        <time>2019-11-21T09:13:01Z</time>
      </trkpt>
      <trkpt lat="46.77522" lon="5.58856">
        <ele>242.4</ele>
        <time>2019-11-21T09:13:05Z</time>
      </trkpt>
      <trkpt lat="46.77527" lon="5.58859">
        <ele>242.5</ele>
        <time>2019-11-21T09:13:10Z</time>
      </trkpt>
      <trkpt lat="46.77531" lon="5.58864">
        <ele>242.8</ele>
        <time>2019-11-21T09:13:15Z</time>
      </trkpt>
      <trkpt lat="46.77535" lon="5.58868">
        <ele>242.9</ele>
        <time>2019-11-21T09:13:20Z</time>
      </trkpt>
      <trkpt lat="46.77539" lon="5.58872">
        <ele>243.1</ele>
        <time>2019-11-21T09:13:24Z</time>
      </trkpt>
      <trkpt lat="46.77543" lon="5.58876">
        <ele>243.3</ele>
        <time>2019-11-21T09:13:28Z</time>
      </trkpt>
      <trkpt lat="46.77547" lon="5.58881">
        <ele>243.6</ele>
        <time>2019-11-21T09:13:32Z</time>
      </trkpt>
      <trkpt lat="46.77551" lon="5.58885">
        <ele>243.9</ele>
        <time>2019-11-21T09:13:36Z</time>
      </trkpt>
      <trkpt lat="46.77556" lon="5.58889">
        <ele>244.1</ele>
        <time>2019-11-21T09:13:40Z</time>
      </trkpt>
      <trkpt lat="46.7756" lon="5.58892">
        <ele>244.3</ele>
        <time>2019-11-21T09:13:44Z</time>
      </trkpt>
      <trkpt lat="46.77564" lon="5.58894">
        <ele>244.4</ele>
        <time>2019-11-21T09:13:48Z</time>
      </trkpt>
      <trkpt lat="46.77568" lon="5.58898">
        <ele>244.6</ele>
        <time>2019-11-21T09:13:52Z</time>
      </trkpt>
      <trkpt lat="46.77572" lon="5.58902">
        <ele>244.7</ele>
        <time>2019-11-21T09:13:56Z</time>
      </trkpt>
      <trkpt lat="46.77576" lon="5.58907">
        <ele>244.9</ele>
        <time>2019-11-21T09:14:00Z</time>
      </trkpt>
      <trkpt lat="46.7758" lon="5.58912">
        <ele>245.1</ele>
        <time>2019-11-21T09:14:04Z</time>
      </trkpt>
      <trkpt lat="46.77584" lon="5.58915">
        <ele>245.3</ele>
        <time>2019-11-21T09:14:09Z</time>
      </trkpt>
      <trkpt lat="46.77589" lon="5.58917">
        <ele>245.5</ele>
        <time>2019-11-21T09:14:13Z</time>
      </trkpt>
      <trkpt lat="46.77594" lon="5.5892">
        <ele>245.8</ele>
        <time>2019-11-21T09:14:17Z</time>
      </trkpt>
      <trkpt lat="46.776" lon="5.58922">
        <ele>246</ele>
        <time>2019-11-21T09:14:21Z</time>
      </trkpt>
      <trkpt lat="46.77604" lon="5.58925">
        <ele>246.2</ele>
        <time>2019-11-21T09:14:25Z</time>
      </trkpt>
      <trkpt lat="46.77609" lon="5.58927">
        <ele>246.4</ele>
        <time>2019-11-21T09:14:30Z</time>
      </trkpt>
      <trkpt lat="46.77614" lon="5.58931">
        <ele>246.6</ele>
        <time>2019-11-21T09:14:35Z</time>
      </trkpt>
      <trkpt lat="46.77619" lon="5.58934">
        <ele>246.8</ele>
        <time>2019-11-21T09:14:39Z</time>
      </trkpt>
      <trkpt lat="46.77623" lon="5.58937">
        <ele>247</ele>
        <time>2019-11-21T09:14:44Z</time>
      </trkpt>
      <trkpt lat="46.77629" lon="5.58939">
        <ele>247.2</ele>
        <time>2019-11-21T09:14:49Z</time>
      </trkpt>
      <trkpt lat="46.77634" lon="5.58942">
        <ele>247.4</ele>
        <time>2019-11-21T09:14:53Z</time>
      </trkpt>
      <trkpt lat="46.77639" lon="5.58944">
        <ele>247.5</ele>
        <time>2019-11-21T09:14:57Z</time>
      </trkpt>
      <trkpt lat="46.77643" lon="5.58946">
        <ele>247.7</ele>
        <time>2019-11-21T09:15:01Z</time>
      </trkpt>
      <trkpt lat="46.77648" lon="5.58948">
        <ele>247.9</ele>
        <time>2019-11-21T09:15:05Z</time>
      </trkpt>
      <trkpt lat="46.77653" lon="5.58949">
        <ele>248.1</ele>
        <time>2019-11-21T09:15:09Z</time>
      </trkpt>
      <trkpt lat="46.77658" lon="5.58953">
        <ele>248.4</ele>
        <time>2019-11-21T09:15:14Z</time>
      </trkpt>
      <trkpt lat="46.77662" lon="5.58956">
        <ele>248.6</ele>
        <time>2019-11-21T09:15:18Z</time>
      </trkpt>
      <trkpt lat="46.77666" lon="5.58959">
        <ele>248.9</ele>
        <time>2019-11-21T09:15:22Z</time>
      </trkpt>
      <trkpt lat="46.7767" lon="5.58962">
        <ele>249.1</ele>
        <time>2019-11-21T09:15:26Z</time>
      </trkpt>
      <trkpt lat="46.77675" lon="5.58965">
        <ele>249.5</ele>
        <time>2019-11-21T09:15:32Z</time>
      </trkpt>
      <trkpt lat="46.7768" lon="5.58966">
        <ele>249.8</ele>
        <time>2019-11-21T09:15:36Z</time>
      </trkpt>
      <trkpt lat="46.77684" lon="5.58968">
        <ele>250.3</ele>
        <time>2019-11-21T09:15:40Z</time>
      </trkpt>
      <trkpt lat="46.77689" lon="5.58971">
        <ele>250.9</ele>
        <time>2019-11-21T09:15:45Z</time>
      </trkpt>
      <trkpt lat="46.77694" lon="5.58973">
        <ele>251.2</ele>
        <time>2019-11-21T09:15:49Z</time>
      </trkpt>
      <trkpt lat="46.777" lon="5.58974">
        <ele>251.5</ele>
        <time>2019-11-21T09:15:53Z</time>
      </trkpt>
      <trkpt lat="46.77704" lon="5.58977">
        <ele>251.8</ele>
        <time>2019-11-21T09:15:57Z</time>
      </trkpt>
      <trkpt lat="46.77709" lon="5.5898">
        <ele>252.1</ele>
        <time>2019-11-21T09:16:02Z</time>
      </trkpt>
      <trkpt lat="46.77714" lon="5.58982">
        <ele>252.6</ele>
        <time>2019-11-21T09:16:08Z</time>
      </trkpt>
      <trkpt lat="46.77719" lon="5.58985">
        <ele>252.9</ele>
        <time>2019-11-21T09:16:12Z</time>
      </trkpt>
      <trkpt lat="46.77724" lon="5.58987">
        <ele>253.1</ele>
        <time>2019-11-21T09:16:16Z</time>
      </trkpt>
      <trkpt lat="46.77728" lon="5.5899">
        <ele>253.2</ele>
        <time>2019-11-21T09:16:20Z</time>
      </trkpt>
      <trkpt lat="46.77733" lon="5.58994">
        <ele>253.4</ele>
        <time>2019-11-21T09:16:24Z</time>
      </trkpt>
      <trkpt lat="46.77737" lon="5.58996">
        <ele>253.5</ele>
        <time>2019-11-21T09:16:28Z</time>
      </trkpt>
      <trkpt lat="46.77742" lon="5.58999">
        <ele>253.7</ele>
        <time>2019-11-21T09:16:32Z</time>
      </trkpt>
      <trkpt lat="46.77747" lon="5.59001">
        <ele>253.9</ele>
        <time>2019-11-21T09:16:37Z</time>
      </trkpt>
      <trkpt lat="46.77752" lon="5.59004">
        <ele>254.1</ele>
        <time>2019-11-21T09:16:42Z</time>
      </trkpt>
      <trkpt lat="46.77757" lon="5.59007">
        <ele>254.3</ele>
        <time>2019-11-21T09:16:47Z</time>
      </trkpt>
      <trkpt lat="46.77762" lon="5.5901">
        <ele>254.6</ele>
        <time>2019-11-21T09:16:52Z</time>
      </trkpt>
      <trkpt lat="46.77766" lon="5.59012">
        <ele>254.9</ele>
        <time>2019-11-21T09:16:56Z</time>
      </trkpt>
      <trkpt lat="46.77771" lon="5.59014">
        <ele>255.3</ele>
        <time>2019-11-21T09:17:00Z</time>
      </trkpt>
      <trkpt lat="46.77776" lon="5.59017">
        <ele>255.6</ele>
        <time>2019-11-21T09:17:04Z</time>
      </trkpt>
      <trkpt lat="46.77781" lon="5.59019">
        <ele>255.8</ele>
        <time>2019-11-21T09:17:08Z</time>
      </trkpt>
      <trkpt lat="46.77785" lon="5.59021">
        <ele>256.1</ele>
        <time>2019-11-21T09:17:13Z</time>
      </trkpt>
      <trkpt lat="46.7779" lon="5.59024">
        <ele>256.3</ele>
        <time>2019-11-21T09:17:17Z</time>
      </trkpt>
      <trkpt lat="46.77794" lon="5.59026">
        <ele>256.5</ele>
        <time>2019-11-21T09:17:22Z</time>
      </trkpt>
      <trkpt lat="46.77799" lon="5.59029">
        <ele>256.7</ele>
        <time>2019-11-21T09:17:26Z</time>
      </trkpt>
      <trkpt lat="46.77804" lon="5.59032">
        <ele>257</ele>
        <time>2019-11-21T09:17:31Z</time>
      </trkpt>
      <trkpt lat="46.77809" lon="5.59035">
        <ele>257.2</ele>
        <time>2019-11-21T09:17:35Z</time>
      </trkpt>
      <trkpt lat="46.77814" lon="5.59036">
        <ele>257.3</ele>
        <time>2019-11-21T09:17:39Z</time>
      </trkpt>
      <trkpt lat="46.77818" lon="5.59039">
        <ele>257.4</ele>
        <time>2019-11-21T09:17:44Z</time>
      </trkpt>
      <trkpt lat="46.77824" lon="5.5904">
        <ele>257.5</ele>
        <time>2019-11-21T09:17:49Z</time>
      </trkpt>
      <trkpt lat="46.77829" lon="5.59043">
        <ele>257.5</ele>
        <time>2019-11-21T09:17:54Z</time>
      </trkpt>
      <trkpt lat="46.77833" lon="5.59046">
        <ele>257.5</ele>
        <time>2019-11-21T09:17:58Z</time>
      </trkpt>
      <trkpt lat="46.77838" lon="5.59049">
        <ele>257.6</ele>
        <time>2019-11-21T09:18:03Z</time>
      </trkpt>
      <trkpt lat="46.77843" lon="5.59053">
        <ele>257.7</ele>
        <time>2019-11-21T09:18:08Z</time>
      </trkpt>
      <trkpt lat="46.77848" lon="5.59056">
        <ele>257.8</ele>
        <time>2019-11-21T09:18:12Z</time>
      </trkpt>
      <trkpt lat="46.77852" lon="5.59058">
        <ele>257.9</ele>
        <time>2019-11-21T09:18:16Z</time>
      </trkpt>
      <trkpt lat="46.77857" lon="5.59061">
        <ele>258</ele>
        <time>2019-11-21T09:18:20Z</time>
      </trkpt>
      <trkpt lat="46.77862" lon="5.59065">
        <ele>258.1</ele>
        <time>2019-11-21T09:18:25Z</time>
      </trkpt>
      <trkpt lat="46.77867" lon="5.59069">
        <ele>258.2</ele>
        <time>2019-11-21T09:18:30Z</time>
      </trkpt>
      <trkpt lat="46.77871" lon="5.59072">
        <ele>258.4</ele>
        <time>2019-11-21T09:18:35Z</time>
      </trkpt>
      <trkpt lat="46.77876" lon="5.59075">
        <ele>258.6</ele>
        <time>2019-11-21T09:18:39Z</time>
      </trkpt>
      <trkpt lat="46.7788" lon="5.59079">
        <ele>258.7</ele>
        <time>2019-11-21T09:18:44Z</time>
      </trkpt>
      <trkpt lat="46.77884" lon="5.59082">
        <ele>258.9</ele>
        <time>2019-11-21T09:18:49Z</time>
      </trkpt>
      <trkpt lat="46.77888" lon="5.59085">
        <ele>259.2</ele>
        <time>2019-11-21T09:18:54Z</time>
      </trkpt>
      <trkpt lat="46.77891" lon="5.59091">
        <ele>259.7</ele>
        <time>2019-11-21T09:19:16Z</time>
      </trkpt>
      <trkpt lat="46.77893" lon="5.59085">
        <ele>256</ele>
        <time>2019-11-21T09:21:42Z</time>
      </trkpt>
      <trkpt lat="46.77897" lon="5.5908">
        <ele>258.3</ele>
        <time>2019-11-21T09:23:06Z</time>
      </trkpt>
      <trkpt lat="46.77898" lon="5.59074">
        <ele>259.2</ele>
        <time>2019-11-21T09:23:15Z</time>
      </trkpt>
      <trkpt lat="46.77901" lon="5.59067">
        <ele>259.2</ele>
        <time>2019-11-21T09:23:21Z</time>
      </trkpt>
      <trkpt lat="46.77904" lon="5.59062">
        <ele>259.2</ele>
        <time>2019-11-21T09:23:26Z</time>
      </trkpt>
      <trkpt lat="46.77905" lon="5.59055">
        <ele>259.4</ele>
        <time>2019-11-21T09:23:32Z</time>
      </trkpt>
      <trkpt lat="46.77907" lon="5.59048">
        <ele>259.3</ele>
        <time>2019-11-21T09:23:38Z</time>
      </trkpt>
      <trkpt lat="46.77907" lon="5.59041">
        <ele>259.4</ele>
        <time>2019-11-21T09:23:42Z</time>
      </trkpt>
      <trkpt lat="46.77909" lon="5.59034">
        <ele>259.4</ele>
        <time>2019-11-21T09:23:46Z</time>
      </trkpt>
      <trkpt lat="46.77911" lon="5.59027">
        <ele>259.4</ele>
        <time>2019-11-21T09:23:50Z</time>
      </trkpt>
      <trkpt lat="46.77912" lon="5.59021">
        <ele>259.4</ele>
        <time>2019-11-21T09:23:54Z</time>
      </trkpt>
      <trkpt lat="46.77913" lon="5.59012">
        <ele>259.5</ele>
        <time>2019-11-21T09:23:58Z</time>
      </trkpt>
      <trkpt lat="46.77916" lon="5.59006">
        <ele>259.5</ele>
        <time>2019-11-21T09:24:02Z</time>
      </trkpt>
      <trkpt lat="46.77918" lon="5.58999">
        <ele>259.5</ele>
        <time>2019-11-21T09:24:07Z</time>
      </trkpt>
      <trkpt lat="46.7792" lon="5.58993">
        <ele>259.5</ele>
        <time>2019-11-21T09:24:12Z</time>
      </trkpt>
      <trkpt lat="46.77923" lon="5.58987">
        <ele>259.3</ele>
        <time>2019-11-21T09:24:16Z</time>
      </trkpt>
      <trkpt lat="46.77925" lon="5.58981">
        <ele>259.1</ele>
        <time>2019-11-21T09:24:21Z</time>
      </trkpt>
      <trkpt lat="46.77928" lon="5.58973">
        <ele>259</ele>
        <time>2019-11-21T09:24:26Z</time>
      </trkpt>
      <trkpt lat="46.77929" lon="5.58965">
        <ele>259</ele>
        <time>2019-11-21T09:24:30Z</time>
      </trkpt>
      <trkpt lat="46.77931" lon="5.58958">
        <ele>259.1</ele>
        <time>2019-11-21T09:24:34Z</time>
      </trkpt>
      <trkpt lat="46.77934" lon="5.58952">
        <ele>259.2</ele>
        <time>2019-11-21T09:24:38Z</time>
      </trkpt>
      <trkpt lat="46.77935" lon="5.58945">
        <ele>259.3</ele>
        <time>2019-11-21T09:24:43Z</time>
      </trkpt>
      <trkpt lat="46.77937" lon="5.58937">
        <ele>259.5</ele>
        <time>2019-11-21T09:24:49Z</time>
      </trkpt>
      <trkpt lat="46.77938" lon="5.58931">
        <ele>259.6</ele>
        <time>2019-11-21T09:24:53Z</time>
      </trkpt>
      <trkpt lat="46.77939" lon="5.58923">
        <ele>259.6</ele>
        <time>2019-11-21T09:24:57Z</time>
      </trkpt>
      <trkpt lat="46.77941" lon="5.58917">
        <ele>259.6</ele>
        <time>2019-11-21T09:25:01Z</time>
      </trkpt>
      <trkpt lat="46.77943" lon="5.5891">
        <ele>259.4</ele>
        <time>2019-11-21T09:25:05Z</time>
      </trkpt>
      <trkpt lat="46.77945" lon="5.58904">
        <ele>259.2</ele>
        <time>2019-11-21T09:25:09Z</time>
      </trkpt>
      <trkpt lat="46.77947" lon="5.58897">
        <ele>258.8</ele>
        <time>2019-11-21T09:25:14Z</time>
      </trkpt>
      <trkpt lat="46.7795" lon="5.58892">
        <ele>258.5</ele>
        <time>2019-11-21T09:25:18Z</time>
      </trkpt>
      <trkpt lat="46.77952" lon="5.58885">
        <ele>258.1</ele>
        <time>2019-11-21T09:25:24Z</time>
      </trkpt>
      <trkpt lat="46.77953" lon="5.58878">
        <ele>258</ele>
        <time>2019-11-21T09:25:28Z</time>
      </trkpt>
      <trkpt lat="46.77955" lon="5.58871">
        <ele>257.9</ele>
        <time>2019-11-21T09:25:32Z</time>
      </trkpt>
      <trkpt lat="46.77957" lon="5.58864">
        <ele>257.8</ele>
        <time>2019-11-21T09:25:36Z</time>
      </trkpt>
      <trkpt lat="46.77959" lon="5.58858">
        <ele>257.7</ele>
        <time>2019-11-21T09:25:40Z</time>
      </trkpt>
      <trkpt lat="46.7796" lon="5.5885">
        <ele>257.7</ele>
        <time>2019-11-21T09:25:45Z</time>
      </trkpt>
      <trkpt lat="46.77962" lon="5.58843">
        <ele>257.7</ele>
        <time>2019-11-21T09:25:50Z</time>
      </trkpt>
      <trkpt lat="46.77964" lon="5.58837">
        <ele>257.6</ele>
        <time>2019-11-21T09:25:54Z</time>
      </trkpt>
      <trkpt lat="46.77966" lon="5.58829">
        <ele>257.4</ele>
        <time>2019-11-21T09:25:59Z</time>
      </trkpt>
      <trkpt lat="46.77968" lon="5.58823">
        <ele>257.1</ele>
        <time>2019-11-21T09:26:03Z</time>
      </trkpt>
      <trkpt lat="46.7797" lon="5.58816">
        <ele>256.5</ele>
        <time>2019-11-21T09:26:08Z</time>
      </trkpt>
      <trkpt lat="46.77972" lon="5.5881">
        <ele>256.1</ele>
        <time>2019-11-21T09:26:12Z</time>
      </trkpt>
      <trkpt lat="46.77974" lon="5.58802">
        <ele>255.9</ele>
        <time>2019-11-21T09:26:17Z</time>
      </trkpt>
      <trkpt lat="46.77977" lon="5.58796">
        <ele>255.9</ele>
        <time>2019-11-21T09:26:20Z</time>
      </trkpt>
      <trkpt lat="46.77979" lon="5.58788">
        <ele>256.1</ele>
        <time>2019-11-21T09:26:24Z</time>
      </trkpt>
      <trkpt lat="46.77981" lon="5.58782">
        <ele>256.2</ele>
        <time>2019-11-21T09:26:28Z</time>
      </trkpt>
      <trkpt lat="46.77983" lon="5.58775">
        <ele>256.3</ele>
        <time>2019-11-21T09:26:33Z</time>
      </trkpt>
      <trkpt lat="46.77985" lon="5.58769">
        <ele>256.5</ele>
        <time>2019-11-21T09:26:37Z</time>
      </trkpt>
      <trkpt lat="46.77986" lon="5.58761">
        <ele>256.7</ele>
        <time>2019-11-21T09:26:42Z</time>
      </trkpt>
      <trkpt lat="46.77988" lon="5.58755">
        <ele>256.8</ele>
        <time>2019-11-21T09:26:46Z</time>
      </trkpt>
      <trkpt lat="46.7799" lon="5.58749">
        <ele>256.9</ele>
        <time>2019-11-21T09:26:49Z</time>
      </trkpt>
      <trkpt lat="46.77992" lon="5.58742">
        <ele>256.8</ele>
        <time>2019-11-21T09:26:53Z</time>
      </trkpt>
      <trkpt lat="46.77993" lon="5.58735">
        <ele>256.8</ele>
        <time>2019-11-21T09:26:57Z</time>
      </trkpt>
      <trkpt lat="46.77995" lon="5.58728">
        <ele>256.8</ele>
        <time>2019-11-21T09:27:01Z</time>
      </trkpt>
      <trkpt lat="46.77997" lon="5.58722">
        <ele>256.7</ele>
        <time>2019-11-21T09:27:06Z</time>
      </trkpt>
      <trkpt lat="46.77999" lon="5.58716">
        <ele>256.7</ele>
        <time>2019-11-21T09:27:10Z</time>
      </trkpt>
      <trkpt lat="46.78001" lon="5.5871">
        <ele>256.7</ele>
        <time>2019-11-21T09:27:14Z</time>
      </trkpt>
      <trkpt lat="46.78003" lon="5.58703">
        <ele>256.7</ele>
        <time>2019-11-21T09:27:19Z</time>
      </trkpt>
      <trkpt lat="46.78004" lon="5.58696">
        <ele>256.5</ele>
        <time>2019-11-21T09:27:24Z</time>
      </trkpt>
      <trkpt lat="46.78006" lon="5.58689">
        <ele>256.2</ele>
        <time>2019-11-21T09:27:29Z</time>
      </trkpt>
      <trkpt lat="46.78009" lon="5.58682">
        <ele>256</ele>
        <time>2019-11-21T09:27:32Z</time>
      </trkpt>
      <trkpt lat="46.78011" lon="5.58675">
        <ele>255.6</ele>
        <time>2019-11-21T09:27:37Z</time>
      </trkpt>
      <trkpt lat="46.78013" lon="5.58668">
        <ele>255.2</ele>
        <time>2019-11-21T09:27:42Z</time>
      </trkpt>
      <trkpt lat="46.78016" lon="5.58661">
        <ele>255</ele>
        <time>2019-11-21T09:27:46Z</time>
      </trkpt>
      <trkpt lat="46.78018" lon="5.58655">
        <ele>254.8</ele>
        <time>2019-11-21T09:27:51Z</time>
      </trkpt>
      <trkpt lat="46.78021" lon="5.58649">
        <ele>254.7</ele>
        <time>2019-11-21T09:27:56Z</time>
      </trkpt>
      <trkpt lat="46.78022" lon="5.58643">
        <ele>254.3</ele>
        <time>2019-11-21T09:28:00Z</time>
      </trkpt>
      <trkpt lat="46.78024" lon="5.58636">
        <ele>253.8</ele>
        <time>2019-11-21T09:28:04Z</time>
      </trkpt>
      <trkpt lat="46.78027" lon="5.58629">
        <ele>253.4</ele>
        <time>2019-11-21T09:28:08Z</time>
      </trkpt>
      <trkpt lat="46.78029" lon="5.58623">
        <ele>253.2</ele>
        <time>2019-11-21T09:28:13Z</time>
      </trkpt>
      <trkpt lat="46.78031" lon="5.58616">
        <ele>253.3</ele>
        <time>2019-11-21T09:28:17Z</time>
      </trkpt>
      <trkpt lat="46.78033" lon="5.58609">
        <ele>253.3</ele>
        <time>2019-11-21T09:28:21Z</time>
      </trkpt>
      <trkpt lat="46.78035" lon="5.58603">
        <ele>253.1</ele>
        <time>2019-11-21T09:28:25Z</time>
      </trkpt>
      <trkpt lat="46.78038" lon="5.58597">
        <ele>252.9</ele>
        <time>2019-11-21T09:28:30Z</time>
      </trkpt>
      <trkpt lat="46.78041" lon="5.58592">
        <ele>252.7</ele>
        <time>2019-11-21T09:28:34Z</time>
      </trkpt>
      <trkpt lat="46.78043" lon="5.58586">
        <ele>252.5</ele>
        <time>2019-11-21T09:28:38Z</time>
      </trkpt>
      <trkpt lat="46.78045" lon="5.58579">
        <ele>252.5</ele>
        <time>2019-11-21T09:28:42Z</time>
      </trkpt>
      <trkpt lat="46.78047" lon="5.58572">
        <ele>252.4</ele>
        <time>2019-11-21T09:28:46Z</time>
      </trkpt>
      <trkpt lat="46.7805" lon="5.58565">
        <ele>252.5</ele>
        <time>2019-11-21T09:28:50Z</time>
      </trkpt>
      <trkpt lat="46.78051" lon="5.58559">
        <ele>252.6</ele>
        <time>2019-11-21T09:28:54Z</time>
      </trkpt>
      <trkpt lat="46.78053" lon="5.58551">
        <ele>252.7</ele>
        <time>2019-11-21T09:28:58Z</time>
      </trkpt>
      <trkpt lat="46.78055" lon="5.58544">
        <ele>252.7</ele>
        <time>2019-11-21T09:29:01Z</time>
      </trkpt>
      <trkpt lat="46.78058" lon="5.58538">
        <ele>252.7</ele>
        <time>2019-11-21T09:29:05Z</time>
      </trkpt>
      <trkpt lat="46.78061" lon="5.58532">
        <ele>252.6</ele>
        <time>2019-11-21T09:29:10Z</time>
      </trkpt>
      <trkpt lat="46.78064" lon="5.58526">
        <ele>252.4</ele>
        <time>2019-11-21T09:29:17Z</time>
      </trkpt>
      <trkpt lat="46.78066" lon="5.58519">
        <ele>252.3</ele>
        <time>2019-11-21T09:29:21Z</time>
      </trkpt>
      <trkpt lat="46.78069" lon="5.58513">
        <ele>252.2</ele>
        <time>2019-11-21T09:29:25Z</time>
      </trkpt>
      <trkpt lat="46.78071" lon="5.58504">
        <ele>252</ele>
        <time>2019-11-21T09:29:30Z</time>
      </trkpt>
      <trkpt lat="46.78074" lon="5.58497">
        <ele>251.7</ele>
        <time>2019-11-21T09:29:35Z</time>
      </trkpt>
      <trkpt lat="46.78076" lon="5.5849">
        <ele>251.4</ele>
        <time>2019-11-21T09:29:40Z</time>
      </trkpt>
      <trkpt lat="46.78079" lon="5.58484">
        <ele>251.1</ele>
        <time>2019-11-21T09:29:44Z</time>
      </trkpt>
      <trkpt lat="46.78081" lon="5.58478">
        <ele>250.8</ele>
        <time>2019-11-21T09:29:49Z</time>
      </trkpt>
      <trkpt lat="46.78083" lon="5.58471">
        <ele>250.5</ele>
        <time>2019-11-21T09:29:55Z</time>
      </trkpt>
      <trkpt lat="46.78086" lon="5.58466">
        <ele>250.3</ele>
        <time>2019-11-21T09:29:59Z</time>
      </trkpt>
      <trkpt lat="46.78089" lon="5.58461">
        <ele>250.1</ele>
        <time>2019-11-21T09:30:02Z</time>
      </trkpt>
      <trkpt lat="46.78094" lon="5.58458">
        <ele>249.9</ele>
        <time>2019-11-21T09:30:05Z</time>
      </trkpt>
      <trkpt lat="46.78099" lon="5.58458">
        <ele>249.6</ele>
        <time>2019-11-21T09:30:10Z</time>
      </trkpt>
      <trkpt lat="46.78104" lon="5.58461">
        <ele>249.4</ele>
        <time>2019-11-21T09:30:14Z</time>
      </trkpt>
      <trkpt lat="46.78109" lon="5.58464">
        <ele>249.2</ele>
        <time>2019-11-21T09:30:18Z</time>
      </trkpt>
      <trkpt lat="46.78114" lon="5.58465">
        <ele>249.1</ele>
        <time>2019-11-21T09:30:22Z</time>
      </trkpt>
      <trkpt lat="46.78119" lon="5.58467">
        <ele>249</ele>
        <time>2019-11-21T09:30:26Z</time>
      </trkpt>
      <trkpt lat="46.78124" lon="5.5847">
        <ele>248.9</ele>
        <time>2019-11-21T09:30:30Z</time>
      </trkpt>
      <trkpt lat="46.78128" lon="5.58475">
        <ele>248.5</ele>
        <time>2019-11-21T09:30:35Z</time>
      </trkpt>
      <trkpt lat="46.78132" lon="5.5848">
        <ele>248.4</ele>
        <time>2019-11-21T09:30:40Z</time>
      </trkpt>
      <trkpt lat="46.78136" lon="5.58484">
        <ele>248.3</ele>
        <time>2019-11-21T09:30:44Z</time>
      </trkpt>
      <trkpt lat="46.7814" lon="5.58488">
        <ele>248.2</ele>
        <time>2019-11-21T09:30:49Z</time>
      </trkpt>
      <trkpt lat="46.78145" lon="5.58491">
        <ele>248</ele>
        <time>2019-11-21T09:30:53Z</time>
      </trkpt>
      <trkpt lat="46.78149" lon="5.58495">
        <ele>247.8</ele>
        <time>2019-11-21T09:30:57Z</time>
      </trkpt>
      <trkpt lat="46.78154" lon="5.58498">
        <ele>247.4</ele>
        <time>2019-11-21T09:31:02Z</time>
      </trkpt>
      <trkpt lat="46.78158" lon="5.58502">
        <ele>247.2</ele>
        <time>2019-11-21T09:31:06Z</time>
      </trkpt>
      <trkpt lat="46.78163" lon="5.58506">
        <ele>247</ele>
        <time>2019-11-21T09:31:11Z</time>
      </trkpt>
      <trkpt lat="46.78167" lon="5.5851">
        <ele>246.7</ele>
        <time>2019-11-21T09:31:15Z</time>
      </trkpt>
      <trkpt lat="46.78171" lon="5.58514">
        <ele>246.4</ele>
        <time>2019-11-21T09:31:19Z</time>
      </trkpt>
      <trkpt lat="46.78177" lon="5.58518">
        <ele>246.2</ele>
        <time>2019-11-21T09:31:23Z</time>
      </trkpt>
      <trkpt lat="46.78181" lon="5.58519">
        <ele>246.1</ele>
        <time>2019-11-21T09:31:26Z</time>
      </trkpt>
      <trkpt lat="46.78186" lon="5.5852">
        <ele>246</ele>
        <time>2019-11-21T09:31:30Z</time>
      </trkpt>
      <trkpt lat="46.78191" lon="5.58523">
        <ele>246</ele>
        <time>2019-11-21T09:31:36Z</time>
      </trkpt>
      <trkpt lat="46.78196" lon="5.58527">
        <ele>245.9</ele>
        <time>2019-11-21T09:31:41Z</time>
      </trkpt>
      <trkpt lat="46.78201" lon="5.58531">
        <ele>245.8</ele>
        <time>2019-11-21T09:31:46Z</time>
      </trkpt>
      <trkpt lat="46.78206" lon="5.58534">
        <ele>245.8</ele>
        <time>2019-11-21T09:31:51Z</time>
      </trkpt>
      <trkpt lat="46.7821" lon="5.58538">
        <ele>245.9</ele>
        <time>2019-11-21T09:31:55Z</time>
      </trkpt>
      <trkpt lat="46.78213" lon="5.58543">
        <ele>246</ele>
        <time>2019-11-21T09:31:59Z</time>
      </trkpt>
      <trkpt lat="46.78217" lon="5.58549">
        <ele>246.2</ele>
        <time>2019-11-21T09:32:04Z</time>
      </trkpt>
      <trkpt lat="46.78221" lon="5.58555">
        <ele>246.3</ele>
        <time>2019-11-21T09:32:09Z</time>
      </trkpt>
      <trkpt lat="46.78225" lon="5.5856">
        <ele>246.6</ele>
        <time>2019-11-21T09:32:14Z</time>
      </trkpt>
      <trkpt lat="46.78228" lon="5.58566">
        <ele>246.8</ele>
        <time>2019-11-21T09:32:19Z</time>
      </trkpt>
      <trkpt lat="46.78232" lon="5.5857">
        <ele>246.9</ele>
        <time>2019-11-21T09:32:23Z</time>
      </trkpt>
      <trkpt lat="46.78236" lon="5.58574">
        <ele>246.9</ele>
        <time>2019-11-21T09:32:27Z</time>
      </trkpt>
      <trkpt lat="46.78239" lon="5.58579">
        <ele>247.1</ele>
        <time>2019-11-21T09:32:31Z</time>
      </trkpt>
      <trkpt lat="46.78243" lon="5.58585">
        <ele>247.2</ele>
        <time>2019-11-21T09:32:36Z</time>
      </trkpt>
      <trkpt lat="46.78248" lon="5.58589">
        <ele>247.3</ele>
        <time>2019-11-21T09:32:42Z</time>
      </trkpt>
      <trkpt lat="46.78253" lon="5.58591">
        <ele>247.5</ele>
        <time>2019-11-21T09:32:46Z</time>
      </trkpt>
      <trkpt lat="46.78258" lon="5.58592">
        <ele>247.8</ele>
        <time>2019-11-21T09:32:51Z</time>
      </trkpt>
      <trkpt lat="46.78263" lon="5.5859">
        <ele>248</ele>
        <time>2019-11-21T09:32:55Z</time>
      </trkpt>
      <trkpt lat="46.78268" lon="5.58589">
        <ele>248.4</ele>
        <time>2019-11-21T09:32:59Z</time>
      </trkpt>
      <trkpt lat="46.78274" lon="5.58587">
        <ele>248.9</ele>
        <time>2019-11-21T09:33:04Z</time>
      </trkpt>
      <trkpt lat="46.78278" lon="5.58586">
        <ele>249</ele>
        <time>2019-11-21T09:33:09Z</time>
      </trkpt>
      <trkpt lat="46.78283" lon="5.58586">
        <ele>249</ele>
        <time>2019-11-21T09:33:15Z</time>
      </trkpt>
      <trkpt lat="46.78288" lon="5.58584">
        <ele>248.8</ele>
        <time>2019-11-21T09:33:19Z</time>
      </trkpt>
      <trkpt lat="46.78294" lon="5.58582">
        <ele>248.7</ele>
        <time>2019-11-21T09:33:23Z</time>
      </trkpt>
      <trkpt lat="46.78298" lon="5.5858">
        <ele>248.6</ele>
        <time>2019-11-21T09:33:26Z</time>
      </trkpt>
      <trkpt lat="46.78301" lon="5.58574">
        <ele>248.5</ele>
        <time>2019-11-21T09:33:33Z</time>
      </trkpt>
      <trkpt lat="46.78303" lon="5.58568">
        <ele>248.5</ele>
        <time>2019-11-21T09:33:37Z</time>
      </trkpt>
      <trkpt lat="46.78305" lon="5.5856">
        <ele>248.5</ele>
        <time>2019-11-21T09:33:42Z</time>
      </trkpt>
      <trkpt lat="46.78307" lon="5.58554">
        <ele>248.5</ele>
        <time>2019-11-21T09:33:46Z</time>
      </trkpt>
      <trkpt lat="46.78309" lon="5.58548">
        <ele>248.4</ele>
        <time>2019-11-21T09:33:50Z</time>
      </trkpt>
      <trkpt lat="46.78312" lon="5.58542">
        <ele>248.2</ele>
        <time>2019-11-21T09:33:54Z</time>
      </trkpt>
      <trkpt lat="46.78315" lon="5.58537">
        <ele>248.1</ele>
        <time>2019-11-21T09:33:59Z</time>
      </trkpt>
      <trkpt lat="46.78318" lon="5.58531">
        <ele>248</ele>
        <time>2019-11-21T09:34:03Z</time>
      </trkpt>
      <trkpt lat="46.7832" lon="5.58524">
        <ele>248.2</ele>
        <time>2019-11-21T09:34:08Z</time>
      </trkpt>
      <trkpt lat="46.78321" lon="5.58516">
        <ele>248.1</ele>
        <time>2019-11-21T09:34:13Z</time>
      </trkpt>
      <trkpt lat="46.78323" lon="5.58509">
        <ele>248</ele>
        <time>2019-11-21T09:34:17Z</time>
      </trkpt>
      <trkpt lat="46.78324" lon="5.58503">
        <ele>247.9</ele>
        <time>2019-11-21T09:34:21Z</time>
      </trkpt>
      <trkpt lat="46.78328" lon="5.58499">
        <ele>247.9</ele>
        <time>2019-11-21T09:34:25Z</time>
      </trkpt>
      <trkpt lat="46.78333" lon="5.58495">
        <ele>247.9</ele>
        <time>2019-11-21T09:34:30Z</time>
      </trkpt>
      <trkpt lat="46.78337" lon="5.58491">
        <ele>247.9</ele>
        <time>2019-11-21T09:34:34Z</time>
      </trkpt>
      <trkpt lat="46.78341" lon="5.58486">
        <ele>247.9</ele>
        <time>2019-11-21T09:34:38Z</time>
      </trkpt>
      <trkpt lat="46.78345" lon="5.58482">
        <ele>247.9</ele>
        <time>2019-11-21T09:34:43Z</time>
      </trkpt>
      <trkpt lat="46.78349" lon="5.58477">
        <ele>248.1</ele>
        <time>2019-11-21T09:34:49Z</time>
      </trkpt>
      <trkpt lat="46.78352" lon="5.5847">
        <ele>248.1</ele>
        <time>2019-11-21T09:34:54Z</time>
      </trkpt>
      <trkpt lat="46.78353" lon="5.58464">
        <ele>248.2</ele>
        <time>2019-11-21T09:34:59Z</time>
      </trkpt>
      <trkpt lat="46.78357" lon="5.58458">
        <ele>248.6</ele>
        <time>2019-11-21T09:35:04Z</time>
      </trkpt>
      <trkpt lat="46.7836" lon="5.58451">
        <ele>249</ele>
        <time>2019-11-21T09:35:08Z</time>
      </trkpt>
      <trkpt lat="46.78363" lon="5.58446">
        <ele>249.3</ele>
        <time>2019-11-21T09:35:12Z</time>
      </trkpt>
      <trkpt lat="46.78367" lon="5.58441">
        <ele>249.7</ele>
        <time>2019-11-21T09:35:18Z</time>
      </trkpt>
      <trkpt lat="46.7837" lon="5.58435">
        <ele>250</ele>
        <time>2019-11-21T09:35:23Z</time>
      </trkpt>
      <trkpt lat="46.78375" lon="5.58429">
        <ele>250.3</ele>
        <time>2019-11-21T09:35:27Z</time>
      </trkpt>
      <trkpt lat="46.78378" lon="5.58423">
        <ele>250.5</ele>
        <time>2019-11-21T09:35:31Z</time>
      </trkpt>
      <trkpt lat="46.78382" lon="5.58417">
        <ele>250.9</ele>
        <time>2019-11-21T09:35:36Z</time>
      </trkpt>
      <trkpt lat="46.78385" lon="5.58412">
        <ele>251.7</ele>
        <time>2019-11-21T09:35:41Z</time>
      </trkpt>
      <trkpt lat="46.78389" lon="5.58407">
        <ele>252.4</ele>
        <time>2019-11-21T09:35:46Z</time>
      </trkpt>
      <trkpt lat="46.78392" lon="5.58401">
        <ele>252.9</ele>
        <time>2019-11-21T09:35:51Z</time>
      </trkpt>
      <trkpt lat="46.78396" lon="5.58395">
        <ele>253.5</ele>
        <time>2019-11-21T09:35:56Z</time>
      </trkpt>
      <trkpt lat="46.78399" lon="5.5839">
        <ele>254</ele>
        <time>2019-11-21T09:36:01Z</time>
      </trkpt>
      <trkpt lat="46.78402" lon="5.58385">
        <ele>254.4</ele>
        <time>2019-11-21T09:36:05Z</time>
      </trkpt>
      <trkpt lat="46.78405" lon="5.5838">
        <ele>255</ele>
        <time>2019-11-21T09:36:11Z</time>
      </trkpt>
      <trkpt lat="46.78409" lon="5.58374">
        <ele>255.5</ele>
        <time>2019-11-21T09:36:16Z</time>
      </trkpt>
      <trkpt lat="46.78411" lon="5.58367">
        <ele>256</ele>
        <time>2019-11-21T09:36:21Z</time>
      </trkpt>
      <trkpt lat="46.78413" lon="5.58362">
        <ele>256.6</ele>
        <time>2019-11-21T09:36:26Z</time>
      </trkpt>
      <trkpt lat="46.78417" lon="5.58356">
        <ele>257</ele>
        <time>2019-11-21T09:36:31Z</time>
      </trkpt>
      <trkpt lat="46.78421" lon="5.5835">
        <ele>257.4</ele>
        <time>2019-11-21T09:36:36Z</time>
      </trkpt>
      <trkpt lat="46.78424" lon="5.58344">
        <ele>257.8</ele>
        <time>2019-11-21T09:36:42Z</time>
      </trkpt>
      <trkpt lat="46.78427" lon="5.58338">
        <ele>258</ele>
        <time>2019-11-21T09:36:46Z</time>
      </trkpt>
      <trkpt lat="46.78431" lon="5.58332">
        <ele>258.4</ele>
        <time>2019-11-21T09:36:51Z</time>
      </trkpt>
      <trkpt lat="46.78433" lon="5.58326">
        <ele>258.7</ele>
        <time>2019-11-21T09:36:56Z</time>
      </trkpt>
      <trkpt lat="46.78433" lon="5.58318">
        <ele>258.9</ele>
        <time>2019-11-21T09:37:01Z</time>
      </trkpt>
      <trkpt lat="46.78433" lon="5.58311">
        <ele>258.8</ele>
        <time>2019-11-21T09:37:07Z</time>
      </trkpt>
      <trkpt lat="46.78429" lon="5.58304">
        <ele>258.8</ele>
        <time>2019-11-21T09:37:13Z</time>
      </trkpt>
      <trkpt lat="46.78426" lon="5.58299">
        <ele>258.5</ele>
        <time>2019-11-21T09:37:18Z</time>
      </trkpt>
      <trkpt lat="46.78422" lon="5.58293">
        <ele>258.4</ele>
        <time>2019-11-21T09:37:22Z</time>
      </trkpt>
      <trkpt lat="46.78419" lon="5.58287">
        <ele>258.3</ele>
        <time>2019-11-21T09:37:27Z</time>
      </trkpt>
      <trkpt lat="46.78416" lon="5.58282">
        <ele>258.3</ele>
        <time>2019-11-21T09:37:31Z</time>
      </trkpt>
      <trkpt lat="46.78412" lon="5.58277">
        <ele>258.2</ele>
        <time>2019-11-21T09:37:36Z</time>
      </trkpt>
      <trkpt lat="46.78409" lon="5.58272">
        <ele>258.1</ele>
        <time>2019-11-21T09:37:40Z</time>
      </trkpt>
      <trkpt lat="46.78406" lon="5.58267">
        <ele>258</ele>
        <time>2019-11-21T09:37:44Z</time>
      </trkpt>
      <trkpt lat="46.78403" lon="5.5826">
        <ele>258</ele>
        <time>2019-11-21T09:37:49Z</time>
      </trkpt>
      <trkpt lat="46.78399" lon="5.58255">
        <ele>257.9</ele>
        <time>2019-11-21T09:37:54Z</time>
      </trkpt>
      <trkpt lat="46.78396" lon="5.5825">
        <ele>257.8</ele>
        <time>2019-11-21T09:37:58Z</time>
      </trkpt>
      <trkpt lat="46.78392" lon="5.58245">
        <ele>257.6</ele>
        <time>2019-11-21T09:38:02Z</time>
      </trkpt>
      <trkpt lat="46.78389" lon="5.5824">
        <ele>257.6</ele>
        <time>2019-11-21T09:38:06Z</time>
      </trkpt>
      <trkpt lat="46.78387" lon="5.58233">
        <ele>257.8</ele>
        <time>2019-11-21T09:38:11Z</time>
      </trkpt>
      <trkpt lat="46.78384" lon="5.58226">
        <ele>257.8</ele>
        <time>2019-11-21T09:38:15Z</time>
      </trkpt>
      <trkpt lat="46.78382" lon="5.58219">
        <ele>257.9</ele>
        <time>2019-11-21T09:38:20Z</time>
      </trkpt>
      <trkpt lat="46.7838" lon="5.58212">
        <ele>258.1</ele>
        <time>2019-11-21T09:38:25Z</time>
      </trkpt>
      <trkpt lat="46.78378" lon="5.58205">
        <ele>258.4</ele>
        <time>2019-11-21T09:38:29Z</time>
      </trkpt>
      <trkpt lat="46.78376" lon="5.58199">
        <ele>258.9</ele>
        <time>2019-11-21T09:38:34Z</time>
      </trkpt>
      <trkpt lat="46.78374" lon="5.58193">
        <ele>259.3</ele>
        <time>2019-11-21T09:38:38Z</time>
      </trkpt>
      <trkpt lat="46.78372" lon="5.58187">
        <ele>259.9</ele>
        <time>2019-11-21T09:38:42Z</time>
      </trkpt>
      <trkpt lat="46.78371" lon="5.5818">
        <ele>260.6</ele>
        <time>2019-11-21T09:38:47Z</time>
      </trkpt>
      <trkpt lat="46.78371" lon="5.58173">
        <ele>261.2</ele>
        <time>2019-11-21T09:38:53Z</time>
      </trkpt>
      <trkpt lat="46.78371" lon="5.58165">
        <ele>261.4</ele>
        <time>2019-11-21T09:38:57Z</time>
      </trkpt>
      <trkpt lat="46.78371" lon="5.58158">
        <ele>261.6</ele>
        <time>2019-11-21T09:39:02Z</time>
      </trkpt>
      <trkpt lat="46.78371" lon="5.58151">
        <ele>261.7</ele>
        <time>2019-11-21T09:39:07Z</time>
      </trkpt>
      <trkpt lat="46.78372" lon="5.58143">
        <ele>261.8</ele>
        <time>2019-11-21T09:39:11Z</time>
      </trkpt>
      <trkpt lat="46.78372" lon="5.58135">
        <ele>261.8</ele>
        <time>2019-11-21T09:39:15Z</time>
      </trkpt>
      <trkpt lat="46.78374" lon="5.58128">
        <ele>261.9</ele>
        <time>2019-11-21T09:39:19Z</time>
      </trkpt>
      <trkpt lat="46.78376" lon="5.58121">
        <ele>262</ele>
        <time>2019-11-21T09:39:23Z</time>
      </trkpt>
      <trkpt lat="46.78377" lon="5.58114">
        <ele>262.1</ele>
        <time>2019-11-21T09:39:27Z</time>
      </trkpt>
      <trkpt lat="46.78378" lon="5.58107">
        <ele>262.2</ele>
        <time>2019-11-21T09:39:31Z</time>
      </trkpt>
      <trkpt lat="46.78379" lon="5.58101">
        <ele>262.2</ele>
        <time>2019-11-21T09:39:35Z</time>
      </trkpt>
      <trkpt lat="46.78381" lon="5.58094">
        <ele>262.3</ele>
        <time>2019-11-21T09:39:40Z</time>
      </trkpt>
      <trkpt lat="46.78381" lon="5.58086">
        <ele>262.5</ele>
        <time>2019-11-21T09:39:45Z</time>
      </trkpt>
      <trkpt lat="46.78382" lon="5.58078">
        <ele>262.3</ele>
        <time>2019-11-21T09:39:50Z</time>
      </trkpt>
      <trkpt lat="46.78383" lon="5.5807">
        <ele>262</ele>
        <time>2019-11-21T09:39:55Z</time>
      </trkpt>
      <trkpt lat="46.78384" lon="5.58063">
        <ele>261.8</ele>
        <time>2019-11-21T09:39:59Z</time>
      </trkpt>
      <trkpt lat="46.78387" lon="5.58058">
        <ele>261.7</ele>
        <time>2019-11-21T09:40:03Z</time>
      </trkpt>
      <trkpt lat="46.7839" lon="5.58051">
        <ele>261.8</ele>
        <time>2019-11-21T09:40:08Z</time>
      </trkpt>
      <trkpt lat="46.78392" lon="5.58045">
        <ele>261.8</ele>
        <time>2019-11-21T09:40:12Z</time>
      </trkpt>
      <trkpt lat="46.78394" lon="5.58037">
        <ele>261.9</ele>
        <time>2019-11-21T09:40:17Z</time>
      </trkpt>
      <trkpt lat="46.78394" lon="5.58031">
        <ele>261.9</ele>
        <time>2019-11-21T09:40:20Z</time>
      </trkpt>
      <trkpt lat="46.78396" lon="5.58023">
        <ele>261.6</ele>
        <time>2019-11-21T09:40:25Z</time>
      </trkpt>
      <trkpt lat="46.78397" lon="5.58016">
        <ele>261.5</ele>
        <time>2019-11-21T09:40:28Z</time>
      </trkpt>
      <trkpt lat="46.78397" lon="5.58008">
        <ele>261</ele>
        <time>2019-11-21T09:40:33Z</time>
      </trkpt>
      <trkpt lat="46.78397" lon="5.58002">
        <ele>260.8</ele>
        <time>2019-11-21T09:40:37Z</time>
      </trkpt>
      <trkpt lat="46.784" lon="5.57997">
        <ele>260.7</ele>
        <time>2019-11-21T09:40:43Z</time>
      </trkpt>
      <trkpt lat="46.78402" lon="5.5799">
        <ele>260.8</ele>
        <time>2019-11-21T09:40:47Z</time>
      </trkpt>
      <trkpt lat="46.78405" lon="5.57983">
        <ele>261.2</ele>
        <time>2019-11-21T09:40:53Z</time>
      </trkpt>
      <trkpt lat="46.78406" lon="5.57976">
        <ele>261.6</ele>
        <time>2019-11-21T09:40:58Z</time>
      </trkpt>
      <trkpt lat="46.78406" lon="5.57968">
        <ele>261.9</ele>
        <time>2019-11-21T09:41:04Z</time>
      </trkpt>
      <trkpt lat="46.78408" lon="5.5796">
        <ele>262.2</ele>
        <time>2019-11-21T09:41:09Z</time>
      </trkpt>
      <trkpt lat="46.78411" lon="5.57954">
        <ele>262.5</ele>
        <time>2019-11-21T09:41:13Z</time>
      </trkpt>
      <trkpt lat="46.78414" lon="5.57949">
        <ele>262.7</ele>
        <time>2019-11-21T09:41:18Z</time>
      </trkpt>
      <trkpt lat="46.78417" lon="5.57943">
        <ele>262.9</ele>
        <time>2019-11-21T09:41:23Z</time>
      </trkpt>
      <trkpt lat="46.78419" lon="5.57937">
        <ele>263.2</ele>
        <time>2019-11-21T09:41:28Z</time>
      </trkpt>
      <trkpt lat="46.78422" lon="5.57931">
        <ele>263.5</ele>
        <time>2019-11-21T09:41:33Z</time>
      </trkpt>
      <trkpt lat="46.78425" lon="5.57925">
        <ele>263.9</ele>
        <time>2019-11-21T09:41:39Z</time>
      </trkpt>
      <trkpt lat="46.78427" lon="5.57919">
        <ele>264.4</ele>
        <time>2019-11-21T09:41:45Z</time>
      </trkpt>
      <trkpt lat="46.7843" lon="5.57912">
        <ele>264.8</ele>
        <time>2019-11-21T09:41:50Z</time>
      </trkpt>
      <trkpt lat="46.78431" lon="5.57906">
        <ele>265.2</ele>
        <time>2019-11-21T09:41:55Z</time>
      </trkpt>
      <trkpt lat="46.78434" lon="5.57899">
        <ele>265.5</ele>
        <time>2019-11-21T09:42:00Z</time>
      </trkpt>
      <trkpt lat="46.78436" lon="5.57893">
        <ele>265.9</ele>
        <time>2019-11-21T09:42:05Z</time>
      </trkpt>
      <trkpt lat="46.7844" lon="5.57887">
        <ele>266.1</ele>
        <time>2019-11-21T09:42:10Z</time>
      </trkpt>
      <trkpt lat="46.78445" lon="5.57884">
        <ele>266</ele>
        <time>2019-11-21T09:42:14Z</time>
      </trkpt>
      <trkpt lat="46.78448" lon="5.57879">
        <ele>265.6</ele>
        <time>2019-11-21T09:42:19Z</time>
      </trkpt>
      <trkpt lat="46.78449" lon="5.57872">
        <ele>265.3</ele>
        <time>2019-11-21T09:42:24Z</time>
      </trkpt>
      <trkpt lat="46.78449" lon="5.57864">
        <ele>265</ele>
        <time>2019-11-21T09:42:29Z</time>
      </trkpt>
      <trkpt lat="46.78449" lon="5.57857">
        <ele>264.7</ele>
        <time>2019-11-21T09:42:34Z</time>
      </trkpt>
      <trkpt lat="46.78448" lon="5.57848">
        <ele>264.4</ele>
        <time>2019-11-21T09:42:38Z</time>
      </trkpt>
      <trkpt lat="46.78448" lon="5.5784">
        <ele>264.3</ele>
        <time>2019-11-21T09:42:42Z</time>
      </trkpt>
      <trkpt lat="46.78451" lon="5.57834">
        <ele>264.9</ele>
        <time>2019-11-21T09:42:52Z</time>
      </trkpt>
      <trkpt lat="46.78455" lon="5.57831">
        <ele>265.9</ele>
        <time>2019-11-21T09:42:58Z</time>
      </trkpt>
      <trkpt lat="46.78459" lon="5.5783">
        <ele>267.4</ele>
        <time>2019-11-21T09:43:04Z</time>
      </trkpt>
      <trkpt lat="46.78464" lon="5.5783">
        <ele>268.6</ele>
        <time>2019-11-21T09:43:08Z</time>
      </trkpt>
      <trkpt lat="46.78469" lon="5.57833">
        <ele>269.8</ele>
        <time>2019-11-21T09:43:12Z</time>
      </trkpt>
      <trkpt lat="46.78473" lon="5.57835">
        <ele>270.6</ele>
        <time>2019-11-21T09:43:15Z</time>
      </trkpt>
      <trkpt lat="46.78479" lon="5.57837">
        <ele>271.5</ele>
        <time>2019-11-21T09:43:18Z</time>
      </trkpt>
      <trkpt lat="46.78484" lon="5.57838">
        <ele>272.8</ele>
        <time>2019-11-21T09:43:23Z</time>
      </trkpt>
      <trkpt lat="46.78488" lon="5.57837">
        <ele>274</ele>
        <time>2019-11-21T09:43:28Z</time>
      </trkpt>
      <trkpt lat="46.78493" lon="5.57835">
        <ele>275.2</ele>
        <time>2019-11-21T09:43:33Z</time>
      </trkpt>
      <trkpt lat="46.78496" lon="5.57829">
        <ele>276.3</ele>
        <time>2019-11-21T09:43:38Z</time>
      </trkpt>
      <trkpt lat="46.78497" lon="5.57822">
        <ele>279.3</ele>
        <time>2019-11-21T09:43:51Z</time>
      </trkpt>
      <trkpt lat="46.785" lon="5.57817">
        <ele>281.4</ele>
        <time>2019-11-21T09:44:04Z</time>
      </trkpt>
      <trkpt lat="46.78502" lon="5.5781">
        <ele>281.8</ele>
        <time>2019-11-21T09:44:12Z</time>
      </trkpt>
      <trkpt lat="46.78504" lon="5.57804">
        <ele>281.9</ele>
        <time>2019-11-21T09:44:16Z</time>
      </trkpt>
      <trkpt lat="46.78507" lon="5.57798">
        <ele>282</ele>
        <time>2019-11-21T09:44:22Z</time>
      </trkpt>
      <trkpt lat="46.78512" lon="5.57794">
        <ele>282.2</ele>
        <time>2019-11-21T09:44:28Z</time>
      </trkpt>
      <trkpt lat="46.78516" lon="5.5779">
        <ele>282.5</ele>
        <time>2019-11-21T09:44:32Z</time>
      </trkpt>
      <trkpt lat="46.78518" lon="5.57783">
        <ele>283.7</ele>
        <time>2019-11-21T09:44:47Z</time>
      </trkpt>
      <trkpt lat="46.78522" lon="5.57776">
        <ele>283.8</ele>
        <time>2019-11-21T09:44:52Z</time>
      </trkpt>
      <trkpt lat="46.78526" lon="5.57771">
        <ele>283.6</ele>
        <time>2019-11-21T09:44:57Z</time>
      </trkpt>
      <trkpt lat="46.78531" lon="5.57766">
        <ele>283.2</ele>
        <time>2019-11-21T09:45:02Z</time>
      </trkpt>
      <trkpt lat="46.78535" lon="5.57764">
        <ele>282.8</ele>
        <time>2019-11-21T09:45:05Z</time>
      </trkpt>
      <trkpt lat="46.7854" lon="5.57761">
        <ele>282.1</ele>
        <time>2019-11-21T09:45:09Z</time>
      </trkpt>
      <trkpt lat="46.78544" lon="5.57759">
        <ele>281.4</ele>
        <time>2019-11-21T09:45:12Z</time>
      </trkpt>
      <trkpt lat="46.78549" lon="5.57756">
        <ele>280.5</ele>
        <time>2019-11-21T09:45:16Z</time>
      </trkpt>
      <trkpt lat="46.78554" lon="5.57753">
        <ele>279.3</ele>
        <time>2019-11-21T09:45:20Z</time>
      </trkpt>
      <trkpt lat="46.78558" lon="5.57751">
        <ele>278</ele>
        <time>2019-11-21T09:45:24Z</time>
      </trkpt>
      <trkpt lat="46.78563" lon="5.57748">
        <ele>276.5</ele>
        <time>2019-11-21T09:45:28Z</time>
      </trkpt>
      <trkpt lat="46.78568" lon="5.57745">
        <ele>274.3</ele>
        <time>2019-11-21T09:45:33Z</time>
      </trkpt>
      <trkpt lat="46.78573" lon="5.57744">
        <ele>272.1</ele>
        <time>2019-11-21T09:45:38Z</time>
      </trkpt>
      <trkpt lat="46.78578" lon="5.57743">
        <ele>270.2</ele>
        <time>2019-11-21T09:45:44Z</time>
      </trkpt>
      <trkpt lat="46.78583" lon="5.57743">
        <ele>269.1</ele>
        <time>2019-11-21T09:45:52Z</time>
      </trkpt>
      <trkpt lat="46.78587" lon="5.57745">
        <ele>269.3</ele>
        <time>2019-11-21T09:45:58Z</time>
      </trkpt>
      <trkpt lat="46.78592" lon="5.57749">
        <ele>272.9</ele>
        <time>2019-11-21T09:46:10Z</time>
      </trkpt>
      <trkpt lat="46.78596" lon="5.57754">
        <ele>275.9</ele>
        <time>2019-11-21T09:46:17Z</time>
      </trkpt>
      <trkpt lat="46.78599" lon="5.57759">
        <ele>277.8</ele>
        <time>2019-11-21T09:46:22Z</time>
      </trkpt>
      <trkpt lat="46.78603" lon="5.57762">
        <ele>279.3</ele>
        <time>2019-11-21T09:46:26Z</time>
      </trkpt>
      <trkpt lat="46.78607" lon="5.57765">
        <ele>280.7</ele>
        <time>2019-11-21T09:46:30Z</time>
      </trkpt>
      <trkpt lat="46.78612" lon="5.57768">
        <ele>282.2</ele>
        <time>2019-11-21T09:46:34Z</time>
      </trkpt>
      <trkpt lat="46.78617" lon="5.57771">
        <ele>284.1</ele>
        <time>2019-11-21T09:46:39Z</time>
      </trkpt>
      <trkpt lat="46.78621" lon="5.57775">
        <ele>285.9</ele>
        <time>2019-11-21T09:46:44Z</time>
      </trkpt>
      <trkpt lat="46.78626" lon="5.57778">
        <ele>287.5</ele>
        <time>2019-11-21T09:46:49Z</time>
      </trkpt>
      <trkpt lat="46.7863" lon="5.5778">
        <ele>289.1</ele>
        <time>2019-11-21T09:46:54Z</time>
      </trkpt>
      <trkpt lat="46.78635" lon="5.57784">
        <ele>290.4</ele>
        <time>2019-11-21T09:46:58Z</time>
      </trkpt>
      <trkpt lat="46.78639" lon="5.57789">
        <ele>292.3</ele>
        <time>2019-11-21T09:47:04Z</time>
      </trkpt>
      <trkpt lat="46.78644" lon="5.57792">
        <ele>294</ele>
        <time>2019-11-21T09:47:10Z</time>
      </trkpt>
      <trkpt lat="46.78649" lon="5.57794">
        <ele>295.1</ele>
        <time>2019-11-21T09:47:15Z</time>
      </trkpt>
      <trkpt lat="46.78654" lon="5.57796">
        <ele>295.9</ele>
        <time>2019-11-21T09:47:19Z</time>
      </trkpt>
      <trkpt lat="46.78659" lon="5.57798">
        <ele>296.8</ele>
        <time>2019-11-21T09:47:23Z</time>
      </trkpt>
      <trkpt lat="46.78664" lon="5.57801">
        <ele>297.9</ele>
        <time>2019-11-21T09:47:28Z</time>
      </trkpt>
      <trkpt lat="46.78669" lon="5.57803">
        <ele>299.1</ele>
        <time>2019-11-21T09:47:34Z</time>
      </trkpt>
      <trkpt lat="46.78673" lon="5.57806">
        <ele>299.8</ele>
        <time>2019-11-21T09:47:38Z</time>
      </trkpt>
      <trkpt lat="46.78677" lon="5.57809">
        <ele>300.4</ele>
        <time>2019-11-21T09:47:42Z</time>
      </trkpt>
      <trkpt lat="46.78682" lon="5.57812">
        <ele>301.1</ele>
        <time>2019-11-21T09:47:47Z</time>
      </trkpt>
      <trkpt lat="46.78687" lon="5.57814">
        <ele>301.7</ele>
        <time>2019-11-21T09:47:52Z</time>
      </trkpt>
      <trkpt lat="46.78691" lon="5.57818">
        <ele>302.2</ele>
        <time>2019-11-21T09:47:57Z</time>
      </trkpt>
      <trkpt lat="46.78696" lon="5.57822">
        <ele>302.7</ele>
        <time>2019-11-21T09:48:03Z</time>
      </trkpt>
      <trkpt lat="46.78699" lon="5.57827">
        <ele>303.1</ele>
        <time>2019-11-21T09:48:08Z</time>
      </trkpt>
      <trkpt lat="46.78704" lon="5.57832">
        <ele>303.5</ele>
        <time>2019-11-21T09:48:14Z</time>
      </trkpt>
      <trkpt lat="46.78709" lon="5.57834">
        <ele>303.9</ele>
        <time>2019-11-21T09:48:19Z</time>
      </trkpt>
      <trkpt lat="46.78713" lon="5.57837">
        <ele>304.3</ele>
        <time>2019-11-21T09:48:24Z</time>
      </trkpt>
      <trkpt lat="46.78718" lon="5.57839">
        <ele>304.6</ele>
        <time>2019-11-21T09:48:29Z</time>
      </trkpt>
      <trkpt lat="46.78723" lon="5.57841">
        <ele>304.8</ele>
        <time>2019-11-21T09:48:33Z</time>
      </trkpt>
      <trkpt lat="46.78728" lon="5.57843">
        <ele>305.2</ele>
        <time>2019-11-21T09:48:38Z</time>
      </trkpt>
      <trkpt lat="46.78733" lon="5.57845">
        <ele>305.4</ele>
        <time>2019-11-21T09:48:43Z</time>
      </trkpt>
      <trkpt lat="46.78738" lon="5.57849">
        <ele>305.6</ele>
        <time>2019-11-21T09:48:48Z</time>
      </trkpt>
      <trkpt lat="46.78742" lon="5.57851">
        <ele>305.8</ele>
        <time>2019-11-21T09:48:53Z</time>
      </trkpt>
      <trkpt lat="46.78746" lon="5.57854">
        <ele>306.1</ele>
        <time>2019-11-21T09:48:57Z</time>
      </trkpt>
      <trkpt lat="46.78751" lon="5.57858">
        <ele>306.4</ele>
        <time>2019-11-21T09:49:01Z</time>
      </trkpt>
      <trkpt lat="46.78755" lon="5.5786">
        <ele>307</ele>
        <time>2019-11-21T09:49:07Z</time>
      </trkpt>
      <trkpt lat="46.7876" lon="5.57863">
        <ele>307.5</ele>
        <time>2019-11-21T09:49:12Z</time>
      </trkpt>
      <trkpt lat="46.78764" lon="5.57867">
        <ele>308.1</ele>
        <time>2019-11-21T09:49:18Z</time>
      </trkpt>
      <trkpt lat="46.78768" lon="5.5787">
        <ele>308.4</ele>
        <time>2019-11-21T09:49:25Z</time>
      </trkpt>
      <trkpt lat="46.78774" lon="5.57871">
        <ele>308.4</ele>
        <time>2019-11-21T09:49:29Z</time>
      </trkpt>
      <trkpt lat="46.78779" lon="5.57872">
        <ele>308.5</ele>
        <time>2019-11-21T09:49:33Z</time>
      </trkpt>
      <trkpt lat="46.78784" lon="5.57875">
        <ele>308.7</ele>
        <time>2019-11-21T09:49:38Z</time>
      </trkpt>
      <trkpt lat="46.78788" lon="5.57878">
        <ele>309.2</ele>
        <time>2019-11-21T09:49:46Z</time>
      </trkpt>
      <trkpt lat="46.78793" lon="5.57882">
        <ele>310.2</ele>
        <time>2019-11-21T09:49:54Z</time>
      </trkpt>
      <trkpt lat="46.78797" lon="5.57886">
        <ele>311</ele>
        <time>2019-11-21T09:50:01Z</time>
      </trkpt>
      <trkpt lat="46.78799" lon="5.57891">
        <ele>311.6</ele>
        <time>2019-11-21T09:50:17Z</time>
      </trkpt>
      <trkpt lat="46.78804" lon="5.57889">
        <ele>313</ele>
        <time>2019-11-21T09:50:49Z</time>
      </trkpt>
      <trkpt lat="46.78808" lon="5.57888">
        <ele>312.2</ele>
        <time>2019-11-21T09:51:03Z</time>
      </trkpt>
      <trkpt lat="46.78813" lon="5.57891">
        <ele>312.5</ele>
        <time>2019-11-21T09:51:38Z</time>
      </trkpt>
      <trkpt lat="46.78818" lon="5.57892">
        <ele>312.8</ele>
        <time>2019-11-21T09:51:44Z</time>
      </trkpt>
      <trkpt lat="46.78822" lon="5.57893">
        <ele>313.1</ele>
        <time>2019-11-21T09:51:49Z</time>
      </trkpt>
      <trkpt lat="46.78827" lon="5.57895">
        <ele>313.3</ele>
        <time>2019-11-21T09:51:54Z</time>
      </trkpt>
      <trkpt lat="46.78832" lon="5.57898">
        <ele>313.6</ele>
        <time>2019-11-21T09:51:59Z</time>
      </trkpt>
      <trkpt lat="46.78835" lon="5.57902">
        <ele>314</ele>
        <time>2019-11-21T09:52:06Z</time>
      </trkpt>
      <trkpt lat="46.7884" lon="5.57905">
        <ele>314.2</ele>
        <time>2019-11-21T09:52:12Z</time>
      </trkpt>
      <trkpt lat="46.78844" lon="5.57909">
        <ele>314.3</ele>
        <time>2019-11-21T09:52:17Z</time>
      </trkpt>
      <trkpt lat="46.78848" lon="5.57913">
        <ele>314.6</ele>
        <time>2019-11-21T09:52:24Z</time>
      </trkpt>
      <trkpt lat="46.78852" lon="5.57917">
        <ele>314.9</ele>
        <time>2019-11-21T09:52:29Z</time>
      </trkpt>
      <trkpt lat="46.78857" lon="5.57919">
        <ele>315.2</ele>
        <time>2019-11-21T09:52:35Z</time>
      </trkpt>
      <trkpt lat="46.78861" lon="5.57924">
        <ele>315.5</ele>
        <time>2019-11-21T09:52:42Z</time>
      </trkpt>
      <trkpt lat="46.78866" lon="5.57926">
        <ele>315.8</ele>
        <time>2019-11-21T09:52:47Z</time>
      </trkpt>
      <trkpt lat="46.7887" lon="5.57929">
        <ele>316.1</ele>
        <time>2019-11-21T09:52:53Z</time>
      </trkpt>
      <trkpt lat="46.78875" lon="5.5793">
        <ele>316.3</ele>
        <time>2019-11-21T09:52:59Z</time>
      </trkpt>
      <trkpt lat="46.7888" lon="5.57932">
        <ele>316.5</ele>
        <time>2019-11-21T09:53:03Z</time>
      </trkpt>
      <trkpt lat="46.78884" lon="5.57935">
        <ele>316.7</ele>
        <time>2019-11-21T09:53:07Z</time>
      </trkpt>
      <trkpt lat="46.78889" lon="5.57938">
        <ele>316.9</ele>
        <time>2019-11-21T09:53:11Z</time>
      </trkpt>
      <trkpt lat="46.78893" lon="5.57941">
        <ele>317.2</ele>
        <time>2019-11-21T09:53:15Z</time>
      </trkpt>
      <trkpt lat="46.78898" lon="5.57945">
        <ele>317.9</ele>
        <time>2019-11-21T09:53:21Z</time>
      </trkpt>
      <trkpt lat="46.78902" lon="5.57948">
        <ele>318.4</ele>
        <time>2019-11-21T09:53:26Z</time>
      </trkpt>
      <trkpt lat="46.78906" lon="5.57951">
        <ele>319.1</ele>
        <time>2019-11-21T09:53:32Z</time>
      </trkpt>
      <trkpt lat="46.78911" lon="5.57954">
        <ele>319.7</ele>
        <time>2019-11-21T09:53:38Z</time>
      </trkpt>
      <trkpt lat="46.78916" lon="5.57956">
        <ele>320.1</ele>
        <time>2019-11-21T09:53:43Z</time>
      </trkpt>
      <trkpt lat="46.7892" lon="5.5796">
        <ele>320.4</ele>
        <time>2019-11-21T09:53:49Z</time>
      </trkpt>
      <trkpt lat="46.78925" lon="5.57963">
        <ele>320.8</ele>
        <time>2019-11-21T09:53:55Z</time>
      </trkpt>
      <trkpt lat="46.78929" lon="5.57967">
        <ele>321.1</ele>
        <time>2019-11-21T09:54:01Z</time>
      </trkpt>
      <trkpt lat="46.78934" lon="5.57971">
        <ele>321.2</ele>
        <time>2019-11-21T09:54:07Z</time>
      </trkpt>
      <trkpt lat="46.78938" lon="5.57974">
        <ele>321.3</ele>
        <time>2019-11-21T09:54:14Z</time>
      </trkpt>
      <trkpt lat="46.78942" lon="5.5798">
        <ele>321.2</ele>
        <time>2019-11-21T09:54:21Z</time>
      </trkpt>
      <trkpt lat="46.78946" lon="5.57983">
        <ele>321</ele>
        <time>2019-11-21T09:54:26Z</time>
      </trkpt>
      <trkpt lat="46.78951" lon="5.57986">
        <ele>320.9</ele>
        <time>2019-11-21T09:54:31Z</time>
      </trkpt>
      <trkpt lat="46.78957" lon="5.57987">
        <ele>320.9</ele>
        <time>2019-11-21T09:54:35Z</time>
      </trkpt>
      <trkpt lat="46.78962" lon="5.57988">
        <ele>320.9</ele>
        <time>2019-11-21T09:54:39Z</time>
      </trkpt>
      <trkpt lat="46.78968" lon="5.57989">
        <ele>320.9</ele>
        <time>2019-11-21T09:54:42Z</time>
      </trkpt>
      <trkpt lat="46.78974" lon="5.57989">
        <ele>321</ele>
        <time>2019-11-21T09:54:45Z</time>
      </trkpt>
      <trkpt lat="46.7898" lon="5.57991">
        <ele>321.3</ele>
        <time>2019-11-21T09:54:49Z</time>
      </trkpt>
      <trkpt lat="46.78984" lon="5.57991">
        <ele>321.7</ele>
        <time>2019-11-21T09:54:53Z</time>
      </trkpt>
      <trkpt lat="46.7899" lon="5.57992">
        <ele>322.4</ele>
        <time>2019-11-21T09:54:58Z</time>
      </trkpt>
      <trkpt lat="46.78995" lon="5.57992">
        <ele>323.2</ele>
        <time>2019-11-21T09:55:03Z</time>
      </trkpt>
      <trkpt lat="46.79" lon="5.57991">
        <ele>323.7</ele>
        <time>2019-11-21T09:55:07Z</time>
      </trkpt>
      <trkpt lat="46.79005" lon="5.57991">
        <ele>324.3</ele>
        <time>2019-11-21T09:55:13Z</time>
      </trkpt>
      <trkpt lat="46.7901" lon="5.5799">
        <ele>324.9</ele>
        <time>2019-11-21T09:55:19Z</time>
      </trkpt>
      <trkpt lat="46.79015" lon="5.57989">
        <ele>325.8</ele>
        <time>2019-11-21T09:55:24Z</time>
      </trkpt>
      <trkpt lat="46.79021" lon="5.5799">
        <ele>327</ele>
        <time>2019-11-21T09:55:30Z</time>
      </trkpt>
      <trkpt lat="46.79026" lon="5.57989">
        <ele>328</ele>
        <time>2019-11-21T09:55:36Z</time>
      </trkpt>
      <trkpt lat="46.79031" lon="5.57989">
        <ele>328.8</ele>
        <time>2019-11-21T09:55:41Z</time>
      </trkpt>
      <trkpt lat="46.79036" lon="5.57988">
        <ele>329.4</ele>
        <time>2019-11-21T09:55:46Z</time>
      </trkpt>
      <trkpt lat="46.79041" lon="5.57988">
        <ele>330</ele>
        <time>2019-11-21T09:55:52Z</time>
      </trkpt>
      <trkpt lat="46.79046" lon="5.5799">
        <ele>330.3</ele>
        <time>2019-11-21T09:55:55Z</time>
      </trkpt>
      <trkpt lat="46.79051" lon="5.57992">
        <ele>330.8</ele>
        <time>2019-11-21T09:55:59Z</time>
      </trkpt>
      <trkpt lat="46.79056" lon="5.57994">
        <ele>331.4</ele>
        <time>2019-11-21T09:56:03Z</time>
      </trkpt>
      <trkpt lat="46.79061" lon="5.57994">
        <ele>332.2</ele>
        <time>2019-11-21T09:56:08Z</time>
      </trkpt>
      <trkpt lat="46.79066" lon="5.57994">
        <ele>332.9</ele>
        <time>2019-11-21T09:56:14Z</time>
      </trkpt>
      <trkpt lat="46.7907" lon="5.57996">
        <ele>333.4</ele>
        <time>2019-11-21T09:56:19Z</time>
      </trkpt>
      <trkpt lat="46.79081" lon="5.57989">
        <ele>333.1</ele>
        <time>2019-11-21T09:56:54Z</time>
      </trkpt>
      <trkpt lat="46.79086" lon="5.57992">
        <ele>333</ele>
        <time>2019-11-21T09:56:57Z</time>
      </trkpt>
      <trkpt lat="46.79092" lon="5.57995">
        <ele>333</ele>
        <time>2019-11-21T09:57:00Z</time>
      </trkpt>
      <trkpt lat="46.79097" lon="5.57997">
        <ele>333</ele>
        <time>2019-11-21T09:57:03Z</time>
      </trkpt>
      <trkpt lat="46.79101" lon="5.58">
        <ele>333.2</ele>
        <time>2019-11-21T09:57:06Z</time>
      </trkpt>
      <trkpt lat="46.79105" lon="5.58004">
        <ele>333.4</ele>
        <time>2019-11-21T09:57:09Z</time>
      </trkpt>
      <trkpt lat="46.7911" lon="5.58008">
        <ele>333.7</ele>
        <time>2019-11-21T09:57:13Z</time>
      </trkpt>
      <trkpt lat="46.79115" lon="5.58011">
        <ele>334.1</ele>
        <time>2019-11-21T09:57:17Z</time>
      </trkpt>
      <trkpt lat="46.79119" lon="5.58015">
        <ele>334.5</ele>
        <time>2019-11-21T09:57:22Z</time>
      </trkpt>
      <trkpt lat="46.79123" lon="5.58018">
        <ele>334.9</ele>
        <time>2019-11-21T09:57:27Z</time>
      </trkpt>
      <trkpt lat="46.79129" lon="5.58021">
        <ele>335.2</ele>
        <time>2019-11-21T09:57:31Z</time>
      </trkpt>
      <trkpt lat="46.79134" lon="5.58024">
        <ele>335.6</ele>
        <time>2019-11-21T09:57:35Z</time>
      </trkpt>
      <trkpt lat="46.79138" lon="5.58026">
        <ele>335.9</ele>
        <time>2019-11-21T09:57:38Z</time>
      </trkpt>
      <trkpt lat="46.79142" lon="5.5803">
        <ele>336.6</ele>
        <time>2019-11-21T09:57:45Z</time>
      </trkpt>
      <trkpt lat="46.79138" lon="5.58026">
        <ele>336.3</ele>
        <time>2019-11-21T09:58:10Z</time>
      </trkpt>
      <trkpt lat="46.79153" lon="5.58035">
        <ele>337.8</ele>
        <time>2019-11-21T09:58:27Z</time>
      </trkpt>
      <trkpt lat="46.79158" lon="5.58038">
        <ele>337.9</ele>
        <time>2019-11-21T09:58:30Z</time>
      </trkpt>
      <trkpt lat="46.79162" lon="5.58041">
        <ele>338</ele>
        <time>2019-11-21T09:58:33Z</time>
      </trkpt>
      <trkpt lat="46.79166" lon="5.58044">
        <ele>338.1</ele>
        <time>2019-11-21T09:58:36Z</time>
      </trkpt>
      <trkpt lat="46.79171" lon="5.58048">
        <ele>338.3</ele>
        <time>2019-11-21T09:58:39Z</time>
      </trkpt>
      <trkpt lat="46.79175" lon="5.58051">
        <ele>338.4</ele>
        <time>2019-11-21T09:58:43Z</time>
      </trkpt>
      <trkpt lat="46.7918" lon="5.58053">
        <ele>338.6</ele>
        <time>2019-11-21T09:58:47Z</time>
      </trkpt>
      <trkpt lat="46.79185" lon="5.58053">
        <ele>338.8</ele>
        <time>2019-11-21T09:58:51Z</time>
      </trkpt>
      <trkpt lat="46.7919" lon="5.58053">
        <ele>339.1</ele>
        <time>2019-11-21T09:58:55Z</time>
      </trkpt>
      <trkpt lat="46.79195" lon="5.58054">
        <ele>339.4</ele>
        <time>2019-11-21T09:59:00Z</time>
      </trkpt>
      <trkpt lat="46.792" lon="5.58055">
        <ele>339.6</ele>
        <time>2019-11-21T09:59:05Z</time>
      </trkpt>
      <trkpt lat="46.79204" lon="5.58059">
        <ele>339.4</ele>
        <time>2019-11-21T09:59:09Z</time>
      </trkpt>
      <trkpt lat="46.79209" lon="5.58062">
        <ele>339.3</ele>
        <time>2019-11-21T09:59:13Z</time>
      </trkpt>
      <trkpt lat="46.79214" lon="5.58064">
        <ele>339.3</ele>
        <time>2019-11-21T09:59:17Z</time>
      </trkpt>
      <trkpt lat="46.79219" lon="5.58067">
        <ele>339.5</ele>
        <time>2019-11-21T09:59:21Z</time>
      </trkpt>
      <trkpt lat="46.79224" lon="5.5807">
        <ele>339.5</ele>
        <time>2019-11-21T09:59:26Z</time>
      </trkpt>
      <trkpt lat="46.79228" lon="5.58072">
        <ele>339.5</ele>
        <time>2019-11-21T09:59:30Z</time>
      </trkpt>
      <trkpt lat="46.79233" lon="5.58074">
        <ele>339.3</ele>
        <time>2019-11-21T09:59:34Z</time>
      </trkpt>
      <trkpt lat="46.79238" lon="5.58076">
        <ele>339</ele>
        <time>2019-11-21T09:59:38Z</time>
      </trkpt>
      <trkpt lat="46.79242" lon="5.58078">
        <ele>338.8</ele>
        <time>2019-11-21T09:59:41Z</time>
      </trkpt>
      <trkpt lat="46.79247" lon="5.5808">
        <ele>338.7</ele>
        <time>2019-11-21T09:59:44Z</time>
      </trkpt>
      <trkpt lat="46.79252" lon="5.58082">
        <ele>338.6</ele>
        <time>2019-11-21T09:59:47Z</time>
      </trkpt>
      <trkpt lat="46.79256" lon="5.58084">
        <ele>338.6</ele>
        <time>2019-11-21T09:59:50Z</time>
      </trkpt>
      <trkpt lat="46.79262" lon="5.58087">
        <ele>338.5</ele>
        <time>2019-11-21T09:59:54Z</time>
      </trkpt>
      <trkpt lat="46.79267" lon="5.5809">
        <ele>338.5</ele>
        <time>2019-11-21T09:59:57Z</time>
      </trkpt>
      <trkpt lat="46.79272" lon="5.58092">
        <ele>338.5</ele>
        <time>2019-11-21T10:00:01Z</time>
      </trkpt>
      <trkpt lat="46.79278" lon="5.58095">
        <ele>338.5</ele>
        <time>2019-11-21T10:00:05Z</time>
      </trkpt>
      <trkpt lat="46.79283" lon="5.58098">
        <ele>338.7</ele>
        <time>2019-11-21T10:00:09Z</time>
      </trkpt>
      <trkpt lat="46.79289" lon="5.581">
        <ele>338.9</ele>
        <time>2019-11-21T10:00:13Z</time>
      </trkpt>
      <trkpt lat="46.79294" lon="5.58102">
        <ele>339</ele>
        <time>2019-11-21T10:00:18Z</time>
      </trkpt>
      <trkpt lat="46.79299" lon="5.58103">
        <ele>338.9</ele>
        <time>2019-11-21T10:00:23Z</time>
      </trkpt>
      <trkpt lat="46.79304" lon="5.58106">
        <ele>338.8</ele>
        <time>2019-11-21T10:00:28Z</time>
      </trkpt>
      <trkpt lat="46.79308" lon="5.5811">
        <ele>338.7</ele>
        <time>2019-11-21T10:00:32Z</time>
      </trkpt>
      <trkpt lat="46.79312" lon="5.58113">
        <ele>338.6</ele>
        <time>2019-11-21T10:00:35Z</time>
      </trkpt>
      <trkpt lat="46.79318" lon="5.58116">
        <ele>338.5</ele>
        <time>2019-11-21T10:00:38Z</time>
      </trkpt>
      <trkpt lat="46.79323" lon="5.58118">
        <ele>338.3</ele>
        <time>2019-11-21T10:00:41Z</time>
      </trkpt>
      <trkpt lat="46.79328" lon="5.58119">
        <ele>338.1</ele>
        <time>2019-11-21T10:00:44Z</time>
      </trkpt>
      <trkpt lat="46.79334" lon="5.5812">
        <ele>338</ele>
        <time>2019-11-21T10:00:48Z</time>
      </trkpt>
      <trkpt lat="46.79339" lon="5.58121">
        <ele>338</ele>
        <time>2019-11-21T10:00:51Z</time>
      </trkpt>
      <trkpt lat="46.79343" lon="5.58122">
        <ele>338.1</ele>
        <time>2019-11-21T10:00:55Z</time>
      </trkpt>
      <trkpt lat="46.79348" lon="5.58123">
        <ele>338.2</ele>
        <time>2019-11-21T10:00:59Z</time>
      </trkpt>
      <trkpt lat="46.79353" lon="5.58124">
        <ele>338.3</ele>
        <time>2019-11-21T10:01:02Z</time>
      </trkpt>
      <trkpt lat="46.79358" lon="5.58125">
        <ele>338.3</ele>
        <time>2019-11-21T10:01:05Z</time>
      </trkpt>
      <trkpt lat="46.79363" lon="5.58126">
        <ele>338.4</ele>
        <time>2019-11-21T10:01:08Z</time>
      </trkpt>
      <trkpt lat="46.79368" lon="5.58127">
        <ele>338.6</ele>
        <time>2019-11-21T10:01:11Z</time>
      </trkpt>
      <trkpt lat="46.79373" lon="5.58129">
        <ele>339</ele>
        <time>2019-11-21T10:01:15Z</time>
      </trkpt>
      <trkpt lat="46.79378" lon="5.58129">
        <ele>340</ele>
        <time>2019-11-21T10:01:34Z</time>
      </trkpt>
      <trkpt lat="46.79379" lon="5.58136">
        <ele>340.1</ele>
        <time>2019-11-21T10:01:52Z</time>
      </trkpt>
      <trkpt lat="46.79384" lon="5.58141">
        <ele>339.9</ele>
        <time>2019-11-21T10:01:56Z</time>
      </trkpt>
      <trkpt lat="46.79388" lon="5.58145">
        <ele>339.9</ele>
        <time>2019-11-21T10:01:59Z</time>
      </trkpt>
      <trkpt lat="46.79393" lon="5.58148">
        <ele>340</ele>
        <time>2019-11-21T10:02:03Z</time>
      </trkpt>
      <trkpt lat="46.79397" lon="5.58153">
        <ele>340.1</ele>
        <time>2019-11-21T10:02:09Z</time>
      </trkpt>
      <trkpt lat="46.79401" lon="5.58157">
        <ele>340</ele>
        <time>2019-11-21T10:02:15Z</time>
      </trkpt>
      <trkpt lat="46.79404" lon="5.58162">
        <ele>339.6</ele>
        <time>2019-11-21T10:02:20Z</time>
      </trkpt>
      <trkpt lat="46.79407" lon="5.58168">
        <ele>339.3</ele>
        <time>2019-11-21T10:02:24Z</time>
      </trkpt>
      <trkpt lat="46.7941" lon="5.58173">
        <ele>339.1</ele>
        <time>2019-11-21T10:02:28Z</time>
      </trkpt>
      <trkpt lat="46.79413" lon="5.58179">
        <ele>339</ele>
        <time>2019-11-21T10:02:32Z</time>
      </trkpt>
      <trkpt lat="46.79415" lon="5.58186">
        <ele>338.9</ele>
        <time>2019-11-21T10:02:37Z</time>
      </trkpt>
      <trkpt lat="46.79415" lon="5.58194">
        <ele>338.6</ele>
        <time>2019-11-21T10:02:42Z</time>
      </trkpt>
      <trkpt lat="46.79418" lon="5.58201">
        <ele>338.4</ele>
        <time>2019-11-21T10:02:47Z</time>
      </trkpt>
      <trkpt lat="46.7942" lon="5.58207">
        <ele>338.3</ele>
        <time>2019-11-21T10:02:51Z</time>
      </trkpt>
      <trkpt lat="46.79421" lon="5.58213">
        <ele>338</ele>
        <time>2019-11-21T10:02:55Z</time>
      </trkpt>
      <trkpt lat="46.79423" lon="5.5822">
        <ele>337.7</ele>
        <time>2019-11-21T10:03:01Z</time>
      </trkpt>
      <trkpt lat="46.79424" lon="5.58227">
        <ele>337.3</ele>
        <time>2019-11-21T10:03:06Z</time>
      </trkpt>
      <trkpt lat="46.79425" lon="5.58234">
        <ele>337.2</ele>
        <time>2019-11-21T10:03:10Z</time>
      </trkpt>
      <trkpt lat="46.79427" lon="5.58241">
        <ele>337.1</ele>
        <time>2019-11-21T10:03:15Z</time>
      </trkpt>
      <trkpt lat="46.79428" lon="5.58248">
        <ele>337.3</ele>
        <time>2019-11-21T10:03:20Z</time>
      </trkpt>
      <trkpt lat="46.7943" lon="5.58254">
        <ele>337.4</ele>
        <time>2019-11-21T10:03:24Z</time>
      </trkpt>
      <trkpt lat="46.79432" lon="5.58261">
        <ele>337.3</ele>
        <time>2019-11-21T10:03:30Z</time>
      </trkpt>
      <trkpt lat="46.79435" lon="5.58269">
        <ele>337.1</ele>
        <time>2019-11-21T10:03:34Z</time>
      </trkpt>
      <trkpt lat="46.79438" lon="5.58275">
        <ele>337</ele>
        <time>2019-11-21T10:03:37Z</time>
      </trkpt>
      <trkpt lat="46.79441" lon="5.58281">
        <ele>336.7</ele>
        <time>2019-11-21T10:03:41Z</time>
      </trkpt>
      <trkpt lat="46.79445" lon="5.58287">
        <ele>336.4</ele>
        <time>2019-11-21T10:03:46Z</time>
      </trkpt>
      <trkpt lat="46.79448" lon="5.58292">
        <ele>336</ele>
        <time>2019-11-21T10:03:51Z</time>
      </trkpt>
      <trkpt lat="46.79453" lon="5.58296">
        <ele>335.3</ele>
        <time>2019-11-21T10:03:57Z</time>
      </trkpt>
      <trkpt lat="46.79457" lon="5.583">
        <ele>334.2</ele>
        <time>2019-11-21T10:04:06Z</time>
      </trkpt>
      <trkpt lat="46.79462" lon="5.58303">
        <ele>332.2</ele>
        <time>2019-11-21T10:04:15Z</time>
      </trkpt>
      <trkpt lat="46.79467" lon="5.58303">
        <ele>330.7</ele>
        <time>2019-11-21T10:04:21Z</time>
      </trkpt>
      <trkpt lat="46.79472" lon="5.58305">
        <ele>329.7</ele>
        <time>2019-11-21T10:04:25Z</time>
      </trkpt>
      <trkpt lat="46.79477" lon="5.58308">
        <ele>328.8</ele>
        <time>2019-11-21T10:04:29Z</time>
      </trkpt>
      <trkpt lat="46.79481" lon="5.58311">
        <ele>327.8</ele>
        <time>2019-11-21T10:04:34Z</time>
      </trkpt>
      <trkpt lat="46.79485" lon="5.58315">
        <ele>326.8</ele>
        <time>2019-11-21T10:04:40Z</time>
      </trkpt>
      <trkpt lat="46.79491" lon="5.58318">
        <ele>326</ele>
        <time>2019-11-21T10:04:45Z</time>
      </trkpt>
      <trkpt lat="46.79495" lon="5.58321">
        <ele>325.2</ele>
        <time>2019-11-21T10:04:49Z</time>
      </trkpt>
      <trkpt lat="46.795" lon="5.58323">
        <ele>324.4</ele>
        <time>2019-11-21T10:04:53Z</time>
      </trkpt>
      <trkpt lat="46.79505" lon="5.58325">
        <ele>322.8</ele>
        <time>2019-11-21T10:05:00Z</time>
      </trkpt>
      <trkpt lat="46.79509" lon="5.58326">
        <ele>321.9</ele>
        <time>2019-11-21T10:05:04Z</time>
      </trkpt>
      <trkpt lat="46.79514" lon="5.58328">
        <ele>320.9</ele>
        <time>2019-11-21T10:05:08Z</time>
      </trkpt>
      <trkpt lat="46.79519" lon="5.5833">
        <ele>320</ele>
        <time>2019-11-21T10:05:12Z</time>
      </trkpt>
      <trkpt lat="46.79524" lon="5.58333">
        <ele>319.4</ele>
        <time>2019-11-21T10:05:15Z</time>
      </trkpt>
      <trkpt lat="46.79528" lon="5.58336">
        <ele>318.3</ele>
        <time>2019-11-21T10:05:20Z</time>
      </trkpt>
      <trkpt lat="46.79533" lon="5.58339">
        <ele>317</ele>
        <time>2019-11-21T10:05:26Z</time>
      </trkpt>
      <trkpt lat="46.79538" lon="5.58342">
        <ele>316.3</ele>
        <time>2019-11-21T10:05:30Z</time>
      </trkpt>
      <trkpt lat="46.79544" lon="5.58344">
        <ele>315.7</ele>
        <time>2019-11-21T10:05:35Z</time>
      </trkpt>
      <trkpt lat="46.79548" lon="5.58347">
        <ele>315.1</ele>
        <time>2019-11-21T10:05:40Z</time>
      </trkpt>
      <trkpt lat="46.79553" lon="5.58349">
        <ele>314.6</ele>
        <time>2019-11-21T10:05:45Z</time>
      </trkpt>
      <trkpt lat="46.79558" lon="5.58353">
        <ele>313.6</ele>
        <time>2019-11-21T10:05:52Z</time>
      </trkpt>
      <trkpt lat="46.79562" lon="5.58356">
        <ele>312.9</ele>
        <time>2019-11-21T10:05:57Z</time>
      </trkpt>
      <trkpt lat="46.79567" lon="5.58359">
        <ele>312.5</ele>
        <time>2019-11-21T10:06:01Z</time>
      </trkpt>
      <trkpt lat="46.79571" lon="5.58362">
        <ele>311.8</ele>
        <time>2019-11-21T10:06:08Z</time>
      </trkpt>
      <trkpt lat="46.79574" lon="5.58369">
        <ele>311.3</ele>
        <time>2019-11-21T10:06:13Z</time>
      </trkpt>
      <trkpt lat="46.79577" lon="5.58375">
        <ele>310.8</ele>
        <time>2019-11-21T10:06:17Z</time>
      </trkpt>
      <trkpt lat="46.7958" lon="5.58381">
        <ele>310.3</ele>
        <time>2019-11-21T10:06:21Z</time>
      </trkpt>
      <trkpt lat="46.79581" lon="5.58388">
        <ele>309.5</ele>
        <time>2019-11-21T10:06:29Z</time>
      </trkpt>
      <trkpt lat="46.79585" lon="5.58394">
        <ele>309</ele>
        <time>2019-11-21T10:06:34Z</time>
      </trkpt>
      <trkpt lat="46.79587" lon="5.584">
        <ele>308.4</ele>
        <time>2019-11-21T10:06:39Z</time>
      </trkpt>
      <trkpt lat="46.79589" lon="5.58406">
        <ele>308</ele>
        <time>2019-11-21T10:06:44Z</time>
      </trkpt>
      <trkpt lat="46.79591" lon="5.58412">
        <ele>307.7</ele>
        <time>2019-11-21T10:06:48Z</time>
      </trkpt>
      <trkpt lat="46.79594" lon="5.58418">
        <ele>307.5</ele>
        <time>2019-11-21T10:06:52Z</time>
      </trkpt>
      <trkpt lat="46.79597" lon="5.58423">
        <ele>307.4</ele>
        <time>2019-11-21T10:06:56Z</time>
      </trkpt>
      <trkpt lat="46.79601" lon="5.58429">
        <ele>307.2</ele>
        <time>2019-11-21T10:07:00Z</time>
      </trkpt>
      <trkpt lat="46.79604" lon="5.58434">
        <ele>307.1</ele>
        <time>2019-11-21T10:07:04Z</time>
      </trkpt>
      <trkpt lat="46.79608" lon="5.58438">
        <ele>306.9</ele>
        <time>2019-11-21T10:07:08Z</time>
      </trkpt>
      <trkpt lat="46.79612" lon="5.58442">
        <ele>306.7</ele>
        <time>2019-11-21T10:07:13Z</time>
      </trkpt>
      <trkpt lat="46.79616" lon="5.58446">
        <ele>306.4</ele>
        <time>2019-11-21T10:07:18Z</time>
      </trkpt>
      <trkpt lat="46.79621" lon="5.5845">
        <ele>306.2</ele>
        <time>2019-11-21T10:07:22Z</time>
      </trkpt>
      <trkpt lat="46.79625" lon="5.58454">
        <ele>306.1</ele>
        <time>2019-11-21T10:07:26Z</time>
      </trkpt>
      <trkpt lat="46.7963" lon="5.58457">
        <ele>306</ele>
        <time>2019-11-21T10:07:30Z</time>
      </trkpt>
      <trkpt lat="46.79633" lon="5.58462">
        <ele>305.9</ele>
        <time>2019-11-21T10:07:34Z</time>
      </trkpt>
      <trkpt lat="46.79637" lon="5.58467">
        <ele>305.7</ele>
        <time>2019-11-21T10:07:39Z</time>
      </trkpt>
      <trkpt lat="46.79641" lon="5.58472">
        <ele>305.6</ele>
        <time>2019-11-21T10:07:44Z</time>
      </trkpt>
      <trkpt lat="46.79645" lon="5.58475">
        <ele>305.6</ele>
        <time>2019-11-21T10:07:49Z</time>
      </trkpt>
      <trkpt lat="46.7965" lon="5.58478">
        <ele>305.6</ele>
        <time>2019-11-21T10:07:54Z</time>
      </trkpt>
      <trkpt lat="46.79655" lon="5.58479">
        <ele>305.7</ele>
        <time>2019-11-21T10:07:57Z</time>
      </trkpt>
      <trkpt lat="46.7966" lon="5.58482">
        <ele>305.6</ele>
        <time>2019-11-21T10:08:00Z</time>
      </trkpt>
      <trkpt lat="46.79664" lon="5.58486">
        <ele>305.5</ele>
        <time>2019-11-21T10:08:03Z</time>
      </trkpt>
      <trkpt lat="46.79668" lon="5.58491">
        <ele>305.4</ele>
        <time>2019-11-21T10:08:07Z</time>
      </trkpt>
      <trkpt lat="46.79669" lon="5.58497">
        <ele>305.4</ele>
        <time>2019-11-21T10:08:11Z</time>
      </trkpt>
      <trkpt lat="46.79668" lon="5.58505">
        <ele>305.2</ele>
        <time>2019-11-21T10:08:17Z</time>
      </trkpt>
      <trkpt lat="46.79666" lon="5.58511">
        <ele>305.2</ele>
        <time>2019-11-21T10:08:21Z</time>
      </trkpt>
      <trkpt lat="46.79665" lon="5.58519">
        <ele>305.3</ele>
        <time>2019-11-21T10:08:25Z</time>
      </trkpt>
      <trkpt lat="46.79663" lon="5.58526">
        <ele>305.2</ele>
        <time>2019-11-21T10:08:30Z</time>
      </trkpt>
      <trkpt lat="46.79661" lon="5.58533">
        <ele>305.1</ele>
        <time>2019-11-21T10:08:34Z</time>
      </trkpt>
      <trkpt lat="46.79659" lon="5.58539">
        <ele>304.9</ele>
        <time>2019-11-21T10:08:39Z</time>
      </trkpt>
      <trkpt lat="46.79657" lon="5.58546">
        <ele>304.7</ele>
        <time>2019-11-21T10:08:44Z</time>
      </trkpt>
      <trkpt lat="46.79656" lon="5.58553">
        <ele>304.3</ele>
        <time>2019-11-21T10:08:49Z</time>
      </trkpt>
      <trkpt lat="46.79654" lon="5.58559">
        <ele>303.8</ele>
        <time>2019-11-21T10:08:54Z</time>
      </trkpt>
      <trkpt lat="46.79653" lon="5.58567">
        <ele>303.3</ele>
        <time>2019-11-21T10:08:58Z</time>
      </trkpt>
      <trkpt lat="46.79652" lon="5.58573">
        <ele>303</ele>
        <time>2019-11-21T10:09:03Z</time>
      </trkpt>
      <trkpt lat="46.7965" lon="5.5858">
        <ele>302.8</ele>
        <time>2019-11-21T10:09:07Z</time>
      </trkpt>
      <trkpt lat="46.79648" lon="5.58586">
        <ele>302.7</ele>
        <time>2019-11-21T10:09:12Z</time>
      </trkpt>
      <trkpt lat="46.79646" lon="5.58592">
        <ele>302.4</ele>
        <time>2019-11-21T10:09:18Z</time>
      </trkpt>
      <trkpt lat="46.79644" lon="5.58599">
        <ele>302.1</ele>
        <time>2019-11-21T10:09:23Z</time>
      </trkpt>
      <trkpt lat="46.79643" lon="5.58607">
        <ele>301.8</ele>
        <time>2019-11-21T10:09:29Z</time>
      </trkpt>
      <trkpt lat="46.79644" lon="5.58613">
        <ele>301.4</ele>
        <time>2019-11-21T10:09:34Z</time>
      </trkpt>
      <trkpt lat="46.79644" lon="5.58622">
        <ele>300.9</ele>
        <time>2019-11-21T10:09:39Z</time>
      </trkpt>
      <trkpt lat="46.79642" lon="5.58629">
        <ele>300.5</ele>
        <time>2019-11-21T10:09:43Z</time>
      </trkpt>
      <trkpt lat="46.79641" lon="5.58637">
        <ele>300.2</ele>
        <time>2019-11-21T10:09:47Z</time>
      </trkpt>
      <trkpt lat="46.79639" lon="5.58644">
        <ele>299.8</ele>
        <time>2019-11-21T10:09:51Z</time>
      </trkpt>
      <trkpt lat="46.79638" lon="5.58651">
        <ele>299.2</ele>
        <time>2019-11-21T10:09:56Z</time>
      </trkpt>
      <trkpt lat="46.79637" lon="5.58659">
        <ele>298.6</ele>
        <time>2019-11-21T10:10:01Z</time>
      </trkpt>
      <trkpt lat="46.79636" lon="5.58667">
        <ele>298.3</ele>
        <time>2019-11-21T10:10:05Z</time>
      </trkpt>
      <trkpt lat="46.79635" lon="5.58675">
        <ele>298</ele>
        <time>2019-11-21T10:10:09Z</time>
      </trkpt>
      <trkpt lat="46.79633" lon="5.5868">
        <ele>297.7</ele>
        <time>2019-11-21T10:10:13Z</time>
      </trkpt>
      <trkpt lat="46.79631" lon="5.58686">
        <ele>297.3</ele>
        <time>2019-11-21T10:10:17Z</time>
      </trkpt>
      <trkpt lat="46.79628" lon="5.58692">
        <ele>297</ele>
        <time>2019-11-21T10:10:22Z</time>
      </trkpt>
      <trkpt lat="46.79626" lon="5.58699">
        <ele>297</ele>
        <time>2019-11-21T10:10:27Z</time>
      </trkpt>
      <trkpt lat="46.79624" lon="5.58705">
        <ele>296.7</ele>
        <time>2019-11-21T10:10:32Z</time>
      </trkpt>
      <trkpt lat="46.79622" lon="5.58713">
        <ele>296.4</ele>
        <time>2019-11-21T10:10:37Z</time>
      </trkpt>
      <trkpt lat="46.7962" lon="5.5872">
        <ele>296.1</ele>
        <time>2019-11-21T10:10:41Z</time>
      </trkpt>
      <trkpt lat="46.79619" lon="5.58726">
        <ele>295.8</ele>
        <time>2019-11-21T10:10:45Z</time>
      </trkpt>
      <trkpt lat="46.79618" lon="5.58733">
        <ele>295.4</ele>
        <time>2019-11-21T10:10:49Z</time>
      </trkpt>
      <trkpt lat="46.79618" lon="5.5874">
        <ele>295</ele>
        <time>2019-11-21T10:10:53Z</time>
      </trkpt>
      <trkpt lat="46.79617" lon="5.58747">
        <ele>294.7</ele>
        <time>2019-11-21T10:10:56Z</time>
      </trkpt>
      <trkpt lat="46.79618" lon="5.58753">
        <ele>293.8</ele>
        <time>2019-11-21T10:11:03Z</time>
      </trkpt>
      <trkpt lat="46.79622" lon="5.58757">
        <ele>292.4</ele>
        <time>2019-11-21T10:11:10Z</time>
      </trkpt>
      <trkpt lat="46.79625" lon="5.58763">
        <ele>291.8</ele>
        <time>2019-11-21T10:11:14Z</time>
      </trkpt>
      <trkpt lat="46.79625" lon="5.58771">
        <ele>291</ele>
        <time>2019-11-21T10:11:20Z</time>
      </trkpt>
      <trkpt lat="46.79624" lon="5.58777">
        <ele>290.6</ele>
        <time>2019-11-21T10:11:24Z</time>
      </trkpt>
      <trkpt lat="46.79623" lon="5.58784">
        <ele>290.5</ele>
        <time>2019-11-21T10:11:28Z</time>
      </trkpt>
      <trkpt lat="46.79623" lon="5.58791">
        <ele>290.5</ele>
        <time>2019-11-21T10:11:33Z</time>
      </trkpt>
      <trkpt lat="46.79623" lon="5.58799">
        <ele>290.6</ele>
        <time>2019-11-21T10:11:37Z</time>
      </trkpt>
      <trkpt lat="46.79623" lon="5.58807">
        <ele>290.8</ele>
        <time>2019-11-21T10:11:41Z</time>
      </trkpt>
      <trkpt lat="46.79623" lon="5.58814">
        <ele>291</ele>
        <time>2019-11-21T10:11:45Z</time>
      </trkpt>
      <trkpt lat="46.79624" lon="5.58822">
        <ele>291.2</ele>
        <time>2019-11-21T10:11:50Z</time>
      </trkpt>
      <trkpt lat="46.79626" lon="5.58828">
        <ele>291.3</ele>
        <time>2019-11-21T10:11:54Z</time>
      </trkpt>
      <trkpt lat="46.79627" lon="5.58835">
        <ele>291.3</ele>
        <time>2019-11-21T10:11:59Z</time>
      </trkpt>
      <trkpt lat="46.79627" lon="5.58843">
        <ele>291.3</ele>
        <time>2019-11-21T10:12:04Z</time>
      </trkpt>
      <trkpt lat="46.79627" lon="5.58851">
        <ele>291.3</ele>
        <time>2019-11-21T10:12:08Z</time>
      </trkpt>
      <trkpt lat="46.79628" lon="5.58859">
        <ele>291.3</ele>
        <time>2019-11-21T10:12:12Z</time>
      </trkpt>
      <trkpt lat="46.79628" lon="5.58867">
        <ele>291.4</ele>
        <time>2019-11-21T10:12:18Z</time>
      </trkpt>
      <trkpt lat="46.79629" lon="5.58875">
        <ele>291.5</ele>
        <time>2019-11-21T10:12:22Z</time>
      </trkpt>
      <trkpt lat="46.7963" lon="5.58881">
        <ele>291.7</ele>
        <time>2019-11-21T10:12:26Z</time>
      </trkpt>
      <trkpt lat="46.79631" lon="5.58888">
        <ele>291.9</ele>
        <time>2019-11-21T10:12:29Z</time>
      </trkpt>
      <trkpt lat="46.79632" lon="5.58895">
        <ele>292</ele>
        <time>2019-11-21T10:12:34Z</time>
      </trkpt>
      <trkpt lat="46.79632" lon="5.58903">
        <ele>292.1</ele>
        <time>2019-11-21T10:12:40Z</time>
      </trkpt>
      <trkpt lat="46.79633" lon="5.5891">
        <ele>292.2</ele>
        <time>2019-11-21T10:12:44Z</time>
      </trkpt>
      <trkpt lat="46.79634" lon="5.58917">
        <ele>292.3</ele>
        <time>2019-11-21T10:12:48Z</time>
      </trkpt>
      <trkpt lat="46.79636" lon="5.58923">
        <ele>292.5</ele>
        <time>2019-11-21T10:12:52Z</time>
      </trkpt>
      <trkpt lat="46.79637" lon="5.5893">
        <ele>292.6</ele>
        <time>2019-11-21T10:12:56Z</time>
      </trkpt>
      <trkpt lat="46.79637" lon="5.58938">
        <ele>292.8</ele>
        <time>2019-11-21T10:13:02Z</time>
      </trkpt>
      <trkpt lat="46.79638" lon="5.58945">
        <ele>293</ele>
        <time>2019-11-21T10:13:06Z</time>
      </trkpt>
      <trkpt lat="46.79639" lon="5.58952">
        <ele>293</ele>
        <time>2019-11-21T10:13:10Z</time>
      </trkpt>
      <trkpt lat="46.7964" lon="5.5896">
        <ele>292.9</ele>
        <time>2019-11-21T10:13:14Z</time>
      </trkpt>
      <trkpt lat="46.79641" lon="5.58967">
        <ele>292.8</ele>
        <time>2019-11-21T10:13:19Z</time>
      </trkpt>
      <trkpt lat="46.79641" lon="5.58974">
        <ele>292.9</ele>
        <time>2019-11-21T10:13:24Z</time>
      </trkpt>
      <trkpt lat="46.79641" lon="5.58982">
        <ele>293</ele>
        <time>2019-11-21T10:13:29Z</time>
      </trkpt>
      <trkpt lat="46.79642" lon="5.5899">
        <ele>293.1</ele>
        <time>2019-11-21T10:13:34Z</time>
      </trkpt>
      <trkpt lat="46.79642" lon="5.58998">
        <ele>293.2</ele>
        <time>2019-11-21T10:13:40Z</time>
      </trkpt>
      <trkpt lat="46.79641" lon="5.59004">
        <ele>293.2</ele>
        <time>2019-11-21T10:13:44Z</time>
      </trkpt>
      <trkpt lat="46.79639" lon="5.59011">
        <ele>293.2</ele>
        <time>2019-11-21T10:13:49Z</time>
      </trkpt>
      <trkpt lat="46.79637" lon="5.59018">
        <ele>292.9</ele>
        <time>2019-11-21T10:13:55Z</time>
      </trkpt>
      <trkpt lat="46.79635" lon="5.59025">
        <ele>292.8</ele>
        <time>2019-11-21T10:13:59Z</time>
      </trkpt>
      <trkpt lat="46.79632" lon="5.59032">
        <ele>292.6</ele>
        <time>2019-11-21T10:14:03Z</time>
      </trkpt>
      <trkpt lat="46.79629" lon="5.59038">
        <ele>292.4</ele>
        <time>2019-11-21T10:14:07Z</time>
      </trkpt>
      <trkpt lat="46.79627" lon="5.59044">
        <ele>292.2</ele>
        <time>2019-11-21T10:14:11Z</time>
      </trkpt>
      <trkpt lat="46.79625" lon="5.5905">
        <ele>292</ele>
        <time>2019-11-21T10:14:15Z</time>
      </trkpt>
      <trkpt lat="46.79622" lon="5.59055">
        <ele>291.8</ele>
        <time>2019-11-21T10:14:20Z</time>
      </trkpt>
      <trkpt lat="46.79617" lon="5.59059">
        <ele>291.8</ele>
        <time>2019-11-21T10:14:24Z</time>
      </trkpt>
      <trkpt lat="46.79614" lon="5.59065">
        <ele>292</ele>
        <time>2019-11-21T10:14:29Z</time>
      </trkpt>
      <trkpt lat="46.79612" lon="5.59071">
        <ele>292.4</ele>
        <time>2019-11-21T10:14:34Z</time>
      </trkpt>
      <trkpt lat="46.79609" lon="5.59077">
        <ele>292.7</ele>
        <time>2019-11-21T10:14:38Z</time>
      </trkpt>
      <trkpt lat="46.79606" lon="5.59083">
        <ele>293.2</ele>
        <time>2019-11-21T10:14:43Z</time>
      </trkpt>
      <trkpt lat="46.79602" lon="5.59087">
        <ele>293.5</ele>
        <time>2019-11-21T10:14:47Z</time>
      </trkpt>
      <trkpt lat="46.79598" lon="5.59092">
        <ele>293.7</ele>
        <time>2019-11-21T10:14:51Z</time>
      </trkpt>
      <trkpt lat="46.79595" lon="5.59097">
        <ele>294</ele>
        <time>2019-11-21T10:14:56Z</time>
      </trkpt>
      <trkpt lat="46.79591" lon="5.591">
        <ele>294.2</ele>
        <time>2019-11-21T10:15:00Z</time>
      </trkpt>
      <trkpt lat="46.79587" lon="5.59105">
        <ele>294.7</ele>
        <time>2019-11-21T10:15:05Z</time>
      </trkpt>
      <trkpt lat="46.79583" lon="5.59109">
        <ele>295.1</ele>
        <time>2019-11-21T10:15:12Z</time>
      </trkpt>
      <trkpt lat="46.79578" lon="5.59113">
        <ele>295.3</ele>
        <time>2019-11-21T10:15:19Z</time>
      </trkpt>
      <trkpt lat="46.79575" lon="5.59119">
        <ele>295.3</ele>
        <time>2019-11-21T10:15:25Z</time>
      </trkpt>
      <trkpt lat="46.79571" lon="5.59124">
        <ele>295.4</ele>
        <time>2019-11-21T10:15:31Z</time>
      </trkpt>
      <trkpt lat="46.79567" lon="5.59128">
        <ele>295.9</ele>
        <time>2019-11-21T10:15:36Z</time>
      </trkpt>
      <trkpt lat="46.79563" lon="5.59131">
        <ele>296.3</ele>
        <time>2019-11-21T10:15:40Z</time>
      </trkpt>
      <trkpt lat="46.79558" lon="5.59133">
        <ele>296.7</ele>
        <time>2019-11-21T10:15:44Z</time>
      </trkpt>
      <trkpt lat="46.79554" lon="5.59136">
        <ele>297</ele>
        <time>2019-11-21T10:15:48Z</time>
      </trkpt>
      <trkpt lat="46.7955" lon="5.5914">
        <ele>297.3</ele>
        <time>2019-11-21T10:15:53Z</time>
      </trkpt>
      <trkpt lat="46.79546" lon="5.59144">
        <ele>297.3</ele>
        <time>2019-11-21T10:15:57Z</time>
      </trkpt>
      <trkpt lat="46.79541" lon="5.59149">
        <ele>297.3</ele>
        <time>2019-11-21T10:16:01Z</time>
      </trkpt>
      <trkpt lat="46.79536" lon="5.59153">
        <ele>297.3</ele>
        <time>2019-11-21T10:16:05Z</time>
      </trkpt>
      <trkpt lat="46.79532" lon="5.59156">
        <ele>297.4</ele>
        <time>2019-11-21T10:16:10Z</time>
      </trkpt>
      <trkpt lat="46.79527" lon="5.59158">
        <ele>297.5</ele>
        <time>2019-11-21T10:16:16Z</time>
      </trkpt>
      <trkpt lat="46.79523" lon="5.5916">
        <ele>297.7</ele>
        <time>2019-11-21T10:16:21Z</time>
      </trkpt>
      <trkpt lat="46.79519" lon="5.59164">
        <ele>297.8</ele>
        <time>2019-11-21T10:16:24Z</time>
      </trkpt>
      <trkpt lat="46.79514" lon="5.59169">
        <ele>298</ele>
        <time>2019-11-21T10:16:29Z</time>
      </trkpt>
      <trkpt lat="46.79511" lon="5.59173">
        <ele>298</ele>
        <time>2019-11-21T10:16:34Z</time>
      </trkpt>
      <trkpt lat="46.79507" lon="5.59177">
        <ele>298</ele>
        <time>2019-11-21T10:16:38Z</time>
      </trkpt>
      <trkpt lat="46.79503" lon="5.5918">
        <ele>297.9</ele>
        <time>2019-11-21T10:16:42Z</time>
      </trkpt>
      <trkpt lat="46.79499" lon="5.59185">
        <ele>297.9</ele>
        <time>2019-11-21T10:16:46Z</time>
      </trkpt>
      <trkpt lat="46.79495" lon="5.59189">
        <ele>297.7</ele>
        <time>2019-11-21T10:16:50Z</time>
      </trkpt>
      <trkpt lat="46.79492" lon="5.59195">
        <ele>297.5</ele>
        <time>2019-11-21T10:16:56Z</time>
      </trkpt>
      <trkpt lat="46.79488" lon="5.592">
        <ele>297.6</ele>
        <time>2019-11-21T10:17:01Z</time>
      </trkpt>
      <trkpt lat="46.79484" lon="5.59206">
        <ele>297.6</ele>
        <time>2019-11-21T10:17:05Z</time>
      </trkpt>
      <trkpt lat="46.79481" lon="5.59211">
        <ele>297.7</ele>
        <time>2019-11-21T10:17:09Z</time>
      </trkpt>
      <trkpt lat="46.79478" lon="5.59217">
        <ele>297.9</ele>
        <time>2019-11-21T10:17:13Z</time>
      </trkpt>
      <trkpt lat="46.79476" lon="5.59223">
        <ele>298.3</ele>
        <time>2019-11-21T10:17:17Z</time>
      </trkpt>
      <trkpt lat="46.79474" lon="5.5923">
        <ele>299.3</ele>
        <time>2019-11-21T10:17:24Z</time>
      </trkpt>
      <trkpt lat="46.79471" lon="5.59235">
        <ele>300.3</ele>
        <time>2019-11-21T10:17:29Z</time>
      </trkpt>
      <trkpt lat="46.79467" lon="5.59239">
        <ele>301.2</ele>
        <time>2019-11-21T10:17:33Z</time>
      </trkpt>
      <trkpt lat="46.79462" lon="5.59244">
        <ele>302.1</ele>
        <time>2019-11-21T10:17:37Z</time>
      </trkpt>
      <trkpt lat="46.79459" lon="5.59249">
        <ele>302.7</ele>
        <time>2019-11-21T10:17:40Z</time>
      </trkpt>
      <trkpt lat="46.79457" lon="5.59256">
        <ele>303.7</ele>
        <time>2019-11-21T10:17:45Z</time>
      </trkpt>
      <trkpt lat="46.79453" lon="5.59262">
        <ele>304.7</ele>
        <time>2019-11-21T10:17:51Z</time>
      </trkpt>
      <trkpt lat="46.79449" lon="5.59268">
        <ele>305.2</ele>
        <time>2019-11-21T10:17:56Z</time>
      </trkpt>
      <trkpt lat="46.79447" lon="5.59273">
        <ele>305.5</ele>
        <time>2019-11-21T10:18:00Z</time>
      </trkpt>
      <trkpt lat="46.79443" lon="5.59279">
        <ele>305.6</ele>
        <time>2019-11-21T10:18:04Z</time>
      </trkpt>
      <trkpt lat="46.7944" lon="5.59285">
        <ele>305.7</ele>
        <time>2019-11-21T10:18:08Z</time>
      </trkpt>
      <trkpt lat="46.79436" lon="5.59292">
        <ele>305.8</ele>
        <time>2019-11-21T10:18:12Z</time>
      </trkpt>
      <trkpt lat="46.79433" lon="5.59297">
        <ele>305.8</ele>
        <time>2019-11-21T10:18:15Z</time>
      </trkpt>
      <trkpt lat="46.79429" lon="5.59301">
        <ele>305.8</ele>
        <time>2019-11-21T10:18:19Z</time>
      </trkpt>
      <trkpt lat="46.79425" lon="5.59306">
        <ele>305.9</ele>
        <time>2019-11-21T10:18:23Z</time>
      </trkpt>
      <trkpt lat="46.79422" lon="5.59311">
        <ele>306.1</ele>
        <time>2019-11-21T10:18:27Z</time>
      </trkpt>
      <trkpt lat="46.79418" lon="5.59316">
        <ele>306.3</ele>
        <time>2019-11-21T10:18:32Z</time>
      </trkpt>
      <trkpt lat="46.79414" lon="5.59321">
        <ele>306.7</ele>
        <time>2019-11-21T10:18:36Z</time>
      </trkpt>
      <trkpt lat="46.79409" lon="5.59326">
        <ele>307.4</ele>
        <time>2019-11-21T10:18:40Z</time>
      </trkpt>
      <trkpt lat="46.79405" lon="5.59329">
        <ele>308</ele>
        <time>2019-11-21T10:18:43Z</time>
      </trkpt>
      <trkpt lat="46.79401" lon="5.59333">
        <ele>308.7</ele>
        <time>2019-11-21T10:18:47Z</time>
      </trkpt>
      <trkpt lat="46.79397" lon="5.59337">
        <ele>309.4</ele>
        <time>2019-11-21T10:18:51Z</time>
      </trkpt>
      <trkpt lat="46.79394" lon="5.59343">
        <ele>309.8</ele>
        <time>2019-11-21T10:18:55Z</time>
      </trkpt>
      <trkpt lat="46.7939" lon="5.59349">
        <ele>310.4</ele>
        <time>2019-11-21T10:19:00Z</time>
      </trkpt>
      <trkpt lat="46.79387" lon="5.59354">
        <ele>310.8</ele>
        <time>2019-11-21T10:19:04Z</time>
      </trkpt>
      <trkpt lat="46.79384" lon="5.59359">
        <ele>311.1</ele>
        <time>2019-11-21T10:19:08Z</time>
      </trkpt>
      <trkpt lat="46.7938" lon="5.59364">
        <ele>311.3</ele>
        <time>2019-11-21T10:19:13Z</time>
      </trkpt>
      <trkpt lat="46.79377" lon="5.59368">
        <ele>311.3</ele>
        <time>2019-11-21T10:19:17Z</time>
      </trkpt>
      <trkpt lat="46.79373" lon="5.59372">
        <ele>311.4</ele>
        <time>2019-11-21T10:19:22Z</time>
      </trkpt>
      <trkpt lat="46.79369" lon="5.59376">
        <ele>311.4</ele>
        <time>2019-11-21T10:19:27Z</time>
      </trkpt>
      <trkpt lat="46.79365" lon="5.59381">
        <ele>311.3</ele>
        <time>2019-11-21T10:19:32Z</time>
      </trkpt>
      <trkpt lat="46.79361" lon="5.59386">
        <ele>311.1</ele>
        <time>2019-11-21T10:19:38Z</time>
      </trkpt>
      <trkpt lat="46.79358" lon="5.59391">
        <ele>310.8</ele>
        <time>2019-11-21T10:19:42Z</time>
      </trkpt>
      <trkpt lat="46.79354" lon="5.59397">
        <ele>310.2</ele>
        <time>2019-11-21T10:19:47Z</time>
      </trkpt>
      <trkpt lat="46.7935" lon="5.59402">
        <ele>309.4</ele>
        <time>2019-11-21T10:19:52Z</time>
      </trkpt>
      <trkpt lat="46.79347" lon="5.59408">
        <ele>308.4</ele>
        <time>2019-11-21T10:19:57Z</time>
      </trkpt>
      <trkpt lat="46.79344" lon="5.59413">
        <ele>307.4</ele>
        <time>2019-11-21T10:20:02Z</time>
      </trkpt>
      <trkpt lat="46.7934" lon="5.59418">
        <ele>306.3</ele>
        <time>2019-11-21T10:20:07Z</time>
      </trkpt>
      <trkpt lat="46.79338" lon="5.59423">
        <ele>304.7</ele>
        <time>2019-11-21T10:20:13Z</time>
      </trkpt>
      <trkpt lat="46.79334" lon="5.59429">
        <ele>303.5</ele>
        <time>2019-11-21T10:20:17Z</time>
      </trkpt>
      <trkpt lat="46.79331" lon="5.59433">
        <ele>302.4</ele>
        <time>2019-11-21T10:20:21Z</time>
      </trkpt>
      <trkpt lat="46.79326" lon="5.59437">
        <ele>301.2</ele>
        <time>2019-11-21T10:20:26Z</time>
      </trkpt>
      <trkpt lat="46.79323" lon="5.59441">
        <ele>300.2</ele>
        <time>2019-11-21T10:20:31Z</time>
      </trkpt>
      <trkpt lat="46.79318" lon="5.59445">
        <ele>299.5</ele>
        <time>2019-11-21T10:20:35Z</time>
      </trkpt>
      <trkpt lat="46.79313" lon="5.59448">
        <ele>299</ele>
        <time>2019-11-21T10:20:40Z</time>
      </trkpt>
      <trkpt lat="46.79309" lon="5.5945">
        <ele>298.8</ele>
        <time>2019-11-21T10:20:45Z</time>
      </trkpt>
      <trkpt lat="46.79304" lon="5.59452">
        <ele>298.7</ele>
        <time>2019-11-21T10:20:50Z</time>
      </trkpt>
      <trkpt lat="46.79299" lon="5.59453">
        <ele>298.3</ele>
        <time>2019-11-21T10:20:55Z</time>
      </trkpt>
      <trkpt lat="46.79294" lon="5.59452">
        <ele>297.8</ele>
        <time>2019-11-21T10:21:00Z</time>
      </trkpt>
      <trkpt lat="46.7929" lon="5.59452">
        <ele>297.1</ele>
        <time>2019-11-21T10:21:05Z</time>
      </trkpt>
      <trkpt lat="46.79284" lon="5.59452">
        <ele>296.2</ele>
        <time>2019-11-21T10:21:11Z</time>
      </trkpt>
      <trkpt lat="46.79279" lon="5.59451">
        <ele>295.5</ele>
        <time>2019-11-21T10:21:15Z</time>
      </trkpt>
      <trkpt lat="46.79274" lon="5.5945">
        <ele>295.1</ele>
        <time>2019-11-21T10:21:18Z</time>
      </trkpt>
      <trkpt lat="46.79269" lon="5.59449">
        <ele>294.7</ele>
        <time>2019-11-21T10:21:21Z</time>
      </trkpt>
      <trkpt lat="46.79264" lon="5.59447">
        <ele>294.2</ele>
        <time>2019-11-21T10:21:25Z</time>
      </trkpt>
      <trkpt lat="46.7926" lon="5.59446">
        <ele>293.4</ele>
        <time>2019-11-21T10:21:31Z</time>
      </trkpt>
      <trkpt lat="46.79255" lon="5.59445">
        <ele>292.6</ele>
        <time>2019-11-21T10:21:37Z</time>
      </trkpt>
      <trkpt lat="46.7925" lon="5.59443">
        <ele>292</ele>
        <time>2019-11-21T10:21:46Z</time>
      </trkpt>
      <trkpt lat="46.79245" lon="5.59443">
        <ele>291.7</ele>
        <time>2019-11-21T10:22:00Z</time>
      </trkpt>
      <trkpt lat="46.79241" lon="5.59442">
        <ele>291.7</ele>
        <time>2019-11-21T10:22:05Z</time>
      </trkpt>
      <trkpt lat="46.79235" lon="5.5944">
        <ele>292.1</ele>
        <time>2019-11-21T10:22:10Z</time>
      </trkpt>
      <trkpt lat="46.7923" lon="5.59441">
        <ele>292.6</ele>
        <time>2019-11-21T10:22:15Z</time>
      </trkpt>
      <trkpt lat="46.79226" lon="5.59438">
        <ele>294.5</ele>
        <time>2019-11-21T10:22:42Z</time>
      </trkpt>
      <trkpt lat="46.79221" lon="5.59438">
        <ele>294.5</ele>
        <time>2019-11-21T10:22:48Z</time>
      </trkpt>
      <trkpt lat="46.79217" lon="5.5944">
        <ele>294.3</ele>
        <time>2019-11-21T10:22:55Z</time>
      </trkpt>
      <trkpt lat="46.79212" lon="5.59442">
        <ele>294.1</ele>
        <time>2019-11-21T10:23:00Z</time>
      </trkpt>
      <trkpt lat="46.79207" lon="5.59443">
        <ele>293.9</ele>
        <time>2019-11-21T10:23:05Z</time>
      </trkpt>
      <trkpt lat="46.79202" lon="5.59444">
        <ele>293.8</ele>
        <time>2019-11-21T10:23:10Z</time>
      </trkpt>
      <trkpt lat="46.79197" lon="5.59446">
        <ele>293.8</ele>
        <time>2019-11-21T10:23:14Z</time>
      </trkpt>
      <trkpt lat="46.79193" lon="5.59447">
        <ele>293.7</ele>
        <time>2019-11-21T10:23:18Z</time>
      </trkpt>
      <trkpt lat="46.79188" lon="5.59447">
        <ele>293.4</ele>
        <time>2019-11-21T10:23:23Z</time>
      </trkpt>
      <trkpt lat="46.79182" lon="5.59448">
        <ele>293.2</ele>
        <time>2019-11-21T10:23:28Z</time>
      </trkpt>
      <trkpt lat="46.79178" lon="5.59449">
        <ele>293.1</ele>
        <time>2019-11-21T10:23:32Z</time>
      </trkpt>
      <trkpt lat="46.79173" lon="5.5945">
        <ele>292.7</ele>
        <time>2019-11-21T10:23:37Z</time>
      </trkpt>
      <trkpt lat="46.79168" lon="5.59452">
        <ele>292.3</ele>
        <time>2019-11-21T10:23:42Z</time>
      </trkpt>
      <trkpt lat="46.79164" lon="5.59453">
        <ele>291.8</ele>
        <time>2019-11-21T10:23:46Z</time>
      </trkpt>
      <trkpt lat="46.79158" lon="5.59454">
        <ele>291.4</ele>
        <time>2019-11-21T10:23:50Z</time>
      </trkpt>
      <trkpt lat="46.79152" lon="5.59455">
        <ele>290.9</ele>
        <time>2019-11-21T10:23:55Z</time>
      </trkpt>
      <trkpt lat="46.79147" lon="5.59455">
        <ele>290.6</ele>
        <time>2019-11-21T10:23:59Z</time>
      </trkpt>
      <trkpt lat="46.79143" lon="5.59458">
        <ele>290.4</ele>
        <time>2019-11-21T10:24:03Z</time>
      </trkpt>
      <trkpt lat="46.79138" lon="5.59459">
        <ele>290.2</ele>
        <time>2019-11-21T10:24:07Z</time>
      </trkpt>
      <trkpt lat="46.79134" lon="5.5946">
        <ele>289.9</ele>
        <time>2019-11-21T10:24:11Z</time>
      </trkpt>
      <trkpt lat="46.79129" lon="5.59461">
        <ele>289.5</ele>
        <time>2019-11-21T10:24:16Z</time>
      </trkpt>
      <trkpt lat="46.79125" lon="5.59464">
        <ele>289.3</ele>
        <time>2019-11-21T10:24:20Z</time>
      </trkpt>
      <trkpt lat="46.7912" lon="5.59464">
        <ele>288.9</ele>
        <time>2019-11-21T10:24:24Z</time>
      </trkpt>
      <trkpt lat="46.79115" lon="5.59464">
        <ele>288.7</ele>
        <time>2019-11-21T10:24:28Z</time>
      </trkpt>
      <trkpt lat="46.79109" lon="5.59465">
        <ele>288.5</ele>
        <time>2019-11-21T10:24:32Z</time>
      </trkpt>
      <trkpt lat="46.79103" lon="5.59467">
        <ele>288.2</ele>
        <time>2019-11-21T10:24:37Z</time>
      </trkpt>
      <trkpt lat="46.79098" lon="5.5947">
        <ele>287.9</ele>
        <time>2019-11-21T10:24:41Z</time>
      </trkpt>
      <trkpt lat="46.79094" lon="5.59473">
        <ele>287.6</ele>
        <time>2019-11-21T10:24:45Z</time>
      </trkpt>
      <trkpt lat="46.79089" lon="5.59476">
        <ele>287.4</ele>
        <time>2019-11-21T10:24:49Z</time>
      </trkpt>
      <trkpt lat="46.79084" lon="5.59477">
        <ele>287.4</ele>
        <time>2019-11-21T10:24:53Z</time>
      </trkpt>
      <trkpt lat="46.79079" lon="5.59478">
        <ele>287.3</ele>
        <time>2019-11-21T10:24:57Z</time>
      </trkpt>
      <trkpt lat="46.79074" lon="5.59481">
        <ele>287.4</ele>
        <time>2019-11-21T10:25:01Z</time>
      </trkpt>
      <trkpt lat="46.7907" lon="5.59485">
        <ele>287.6</ele>
        <time>2019-11-21T10:25:05Z</time>
      </trkpt>
      <trkpt lat="46.79065" lon="5.59488">
        <ele>287.9</ele>
        <time>2019-11-21T10:25:09Z</time>
      </trkpt>
      <trkpt lat="46.7906" lon="5.59491">
        <ele>288.4</ele>
        <time>2019-11-21T10:25:13Z</time>
      </trkpt>
      <trkpt lat="46.79056" lon="5.59496">
        <ele>289</ele>
        <time>2019-11-21T10:25:18Z</time>
      </trkpt>
      <trkpt lat="46.79052" lon="5.59501">
        <ele>289.5</ele>
        <time>2019-11-21T10:25:22Z</time>
      </trkpt>
      <trkpt lat="46.79048" lon="5.59503">
        <ele>289.9</ele>
        <time>2019-11-21T10:25:27Z</time>
      </trkpt>
      <trkpt lat="46.79043" lon="5.59505">
        <ele>290.3</ele>
        <time>2019-11-21T10:25:32Z</time>
      </trkpt>
      <trkpt lat="46.79038" lon="5.59508">
        <ele>290.6</ele>
        <time>2019-11-21T10:25:37Z</time>
      </trkpt>
      <trkpt lat="46.79033" lon="5.59512">
        <ele>290.6</ele>
        <time>2019-11-21T10:25:43Z</time>
      </trkpt>
      <trkpt lat="46.79028" lon="5.59513">
        <ele>290.2</ele>
        <time>2019-11-21T10:25:49Z</time>
      </trkpt>
      <trkpt lat="46.79023" lon="5.59513">
        <ele>289.5</ele>
        <time>2019-11-21T10:25:57Z</time>
      </trkpt>
      <trkpt lat="46.79019" lon="5.59512">
        <ele>289.1</ele>
        <time>2019-11-21T10:26:02Z</time>
      </trkpt>
      <trkpt lat="46.79014" lon="5.59513">
        <ele>288.6</ele>
        <time>2019-11-21T10:26:08Z</time>
      </trkpt>
      <trkpt lat="46.79009" lon="5.59514">
        <ele>288.2</ele>
        <time>2019-11-21T10:26:13Z</time>
      </trkpt>
      <trkpt lat="46.79005" lon="5.59518">
        <ele>288</ele>
        <time>2019-11-21T10:26:17Z</time>
      </trkpt>
      <trkpt lat="46.79001" lon="5.59522">
        <ele>288</ele>
        <time>2019-11-21T10:26:21Z</time>
      </trkpt>
      <trkpt lat="46.78997" lon="5.59525">
        <ele>288.2</ele>
        <time>2019-11-21T10:26:25Z</time>
      </trkpt>
      <trkpt lat="46.78993" lon="5.59529">
        <ele>288.6</ele>
        <time>2019-11-21T10:26:29Z</time>
      </trkpt>
      <trkpt lat="46.78989" lon="5.59533">
        <ele>289.1</ele>
        <time>2019-11-21T10:26:33Z</time>
      </trkpt>
      <trkpt lat="46.78984" lon="5.59537">
        <ele>289.6</ele>
        <time>2019-11-21T10:26:37Z</time>
      </trkpt>
      <trkpt lat="46.7898" lon="5.5954">
        <ele>290.2</ele>
        <time>2019-11-21T10:26:42Z</time>
      </trkpt>
      <trkpt lat="46.78976" lon="5.59546">
        <ele>290.8</ele>
        <time>2019-11-21T10:26:47Z</time>
      </trkpt>
      <trkpt lat="46.78973" lon="5.59551">
        <ele>291.2</ele>
        <time>2019-11-21T10:26:51Z</time>
      </trkpt>
      <trkpt lat="46.78968" lon="5.59556">
        <ele>291.7</ele>
        <time>2019-11-21T10:26:56Z</time>
      </trkpt>
      <trkpt lat="46.78965" lon="5.5956">
        <ele>292.3</ele>
        <time>2019-11-21T10:27:01Z</time>
      </trkpt>
      <trkpt lat="46.78961" lon="5.59565">
        <ele>292.9</ele>
        <time>2019-11-21T10:27:05Z</time>
      </trkpt>
      <trkpt lat="46.78958" lon="5.5957">
        <ele>293.6</ele>
        <time>2019-11-21T10:27:09Z</time>
      </trkpt>
      <trkpt lat="46.78954" lon="5.59575">
        <ele>294.1</ele>
        <time>2019-11-21T10:27:13Z</time>
      </trkpt>
      <trkpt lat="46.78951" lon="5.5958">
        <ele>294.6</ele>
        <time>2019-11-21T10:27:17Z</time>
      </trkpt>
      <trkpt lat="46.78948" lon="5.59585">
        <ele>295.2</ele>
        <time>2019-11-21T10:27:22Z</time>
      </trkpt>
      <trkpt lat="46.78945" lon="5.59592">
        <ele>295.9</ele>
        <time>2019-11-21T10:27:27Z</time>
      </trkpt>
      <trkpt lat="46.78942" lon="5.59597">
        <ele>296.7</ele>
        <time>2019-11-21T10:27:33Z</time>
      </trkpt>
      <trkpt lat="46.78939" lon="5.59603">
        <ele>297.3</ele>
        <time>2019-11-21T10:27:38Z</time>
      </trkpt>
      <trkpt lat="46.78936" lon="5.59608">
        <ele>297.7</ele>
        <time>2019-11-21T10:27:42Z</time>
      </trkpt>
      <trkpt lat="46.78933" lon="5.59614">
        <ele>298.2</ele>
        <time>2019-11-21T10:27:46Z</time>
      </trkpt>
      <trkpt lat="46.78929" lon="5.5962">
        <ele>299</ele>
        <time>2019-11-21T10:27:51Z</time>
      </trkpt>
      <trkpt lat="46.78926" lon="5.59625">
        <ele>299.6</ele>
        <time>2019-11-21T10:27:55Z</time>
      </trkpt>
      <trkpt lat="46.78922" lon="5.5963">
        <ele>300.4</ele>
        <time>2019-11-21T10:28:00Z</time>
      </trkpt>
      <trkpt lat="46.7892" lon="5.59636">
        <ele>301.1</ele>
        <time>2019-11-21T10:28:05Z</time>
      </trkpt>
      <trkpt lat="46.78916" lon="5.59642">
        <ele>301.9</ele>
        <time>2019-11-21T10:28:11Z</time>
      </trkpt>
      <trkpt lat="46.78913" lon="5.59647">
        <ele>302.4</ele>
        <time>2019-11-21T10:28:16Z</time>
      </trkpt>
      <trkpt lat="46.7891" lon="5.59655">
        <ele>302.8</ele>
        <time>2019-11-21T10:28:21Z</time>
      </trkpt>
      <trkpt lat="46.78907" lon="5.59661">
        <ele>303.2</ele>
        <time>2019-11-21T10:28:27Z</time>
      </trkpt>
      <trkpt lat="46.78904" lon="5.59667">
        <ele>303.4</ele>
        <time>2019-11-21T10:28:32Z</time>
      </trkpt>
      <trkpt lat="46.78902" lon="5.59674">
        <ele>303.5</ele>
        <time>2019-11-21T10:28:37Z</time>
      </trkpt>
      <trkpt lat="46.789" lon="5.5968">
        <ele>303.6</ele>
        <time>2019-11-21T10:28:42Z</time>
      </trkpt>
      <trkpt lat="46.78897" lon="5.59687">
        <ele>303.9</ele>
        <time>2019-11-21T10:28:47Z</time>
      </trkpt>
      <trkpt lat="46.78895" lon="5.59693">
        <ele>304.2</ele>
        <time>2019-11-21T10:28:53Z</time>
      </trkpt>
      <trkpt lat="46.78891" lon="5.597">
        <ele>304.4</ele>
        <time>2019-11-21T10:28:58Z</time>
      </trkpt>
      <trkpt lat="46.78888" lon="5.59706">
        <ele>304.7</ele>
        <time>2019-11-21T10:29:02Z</time>
      </trkpt>
      <trkpt lat="46.78886" lon="5.59712">
        <ele>305.1</ele>
        <time>2019-11-21T10:29:07Z</time>
      </trkpt>
      <trkpt lat="46.78883" lon="5.59719">
        <ele>305.4</ele>
        <time>2019-11-21T10:29:12Z</time>
      </trkpt>
      <trkpt lat="46.78881" lon="5.59725">
        <ele>305.8</ele>
        <time>2019-11-21T10:29:17Z</time>
      </trkpt>
      <trkpt lat="46.78879" lon="5.59731">
        <ele>306.5</ele>
        <time>2019-11-21T10:29:23Z</time>
      </trkpt>
      <trkpt lat="46.78876" lon="5.59737">
        <ele>307.1</ele>
        <time>2019-11-21T10:29:27Z</time>
      </trkpt>
      <trkpt lat="46.78874" lon="5.59743">
        <ele>307.7</ele>
        <time>2019-11-21T10:29:31Z</time>
      </trkpt>
      <trkpt lat="46.78872" lon="5.5975">
        <ele>308.6</ele>
        <time>2019-11-21T10:29:37Z</time>
      </trkpt>
      <trkpt lat="46.7887" lon="5.59757">
        <ele>309.3</ele>
        <time>2019-11-21T10:29:42Z</time>
      </trkpt>
      <trkpt lat="46.78867" lon="5.59763">
        <ele>310</ele>
        <time>2019-11-21T10:29:47Z</time>
      </trkpt>
      <trkpt lat="46.78864" lon="5.5977">
        <ele>310.7</ele>
        <time>2019-11-21T10:29:52Z</time>
      </trkpt>
      <trkpt lat="46.78861" lon="5.59776">
        <ele>311.5</ele>
        <time>2019-11-21T10:29:58Z</time>
      </trkpt>
      <trkpt lat="46.78859" lon="5.59783">
        <ele>312.1</ele>
        <time>2019-11-21T10:30:03Z</time>
      </trkpt>
      <trkpt lat="46.78857" lon="5.59789">
        <ele>312.5</ele>
        <time>2019-11-21T10:30:07Z</time>
      </trkpt>
      <trkpt lat="46.78856" lon="5.59796">
        <ele>312.9</ele>
        <time>2019-11-21T10:30:12Z</time>
      </trkpt>
      <trkpt lat="46.78854" lon="5.59803">
        <ele>313.3</ele>
        <time>2019-11-21T10:30:17Z</time>
      </trkpt>
      <trkpt lat="46.78852" lon="5.59809">
        <ele>313.7</ele>
        <time>2019-11-21T10:30:22Z</time>
      </trkpt>
      <trkpt lat="46.7885" lon="5.59815">
        <ele>314.3</ele>
        <time>2019-11-21T10:30:29Z</time>
      </trkpt>
      <trkpt lat="46.78847" lon="5.59821">
        <ele>314.6</ele>
        <time>2019-11-21T10:30:34Z</time>
      </trkpt>
      <trkpt lat="46.78844" lon="5.59827">
        <ele>314.8</ele>
        <time>2019-11-21T10:30:38Z</time>
      </trkpt>
      <trkpt lat="46.78841" lon="5.59833">
        <ele>315.1</ele>
        <time>2019-11-21T10:30:42Z</time>
      </trkpt>
      <trkpt lat="46.78838" lon="5.59837">
        <ele>315.4</ele>
        <time>2019-11-21T10:30:47Z</time>
      </trkpt>
      <trkpt lat="46.78833" lon="5.5984">
        <ele>315.5</ele>
        <time>2019-11-21T10:30:51Z</time>
      </trkpt>
      <trkpt lat="46.78829" lon="5.59842">
        <ele>315.6</ele>
        <time>2019-11-21T10:30:55Z</time>
      </trkpt>
      <trkpt lat="46.78824" lon="5.59843">
        <ele>316</ele>
        <time>2019-11-21T10:31:00Z</time>
      </trkpt>
      <trkpt lat="46.78818" lon="5.59844">
        <ele>316.2</ele>
        <time>2019-11-21T10:31:05Z</time>
      </trkpt>
      <trkpt lat="46.78813" lon="5.59846">
        <ele>316.1</ele>
        <time>2019-11-21T10:31:10Z</time>
      </trkpt>
      <trkpt lat="46.78809" lon="5.59847">
        <ele>315.6</ele>
        <time>2019-11-21T10:31:15Z</time>
      </trkpt>
      <trkpt lat="46.78805" lon="5.5985">
        <ele>315.1</ele>
        <time>2019-11-21T10:31:20Z</time>
      </trkpt>
      <trkpt lat="46.788" lon="5.59854">
        <ele>314.9</ele>
        <time>2019-11-21T10:31:24Z</time>
      </trkpt>
      <trkpt lat="46.78796" lon="5.59858">
        <ele>314.8</ele>
        <time>2019-11-21T10:31:29Z</time>
      </trkpt>
      <trkpt lat="46.78792" lon="5.59863">
        <ele>315</ele>
        <time>2019-11-21T10:31:34Z</time>
      </trkpt>
      <trkpt lat="46.7879" lon="5.59869">
        <ele>315.5</ele>
        <time>2019-11-21T10:31:38Z</time>
      </trkpt>
      <trkpt lat="46.78787" lon="5.59874">
        <ele>316.1</ele>
        <time>2019-11-21T10:31:42Z</time>
      </trkpt>
      <trkpt lat="46.78785" lon="5.5988">
        <ele>316.8</ele>
        <time>2019-11-21T10:31:46Z</time>
      </trkpt>
      <trkpt lat="46.78782" lon="5.59886">
        <ele>317.3</ele>
        <time>2019-11-21T10:31:50Z</time>
      </trkpt>
      <trkpt lat="46.78779" lon="5.59891">
        <ele>317.7</ele>
        <time>2019-11-21T10:31:54Z</time>
      </trkpt>
      <trkpt lat="46.78777" lon="5.59897">
        <ele>318.2</ele>
        <time>2019-11-21T10:31:59Z</time>
      </trkpt>
      <trkpt lat="46.78774" lon="5.59903">
        <ele>318.7</ele>
        <time>2019-11-21T10:32:04Z</time>
      </trkpt>
      <trkpt lat="46.78771" lon="5.59908">
        <ele>319.2</ele>
        <time>2019-11-21T10:32:08Z</time>
      </trkpt>
      <trkpt lat="46.78767" lon="5.59914">
        <ele>319.6</ele>
        <time>2019-11-21T10:32:13Z</time>
      </trkpt>
      <trkpt lat="46.78763" lon="5.59918">
        <ele>320.1</ele>
        <time>2019-11-21T10:32:18Z</time>
      </trkpt>
      <trkpt lat="46.78759" lon="5.59922">
        <ele>320.5</ele>
        <time>2019-11-21T10:32:23Z</time>
      </trkpt>
      <trkpt lat="46.78754" lon="5.59927">
        <ele>321</ele>
        <time>2019-11-21T10:32:28Z</time>
      </trkpt>
      <trkpt lat="46.78751" lon="5.59932">
        <ele>321.2</ele>
        <time>2019-11-21T10:32:32Z</time>
      </trkpt>
      <trkpt lat="46.78747" lon="5.59935">
        <ele>321.5</ele>
        <time>2019-11-21T10:32:37Z</time>
      </trkpt>
      <trkpt lat="46.78743" lon="5.59939">
        <ele>321.9</ele>
        <time>2019-11-21T10:32:42Z</time>
      </trkpt>
      <trkpt lat="46.78738" lon="5.59943">
        <ele>322.6</ele>
        <time>2019-11-21T10:32:47Z</time>
      </trkpt>
      <trkpt lat="46.78734" lon="5.59947">
        <ele>323.2</ele>
        <time>2019-11-21T10:32:51Z</time>
      </trkpt>
      <trkpt lat="46.78729" lon="5.5995">
        <ele>323.7</ele>
        <time>2019-11-21T10:32:55Z</time>
      </trkpt>
      <trkpt lat="46.78724" lon="5.59952">
        <ele>324</ele>
        <time>2019-11-21T10:32:59Z</time>
      </trkpt>
      <trkpt lat="46.7872" lon="5.59956">
        <ele>324.2</ele>
        <time>2019-11-21T10:33:03Z</time>
      </trkpt>
      <trkpt lat="46.78716" lon="5.5996">
        <ele>324.6</ele>
        <time>2019-11-21T10:33:08Z</time>
      </trkpt>
      <trkpt lat="46.78711" lon="5.59963">
        <ele>325.1</ele>
        <time>2019-11-21T10:33:12Z</time>
      </trkpt>
      <trkpt lat="46.78707" lon="5.59967">
        <ele>325.8</ele>
        <time>2019-11-21T10:33:16Z</time>
      </trkpt>
      <trkpt lat="46.78703" lon="5.59971">
        <ele>326.7</ele>
        <time>2019-11-21T10:33:20Z</time>
      </trkpt>
      <trkpt lat="46.78699" lon="5.59976">
        <ele>327.6</ele>
        <time>2019-11-21T10:33:24Z</time>
      </trkpt>
      <trkpt lat="46.78695" lon="5.59981">
        <ele>328.4</ele>
        <time>2019-11-21T10:33:28Z</time>
      </trkpt>
      <trkpt lat="46.78692" lon="5.59988">
        <ele>329.1</ele>
        <time>2019-11-21T10:33:33Z</time>
      </trkpt>
      <trkpt lat="46.78691" lon="5.59995">
        <ele>329.3</ele>
        <time>2019-11-21T10:33:38Z</time>
      </trkpt>
      <trkpt lat="46.7869" lon="5.60002">
        <ele>329.2</ele>
        <time>2019-11-21T10:33:42Z</time>
      </trkpt>
      <trkpt lat="46.7869" lon="5.60008">
        <ele>329</ele>
        <time>2019-11-21T10:33:46Z</time>
      </trkpt>
      <trkpt lat="46.7869" lon="5.60016">
        <ele>328.3</ele>
        <time>2019-11-21T10:33:52Z</time>
      </trkpt>
      <trkpt lat="46.7869" lon="5.60022">
        <ele>328</ele>
        <time>2019-11-21T10:33:57Z</time>
      </trkpt>
      <trkpt lat="46.78687" lon="5.60029">
        <ele>328</ele>
        <time>2019-11-21T10:34:02Z</time>
      </trkpt>
      <trkpt lat="46.78686" lon="5.60036">
        <ele>328.3</ele>
        <time>2019-11-21T10:34:07Z</time>
      </trkpt>
      <trkpt lat="46.78685" lon="5.60044">
        <ele>328.4</ele>
        <time>2019-11-21T10:34:11Z</time>
      </trkpt>
      <trkpt lat="46.78685" lon="5.60052">
        <ele>328.3</ele>
        <time>2019-11-21T10:34:15Z</time>
      </trkpt>
      <trkpt lat="46.78685" lon="5.60059">
        <ele>328</ele>
        <time>2019-11-21T10:34:19Z</time>
      </trkpt>
      <trkpt lat="46.78684" lon="5.60067">
        <ele>327.4</ele>
        <time>2019-11-21T10:34:24Z</time>
      </trkpt>
      <trkpt lat="46.78684" lon="5.60073">
        <ele>326.7</ele>
        <time>2019-11-21T10:34:28Z</time>
      </trkpt>
      <trkpt lat="46.78684" lon="5.60081">
        <ele>326.1</ele>
        <time>2019-11-21T10:34:32Z</time>
      </trkpt>
      <trkpt lat="46.78685" lon="5.60089">
        <ele>325.5</ele>
        <time>2019-11-21T10:34:36Z</time>
      </trkpt>
      <trkpt lat="46.78685" lon="5.60095">
        <ele>324.9</ele>
        <time>2019-11-21T10:34:40Z</time>
      </trkpt>
      <trkpt lat="46.78684" lon="5.60103">
        <ele>324.3</ele>
        <time>2019-11-21T10:34:45Z</time>
      </trkpt>
      <trkpt lat="46.78684" lon="5.60111">
        <ele>323.8</ele>
        <time>2019-11-21T10:34:50Z</time>
      </trkpt>
      <trkpt lat="46.78684" lon="5.60119">
        <ele>323.2</ele>
        <time>2019-11-21T10:34:55Z</time>
      </trkpt>
      <trkpt lat="46.78683" lon="5.60126">
        <ele>322.7</ele>
        <time>2019-11-21T10:34:59Z</time>
      </trkpt>
      <trkpt lat="46.78683" lon="5.60133">
        <ele>322.3</ele>
        <time>2019-11-21T10:35:03Z</time>
      </trkpt>
      <trkpt lat="46.78683" lon="5.6014">
        <ele>321.9</ele>
        <time>2019-11-21T10:35:08Z</time>
      </trkpt>
      <trkpt lat="46.78682" lon="5.60147">
        <ele>321.6</ele>
        <time>2019-11-21T10:35:13Z</time>
      </trkpt>
      <trkpt lat="46.78682" lon="5.60154">
        <ele>321.4</ele>
        <time>2019-11-21T10:35:17Z</time>
      </trkpt>
      <trkpt lat="46.78681" lon="5.60161">
        <ele>321.1</ele>
        <time>2019-11-21T10:35:21Z</time>
      </trkpt>
      <trkpt lat="46.7868" lon="5.60168">
        <ele>320.6</ele>
        <time>2019-11-21T10:35:25Z</time>
      </trkpt>
      <trkpt lat="46.78679" lon="5.60175">
        <ele>320</ele>
        <time>2019-11-21T10:35:29Z</time>
      </trkpt>
      <trkpt lat="46.78677" lon="5.60183">
        <ele>319.4</ele>
        <time>2019-11-21T10:35:34Z</time>
      </trkpt>
      <trkpt lat="46.78677" lon="5.6019">
        <ele>319.1</ele>
        <time>2019-11-21T10:35:38Z</time>
      </trkpt>
      <trkpt lat="46.78677" lon="5.60197">
        <ele>318.6</ele>
        <time>2019-11-21T10:35:42Z</time>
      </trkpt>
      <trkpt lat="46.78677" lon="5.60204">
        <ele>318.2</ele>
        <time>2019-11-21T10:35:47Z</time>
      </trkpt>
      <trkpt lat="46.78677" lon="5.60212">
        <ele>317.7</ele>
        <time>2019-11-21T10:35:53Z</time>
      </trkpt>
      <trkpt lat="46.78677" lon="5.6022">
        <ele>317.5</ele>
        <time>2019-11-21T10:35:58Z</time>
      </trkpt>
      <trkpt lat="46.78676" lon="5.60228">
        <ele>317.6</ele>
        <time>2019-11-21T10:36:03Z</time>
      </trkpt>
      <trkpt lat="46.78676" lon="5.60235">
        <ele>317.8</ele>
        <time>2019-11-21T10:36:07Z</time>
      </trkpt>
      <trkpt lat="46.78676" lon="5.60243">
        <ele>318.1</ele>
        <time>2019-11-21T10:36:12Z</time>
      </trkpt>
      <trkpt lat="46.78676" lon="5.6025">
        <ele>318.1</ele>
        <time>2019-11-21T10:36:16Z</time>
      </trkpt>
      <trkpt lat="46.78675" lon="5.60257">
        <ele>318</ele>
        <time>2019-11-21T10:36:20Z</time>
      </trkpt>
      <trkpt lat="46.78674" lon="5.60265">
        <ele>317.8</ele>
        <time>2019-11-21T10:36:24Z</time>
      </trkpt>
      <trkpt lat="46.78673" lon="5.60272">
        <ele>317.5</ele>
        <time>2019-11-21T10:36:29Z</time>
      </trkpt>
      <trkpt lat="46.78672" lon="5.60281">
        <ele>317.1</ele>
        <time>2019-11-21T10:36:34Z</time>
      </trkpt>
      <trkpt lat="46.78671" lon="5.60287">
        <ele>316.8</ele>
        <time>2019-11-21T10:36:37Z</time>
      </trkpt>
      <trkpt lat="46.78672" lon="5.60295">
        <ele>316.4</ele>
        <time>2019-11-21T10:36:41Z</time>
      </trkpt>
      <trkpt lat="46.78672" lon="5.60302">
        <ele>316.2</ele>
        <time>2019-11-21T10:36:46Z</time>
      </trkpt>
      <trkpt lat="46.78673" lon="5.60309">
        <ele>316.2</ele>
        <time>2019-11-21T10:36:51Z</time>
      </trkpt>
      <trkpt lat="46.78673" lon="5.60317">
        <ele>316.1</ele>
        <time>2019-11-21T10:36:55Z</time>
      </trkpt>
      <trkpt lat="46.78672" lon="5.60324">
        <ele>315.9</ele>
        <time>2019-11-21T10:36:58Z</time>
      </trkpt>
      <trkpt lat="46.78672" lon="5.60331">
        <ele>315.5</ele>
        <time>2019-11-21T10:37:02Z</time>
      </trkpt>
      <trkpt lat="46.78671" lon="5.60338">
        <ele>315.2</ele>
        <time>2019-11-21T10:37:07Z</time>
      </trkpt>
      <trkpt lat="46.78671" lon="5.60346">
        <ele>314.9</ele>
        <time>2019-11-21T10:37:11Z</time>
      </trkpt>
      <trkpt lat="46.78671" lon="5.60353">
        <ele>314.4</ele>
        <time>2019-11-21T10:37:15Z</time>
      </trkpt>
      <trkpt lat="46.78674" lon="5.60358">
        <ele>314.5</ele>
        <time>2019-11-21T10:37:28Z</time>
      </trkpt>
      <trkpt lat="46.78677" lon="5.60362">
        <ele>316.1</ele>
        <time>2019-11-21T10:37:40Z</time>
      </trkpt>
      <trkpt lat="46.78674" lon="5.60367">
        <ele>314</ele>
        <time>2019-11-21T10:38:21Z</time>
      </trkpt>
      <trkpt lat="46.78678" lon="5.60372">
        <ele>309.2</ele>
        <time>2019-11-21T10:38:49Z</time>
      </trkpt>
      <trkpt lat="46.78682" lon="5.60375">
        <ele>308.2</ele>
        <time>2019-11-21T10:38:54Z</time>
      </trkpt>
      <trkpt lat="46.78688" lon="5.60378">
        <ele>307.8</ele>
        <time>2019-11-21T10:38:59Z</time>
      </trkpt>
      <trkpt lat="46.78692" lon="5.6038">
        <ele>307.7</ele>
        <time>2019-11-21T10:39:02Z</time>
      </trkpt>
      <trkpt lat="46.78697" lon="5.60383">
        <ele>307.7</ele>
        <time>2019-11-21T10:39:06Z</time>
      </trkpt>
      <trkpt lat="46.78703" lon="5.60387">
        <ele>307.7</ele>
        <time>2019-11-21T10:39:10Z</time>
      </trkpt>
      <trkpt lat="46.78708" lon="5.60391">
        <ele>307.7</ele>
        <time>2019-11-21T10:39:14Z</time>
      </trkpt>
      <trkpt lat="46.78713" lon="5.60394">
        <ele>307.5</ele>
        <time>2019-11-21T10:39:18Z</time>
      </trkpt>
      <trkpt lat="46.78717" lon="5.60397">
        <ele>307.3</ele>
        <time>2019-11-21T10:39:22Z</time>
      </trkpt>
      <trkpt lat="46.78721" lon="5.60401">
        <ele>307</ele>
        <time>2019-11-21T10:39:28Z</time>
      </trkpt>
      <trkpt lat="46.78725" lon="5.60406">
        <ele>306.3</ele>
        <time>2019-11-21T10:39:34Z</time>
      </trkpt>
      <trkpt lat="46.78729" lon="5.6041">
        <ele>305.6</ele>
        <time>2019-11-21T10:39:38Z</time>
      </trkpt>
      <trkpt lat="46.78733" lon="5.60414">
        <ele>305.1</ele>
        <time>2019-11-21T10:39:41Z</time>
      </trkpt>
      <trkpt lat="46.78737" lon="5.60419">
        <ele>304.4</ele>
        <time>2019-11-21T10:39:45Z</time>
      </trkpt>
      <trkpt lat="46.7874" lon="5.60424">
        <ele>303.7</ele>
        <time>2019-11-21T10:39:51Z</time>
      </trkpt>
      <trkpt lat="46.78743" lon="5.60429">
        <ele>303.3</ele>
        <time>2019-11-21T10:39:57Z</time>
      </trkpt>
      <trkpt lat="46.78747" lon="5.60435">
        <ele>303.2</ele>
        <time>2019-11-21T10:40:02Z</time>
      </trkpt>
      <trkpt lat="46.78751" lon="5.60439">
        <ele>303</ele>
        <time>2019-11-21T10:40:06Z</time>
      </trkpt>
      <trkpt lat="46.78755" lon="5.60445">
        <ele>302.8</ele>
        <time>2019-11-21T10:40:10Z</time>
      </trkpt>
      <trkpt lat="46.78758" lon="5.60451">
        <ele>302.7</ele>
        <time>2019-11-21T10:40:17Z</time>
      </trkpt>
      <trkpt lat="46.78761" lon="5.60455">
        <ele>302.8</ele>
        <time>2019-11-21T10:40:21Z</time>
      </trkpt>
      <trkpt lat="46.78765" lon="5.6046">
        <ele>302.9</ele>
        <time>2019-11-21T10:40:25Z</time>
      </trkpt>
      <trkpt lat="46.78769" lon="5.60465">
        <ele>303.3</ele>
        <time>2019-11-21T10:40:30Z</time>
      </trkpt>
      <trkpt lat="46.78772" lon="5.60469">
        <ele>303.5</ele>
        <time>2019-11-21T10:40:35Z</time>
      </trkpt>
      <trkpt lat="46.78775" lon="5.60475">
        <ele>303.7</ele>
        <time>2019-11-21T10:40:39Z</time>
      </trkpt>
      <trkpt lat="46.78779" lon="5.60479">
        <ele>303.8</ele>
        <time>2019-11-21T10:40:43Z</time>
      </trkpt>
      <trkpt lat="46.78782" lon="5.60484">
        <ele>303.6</ele>
        <time>2019-11-21T10:40:47Z</time>
      </trkpt>
      <trkpt lat="46.78785" lon="5.6049">
        <ele>303.2</ele>
        <time>2019-11-21T10:40:52Z</time>
      </trkpt>
      <trkpt lat="46.78789" lon="5.60496">
        <ele>302.9</ele>
        <time>2019-11-21T10:40:57Z</time>
      </trkpt>
      <trkpt lat="46.78792" lon="5.60502">
        <ele>302.9</ele>
        <time>2019-11-21T10:41:02Z</time>
      </trkpt>
      <trkpt lat="46.78796" lon="5.60508">
        <ele>303.1</ele>
        <time>2019-11-21T10:41:07Z</time>
      </trkpt>
      <trkpt lat="46.78799" lon="5.60514">
        <ele>303.2</ele>
        <time>2019-11-21T10:41:12Z</time>
      </trkpt>
      <trkpt lat="46.78802" lon="5.60521">
        <ele>303.2</ele>
        <time>2019-11-21T10:41:17Z</time>
      </trkpt>
      <trkpt lat="46.78804" lon="5.60527">
        <ele>303.2</ele>
        <time>2019-11-21T10:41:21Z</time>
      </trkpt>
      <trkpt lat="46.78805" lon="5.60533">
        <ele>303.3</ele>
        <time>2019-11-21T10:41:25Z</time>
      </trkpt>
      <trkpt lat="46.78807" lon="5.6054">
        <ele>303.6</ele>
        <time>2019-11-21T10:41:30Z</time>
      </trkpt>
      <trkpt lat="46.78808" lon="5.60548">
        <ele>304.3</ele>
        <time>2019-11-21T10:41:35Z</time>
      </trkpt>
      <trkpt lat="46.78808" lon="5.60556">
        <ele>305.1</ele>
        <time>2019-11-21T10:41:39Z</time>
      </trkpt>
      <trkpt lat="46.78809" lon="5.60564">
        <ele>306.3</ele>
        <time>2019-11-21T10:41:44Z</time>
      </trkpt>
      <trkpt lat="46.7881" lon="5.6057">
        <ele>308.5</ele>
        <time>2019-11-21T10:42:03Z</time>
      </trkpt>
      <trkpt lat="46.78811" lon="5.60578">
        <ele>309.4</ele>
        <time>2019-11-21T10:42:13Z</time>
      </trkpt>
      <trkpt lat="46.78811" lon="5.60585">
        <ele>309.8</ele>
        <time>2019-11-21T10:42:17Z</time>
      </trkpt>
      <trkpt lat="46.78812" lon="5.60592">
        <ele>310.3</ele>
        <time>2019-11-21T10:42:22Z</time>
      </trkpt>
      <trkpt lat="46.78812" lon="5.606">
        <ele>310.8</ele>
        <time>2019-11-21T10:42:27Z</time>
      </trkpt>
      <trkpt lat="46.78812" lon="5.60607">
        <ele>311.5</ele>
        <time>2019-11-21T10:42:33Z</time>
      </trkpt>
      <trkpt lat="46.78811" lon="5.60614">
        <ele>311.9</ele>
        <time>2019-11-21T10:42:38Z</time>
      </trkpt>
      <trkpt lat="46.78812" lon="5.60621">
        <ele>312.2</ele>
        <time>2019-11-21T10:42:42Z</time>
      </trkpt>
      <trkpt lat="46.78812" lon="5.60628">
        <ele>312.5</ele>
        <time>2019-11-21T10:42:46Z</time>
      </trkpt>
      <trkpt lat="46.78813" lon="5.60636">
        <ele>312.7</ele>
        <time>2019-11-21T10:42:50Z</time>
      </trkpt>
      <trkpt lat="46.78813" lon="5.60643">
        <ele>312.8</ele>
        <time>2019-11-21T10:42:55Z</time>
      </trkpt>
      <trkpt lat="46.78813" lon="5.6065">
        <ele>312.8</ele>
        <time>2019-11-21T10:42:59Z</time>
      </trkpt>
      <trkpt lat="46.78813" lon="5.60658">
        <ele>312.7</ele>
        <time>2019-11-21T10:43:04Z</time>
      </trkpt>
      <trkpt lat="46.78813" lon="5.60666">
        <ele>312.6</ele>
        <time>2019-11-21T10:43:09Z</time>
      </trkpt>
      <trkpt lat="46.78813" lon="5.60674">
        <ele>312.3</ele>
        <time>2019-11-21T10:43:14Z</time>
      </trkpt>
      <trkpt lat="46.78812" lon="5.60681">
        <ele>312.1</ele>
        <time>2019-11-21T10:43:19Z</time>
      </trkpt>
      <trkpt lat="46.78812" lon="5.60689">
        <ele>312.1</ele>
        <time>2019-11-21T10:43:24Z</time>
      </trkpt>
      <trkpt lat="46.78812" lon="5.60696">
        <ele>312.3</ele>
        <time>2019-11-21T10:43:28Z</time>
      </trkpt>
      <trkpt lat="46.78812" lon="5.60704">
        <ele>312.5</ele>
        <time>2019-11-21T10:43:32Z</time>
      </trkpt>
      <trkpt lat="46.78813" lon="5.60711">
        <ele>312.7</ele>
        <time>2019-11-21T10:43:35Z</time>
      </trkpt>
      <trkpt lat="46.78813" lon="5.60718">
        <ele>312.8</ele>
        <time>2019-11-21T10:43:38Z</time>
      </trkpt>
      <trkpt lat="46.78813" lon="5.60724">
        <ele>313.1</ele>
        <time>2019-11-21T10:43:42Z</time>
      </trkpt>
      <trkpt lat="46.78812" lon="5.60731">
        <ele>313.4</ele>
        <time>2019-11-21T10:43:47Z</time>
      </trkpt>
      <trkpt lat="46.78812" lon="5.60738">
        <ele>313.8</ele>
        <time>2019-11-21T10:43:51Z</time>
      </trkpt>
      <trkpt lat="46.78812" lon="5.60745">
        <ele>314.3</ele>
        <time>2019-11-21T10:43:55Z</time>
      </trkpt>
      <trkpt lat="46.78812" lon="5.60752">
        <ele>314.8</ele>
        <time>2019-11-21T10:43:59Z</time>
      </trkpt>
      <trkpt lat="46.78812" lon="5.6076">
        <ele>315.5</ele>
        <time>2019-11-21T10:44:04Z</time>
      </trkpt>
      <trkpt lat="46.78812" lon="5.60767">
        <ele>316</ele>
        <time>2019-11-21T10:44:08Z</time>
      </trkpt>
      <trkpt lat="46.78812" lon="5.60774">
        <ele>316.7</ele>
        <time>2019-11-21T10:44:13Z</time>
      </trkpt>
      <trkpt lat="46.78811" lon="5.60781">
        <ele>317.2</ele>
        <time>2019-11-21T10:44:17Z</time>
      </trkpt>
      <trkpt lat="46.78811" lon="5.60789">
        <ele>317.6</ele>
        <time>2019-11-21T10:44:21Z</time>
      </trkpt>
      <trkpt lat="46.78812" lon="5.60796">
        <ele>318</ele>
        <time>2019-11-21T10:44:25Z</time>
      </trkpt>
      <trkpt lat="46.78812" lon="5.60804">
        <ele>318.5</ele>
        <time>2019-11-21T10:44:30Z</time>
      </trkpt>
      <trkpt lat="46.78813" lon="5.60812">
        <ele>318.9</ele>
        <time>2019-11-21T10:44:34Z</time>
      </trkpt>
      <trkpt lat="46.78813" lon="5.60819">
        <ele>319.2</ele>
        <time>2019-11-21T10:44:38Z</time>
      </trkpt>
      <trkpt lat="46.78813" lon="5.60826">
        <ele>319.5</ele>
        <time>2019-11-21T10:44:42Z</time>
      </trkpt>
      <trkpt lat="46.78812" lon="5.60833">
        <ele>319.6</ele>
        <time>2019-11-21T10:44:47Z</time>
      </trkpt>
      <trkpt lat="46.78811" lon="5.60841">
        <ele>319.5</ele>
        <time>2019-11-21T10:44:52Z</time>
      </trkpt>
      <trkpt lat="46.78811" lon="5.60849">
        <ele>319.5</ele>
        <time>2019-11-21T10:44:56Z</time>
      </trkpt>
      <trkpt lat="46.7881" lon="5.60857">
        <ele>319.4</ele>
        <time>2019-11-21T10:45:00Z</time>
      </trkpt>
      <trkpt lat="46.78811" lon="5.60864">
        <ele>319.4</ele>
        <time>2019-11-21T10:45:04Z</time>
      </trkpt>
      <trkpt lat="46.78811" lon="5.60871">
        <ele>319.4</ele>
        <time>2019-11-21T10:45:08Z</time>
      </trkpt>
      <trkpt lat="46.78811" lon="5.60878">
        <ele>319.5</ele>
        <time>2019-11-21T10:45:12Z</time>
      </trkpt>
      <trkpt lat="46.7881" lon="5.60885">
        <ele>319.4</ele>
        <time>2019-11-21T10:45:16Z</time>
      </trkpt>
      <trkpt lat="46.78809" lon="5.60892">
        <ele>319.4</ele>
        <time>2019-11-21T10:45:21Z</time>
      </trkpt>
      <trkpt lat="46.78808" lon="5.60899">
        <ele>319.4</ele>
        <time>2019-11-21T10:45:25Z</time>
      </trkpt>
      <trkpt lat="46.78808" lon="5.60906">
        <ele>319.4</ele>
        <time>2019-11-21T10:45:29Z</time>
      </trkpt>
      <trkpt lat="46.78807" lon="5.60913">
        <ele>319.5</ele>
        <time>2019-11-21T10:45:34Z</time>
      </trkpt>
      <trkpt lat="46.78806" lon="5.60921">
        <ele>319.5</ele>
        <time>2019-11-21T10:45:39Z</time>
      </trkpt>
      <trkpt lat="46.78804" lon="5.60929">
        <ele>319.5</ele>
        <time>2019-11-21T10:45:44Z</time>
      </trkpt>
      <trkpt lat="46.78802" lon="5.60936">
        <ele>319.4</ele>
        <time>2019-11-21T10:45:48Z</time>
      </trkpt>
      <trkpt lat="46.78801" lon="5.60943">
        <ele>319.2</ele>
        <time>2019-11-21T10:45:52Z</time>
      </trkpt>
      <trkpt lat="46.788" lon="5.6095">
        <ele>319</ele>
        <time>2019-11-21T10:45:56Z</time>
      </trkpt>
      <trkpt lat="46.78799" lon="5.60957">
        <ele>318.9</ele>
        <time>2019-11-21T10:46:00Z</time>
      </trkpt>
      <trkpt lat="46.78799" lon="5.60963">
        <ele>318.8</ele>
        <time>2019-11-21T10:46:04Z</time>
      </trkpt>
      <trkpt lat="46.78799" lon="5.6097">
        <ele>318.7</ele>
        <time>2019-11-21T10:46:08Z</time>
      </trkpt>
      <trkpt lat="46.78798" lon="5.60977">
        <ele>318.6</ele>
        <time>2019-11-21T10:46:14Z</time>
      </trkpt>
      <trkpt lat="46.78798" lon="5.60984">
        <ele>318.6</ele>
        <time>2019-11-21T10:46:16Z</time>
      </trkpt>
      <trkpt lat="46.78798" lon="5.60991">
        <ele>318.6</ele>
        <time>2019-11-21T10:46:20Z</time>
      </trkpt>
      <trkpt lat="46.78798" lon="5.60998">
        <ele>318.6</ele>
        <time>2019-11-21T10:46:24Z</time>
      </trkpt>
      <trkpt lat="46.78799" lon="5.61005">
        <ele>318.7</ele>
        <time>2019-11-21T10:46:28Z</time>
      </trkpt>
      <trkpt lat="46.78798" lon="5.61012">
        <ele>318.9</ele>
        <time>2019-11-21T10:46:33Z</time>
      </trkpt>
      <trkpt lat="46.78796" lon="5.61019">
        <ele>318.8</ele>
        <time>2019-11-21T10:46:37Z</time>
      </trkpt>
      <trkpt lat="46.78796" lon="5.61026">
        <ele>318.8</ele>
        <time>2019-11-21T10:46:41Z</time>
      </trkpt>
      <trkpt lat="46.78795" lon="5.61033">
        <ele>318.9</ele>
        <time>2019-11-21T10:46:45Z</time>
      </trkpt>
      <trkpt lat="46.78793" lon="5.6104">
        <ele>319</ele>
        <time>2019-11-21T10:46:49Z</time>
      </trkpt>
      <trkpt lat="46.78792" lon="5.61048">
        <ele>319.3</ele>
        <time>2019-11-21T10:46:54Z</time>
      </trkpt>
      <trkpt lat="46.78792" lon="5.61057">
        <ele>319.7</ele>
        <time>2019-11-21T10:46:59Z</time>
      </trkpt>
      <trkpt lat="46.78791" lon="5.61064">
        <ele>320</ele>
        <time>2019-11-21T10:47:03Z</time>
      </trkpt>
      <trkpt lat="46.78791" lon="5.61071">
        <ele>320.4</ele>
        <time>2019-11-21T10:47:09Z</time>
      </trkpt>
      <trkpt lat="46.78791" lon="5.61078">
        <ele>320.6</ele>
        <time>2019-11-21T10:47:14Z</time>
      </trkpt>
      <trkpt lat="46.7879" lon="5.61085">
        <ele>320.6</ele>
        <time>2019-11-21T10:47:18Z</time>
      </trkpt>
      <trkpt lat="46.78789" lon="5.61091">
        <ele>320.6</ele>
        <time>2019-11-21T10:47:22Z</time>
      </trkpt>
      <trkpt lat="46.78788" lon="5.61098">
        <ele>320.6</ele>
        <time>2019-11-21T10:47:26Z</time>
      </trkpt>
      <trkpt lat="46.78787" lon="5.61104">
        <ele>320.8</ele>
        <time>2019-11-21T10:47:30Z</time>
      </trkpt>
      <trkpt lat="46.78786" lon="5.61112">
        <ele>321.1</ele>
        <time>2019-11-21T10:47:35Z</time>
      </trkpt>
      <trkpt lat="46.78785" lon="5.61119">
        <ele>321.3</ele>
        <time>2019-11-21T10:47:39Z</time>
      </trkpt>
      <trkpt lat="46.78784" lon="5.61126">
        <ele>321.5</ele>
        <time>2019-11-21T10:47:43Z</time>
      </trkpt>
      <trkpt lat="46.78783" lon="5.61133">
        <ele>321.8</ele>
        <time>2019-11-21T10:47:48Z</time>
      </trkpt>
      <trkpt lat="46.78783" lon="5.6114">
        <ele>322.1</ele>
        <time>2019-11-21T10:47:53Z</time>
      </trkpt>
      <trkpt lat="46.78782" lon="5.61148">
        <ele>322.3</ele>
        <time>2019-11-21T10:47:57Z</time>
      </trkpt>
      <trkpt lat="46.78783" lon="5.61154">
        <ele>322.5</ele>
        <time>2019-11-21T10:48:01Z</time>
      </trkpt>
      <trkpt lat="46.78783" lon="5.61162">
        <ele>322.7</ele>
        <time>2019-11-21T10:48:05Z</time>
      </trkpt>
      <trkpt lat="46.78783" lon="5.61169">
        <ele>322.8</ele>
        <time>2019-11-21T10:48:09Z</time>
      </trkpt>
      <trkpt lat="46.78781" lon="5.61176">
        <ele>322.8</ele>
        <time>2019-11-21T10:48:14Z</time>
      </trkpt>
      <trkpt lat="46.7878" lon="5.61184">
        <ele>322.8</ele>
        <time>2019-11-21T10:48:18Z</time>
      </trkpt>
      <trkpt lat="46.78779" lon="5.61192">
        <ele>322.7</ele>
        <time>2019-11-21T10:48:22Z</time>
      </trkpt>
      <trkpt lat="46.7878" lon="5.61199">
        <ele>322.7</ele>
        <time>2019-11-21T10:48:27Z</time>
      </trkpt>
      <trkpt lat="46.78779" lon="5.61207">
        <ele>322.9</ele>
        <time>2019-11-21T10:48:32Z</time>
      </trkpt>
      <trkpt lat="46.78779" lon="5.61215">
        <ele>323</ele>
        <time>2019-11-21T10:48:36Z</time>
      </trkpt>
      <trkpt lat="46.7878" lon="5.61223">
        <ele>323.2</ele>
        <time>2019-11-21T10:48:39Z</time>
      </trkpt>
      <trkpt lat="46.7878" lon="5.61231">
        <ele>323.4</ele>
        <time>2019-11-21T10:48:45Z</time>
      </trkpt>
      <trkpt lat="46.7878" lon="5.61239">
        <ele>323.5</ele>
        <time>2019-11-21T10:48:50Z</time>
      </trkpt>
      <trkpt lat="46.78779" lon="5.61247">
        <ele>323.6</ele>
        <time>2019-11-21T10:48:54Z</time>
      </trkpt>
      <trkpt lat="46.78778" lon="5.61255">
        <ele>323.8</ele>
        <time>2019-11-21T10:48:58Z</time>
      </trkpt>
      <trkpt lat="46.78777" lon="5.61262">
        <ele>324</ele>
        <time>2019-11-21T10:49:02Z</time>
      </trkpt>
      <trkpt lat="46.78777" lon="5.61269">
        <ele>324.5</ele>
        <time>2019-11-21T10:49:07Z</time>
      </trkpt>
      <trkpt lat="46.78776" lon="5.61276">
        <ele>324.6</ele>
        <time>2019-11-21T10:49:11Z</time>
      </trkpt>
      <trkpt lat="46.78775" lon="5.61283">
        <ele>324.6</ele>
        <time>2019-11-21T10:49:15Z</time>
      </trkpt>
      <trkpt lat="46.78774" lon="5.61291">
        <ele>324.5</ele>
        <time>2019-11-21T10:49:20Z</time>
      </trkpt>
      <trkpt lat="46.78773" lon="5.61299">
        <ele>324.7</ele>
        <time>2019-11-21T10:49:26Z</time>
      </trkpt>
      <trkpt lat="46.78772" lon="5.61306">
        <ele>324.9</ele>
        <time>2019-11-21T10:49:31Z</time>
      </trkpt>
      <trkpt lat="46.78771" lon="5.61313">
        <ele>325</ele>
        <time>2019-11-21T10:49:35Z</time>
      </trkpt>
      <trkpt lat="46.78771" lon="5.6132">
        <ele>325.2</ele>
        <time>2019-11-21T10:49:41Z</time>
      </trkpt>
      <trkpt lat="46.78771" lon="5.61328">
        <ele>325.7</ele>
        <time>2019-11-21T10:49:46Z</time>
      </trkpt>
      <trkpt lat="46.78771" lon="5.61336">
        <ele>326.4</ele>
        <time>2019-11-21T10:49:52Z</time>
      </trkpt>
      <trkpt lat="46.7877" lon="5.61342">
        <ele>326.8</ele>
        <time>2019-11-21T10:49:56Z</time>
      </trkpt>
      <trkpt lat="46.78769" lon="5.61349">
        <ele>327</ele>
        <time>2019-11-21T10:50:00Z</time>
      </trkpt>
      <trkpt lat="46.78769" lon="5.61356">
        <ele>327.1</ele>
        <time>2019-11-21T10:50:05Z</time>
      </trkpt>
      <trkpt lat="46.78768" lon="5.61363">
        <ele>327.2</ele>
        <time>2019-11-21T10:50:09Z</time>
      </trkpt>
      <trkpt lat="46.78766" lon="5.61369">
        <ele>327.3</ele>
        <time>2019-11-21T10:50:15Z</time>
      </trkpt>
      <trkpt lat="46.78765" lon="5.61376">
        <ele>327.6</ele>
        <time>2019-11-21T10:50:23Z</time>
      </trkpt>
      <trkpt lat="46.78767" lon="5.61383">
        <ele>328.1</ele>
        <time>2019-11-21T10:50:29Z</time>
      </trkpt>
      <trkpt lat="46.7877" lon="5.61388">
        <ele>328.7</ele>
        <time>2019-11-21T10:50:33Z</time>
      </trkpt>
      <trkpt lat="46.78773" lon="5.61393">
        <ele>329.5</ele>
        <time>2019-11-21T10:50:38Z</time>
      </trkpt>
      <trkpt lat="46.78777" lon="5.61398">
        <ele>330.2</ele>
        <time>2019-11-21T10:50:42Z</time>
      </trkpt>
      <trkpt lat="46.78781" lon="5.61402">
        <ele>330.9</ele>
        <time>2019-11-21T10:50:46Z</time>
      </trkpt>
      <trkpt lat="46.78784" lon="5.61406">
        <ele>331.5</ele>
        <time>2019-11-21T10:50:50Z</time>
      </trkpt>
      <trkpt lat="46.78788" lon="5.61411">
        <ele>331.9</ele>
        <time>2019-11-21T10:50:54Z</time>
      </trkpt>
      <trkpt lat="46.78792" lon="5.61417">
        <ele>332.2</ele>
        <time>2019-11-21T10:50:57Z</time>
      </trkpt>
      <trkpt lat="46.78794" lon="5.61424">
        <ele>332.5</ele>
        <time>2019-11-21T10:51:00Z</time>
      </trkpt>
      <trkpt lat="46.78798" lon="5.61429">
        <ele>333</ele>
        <time>2019-11-21T10:51:04Z</time>
      </trkpt>
      <trkpt lat="46.78802" lon="5.61434">
        <ele>333.6</ele>
        <time>2019-11-21T10:51:09Z</time>
      </trkpt>
      <trkpt lat="46.78806" lon="5.6144">
        <ele>333.8</ele>
        <time>2019-11-21T10:51:14Z</time>
      </trkpt>
      <trkpt lat="46.7881" lon="5.61445">
        <ele>333.9</ele>
        <time>2019-11-21T10:51:18Z</time>
      </trkpt>
      <trkpt lat="46.78813" lon="5.61451">
        <ele>333.9</ele>
        <time>2019-11-21T10:51:23Z</time>
      </trkpt>
      <trkpt lat="46.78821" lon="5.61457">
        <ele>331.4</ele>
        <time>2019-11-21T10:51:53Z</time>
      </trkpt>
      <trkpt lat="46.78824" lon="5.61463">
        <ele>331.5</ele>
        <time>2019-11-21T10:51:58Z</time>
      </trkpt>
      <trkpt lat="46.78825" lon="5.61471">
        <ele>332</ele>
        <time>2019-11-21T10:52:03Z</time>
      </trkpt>
      <trkpt lat="46.78824" lon="5.61478">
        <ele>332.5</ele>
        <time>2019-11-21T10:52:07Z</time>
      </trkpt>
      <trkpt lat="46.78825" lon="5.61486">
        <ele>333.2</ele>
        <time>2019-11-21T10:52:11Z</time>
      </trkpt>
      <trkpt lat="46.78825" lon="5.61494">
        <ele>334</ele>
        <time>2019-11-21T10:52:15Z</time>
      </trkpt>
      <trkpt lat="46.78824" lon="5.61501">
        <ele>335.6</ele>
        <time>2019-11-21T10:52:22Z</time>
      </trkpt>
      <trkpt lat="46.7882" lon="5.61507">
        <ele>336.8</ele>
        <time>2019-11-21T10:52:27Z</time>
      </trkpt>
      <trkpt lat="46.78819" lon="5.61513">
        <ele>337.7</ele>
        <time>2019-11-21T10:52:31Z</time>
      </trkpt>
      <trkpt lat="46.78818" lon="5.6152">
        <ele>338.5</ele>
        <time>2019-11-21T10:52:35Z</time>
      </trkpt>
      <trkpt lat="46.78818" lon="5.61526">
        <ele>340.7</ele>
        <time>2019-11-21T10:52:46Z</time>
      </trkpt>
      <trkpt lat="46.78817" lon="5.61534">
        <ele>341.8</ele>
        <time>2019-11-21T10:52:55Z</time>
      </trkpt>
      <trkpt lat="46.78818" lon="5.61541">
        <ele>342.2</ele>
        <time>2019-11-21T10:53:00Z</time>
      </trkpt>
      <trkpt lat="46.78819" lon="5.61548">
        <ele>342.9</ele>
        <time>2019-11-21T10:53:05Z</time>
      </trkpt>
      <trkpt lat="46.7882" lon="5.61555">
        <ele>343.7</ele>
        <time>2019-11-21T10:53:11Z</time>
      </trkpt>
      <trkpt lat="46.78819" lon="5.61562">
        <ele>344.4</ele>
        <time>2019-11-21T10:53:17Z</time>
      </trkpt>
      <trkpt lat="46.78818" lon="5.6157">
        <ele>344.9</ele>
        <time>2019-11-21T10:53:22Z</time>
      </trkpt>
      <trkpt lat="46.7882" lon="5.61578">
        <ele>345.3</ele>
        <time>2019-11-21T10:53:32Z</time>
      </trkpt>
      <trkpt lat="46.78821" lon="5.61585">
        <ele>345.3</ele>
        <time>2019-11-21T10:53:37Z</time>
      </trkpt>
      <trkpt lat="46.78823" lon="5.61592">
        <ele>345.3</ele>
        <time>2019-11-21T10:53:42Z</time>
      </trkpt>
      <trkpt lat="46.78825" lon="5.61598">
        <ele>345.1</ele>
        <time>2019-11-21T10:53:49Z</time>
      </trkpt>
      <trkpt lat="46.78826" lon="5.61604">
        <ele>344.9</ele>
        <time>2019-11-21T10:53:54Z</time>
      </trkpt>
      <trkpt lat="46.78825" lon="5.61611">
        <ele>344.8</ele>
        <time>2019-11-21T10:53:58Z</time>
      </trkpt>
      <trkpt lat="46.78824" lon="5.61617">
        <ele>344.7</ele>
        <time>2019-11-21T10:54:02Z</time>
      </trkpt>
      <trkpt lat="46.78822" lon="5.61624">
        <ele>345.1</ele>
        <time>2019-11-21T10:54:08Z</time>
      </trkpt>
      <trkpt lat="46.78823" lon="5.61631">
        <ele>345.7</ele>
        <time>2019-11-21T10:54:15Z</time>
      </trkpt>
      <trkpt lat="46.78821" lon="5.61639">
        <ele>346.1</ele>
        <time>2019-11-21T10:54:19Z</time>
      </trkpt>
      <trkpt lat="46.7882" lon="5.61646">
        <ele>346.8</ele>
        <time>2019-11-21T10:54:24Z</time>
      </trkpt>
      <trkpt lat="46.78819" lon="5.61653">
        <ele>347.5</ele>
        <time>2019-11-21T10:54:29Z</time>
      </trkpt>
      <trkpt lat="46.78816" lon="5.61659">
        <ele>347.8</ele>
        <time>2019-11-21T10:54:33Z</time>
      </trkpt>
      <trkpt lat="46.78815" lon="5.61666">
        <ele>348.2</ele>
        <time>2019-11-21T10:54:37Z</time>
      </trkpt>
      <trkpt lat="46.78817" lon="5.61673">
        <ele>348.5</ele>
        <time>2019-11-21T10:54:43Z</time>
      </trkpt>
      <trkpt lat="46.7882" lon="5.61678">
        <ele>348.6</ele>
        <time>2019-11-21T10:54:49Z</time>
      </trkpt>
      <trkpt lat="46.78821" lon="5.61685">
        <ele>348.5</ele>
        <time>2019-11-21T10:54:53Z</time>
      </trkpt>
      <trkpt lat="46.78824" lon="5.61691">
        <ele>348.6</ele>
        <time>2019-11-21T10:54:57Z</time>
      </trkpt>
      <trkpt lat="46.78823" lon="5.61699">
        <ele>348.6</ele>
        <time>2019-11-21T10:55:02Z</time>
      </trkpt>
      <trkpt lat="46.78824" lon="5.61705">
        <ele>348.3</ele>
        <time>2019-11-21T10:55:08Z</time>
      </trkpt>
      <trkpt lat="46.78826" lon="5.61712">
        <ele>347.7</ele>
        <time>2019-11-21T10:55:14Z</time>
      </trkpt>
      <trkpt lat="46.78827" lon="5.6172">
        <ele>347</ele>
        <time>2019-11-21T10:55:23Z</time>
      </trkpt>
      <trkpt lat="46.7883" lon="5.61726">
        <ele>347</ele>
        <time>2019-11-21T10:55:28Z</time>
      </trkpt>
      <trkpt lat="46.78829" lon="5.61733">
        <ele>347.2</ele>
        <time>2019-11-21T10:55:33Z</time>
      </trkpt>
      <trkpt lat="46.78829" lon="5.6174">
        <ele>347.4</ele>
        <time>2019-11-21T10:55:37Z</time>
      </trkpt>
      <trkpt lat="46.7883" lon="5.61748">
        <ele>348</ele>
        <time>2019-11-21T10:55:42Z</time>
      </trkpt>
      <trkpt lat="46.7883" lon="5.61756">
        <ele>348.5</ele>
        <time>2019-11-21T10:55:46Z</time>
      </trkpt>
      <trkpt lat="46.78831" lon="5.61762">
        <ele>349.4</ele>
        <time>2019-11-21T10:55:51Z</time>
      </trkpt>
      <trkpt lat="46.78829" lon="5.61769">
        <ele>350.3</ele>
        <time>2019-11-21T10:55:55Z</time>
      </trkpt>
      <trkpt lat="46.78828" lon="5.61776">
        <ele>351.3</ele>
        <time>2019-11-21T10:56:00Z</time>
      </trkpt>
      <trkpt lat="46.78828" lon="5.61783">
        <ele>352.2</ele>
        <time>2019-11-21T10:56:05Z</time>
      </trkpt>
      <trkpt lat="46.78828" lon="5.6179">
        <ele>352.9</ele>
        <time>2019-11-21T10:56:11Z</time>
      </trkpt>
      <trkpt lat="46.78826" lon="5.61796">
        <ele>353.5</ele>
        <time>2019-11-21T10:56:17Z</time>
      </trkpt>
      <trkpt lat="46.78824" lon="5.61803">
        <ele>353.6</ele>
        <time>2019-11-21T10:56:24Z</time>
      </trkpt>
      <trkpt lat="46.78822" lon="5.61809">
        <ele>353.5</ele>
        <time>2019-11-21T10:56:31Z</time>
      </trkpt>
      <trkpt lat="46.7882" lon="5.61815">
        <ele>353.8</ele>
        <time>2019-11-21T10:56:37Z</time>
      </trkpt>
      <trkpt lat="46.78818" lon="5.61822">
        <ele>354.2</ele>
        <time>2019-11-21T10:56:41Z</time>
      </trkpt>
      <trkpt lat="46.78815" lon="5.61828">
        <ele>355.1</ele>
        <time>2019-11-21T10:56:46Z</time>
      </trkpt>
      <trkpt lat="46.78814" lon="5.61835">
        <ele>356.4</ele>
        <time>2019-11-21T10:56:52Z</time>
      </trkpt>
      <trkpt lat="46.78813" lon="5.61841">
        <ele>357.9</ele>
        <time>2019-11-21T10:56:59Z</time>
      </trkpt>
      <trkpt lat="46.78812" lon="5.61848">
        <ele>359.2</ele>
        <time>2019-11-21T10:57:06Z</time>
      </trkpt>
      <trkpt lat="46.78811" lon="5.61855">
        <ele>360.6</ele>
        <time>2019-11-21T10:57:13Z</time>
      </trkpt>
      <trkpt lat="46.78808" lon="5.6186">
        <ele>361.7</ele>
        <time>2019-11-21T10:57:19Z</time>
      </trkpt>
      <trkpt lat="46.78805" lon="5.61865">
        <ele>362.7</ele>
        <time>2019-11-21T10:57:24Z</time>
      </trkpt>
      <trkpt lat="46.78802" lon="5.61871">
        <ele>363.5</ele>
        <time>2019-11-21T10:57:29Z</time>
      </trkpt>
      <trkpt lat="46.78798" lon="5.61877">
        <ele>364.2</ele>
        <time>2019-11-21T10:57:35Z</time>
      </trkpt>
      <trkpt lat="46.78795" lon="5.61882">
        <ele>364.9</ele>
        <time>2019-11-21T10:57:42Z</time>
      </trkpt>
      <trkpt lat="46.78792" lon="5.61886">
        <ele>365.4</ele>
        <time>2019-11-21T10:57:47Z</time>
      </trkpt>
      <trkpt lat="46.78788" lon="5.61891">
        <ele>365.8</ele>
        <time>2019-11-21T10:57:52Z</time>
      </trkpt>
      <trkpt lat="46.78784" lon="5.61896">
        <ele>366.2</ele>
        <time>2019-11-21T10:57:57Z</time>
      </trkpt>
      <trkpt lat="46.78781" lon="5.61901">
        <ele>366.6</ele>
        <time>2019-11-21T10:58:01Z</time>
      </trkpt>
      <trkpt lat="46.78777" lon="5.61905">
        <ele>366.9</ele>
        <time>2019-11-21T10:58:06Z</time>
      </trkpt>
      <trkpt lat="46.78772" lon="5.61907">
        <ele>367.1</ele>
        <time>2019-11-21T10:58:11Z</time>
      </trkpt>
      <trkpt lat="46.78769" lon="5.61911">
        <ele>367.4</ele>
        <time>2019-11-21T10:58:20Z</time>
      </trkpt>
      <trkpt lat="46.78764" lon="5.61916">
        <ele>367.7</ele>
        <time>2019-11-21T10:58:27Z</time>
      </trkpt>
      <trkpt lat="46.7876" lon="5.6192">
        <ele>367.9</ele>
        <time>2019-11-21T10:58:32Z</time>
      </trkpt>
      <trkpt lat="46.78757" lon="5.61924">
        <ele>368.8</ele>
        <time>2019-11-21T10:58:41Z</time>
      </trkpt>
      <trkpt lat="46.78752" lon="5.61928">
        <ele>370</ele>
        <time>2019-11-21T10:58:49Z</time>
      </trkpt>
      <trkpt lat="46.78748" lon="5.61932">
        <ele>370.8</ele>
        <time>2019-11-21T10:58:55Z</time>
      </trkpt>
      <trkpt lat="46.78744" lon="5.61936">
        <ele>371.2</ele>
        <time>2019-11-21T10:58:59Z</time>
      </trkpt>
      <trkpt lat="46.78739" lon="5.61936">
        <ele>371.6</ele>
        <time>2019-11-21T10:59:06Z</time>
      </trkpt>
      <trkpt lat="46.78734" lon="5.61937">
        <ele>374.9</ele>
        <time>2019-11-21T10:59:25Z</time>
      </trkpt>
      <trkpt lat="46.78726" lon="5.61937">
        <ele>377</ele>
        <time>2019-11-21T11:00:13Z</time>
      </trkpt>
      <trkpt lat="46.78721" lon="5.6194">
        <ele>377.3</ele>
        <time>2019-11-21T11:00:18Z</time>
      </trkpt>
      <trkpt lat="46.78717" lon="5.61942">
        <ele>377.6</ele>
        <time>2019-11-21T11:00:24Z</time>
      </trkpt>
      <trkpt lat="46.78712" lon="5.61941">
        <ele>378.5</ele>
        <time>2019-11-21T11:00:32Z</time>
      </trkpt>
      <trkpt lat="46.78708" lon="5.61937">
        <ele>379.5</ele>
        <time>2019-11-21T11:00:39Z</time>
      </trkpt>
      <trkpt lat="46.78704" lon="5.61935">
        <ele>380</ele>
        <time>2019-11-21T11:00:45Z</time>
      </trkpt>
      <trkpt lat="46.78699" lon="5.61932">
        <ele>380.2</ele>
        <time>2019-11-21T11:00:49Z</time>
      </trkpt>
      <trkpt lat="46.78694" lon="5.61929">
        <ele>380.2</ele>
        <time>2019-11-21T11:00:52Z</time>
      </trkpt>
      <trkpt lat="46.7869" lon="5.61925">
        <ele>380.1</ele>
        <time>2019-11-21T11:00:57Z</time>
      </trkpt>
      <trkpt lat="46.78686" lon="5.61921">
        <ele>380.1</ele>
        <time>2019-11-21T11:01:04Z</time>
      </trkpt>
      <trkpt lat="46.78683" lon="5.61916">
        <ele>380.3</ele>
        <time>2019-11-21T11:01:11Z</time>
      </trkpt>
      <trkpt lat="46.78679" lon="5.61914">
        <ele>380.6</ele>
        <time>2019-11-21T11:01:17Z</time>
      </trkpt>
      <trkpt lat="46.78672" lon="5.6191">
        <ele>381</ele>
        <time>2019-11-21T11:01:21Z</time>
      </trkpt>
      <trkpt lat="46.78668" lon="5.61909">
        <ele>381.4</ele>
        <time>2019-11-21T11:01:23Z</time>
      </trkpt>
      <trkpt lat="46.78663" lon="5.61907">
        <ele>382.4</ele>
        <time>2019-11-21T11:01:28Z</time>
      </trkpt>
      <trkpt lat="46.78659" lon="5.61901">
        <ele>383.9</ele>
        <time>2019-11-21T11:01:36Z</time>
      </trkpt>
      <trkpt lat="46.78655" lon="5.61897">
        <ele>384.7</ele>
        <time>2019-11-21T11:01:42Z</time>
      </trkpt>
      <trkpt lat="46.78647" lon="5.61883">
        <ele>385.7</ele>
        <time>2019-11-21T11:01:59Z</time>
      </trkpt>
      <trkpt lat="46.78644" lon="5.61877">
        <ele>385.8</ele>
        <time>2019-11-21T11:02:04Z</time>
      </trkpt>
      <trkpt lat="46.78641" lon="5.6187">
        <ele>385.7</ele>
        <time>2019-11-21T11:02:09Z</time>
      </trkpt>
      <trkpt lat="46.78638" lon="5.61865">
        <ele>385.7</ele>
        <time>2019-11-21T11:02:16Z</time>
      </trkpt>
      <trkpt lat="46.78634" lon="5.6186">
        <ele>385.4</ele>
        <time>2019-11-21T11:02:23Z</time>
      </trkpt>
      <trkpt lat="46.78631" lon="5.61855">
        <ele>385.3</ele>
        <time>2019-11-21T11:02:28Z</time>
      </trkpt>
      <trkpt lat="46.78628" lon="5.61849">
        <ele>385.2</ele>
        <time>2019-11-21T11:02:33Z</time>
      </trkpt>
      <trkpt lat="46.78625" lon="5.61843">
        <ele>385.1</ele>
        <time>2019-11-21T11:02:38Z</time>
      </trkpt>
      <trkpt lat="46.78621" lon="5.61839">
        <ele>385</ele>
        <time>2019-11-21T11:02:43Z</time>
      </trkpt>
      <trkpt lat="46.78616" lon="5.61836">
        <ele>385.1</ele>
        <time>2019-11-21T11:02:48Z</time>
      </trkpt>
      <trkpt lat="46.78612" lon="5.61833">
        <ele>385.4</ele>
        <time>2019-11-21T11:02:54Z</time>
      </trkpt>
      <trkpt lat="46.78607" lon="5.61831">
        <ele>385.9</ele>
        <time>2019-11-21T11:03:00Z</time>
      </trkpt>
      <trkpt lat="46.78607" lon="5.61824">
        <ele>386.8</ele>
        <time>2019-11-21T11:03:08Z</time>
      </trkpt>
      <trkpt lat="46.78607" lon="5.61817">
        <ele>388.5</ele>
        <time>2019-11-21T11:03:14Z</time>
      </trkpt>
      <trkpt lat="46.78605" lon="5.6181">
        <ele>390.3</ele>
        <time>2019-11-21T11:03:19Z</time>
      </trkpt>
      <trkpt lat="46.78601" lon="5.61805">
        <ele>392.4</ele>
        <time>2019-11-21T11:03:25Z</time>
      </trkpt>
      <trkpt lat="46.78597" lon="5.61802">
        <ele>393.6</ele>
        <time>2019-11-21T11:03:29Z</time>
      </trkpt>
      <trkpt lat="46.78594" lon="5.61796">
        <ele>394.5</ele>
        <time>2019-11-21T11:03:33Z</time>
      </trkpt>
      <trkpt lat="46.7859" lon="5.61789">
        <ele>395</ele>
        <time>2019-11-21T11:03:37Z</time>
      </trkpt>
      <trkpt lat="46.78587" lon="5.61784">
        <ele>395.1</ele>
        <time>2019-11-21T11:03:40Z</time>
      </trkpt>
      <trkpt lat="46.78585" lon="5.61777">
        <ele>395</ele>
        <time>2019-11-21T11:03:44Z</time>
      </trkpt>
      <trkpt lat="46.78578" lon="5.61761">
        <ele>393.8</ele>
        <time>2019-11-21T11:04:07Z</time>
      </trkpt>
      <trkpt lat="46.78576" lon="5.61755">
        <ele>393.2</ele>
        <time>2019-11-21T11:04:12Z</time>
      </trkpt>
      <trkpt lat="46.78574" lon="5.6176">
        <ele>392.5</ele>
        <time>2019-11-21T11:04:19Z</time>
      </trkpt>
      <trkpt lat="46.78573" lon="5.61768">
        <ele>392.2</ele>
        <time>2019-11-21T11:04:23Z</time>
      </trkpt>
      <trkpt lat="46.78573" lon="5.61775">
        <ele>392.2</ele>
        <time>2019-11-21T11:04:27Z</time>
      </trkpt>
      <trkpt lat="46.78577" lon="5.61788">
        <ele>393.5</ele>
        <time>2019-11-21T11:04:38Z</time>
      </trkpt>
      <trkpt lat="46.7858" lon="5.61773">
        <ele>393.7</ele>
        <time>2019-11-21T11:05:37Z</time>
      </trkpt>
      <trkpt lat="46.78581" lon="5.61756">
        <ele>389.7</ele>
        <time>2019-11-21T11:06:27Z</time>
      </trkpt>
      <trkpt lat="46.78579" lon="5.61749">
        <ele>391.4</ele>
        <time>2019-11-21T11:06:39Z</time>
      </trkpt>
      <trkpt lat="46.78575" lon="5.61745">
        <ele>392.4</ele>
        <time>2019-11-21T11:06:45Z</time>
      </trkpt>
      <trkpt lat="46.78571" lon="5.61742">
        <ele>392.9</ele>
        <time>2019-11-21T11:06:49Z</time>
      </trkpt>
      <trkpt lat="46.78566" lon="5.61738">
        <ele>393.5</ele>
        <time>2019-11-21T11:06:53Z</time>
      </trkpt>
      <trkpt lat="46.78562" lon="5.61735">
        <ele>393.9</ele>
        <time>2019-11-21T11:06:56Z</time>
      </trkpt>
      <trkpt lat="46.78559" lon="5.6173">
        <ele>394.1</ele>
        <time>2019-11-21T11:06:59Z</time>
      </trkpt>
      <trkpt lat="46.78555" lon="5.61724">
        <ele>394.5</ele>
        <time>2019-11-21T11:07:04Z</time>
      </trkpt>
      <trkpt lat="46.78551" lon="5.6172">
        <ele>395.8</ele>
        <time>2019-11-21T11:07:11Z</time>
      </trkpt>
      <trkpt lat="46.78546" lon="5.61717">
        <ele>396.6</ele>
        <time>2019-11-21T11:07:17Z</time>
      </trkpt>
      <trkpt lat="46.78542" lon="5.61712">
        <ele>396.4</ele>
        <time>2019-11-21T11:07:30Z</time>
      </trkpt>
      <trkpt lat="46.78538" lon="5.61706">
        <ele>395.8</ele>
        <time>2019-11-21T11:07:34Z</time>
      </trkpt>
      <trkpt lat="46.78535" lon="5.61701">
        <ele>395.2</ele>
        <time>2019-11-21T11:07:39Z</time>
      </trkpt>
      <trkpt lat="46.78531" lon="5.61696">
        <ele>394.5</ele>
        <time>2019-11-21T11:07:44Z</time>
      </trkpt>
      <trkpt lat="46.78527" lon="5.61692">
        <ele>393.8</ele>
        <time>2019-11-21T11:07:48Z</time>
      </trkpt>
      <trkpt lat="46.78524" lon="5.61687">
        <ele>393</ele>
        <time>2019-11-21T11:07:56Z</time>
      </trkpt>
      <trkpt lat="46.7852" lon="5.61688">
        <ele>393.8</ele>
        <time>2019-11-21T11:08:06Z</time>
      </trkpt>
      <trkpt lat="46.78515" lon="5.61687">
        <ele>394.9</ele>
        <time>2019-11-21T11:08:14Z</time>
      </trkpt>
      <trkpt lat="46.78511" lon="5.61685">
        <ele>395.6</ele>
        <time>2019-11-21T11:08:22Z</time>
      </trkpt>
      <trkpt lat="46.78506" lon="5.61682">
        <ele>395.7</ele>
        <time>2019-11-21T11:08:27Z</time>
      </trkpt>
      <trkpt lat="46.78501" lon="5.61681">
        <ele>395.7</ele>
        <time>2019-11-21T11:08:32Z</time>
      </trkpt>
      <trkpt lat="46.78496" lon="5.6168">
        <ele>395.8</ele>
        <time>2019-11-21T11:08:36Z</time>
      </trkpt>
      <trkpt lat="46.78491" lon="5.61681">
        <ele>395.8</ele>
        <time>2019-11-21T11:08:41Z</time>
      </trkpt>
      <trkpt lat="46.78486" lon="5.6168">
        <ele>395.8</ele>
        <time>2019-11-21T11:08:46Z</time>
      </trkpt>
      <trkpt lat="46.78481" lon="5.61677">
        <ele>395.6</ele>
        <time>2019-11-21T11:08:50Z</time>
      </trkpt>
      <trkpt lat="46.78476" lon="5.61673">
        <ele>394.5</ele>
        <time>2019-11-21T11:08:56Z</time>
      </trkpt>
      <trkpt lat="46.78474" lon="5.61667">
        <ele>392.8</ele>
        <time>2019-11-21T11:09:02Z</time>
      </trkpt>
      <trkpt lat="46.78471" lon="5.61661">
        <ele>391.3</ele>
        <time>2019-11-21T11:09:06Z</time>
      </trkpt>
      <trkpt lat="46.78469" lon="5.61654">
        <ele>389.8</ele>
        <time>2019-11-21T11:09:10Z</time>
      </trkpt>
      <trkpt lat="46.78467" lon="5.61647">
        <ele>388</ele>
        <time>2019-11-21T11:09:15Z</time>
      </trkpt>
      <trkpt lat="46.78464" lon="5.61641">
        <ele>386.1</ele>
        <time>2019-11-21T11:09:20Z</time>
      </trkpt>
      <trkpt lat="46.78461" lon="5.61635">
        <ele>383.9</ele>
        <time>2019-11-21T11:09:26Z</time>
      </trkpt>
      <trkpt lat="46.78458" lon="5.6163">
        <ele>382.2</ele>
        <time>2019-11-21T11:09:31Z</time>
      </trkpt>
      <trkpt lat="46.78457" lon="5.61623">
        <ele>379.8</ele>
        <time>2019-11-21T11:09:38Z</time>
      </trkpt>
      <trkpt lat="46.78457" lon="5.61616">
        <ele>378.4</ele>
        <time>2019-11-21T11:09:44Z</time>
      </trkpt>
      <trkpt lat="46.78456" lon="5.61609">
        <ele>377.5</ele>
        <time>2019-11-21T11:09:50Z</time>
      </trkpt>
      <trkpt lat="46.78453" lon="5.61603">
        <ele>376.6</ele>
        <time>2019-11-21T11:09:56Z</time>
      </trkpt>
      <trkpt lat="46.7845" lon="5.61597">
        <ele>375.5</ele>
        <time>2019-11-21T11:10:02Z</time>
      </trkpt>
      <trkpt lat="46.78447" lon="5.61592">
        <ele>371.7</ele>
        <time>2019-11-21T11:10:15Z</time>
      </trkpt>
      <trkpt lat="46.78444" lon="5.61587">
        <ele>369.3</ele>
        <time>2019-11-21T11:10:21Z</time>
      </trkpt>
      <trkpt lat="46.7844" lon="5.61582">
        <ele>366.9</ele>
        <time>2019-11-21T11:10:27Z</time>
      </trkpt>
      <trkpt lat="46.78436" lon="5.61578">
        <ele>363.4</ele>
        <time>2019-11-21T11:10:35Z</time>
      </trkpt>
      <trkpt lat="46.78431" lon="5.61576">
        <ele>360.9</ele>
        <time>2019-11-21T11:10:41Z</time>
      </trkpt>
      <trkpt lat="46.78427" lon="5.61572">
        <ele>358.2</ele>
        <time>2019-11-21T11:10:48Z</time>
      </trkpt>
      <trkpt lat="46.78424" lon="5.61567">
        <ele>356</ele>
        <time>2019-11-21T11:10:54Z</time>
      </trkpt>
      <trkpt lat="46.78419" lon="5.61564">
        <ele>354.7</ele>
        <time>2019-11-21T11:10:58Z</time>
      </trkpt>
      <trkpt lat="46.78415" lon="5.61561">
        <ele>353.1</ele>
        <time>2019-11-21T11:11:03Z</time>
      </trkpt>
      <trkpt lat="46.7841" lon="5.61559">
        <ele>351.1</ele>
        <time>2019-11-21T11:11:11Z</time>
      </trkpt>
      <trkpt lat="46.78405" lon="5.61559">
        <ele>349.6</ele>
        <time>2019-11-21T11:11:19Z</time>
      </trkpt>
      <trkpt lat="46.784" lon="5.61558">
        <ele>348.7</ele>
        <time>2019-11-21T11:11:26Z</time>
      </trkpt>
      <trkpt lat="46.78395" lon="5.61558">
        <ele>347.8</ele>
        <time>2019-11-21T11:11:32Z</time>
      </trkpt>
      <trkpt lat="46.7839" lon="5.61559">
        <ele>347.3</ele>
        <time>2019-11-21T11:11:36Z</time>
      </trkpt>
      <trkpt lat="46.78385" lon="5.6156">
        <ele>346.7</ele>
        <time>2019-11-21T11:11:40Z</time>
      </trkpt>
      <trkpt lat="46.7838" lon="5.61562">
        <ele>346</ele>
        <time>2019-11-21T11:11:45Z</time>
      </trkpt>
      <trkpt lat="46.78376" lon="5.61565">
        <ele>344.6</ele>
        <time>2019-11-21T11:11:54Z</time>
      </trkpt>
      <trkpt lat="46.78373" lon="5.61572">
        <ele>342.8</ele>
        <time>2019-11-21T11:12:02Z</time>
      </trkpt>
      <trkpt lat="46.78372" lon="5.61579">
        <ele>340.9</ele>
        <time>2019-11-21T11:12:13Z</time>
      </trkpt>
      <trkpt lat="46.78373" lon="5.61587">
        <ele>340.9</ele>
        <time>2019-11-21T11:12:18Z</time>
      </trkpt>
      <trkpt lat="46.78373" lon="5.61593">
        <ele>341.1</ele>
        <time>2019-11-21T11:12:22Z</time>
      </trkpt>
      <trkpt lat="46.78378" lon="5.61607">
        <ele>341.2</ele>
        <time>2019-11-21T11:12:54Z</time>
      </trkpt>
      <trkpt lat="46.78381" lon="5.61614">
        <ele>341</ele>
        <time>2019-11-21T11:13:01Z</time>
      </trkpt>
      <trkpt lat="46.78381" lon="5.61621">
        <ele>341</ele>
        <time>2019-11-21T11:13:05Z</time>
      </trkpt>
      <trkpt lat="46.78382" lon="5.61628">
        <ele>341</ele>
        <time>2019-11-21T11:13:09Z</time>
      </trkpt>
      <trkpt lat="46.78382" lon="5.61635">
        <ele>340.9</ele>
        <time>2019-11-21T11:13:13Z</time>
      </trkpt>
      <trkpt lat="46.78382" lon="5.61642">
        <ele>340.8</ele>
        <time>2019-11-21T11:13:18Z</time>
      </trkpt>
      <trkpt lat="46.78383" lon="5.61649">
        <ele>340.6</ele>
        <time>2019-11-21T11:13:23Z</time>
      </trkpt>
      <trkpt lat="46.78386" lon="5.61656">
        <ele>340.6</ele>
        <time>2019-11-21T11:13:27Z</time>
      </trkpt>
      <trkpt lat="46.78388" lon="5.61663">
        <ele>340.7</ele>
        <time>2019-11-21T11:13:31Z</time>
      </trkpt>
      <trkpt lat="46.78387" lon="5.6167">
        <ele>341</ele>
        <time>2019-11-21T11:13:35Z</time>
      </trkpt>
      <trkpt lat="46.78389" lon="5.61676">
        <ele>341.4</ele>
        <time>2019-11-21T11:13:39Z</time>
      </trkpt>
      <trkpt lat="46.78389" lon="5.61684">
        <ele>341.9</ele>
        <time>2019-11-21T11:13:45Z</time>
      </trkpt>
      <trkpt lat="46.78388" lon="5.61692">
        <ele>342.3</ele>
        <time>2019-11-21T11:13:51Z</time>
      </trkpt>
      <trkpt lat="46.78388" lon="5.61698">
        <ele>342.7</ele>
        <time>2019-11-21T11:13:57Z</time>
      </trkpt>
      <trkpt lat="46.78384" lon="5.61702">
        <ele>342.3</ele>
        <time>2019-11-21T11:14:10Z</time>
      </trkpt>
      <trkpt lat="46.78381" lon="5.61695">
        <ele>336.2</ele>
        <time>2019-11-21T11:14:49Z</time>
      </trkpt>
      <trkpt lat="46.7838" lon="5.61688">
        <ele>333.7</ele>
        <time>2019-11-21T11:14:59Z</time>
      </trkpt>
      <trkpt lat="46.78378" lon="5.61682">
        <ele>330.1</ele>
        <time>2019-11-21T11:15:13Z</time>
      </trkpt>
      <trkpt lat="46.78376" lon="5.61675">
        <ele>326.8</ele>
        <time>2019-11-21T11:15:23Z</time>
      </trkpt>
      <trkpt lat="46.78375" lon="5.61668">
        <ele>324.9</ele>
        <time>2019-11-21T11:15:28Z</time>
      </trkpt>
      <trkpt lat="46.78373" lon="5.61662">
        <ele>323.7</ele>
        <time>2019-11-21T11:15:32Z</time>
      </trkpt>
      <trkpt lat="46.78371" lon="5.61656">
        <ele>322.5</ele>
        <time>2019-11-21T11:15:37Z</time>
      </trkpt>
      <trkpt lat="46.78368" lon="5.6165">
        <ele>321.6</ele>
        <time>2019-11-21T11:15:42Z</time>
      </trkpt>
      <trkpt lat="46.78366" lon="5.61644">
        <ele>320.9</ele>
        <time>2019-11-21T11:15:46Z</time>
      </trkpt>
      <trkpt lat="46.78362" lon="5.61638">
        <ele>319.8</ele>
        <time>2019-11-21T11:15:52Z</time>
      </trkpt>
      <trkpt lat="46.78359" lon="5.61633">
        <ele>318.4</ele>
        <time>2019-11-21T11:15:58Z</time>
      </trkpt>
      <trkpt lat="46.78357" lon="5.6164">
        <ele>316.1</ele>
        <time>2019-11-21T11:16:12Z</time>
      </trkpt>
      <trkpt lat="46.78358" lon="5.61647">
        <ele>316</ele>
        <time>2019-11-21T11:16:17Z</time>
      </trkpt>
      <trkpt lat="46.78361" lon="5.61652">
        <ele>316.2</ele>
        <time>2019-11-21T11:16:21Z</time>
      </trkpt>
      <trkpt lat="46.78363" lon="5.61659">
        <ele>316.8</ele>
        <time>2019-11-21T11:16:26Z</time>
      </trkpt>
      <trkpt lat="46.78365" lon="5.61666">
        <ele>317.7</ele>
        <time>2019-11-21T11:16:31Z</time>
      </trkpt>
      <trkpt lat="46.78369" lon="5.61672">
        <ele>318.6</ele>
        <time>2019-11-21T11:16:35Z</time>
      </trkpt>
      <trkpt lat="46.7837" lon="5.6168">
        <ele>319.8</ele>
        <time>2019-11-21T11:16:39Z</time>
      </trkpt>
      <trkpt lat="46.7837" lon="5.61687">
        <ele>320.9</ele>
        <time>2019-11-21T11:16:43Z</time>
      </trkpt>
      <trkpt lat="46.7837" lon="5.61693">
        <ele>321.8</ele>
        <time>2019-11-21T11:16:47Z</time>
      </trkpt>
      <trkpt lat="46.78368" lon="5.61701">
        <ele>323</ele>
        <time>2019-11-21T11:16:52Z</time>
      </trkpt>
      <trkpt lat="46.78367" lon="5.61709">
        <ele>324.1</ele>
        <time>2019-11-21T11:16:56Z</time>
      </trkpt>
      <trkpt lat="46.78363" lon="5.61715">
        <ele>325.3</ele>
        <time>2019-11-21T11:17:00Z</time>
      </trkpt>
      <trkpt lat="46.78359" lon="5.61719">
        <ele>326.2</ele>
        <time>2019-11-21T11:17:03Z</time>
      </trkpt>
      <trkpt lat="46.78355" lon="5.61723">
        <ele>327.2</ele>
        <time>2019-11-21T11:17:07Z</time>
      </trkpt>
      <trkpt lat="46.7835" lon="5.61725">
        <ele>328.1</ele>
        <time>2019-11-21T11:17:11Z</time>
      </trkpt>
      <trkpt lat="46.78345" lon="5.61727">
        <ele>328.9</ele>
        <time>2019-11-21T11:17:15Z</time>
      </trkpt>
      <trkpt lat="46.7834" lon="5.61729">
        <ele>329.6</ele>
        <time>2019-11-21T11:17:19Z</time>
      </trkpt>
      <trkpt lat="46.78335" lon="5.61731">
        <ele>330.4</ele>
        <time>2019-11-21T11:17:23Z</time>
      </trkpt>
      <trkpt lat="46.78331" lon="5.61731">
        <ele>331</ele>
        <time>2019-11-21T11:17:27Z</time>
      </trkpt>
      <trkpt lat="46.78331" lon="5.61724">
        <ele>332.3</ele>
        <time>2019-11-21T11:17:50Z</time>
      </trkpt>
      <trkpt lat="46.78335" lon="5.6172">
        <ele>332.3</ele>
        <time>2019-11-21T11:17:53Z</time>
      </trkpt>
      <trkpt lat="46.78339" lon="5.61715">
        <ele>332.2</ele>
        <time>2019-11-21T11:17:55Z</time>
      </trkpt>
      <trkpt lat="46.78343" lon="5.61709">
        <ele>332.2</ele>
        <time>2019-11-21T11:17:57Z</time>
      </trkpt>
      <trkpt lat="46.78348" lon="5.61704">
        <ele>332</ele>
        <time>2019-11-21T11:18:00Z</time>
      </trkpt>
      <trkpt lat="46.78354" lon="5.617">
        <ele>331.9</ele>
        <time>2019-11-21T11:18:03Z</time>
      </trkpt>
      <trkpt lat="46.78357" lon="5.61694">
        <ele>331.8</ele>
        <time>2019-11-21T11:18:06Z</time>
      </trkpt>
      <trkpt lat="46.7836" lon="5.61688">
        <ele>331.8</ele>
        <time>2019-11-21T11:18:08Z</time>
      </trkpt>
      <trkpt lat="46.78363" lon="5.61682">
        <ele>331.8</ele>
        <time>2019-11-21T11:18:11Z</time>
      </trkpt>
      <trkpt lat="46.78366" lon="5.61676">
        <ele>331.4</ele>
        <time>2019-11-21T11:18:15Z</time>
      </trkpt>
      <trkpt lat="46.7837" lon="5.61675">
        <ele>329.2</ele>
        <time>2019-11-21T11:18:29Z</time>
      </trkpt>
      <trkpt lat="46.78374" lon="5.61679">
        <ele>327.4</ele>
        <time>2019-11-21T11:18:36Z</time>
      </trkpt>
      <trkpt lat="46.78375" lon="5.61685">
        <ele>308.7</ele>
        <time>2019-11-21T11:50:05Z</time>
      </trkpt>
      <trkpt lat="46.78374" lon="5.61694">
        <ele>317.1</ele>
        <time>2019-11-21T11:51:37Z</time>
      </trkpt>
      <trkpt lat="46.78371" lon="5.617">
        <ele>319</ele>
        <time>2019-11-21T11:51:47Z</time>
      </trkpt>
      <trkpt lat="46.78368" lon="5.61706">
        <ele>325</ele>
        <time>2019-11-21T11:52:26Z</time>
      </trkpt>
      <trkpt lat="46.78364" lon="5.61711">
        <ele>325.3</ele>
        <time>2019-11-21T11:52:29Z</time>
      </trkpt>
      <trkpt lat="46.78359" lon="5.61715">
        <ele>325.6</ele>
        <time>2019-11-21T11:52:33Z</time>
      </trkpt>
      <trkpt lat="46.78355" lon="5.61717">
        <ele>325.8</ele>
        <time>2019-11-21T11:52:36Z</time>
      </trkpt>
      <trkpt lat="46.7835" lon="5.61721">
        <ele>325.7</ele>
        <time>2019-11-21T11:52:40Z</time>
      </trkpt>
      <trkpt lat="46.78345" lon="5.61723">
        <ele>325.5</ele>
        <time>2019-11-21T11:52:44Z</time>
      </trkpt>
      <trkpt lat="46.78341" lon="5.61724">
        <ele>325.1</ele>
        <time>2019-11-21T11:52:49Z</time>
      </trkpt>
      <trkpt lat="46.78336" lon="5.61726">
        <ele>324.9</ele>
        <time>2019-11-21T11:52:55Z</time>
      </trkpt>
      <trkpt lat="46.78331" lon="5.61725">
        <ele>325.9</ele>
        <time>2019-11-21T11:53:08Z</time>
      </trkpt>
      <trkpt lat="46.78326" lon="5.61723">
        <ele>326.8</ele>
        <time>2019-11-21T11:53:12Z</time>
      </trkpt>
      <trkpt lat="46.78321" lon="5.61722">
        <ele>327.5</ele>
        <time>2019-11-21T11:53:15Z</time>
      </trkpt>
      <trkpt lat="46.78316" lon="5.61721">
        <ele>328.2</ele>
        <time>2019-11-21T11:53:18Z</time>
      </trkpt>
      <trkpt lat="46.78311" lon="5.61718">
        <ele>328.6</ele>
        <time>2019-11-21T11:53:20Z</time>
      </trkpt>
      <trkpt lat="46.78306" lon="5.61715">
        <ele>329.1</ele>
        <time>2019-11-21T11:53:23Z</time>
      </trkpt>
      <trkpt lat="46.78302" lon="5.6171">
        <ele>329.7</ele>
        <time>2019-11-21T11:53:27Z</time>
      </trkpt>
      <trkpt lat="46.78298" lon="5.61707">
        <ele>330.2</ele>
        <time>2019-11-21T11:53:32Z</time>
      </trkpt>
      <trkpt lat="46.78293" lon="5.61706">
        <ele>330.9</ele>
        <time>2019-11-21T11:53:37Z</time>
      </trkpt>
      <trkpt lat="46.78288" lon="5.61707">
        <ele>331.9</ele>
        <time>2019-11-21T11:53:42Z</time>
      </trkpt>
      <trkpt lat="46.78283" lon="5.61707">
        <ele>333.3</ele>
        <time>2019-11-21T11:53:47Z</time>
      </trkpt>
      <trkpt lat="46.78279" lon="5.61707">
        <ele>335.6</ele>
        <time>2019-11-21T11:53:57Z</time>
      </trkpt>
      <trkpt lat="46.78266" lon="5.61701">
        <ele>336.8</ele>
        <time>2019-11-21T11:54:44Z</time>
      </trkpt>
      <trkpt lat="46.7826" lon="5.61698">
        <ele>336.9</ele>
        <time>2019-11-21T11:54:48Z</time>
      </trkpt>
      <trkpt lat="46.78257" lon="5.61695">
        <ele>336.9</ele>
        <time>2019-11-21T11:54:52Z</time>
      </trkpt>
      <trkpt lat="46.78252" lon="5.61692">
        <ele>336.9</ele>
        <time>2019-11-21T11:54:57Z</time>
      </trkpt>
      <trkpt lat="46.78248" lon="5.61689">
        <ele>336.9</ele>
        <time>2019-11-21T11:55:01Z</time>
      </trkpt>
      <trkpt lat="46.78244" lon="5.61687">
        <ele>337.2</ele>
        <time>2019-11-21T11:55:05Z</time>
      </trkpt>
      <trkpt lat="46.78225" lon="5.61677">
        <ele>343</ele>
        <time>2019-11-21T11:55:20Z</time>
      </trkpt>
      <trkpt lat="46.7822" lon="5.61673">
        <ele>345.1</ele>
        <time>2019-11-21T11:55:26Z</time>
      </trkpt>
      <trkpt lat="46.78214" lon="5.6167">
        <ele>346.8</ele>
        <time>2019-11-21T11:55:30Z</time>
      </trkpt>
      <trkpt lat="46.78208" lon="5.61666">
        <ele>348.6</ele>
        <time>2019-11-21T11:55:34Z</time>
      </trkpt>
      <trkpt lat="46.78204" lon="5.61664">
        <ele>350.5</ele>
        <time>2019-11-21T11:55:38Z</time>
      </trkpt>
      <trkpt lat="46.78191" lon="5.61645">
        <ele>357</ele>
        <time>2019-11-21T11:55:55Z</time>
      </trkpt>
      <trkpt lat="46.78187" lon="5.6164">
        <ele>357.6</ele>
        <time>2019-11-21T11:55:59Z</time>
      </trkpt>
      <trkpt lat="46.78183" lon="5.61637">
        <ele>358.7</ele>
        <time>2019-11-21T11:56:04Z</time>
      </trkpt>
      <trkpt lat="46.7818" lon="5.61631">
        <ele>360.5</ele>
        <time>2019-11-21T11:56:10Z</time>
      </trkpt>
      <trkpt lat="46.78176" lon="5.61625">
        <ele>361.3</ele>
        <time>2019-11-21T11:56:15Z</time>
      </trkpt>
      <trkpt lat="46.78172" lon="5.61619">
        <ele>361.4</ele>
        <time>2019-11-21T11:56:19Z</time>
      </trkpt>
      <trkpt lat="46.78169" lon="5.61615">
        <ele>361.1</ele>
        <time>2019-11-21T11:56:22Z</time>
      </trkpt>
      <trkpt lat="46.78166" lon="5.61609">
        <ele>360.7</ele>
        <time>2019-11-21T11:56:27Z</time>
      </trkpt>
      <trkpt lat="46.78156" lon="5.61599">
        <ele>360.2</ele>
        <time>2019-11-21T11:56:37Z</time>
      </trkpt>
      <trkpt lat="46.78152" lon="5.61595">
        <ele>360.4</ele>
        <time>2019-11-21T11:56:41Z</time>
      </trkpt>
      <trkpt lat="46.78148" lon="5.6159">
        <ele>360.6</ele>
        <time>2019-11-21T11:56:45Z</time>
      </trkpt>
      <trkpt lat="46.78144" lon="5.61585">
        <ele>360.7</ele>
        <time>2019-11-21T11:56:50Z</time>
      </trkpt>
      <trkpt lat="46.78136" lon="5.61569">
        <ele>361.7</ele>
        <time>2019-11-21T11:57:04Z</time>
      </trkpt>
      <trkpt lat="46.78133" lon="5.61562">
        <ele>362.1</ele>
        <time>2019-11-21T11:57:09Z</time>
      </trkpt>
      <trkpt lat="46.7813" lon="5.61557">
        <ele>362.8</ele>
        <time>2019-11-21T11:57:14Z</time>
      </trkpt>
      <trkpt lat="46.78127" lon="5.61551">
        <ele>363.4</ele>
        <time>2019-11-21T11:57:20Z</time>
      </trkpt>
      <trkpt lat="46.78125" lon="5.61545">
        <ele>363.7</ele>
        <time>2019-11-21T11:57:26Z</time>
      </trkpt>
      <trkpt lat="46.78121" lon="5.6154">
        <ele>364</ele>
        <time>2019-11-21T11:57:30Z</time>
      </trkpt>
      <trkpt lat="46.78118" lon="5.61535">
        <ele>364.5</ele>
        <time>2019-11-21T11:57:35Z</time>
      </trkpt>
      <trkpt lat="46.78114" lon="5.61531">
        <ele>364.8</ele>
        <time>2019-11-21T11:57:39Z</time>
      </trkpt>
      <trkpt lat="46.7811" lon="5.61527">
        <ele>365.1</ele>
        <time>2019-11-21T11:57:44Z</time>
      </trkpt>
      <trkpt lat="46.78106" lon="5.61522">
        <ele>365</ele>
        <time>2019-11-21T11:57:50Z</time>
      </trkpt>
      <trkpt lat="46.78102" lon="5.61519">
        <ele>365</ele>
        <time>2019-11-21T11:57:55Z</time>
      </trkpt>
      <trkpt lat="46.78098" lon="5.61515">
        <ele>365.1</ele>
        <time>2019-11-21T11:58:00Z</time>
      </trkpt>
      <trkpt lat="46.78094" lon="5.61512">
        <ele>365.3</ele>
        <time>2019-11-21T11:58:06Z</time>
      </trkpt>
      <trkpt lat="46.78089" lon="5.61508">
        <ele>365.4</ele>
        <time>2019-11-21T11:58:11Z</time>
      </trkpt>
      <trkpt lat="46.78086" lon="5.61504">
        <ele>365.4</ele>
        <time>2019-11-21T11:58:16Z</time>
      </trkpt>
      <trkpt lat="46.78081" lon="5.61501">
        <ele>364.5</ele>
        <time>2019-11-21T11:58:22Z</time>
      </trkpt>
      <trkpt lat="46.78076" lon="5.61499">
        <ele>363.3</ele>
        <time>2019-11-21T11:58:27Z</time>
      </trkpt>
      <trkpt lat="46.78072" lon="5.61495">
        <ele>361.9</ele>
        <time>2019-11-21T11:58:32Z</time>
      </trkpt>
      <trkpt lat="46.78068" lon="5.61492">
        <ele>359.9</ele>
        <time>2019-11-21T11:58:38Z</time>
      </trkpt>
      <trkpt lat="46.78062" lon="5.6149">
        <ele>356.6</ele>
        <time>2019-11-21T11:58:46Z</time>
      </trkpt>
      <trkpt lat="46.78057" lon="5.61491">
        <ele>355.2</ele>
        <time>2019-11-21T11:58:50Z</time>
      </trkpt>
      <trkpt lat="46.78052" lon="5.61492">
        <ele>354.4</ele>
        <time>2019-11-21T11:58:53Z</time>
      </trkpt>
      <trkpt lat="46.78048" lon="5.61493">
        <ele>353.9</ele>
        <time>2019-11-21T11:58:56Z</time>
      </trkpt>
      <trkpt lat="46.78043" lon="5.61494">
        <ele>353.6</ele>
        <time>2019-11-21T11:59:00Z</time>
      </trkpt>
      <trkpt lat="46.78038" lon="5.61495">
        <ele>353.3</ele>
        <time>2019-11-21T11:59:05Z</time>
      </trkpt>
      <trkpt lat="46.78033" lon="5.61495">
        <ele>352.9</ele>
        <time>2019-11-21T11:59:10Z</time>
      </trkpt>
      <trkpt lat="46.78028" lon="5.61494">
        <ele>352.5</ele>
        <time>2019-11-21T11:59:15Z</time>
      </trkpt>
      <trkpt lat="46.78023" lon="5.61492">
        <ele>352.1</ele>
        <time>2019-11-21T11:59:20Z</time>
      </trkpt>
      <trkpt lat="46.78018" lon="5.61492">
        <ele>352.1</ele>
        <time>2019-11-21T11:59:24Z</time>
      </trkpt>
      <trkpt lat="46.78014" lon="5.61493">
        <ele>352.1</ele>
        <time>2019-11-21T11:59:28Z</time>
      </trkpt>
      <trkpt lat="46.78008" lon="5.61492">
        <ele>352.1</ele>
        <time>2019-11-21T11:59:33Z</time>
      </trkpt>
      <trkpt lat="46.78004" lon="5.6149">
        <ele>351.9</ele>
        <time>2019-11-21T11:59:40Z</time>
      </trkpt>
      <trkpt lat="46.77999" lon="5.6149">
        <ele>351.6</ele>
        <time>2019-11-21T11:59:49Z</time>
      </trkpt>
      <trkpt lat="46.77994" lon="5.61487">
        <ele>351</ele>
        <time>2019-11-21T11:59:56Z</time>
      </trkpt>
      <trkpt lat="46.77989" lon="5.61484">
        <ele>350.4</ele>
        <time>2019-11-21T12:00:02Z</time>
      </trkpt>
      <trkpt lat="46.77985" lon="5.61482">
        <ele>349.9</ele>
        <time>2019-11-21T12:00:07Z</time>
      </trkpt>
      <trkpt lat="46.7798" lon="5.61483">
        <ele>349.7</ele>
        <time>2019-11-21T12:00:12Z</time>
      </trkpt>
      <trkpt lat="46.77975" lon="5.61485">
        <ele>350</ele>
        <time>2019-11-21T12:00:17Z</time>
      </trkpt>
      <trkpt lat="46.7797" lon="5.61485">
        <ele>350.2</ele>
        <time>2019-11-21T12:00:24Z</time>
      </trkpt>
      <trkpt lat="46.77965" lon="5.61485">
        <ele>350.1</ele>
        <time>2019-11-21T12:00:29Z</time>
      </trkpt>
      <trkpt lat="46.77959" lon="5.61483">
        <ele>350</ele>
        <time>2019-11-21T12:00:34Z</time>
      </trkpt>
      <trkpt lat="46.77955" lon="5.61481">
        <ele>350</ele>
        <time>2019-11-21T12:00:38Z</time>
      </trkpt>
      <trkpt lat="46.7795" lon="5.61477">
        <ele>350.1</ele>
        <time>2019-11-21T12:00:42Z</time>
      </trkpt>
      <trkpt lat="46.77946" lon="5.61473">
        <ele>350.3</ele>
        <time>2019-11-21T12:00:47Z</time>
      </trkpt>
      <trkpt lat="46.77941" lon="5.61469">
        <ele>350.6</ele>
        <time>2019-11-21T12:00:52Z</time>
      </trkpt>
      <trkpt lat="46.77937" lon="5.61466">
        <ele>351</ele>
        <time>2019-11-21T12:00:57Z</time>
      </trkpt>
      <trkpt lat="46.77932" lon="5.61462">
        <ele>351.5</ele>
        <time>2019-11-21T12:01:02Z</time>
      </trkpt>
      <trkpt lat="46.77933" lon="5.61456">
        <ele>352.4</ele>
        <time>2019-11-21T12:01:18Z</time>
      </trkpt>
      <trkpt lat="46.77928" lon="5.61452">
        <ele>351.3</ele>
        <time>2019-11-21T12:01:30Z</time>
      </trkpt>
      <trkpt lat="46.77923" lon="5.61451">
        <ele>350.3</ele>
        <time>2019-11-21T12:01:34Z</time>
      </trkpt>
      <trkpt lat="46.77917" lon="5.61451">
        <ele>349.2</ele>
        <time>2019-11-21T12:01:42Z</time>
      </trkpt>
      <trkpt lat="46.77912" lon="5.61451">
        <ele>348.9</ele>
        <time>2019-11-21T12:01:49Z</time>
      </trkpt>
      <trkpt lat="46.77907" lon="5.61452">
        <ele>348.9</ele>
        <time>2019-11-21T12:01:53Z</time>
      </trkpt>
      <trkpt lat="46.77902" lon="5.61453">
        <ele>349.1</ele>
        <time>2019-11-21T12:01:58Z</time>
      </trkpt>
      <trkpt lat="46.77898" lon="5.61452">
        <ele>349</ele>
        <time>2019-11-21T12:02:03Z</time>
      </trkpt>
      <trkpt lat="46.77893" lon="5.61452">
        <ele>349</ele>
        <time>2019-11-21T12:02:07Z</time>
      </trkpt>
      <trkpt lat="46.77888" lon="5.61451">
        <ele>349.3</ele>
        <time>2019-11-21T12:02:12Z</time>
      </trkpt>
      <trkpt lat="46.77883" lon="5.61449">
        <ele>349.9</ele>
        <time>2019-11-21T12:02:16Z</time>
      </trkpt>
      <trkpt lat="46.77878" lon="5.61447">
        <ele>350.9</ele>
        <time>2019-11-21T12:02:20Z</time>
      </trkpt>
      <trkpt lat="46.77866" lon="5.61439">
        <ele>354.4</ele>
        <time>2019-11-21T12:02:30Z</time>
      </trkpt>
      <trkpt lat="46.77861" lon="5.61436">
        <ele>354.8</ele>
        <time>2019-11-21T12:02:34Z</time>
      </trkpt>
      <trkpt lat="46.77857" lon="5.61434">
        <ele>355.6</ele>
        <time>2019-11-21T12:02:40Z</time>
      </trkpt>
      <trkpt lat="46.77852" lon="5.61432">
        <ele>356.2</ele>
        <time>2019-11-21T12:02:45Z</time>
      </trkpt>
      <trkpt lat="46.77848" lon="5.61429">
        <ele>356.6</ele>
        <time>2019-11-21T12:02:49Z</time>
      </trkpt>
      <trkpt lat="46.77843" lon="5.61427">
        <ele>357</ele>
        <time>2019-11-21T12:02:54Z</time>
      </trkpt>
      <trkpt lat="46.77839" lon="5.61423">
        <ele>357.5</ele>
        <time>2019-11-21T12:02:59Z</time>
      </trkpt>
      <trkpt lat="46.77834" lon="5.61418">
        <ele>357.9</ele>
        <time>2019-11-21T12:03:03Z</time>
      </trkpt>
      <trkpt lat="46.77831" lon="5.61414">
        <ele>358.4</ele>
        <time>2019-11-21T12:03:07Z</time>
      </trkpt>
      <trkpt lat="46.77826" lon="5.6141">
        <ele>358.9</ele>
        <time>2019-11-21T12:03:12Z</time>
      </trkpt>
      <trkpt lat="46.77821" lon="5.61407">
        <ele>359.2</ele>
        <time>2019-11-21T12:03:16Z</time>
      </trkpt>
      <trkpt lat="46.77816" lon="5.61407">
        <ele>359.2</ele>
        <time>2019-11-21T12:03:21Z</time>
      </trkpt>
      <trkpt lat="46.77811" lon="5.61406">
        <ele>358.6</ele>
        <time>2019-11-21T12:03:27Z</time>
      </trkpt>
      <trkpt lat="46.77806" lon="5.61403">
        <ele>358.1</ele>
        <time>2019-11-21T12:03:31Z</time>
      </trkpt>
      <trkpt lat="46.77802" lon="5.61402">
        <ele>357.5</ele>
        <time>2019-11-21T12:03:36Z</time>
      </trkpt>
      <trkpt lat="46.77797" lon="5.61399">
        <ele>357</ele>
        <time>2019-11-21T12:03:41Z</time>
      </trkpt>
      <trkpt lat="46.77793" lon="5.61394">
        <ele>357</ele>
        <time>2019-11-21T12:03:46Z</time>
      </trkpt>
      <trkpt lat="46.7779" lon="5.61388">
        <ele>357.2</ele>
        <time>2019-11-21T12:03:50Z</time>
      </trkpt>
      <trkpt lat="46.77786" lon="5.61383">
        <ele>357.3</ele>
        <time>2019-11-21T12:03:54Z</time>
      </trkpt>
      <trkpt lat="46.77782" lon="5.61381">
        <ele>356.9</ele>
        <time>2019-11-21T12:04:00Z</time>
      </trkpt>
      <trkpt lat="46.77777" lon="5.61378">
        <ele>356.5</ele>
        <time>2019-11-21T12:04:05Z</time>
      </trkpt>
      <trkpt lat="46.77773" lon="5.61374">
        <ele>356.2</ele>
        <time>2019-11-21T12:04:09Z</time>
      </trkpt>
      <trkpt lat="46.77769" lon="5.61371">
        <ele>355.8</ele>
        <time>2019-11-21T12:04:13Z</time>
      </trkpt>
      <trkpt lat="46.77765" lon="5.61367">
        <ele>355.1</ele>
        <time>2019-11-21T12:04:18Z</time>
      </trkpt>
      <trkpt lat="46.77761" lon="5.61362">
        <ele>354.3</ele>
        <time>2019-11-21T12:04:23Z</time>
      </trkpt>
      <trkpt lat="46.77752" lon="5.61353">
        <ele>353.4</ele>
        <time>2019-11-21T12:04:33Z</time>
      </trkpt>
      <trkpt lat="46.77748" lon="5.6135">
        <ele>353.3</ele>
        <time>2019-11-21T12:04:37Z</time>
      </trkpt>
      <trkpt lat="46.77743" lon="5.61347">
        <ele>353</ele>
        <time>2019-11-21T12:04:42Z</time>
      </trkpt>
      <trkpt lat="46.77739" lon="5.61345">
        <ele>352.6</ele>
        <time>2019-11-21T12:04:46Z</time>
      </trkpt>
      <trkpt lat="46.77734" lon="5.61343">
        <ele>352.4</ele>
        <time>2019-11-21T12:04:50Z</time>
      </trkpt>
      <trkpt lat="46.7773" lon="5.61341">
        <ele>352.1</ele>
        <time>2019-11-21T12:04:54Z</time>
      </trkpt>
      <trkpt lat="46.77725" lon="5.61338">
        <ele>351.4</ele>
        <time>2019-11-21T12:05:00Z</time>
      </trkpt>
      <trkpt lat="46.77721" lon="5.61335">
        <ele>350.5</ele>
        <time>2019-11-21T12:05:06Z</time>
      </trkpt>
      <trkpt lat="46.77717" lon="5.61328">
        <ele>349.6</ele>
        <time>2019-11-21T12:05:12Z</time>
      </trkpt>
      <trkpt lat="46.77715" lon="5.61321">
        <ele>349.4</ele>
        <time>2019-11-21T12:05:16Z</time>
      </trkpt>
      <trkpt lat="46.77712" lon="5.61315">
        <ele>349.4</ele>
        <time>2019-11-21T12:05:19Z</time>
      </trkpt>
      <trkpt lat="46.7771" lon="5.61309">
        <ele>349.5</ele>
        <time>2019-11-21T12:05:23Z</time>
      </trkpt>
      <trkpt lat="46.77706" lon="5.61304">
        <ele>349.1</ele>
        <time>2019-11-21T12:05:28Z</time>
      </trkpt>
      <trkpt lat="46.77702" lon="5.61299">
        <ele>348.3</ele>
        <time>2019-11-21T12:05:34Z</time>
      </trkpt>
      <trkpt lat="46.77697" lon="5.61295">
        <ele>347.3</ele>
        <time>2019-11-21T12:05:39Z</time>
      </trkpt>
      <trkpt lat="46.77693" lon="5.61291">
        <ele>346.3</ele>
        <time>2019-11-21T12:05:43Z</time>
      </trkpt>
      <trkpt lat="46.77689" lon="5.61287">
        <ele>345.2</ele>
        <time>2019-11-21T12:05:47Z</time>
      </trkpt>
      <trkpt lat="46.77686" lon="5.61282">
        <ele>343.8</ele>
        <time>2019-11-21T12:05:53Z</time>
      </trkpt>
      <trkpt lat="46.77681" lon="5.61279">
        <ele>343.1</ele>
        <time>2019-11-21T12:05:59Z</time>
      </trkpt>
      <trkpt lat="46.77676" lon="5.61276">
        <ele>342.6</ele>
        <time>2019-11-21T12:06:04Z</time>
      </trkpt>
      <trkpt lat="46.77671" lon="5.61274">
        <ele>342</ele>
        <time>2019-11-21T12:06:10Z</time>
      </trkpt>
      <trkpt lat="46.77666" lon="5.61271">
        <ele>341.6</ele>
        <time>2019-11-21T12:06:14Z</time>
      </trkpt>
      <trkpt lat="46.77662" lon="5.61268">
        <ele>341.3</ele>
        <time>2019-11-21T12:06:17Z</time>
      </trkpt>
      <trkpt lat="46.77658" lon="5.61266">
        <ele>341.1</ele>
        <time>2019-11-21T12:06:21Z</time>
      </trkpt>
      <trkpt lat="46.77652" lon="5.61266">
        <ele>340.7</ele>
        <time>2019-11-21T12:06:27Z</time>
      </trkpt>
      <trkpt lat="46.77647" lon="5.61264">
        <ele>340.2</ele>
        <time>2019-11-21T12:06:33Z</time>
      </trkpt>
      <trkpt lat="46.77643" lon="5.61263">
        <ele>339.7</ele>
        <time>2019-11-21T12:06:38Z</time>
      </trkpt>
      <trkpt lat="46.77637" lon="5.61262">
        <ele>339.3</ele>
        <time>2019-11-21T12:06:42Z</time>
      </trkpt>
      <trkpt lat="46.77632" lon="5.61261">
        <ele>339.1</ele>
        <time>2019-11-21T12:06:46Z</time>
      </trkpt>
      <trkpt lat="46.77627" lon="5.6126">
        <ele>338.9</ele>
        <time>2019-11-21T12:06:51Z</time>
      </trkpt>
      <trkpt lat="46.77623" lon="5.61258">
        <ele>338.7</ele>
        <time>2019-11-21T12:06:55Z</time>
      </trkpt>
      <trkpt lat="46.77618" lon="5.61256">
        <ele>338.2</ele>
        <time>2019-11-21T12:07:00Z</time>
      </trkpt>
      <trkpt lat="46.77613" lon="5.61253">
        <ele>337.7</ele>
        <time>2019-11-21T12:07:06Z</time>
      </trkpt>
      <trkpt lat="46.77609" lon="5.61248">
        <ele>337.3</ele>
        <time>2019-11-21T12:07:11Z</time>
      </trkpt>
      <trkpt lat="46.77605" lon="5.61244">
        <ele>336.4</ele>
        <time>2019-11-21T12:07:17Z</time>
      </trkpt>
      <trkpt lat="46.77601" lon="5.61239">
        <ele>335.5</ele>
        <time>2019-11-21T12:07:23Z</time>
      </trkpt>
      <trkpt lat="46.77596" lon="5.61236">
        <ele>335.1</ele>
        <time>2019-11-21T12:07:28Z</time>
      </trkpt>
      <trkpt lat="46.77591" lon="5.61233">
        <ele>334.8</ele>
        <time>2019-11-21T12:07:32Z</time>
      </trkpt>
      <trkpt lat="46.77587" lon="5.6123">
        <ele>334.6</ele>
        <time>2019-11-21T12:07:35Z</time>
      </trkpt>
      <trkpt lat="46.77582" lon="5.61227">
        <ele>334.3</ele>
        <time>2019-11-21T12:07:39Z</time>
      </trkpt>
      <trkpt lat="46.77577" lon="5.61223">
        <ele>334.1</ele>
        <time>2019-11-21T12:07:43Z</time>
      </trkpt>
      <trkpt lat="46.77573" lon="5.61219">
        <ele>334.2</ele>
        <time>2019-11-21T12:07:48Z</time>
      </trkpt>
      <trkpt lat="46.77569" lon="5.61215">
        <ele>334.3</ele>
        <time>2019-11-21T12:07:53Z</time>
      </trkpt>
      <trkpt lat="46.77565" lon="5.61211">
        <ele>333.9</ele>
        <time>2019-11-21T12:08:00Z</time>
      </trkpt>
      <trkpt lat="46.77561" lon="5.61208">
        <ele>333.6</ele>
        <time>2019-11-21T12:08:05Z</time>
      </trkpt>
      <trkpt lat="46.77556" lon="5.61206">
        <ele>333.6</ele>
        <time>2019-11-21T12:08:08Z</time>
      </trkpt>
      <trkpt lat="46.77551" lon="5.61202">
        <ele>333.7</ele>
        <time>2019-11-21T12:08:12Z</time>
      </trkpt>
      <trkpt lat="46.77547" lon="5.61198">
        <ele>333.9</ele>
        <time>2019-11-21T12:08:16Z</time>
      </trkpt>
      <trkpt lat="46.77542" lon="5.61195">
        <ele>333.6</ele>
        <time>2019-11-21T12:08:22Z</time>
      </trkpt>
      <trkpt lat="46.77538" lon="5.61191">
        <ele>333</ele>
        <time>2019-11-21T12:08:26Z</time>
      </trkpt>
      <trkpt lat="46.77529" lon="5.61183">
        <ele>329.6</ele>
        <time>2019-11-21T12:08:38Z</time>
      </trkpt>
      <trkpt lat="46.77524" lon="5.61181">
        <ele>328.7</ele>
        <time>2019-11-21T12:08:43Z</time>
      </trkpt>
      <trkpt lat="46.77519" lon="5.6118">
        <ele>327.9</ele>
        <time>2019-11-21T12:08:48Z</time>
      </trkpt>
      <trkpt lat="46.77515" lon="5.61175">
        <ele>327.5</ele>
        <time>2019-11-21T12:08:52Z</time>
      </trkpt>
      <trkpt lat="46.77511" lon="5.61171">
        <ele>327.5</ele>
        <time>2019-11-21T12:08:55Z</time>
      </trkpt>
      <trkpt lat="46.77508" lon="5.61166">
        <ele>327.6</ele>
        <time>2019-11-21T12:08:59Z</time>
      </trkpt>
      <trkpt lat="46.77504" lon="5.6116">
        <ele>328.1</ele>
        <time>2019-11-21T12:09:04Z</time>
      </trkpt>
      <trkpt lat="46.77499" lon="5.61156">
        <ele>328.6</ele>
        <time>2019-11-21T12:09:08Z</time>
      </trkpt>
      <trkpt lat="46.77495" lon="5.61152">
        <ele>328.8</ele>
        <time>2019-11-21T12:09:12Z</time>
      </trkpt>
      <trkpt lat="46.77492" lon="5.61147">
        <ele>328.4</ele>
        <time>2019-11-21T12:09:18Z</time>
      </trkpt>
      <trkpt lat="46.77488" lon="5.61143">
        <ele>327.6</ele>
        <time>2019-11-21T12:09:23Z</time>
      </trkpt>
      <trkpt lat="46.77485" lon="5.61138">
        <ele>326.2</ele>
        <time>2019-11-21T12:09:28Z</time>
      </trkpt>
      <trkpt lat="46.77482" lon="5.61132">
        <ele>324.9</ele>
        <time>2019-11-21T12:09:32Z</time>
      </trkpt>
      <trkpt lat="46.77479" lon="5.61126">
        <ele>323.7</ele>
        <time>2019-11-21T12:09:37Z</time>
      </trkpt>
      <trkpt lat="46.77476" lon="5.61121">
        <ele>322.5</ele>
        <time>2019-11-21T12:09:44Z</time>
      </trkpt>
      <trkpt lat="46.77471" lon="5.61118">
        <ele>322.1</ele>
        <time>2019-11-21T12:09:48Z</time>
      </trkpt>
      <trkpt lat="46.77467" lon="5.61115">
        <ele>322</ele>
        <time>2019-11-21T12:09:52Z</time>
      </trkpt>
      <trkpt lat="46.77462" lon="5.61112">
        <ele>322.2</ele>
        <time>2019-11-21T12:09:56Z</time>
      </trkpt>
      <trkpt lat="46.77457" lon="5.61112">
        <ele>322.5</ele>
        <time>2019-11-21T12:09:59Z</time>
      </trkpt>
      <trkpt lat="46.77451" lon="5.61113">
        <ele>323</ele>
        <time>2019-11-21T12:10:02Z</time>
      </trkpt>
      <trkpt lat="46.77446" lon="5.61113">
        <ele>323.5</ele>
        <time>2019-11-21T12:10:05Z</time>
      </trkpt>
      <trkpt lat="46.77441" lon="5.61114">
        <ele>324.4</ele>
        <time>2019-11-21T12:10:11Z</time>
      </trkpt>
      <trkpt lat="46.77436" lon="5.61117">
        <ele>324.8</ele>
        <time>2019-11-21T12:10:16Z</time>
      </trkpt>
      <trkpt lat="46.77431" lon="5.61116">
        <ele>325</ele>
        <time>2019-11-21T12:10:20Z</time>
      </trkpt>
      <trkpt lat="46.77427" lon="5.61112">
        <ele>325.3</ele>
        <time>2019-11-21T12:10:24Z</time>
      </trkpt>
      <trkpt lat="46.77422" lon="5.61108">
        <ele>325.7</ele>
        <time>2019-11-21T12:10:29Z</time>
      </trkpt>
      <trkpt lat="46.77418" lon="5.61104">
        <ele>326.1</ele>
        <time>2019-11-21T12:10:35Z</time>
      </trkpt>
      <trkpt lat="46.77414" lon="5.611">
        <ele>326.2</ele>
        <time>2019-11-21T12:10:40Z</time>
      </trkpt>
      <trkpt lat="46.7741" lon="5.61096">
        <ele>326.2</ele>
        <time>2019-11-21T12:10:44Z</time>
      </trkpt>
      <trkpt lat="46.77406" lon="5.61094">
        <ele>326.2</ele>
        <time>2019-11-21T12:10:49Z</time>
      </trkpt>
      <trkpt lat="46.774" lon="5.61091">
        <ele>326</ele>
        <time>2019-11-21T12:10:54Z</time>
      </trkpt>
      <trkpt lat="46.77396" lon="5.61089">
        <ele>325.8</ele>
        <time>2019-11-21T12:10:58Z</time>
      </trkpt>
      <trkpt lat="46.77391" lon="5.61086">
        <ele>325.8</ele>
        <time>2019-11-21T12:11:02Z</time>
      </trkpt>
      <trkpt lat="46.77386" lon="5.61082">
        <ele>326.1</ele>
        <time>2019-11-21T12:11:07Z</time>
      </trkpt>
      <trkpt lat="46.77382" lon="5.61078">
        <ele>326.5</ele>
        <time>2019-11-21T12:11:11Z</time>
      </trkpt>
      <trkpt lat="46.77378" lon="5.61075">
        <ele>326.8</ele>
        <time>2019-11-21T12:11:15Z</time>
      </trkpt>
      <trkpt lat="46.77368" lon="5.61068">
        <ele>325.7</ele>
        <time>2019-11-21T12:11:30Z</time>
      </trkpt>
      <trkpt lat="46.77363" lon="5.61064">
        <ele>325.3</ele>
        <time>2019-11-21T12:11:37Z</time>
      </trkpt>
      <trkpt lat="46.7736" lon="5.61057">
        <ele>325.2</ele>
        <time>2019-11-21T12:11:41Z</time>
      </trkpt>
      <trkpt lat="46.77356" lon="5.61051">
        <ele>325.3</ele>
        <time>2019-11-21T12:11:45Z</time>
      </trkpt>
      <trkpt lat="46.77352" lon="5.61046">
        <ele>325.3</ele>
        <time>2019-11-21T12:11:51Z</time>
      </trkpt>
      <trkpt lat="46.77348" lon="5.61042">
        <ele>325.3</ele>
        <time>2019-11-21T12:11:56Z</time>
      </trkpt>
      <trkpt lat="46.77343" lon="5.61038">
        <ele>325.2</ele>
        <time>2019-11-21T12:12:01Z</time>
      </trkpt>
      <trkpt lat="46.7734" lon="5.61032">
        <ele>325.1</ele>
        <time>2019-11-21T12:12:05Z</time>
      </trkpt>
      <trkpt lat="46.77337" lon="5.61027">
        <ele>325.1</ele>
        <time>2019-11-21T12:12:10Z</time>
      </trkpt>
      <trkpt lat="46.77334" lon="5.61022">
        <ele>325.2</ele>
        <time>2019-11-21T12:12:14Z</time>
      </trkpt>
      <trkpt lat="46.7733" lon="5.61017">
        <ele>325.4</ele>
        <time>2019-11-21T12:12:18Z</time>
      </trkpt>
      <trkpt lat="46.77325" lon="5.61014">
        <ele>325.7</ele>
        <time>2019-11-21T12:12:22Z</time>
      </trkpt>
      <trkpt lat="46.7732" lon="5.61011">
        <ele>326.1</ele>
        <time>2019-11-21T12:12:26Z</time>
      </trkpt>
      <trkpt lat="46.77316" lon="5.61009">
        <ele>326.5</ele>
        <time>2019-11-21T12:12:31Z</time>
      </trkpt>
      <trkpt lat="46.77311" lon="5.61008">
        <ele>326.7</ele>
        <time>2019-11-21T12:12:38Z</time>
      </trkpt>
      <trkpt lat="46.77307" lon="5.61003">
        <ele>326.7</ele>
        <time>2019-11-21T12:12:43Z</time>
      </trkpt>
      <trkpt lat="46.77304" lon="5.60998">
        <ele>326.7</ele>
        <time>2019-11-21T12:12:47Z</time>
      </trkpt>
      <trkpt lat="46.773" lon="5.60991">
        <ele>326.7</ele>
        <time>2019-11-21T12:12:51Z</time>
      </trkpt>
      <trkpt lat="46.77289" lon="5.60976">
        <ele>326.9</ele>
        <time>2019-11-21T12:13:04Z</time>
      </trkpt>
      <trkpt lat="46.77286" lon="5.60971">
        <ele>326.6</ele>
        <time>2019-11-21T12:13:09Z</time>
      </trkpt>
      <trkpt lat="46.77283" lon="5.60966">
        <ele>324.8</ele>
        <time>2019-11-21T12:13:24Z</time>
      </trkpt>
      <trkpt lat="46.7728" lon="5.6096">
        <ele>324.5</ele>
        <time>2019-11-21T12:13:27Z</time>
      </trkpt>
      <trkpt lat="46.77277" lon="5.60954">
        <ele>324.2</ele>
        <time>2019-11-21T12:13:30Z</time>
      </trkpt>
      <trkpt lat="46.77269" lon="5.60943">
        <ele>323</ele>
        <time>2019-11-21T12:13:39Z</time>
      </trkpt>
      <trkpt lat="46.77261" lon="5.60927">
        <ele>322.6</ele>
        <time>2019-11-21T12:13:50Z</time>
      </trkpt>
      <trkpt lat="46.77258" lon="5.6092">
        <ele>322.5</ele>
        <time>2019-11-21T12:13:55Z</time>
      </trkpt>
      <trkpt lat="46.77255" lon="5.60914">
        <ele>322.4</ele>
        <time>2019-11-21T12:13:59Z</time>
      </trkpt>
      <trkpt lat="46.77252" lon="5.60907">
        <ele>322.3</ele>
        <time>2019-11-21T12:14:03Z</time>
      </trkpt>
      <trkpt lat="46.77249" lon="5.60901">
        <ele>322.2</ele>
        <time>2019-11-21T12:14:06Z</time>
      </trkpt>
      <trkpt lat="46.77247" lon="5.60895">
        <ele>322.1</ele>
        <time>2019-11-21T12:14:09Z</time>
      </trkpt>
      <trkpt lat="46.77244" lon="5.6089">
        <ele>322.1</ele>
        <time>2019-11-21T12:14:13Z</time>
      </trkpt>
      <trkpt lat="46.77241" lon="5.60884">
        <ele>322.1</ele>
        <time>2019-11-21T12:14:17Z</time>
      </trkpt>
      <trkpt lat="46.7723" lon="5.60862">
        <ele>323.2</ele>
        <time>2019-11-21T12:14:42Z</time>
      </trkpt>
      <trkpt lat="46.77226" lon="5.60858">
        <ele>322.7</ele>
        <time>2019-11-21T12:14:47Z</time>
      </trkpt>
      <trkpt lat="46.77223" lon="5.60852">
        <ele>322.6</ele>
        <time>2019-11-21T12:14:51Z</time>
      </trkpt>
      <trkpt lat="46.7722" lon="5.60846">
        <ele>322.5</ele>
        <time>2019-11-21T12:14:54Z</time>
      </trkpt>
      <trkpt lat="46.77216" lon="5.60841">
        <ele>322.3</ele>
        <time>2019-11-21T12:14:57Z</time>
      </trkpt>
      <trkpt lat="46.77213" lon="5.60835">
        <ele>322.1</ele>
        <time>2019-11-21T12:15:01Z</time>
      </trkpt>
      <trkpt lat="46.7721" lon="5.60829">
        <ele>321.7</ele>
        <time>2019-11-21T12:15:06Z</time>
      </trkpt>
      <trkpt lat="46.7721" lon="5.60822">
        <ele>320.5</ele>
        <time>2019-11-21T12:15:12Z</time>
      </trkpt>
      <trkpt lat="46.77208" lon="5.60816">
        <ele>319.3</ele>
        <time>2019-11-21T12:15:17Z</time>
      </trkpt>
      <trkpt lat="46.77206" lon="5.6081">
        <ele>318.3</ele>
        <time>2019-11-21T12:15:21Z</time>
      </trkpt>
      <trkpt lat="46.77202" lon="5.60804">
        <ele>316.9</ele>
        <time>2019-11-21T12:15:26Z</time>
      </trkpt>
      <trkpt lat="46.77197" lon="5.60799">
        <ele>315.9</ele>
        <time>2019-11-21T12:15:31Z</time>
      </trkpt>
      <trkpt lat="46.77193" lon="5.60795">
        <ele>314.7</ele>
        <time>2019-11-21T12:15:37Z</time>
      </trkpt>
      <trkpt lat="46.7719" lon="5.60792">
        <ele>313.2</ele>
        <time>2019-11-21T12:15:47Z</time>
      </trkpt>
      <trkpt lat="46.77184" lon="5.60783">
        <ele>316.9</ele>
        <time>2019-11-21T12:16:59Z</time>
      </trkpt>
      <trkpt lat="46.77183" lon="5.60776">
        <ele>315.6</ele>
        <time>2019-11-21T12:17:07Z</time>
      </trkpt>
      <trkpt lat="46.77175" lon="5.60759">
        <ele>310.6</ele>
        <time>2019-11-21T12:17:35Z</time>
      </trkpt>
      <trkpt lat="46.77173" lon="5.60753">
        <ele>310.2</ele>
        <time>2019-11-21T12:17:41Z</time>
      </trkpt>
      <trkpt lat="46.77164" lon="5.60741">
        <ele>316</ele>
        <time>2019-11-21T12:18:09Z</time>
      </trkpt>
      <trkpt lat="46.77159" lon="5.60735">
        <ele>316.3</ele>
        <time>2019-11-21T12:18:12Z</time>
      </trkpt>
      <trkpt lat="46.77154" lon="5.6073">
        <ele>316.7</ele>
        <time>2019-11-21T12:18:15Z</time>
      </trkpt>
      <trkpt lat="46.77152" lon="5.60725">
        <ele>316.9</ele>
        <time>2019-11-21T12:18:19Z</time>
      </trkpt>
      <trkpt lat="46.7715" lon="5.60704">
        <ele>319.8</ele>
        <time>2019-11-21T12:19:04Z</time>
      </trkpt>
      <trkpt lat="46.7715" lon="5.6069">
        <ele>320.5</ele>
        <time>2019-11-21T12:19:28Z</time>
      </trkpt>
      <trkpt lat="46.77149" lon="5.6067">
        <ele>320.9</ele>
        <time>2019-11-21T12:19:45Z</time>
      </trkpt>
      <trkpt lat="46.77148" lon="5.60663">
        <ele>320.7</ele>
        <time>2019-11-21T12:19:49Z</time>
      </trkpt>
      <trkpt lat="46.77146" lon="5.60657">
        <ele>317.6</ele>
        <time>2019-11-21T12:20:04Z</time>
      </trkpt>
      <trkpt lat="46.77141" lon="5.60657">
        <ele>314.6</ele>
        <time>2019-11-21T12:20:15Z</time>
      </trkpt>
      <trkpt lat="46.77143" lon="5.60639">
        <ele>308.6</ele>
        <time>2019-11-21T12:20:56Z</time>
      </trkpt>
      <trkpt lat="46.77153" lon="5.60599">
        <ele>306.3</ele>
        <time>2019-11-21T12:21:24Z</time>
      </trkpt>
      <trkpt lat="46.77153" lon="5.60592">
        <ele>301.4</ele>
        <time>2019-11-21T12:21:40Z</time>
      </trkpt>
      <trkpt lat="46.7715" lon="5.60585">
        <ele>300.3</ele>
        <time>2019-11-21T12:21:44Z</time>
      </trkpt>
      <trkpt lat="46.77147" lon="5.60579">
        <ele>299.2</ele>
        <time>2019-11-21T12:21:48Z</time>
      </trkpt>
      <trkpt lat="46.77144" lon="5.60574">
        <ele>298.1</ele>
        <time>2019-11-21T12:21:53Z</time>
      </trkpt>
      <trkpt lat="46.7714" lon="5.6057">
        <ele>297.1</ele>
        <time>2019-11-21T12:21:58Z</time>
      </trkpt>
      <trkpt lat="46.77136" lon="5.60566">
        <ele>296.5</ele>
        <time>2019-11-21T12:22:03Z</time>
      </trkpt>
      <trkpt lat="46.77131" lon="5.60563">
        <ele>295.9</ele>
        <time>2019-11-21T12:22:09Z</time>
      </trkpt>
      <trkpt lat="46.77123" lon="5.60546">
        <ele>294.8</ele>
        <time>2019-11-21T12:22:23Z</time>
      </trkpt>
      <trkpt lat="46.77123" lon="5.60537">
        <ele>295</ele>
        <time>2019-11-21T12:22:25Z</time>
      </trkpt>
      <trkpt lat="46.77123" lon="5.6053">
        <ele>295.6</ele>
        <time>2019-11-21T12:22:28Z</time>
      </trkpt>
      <trkpt lat="46.77123" lon="5.60523">
        <ele>296.2</ele>
        <time>2019-11-21T12:22:31Z</time>
      </trkpt>
      <trkpt lat="46.77122" lon="5.60516">
        <ele>296.9</ele>
        <time>2019-11-21T12:22:34Z</time>
      </trkpt>
      <trkpt lat="46.77121" lon="5.60509">
        <ele>297.6</ele>
        <time>2019-11-21T12:22:37Z</time>
      </trkpt>
      <trkpt lat="46.77118" lon="5.6049">
        <ele>302.6</ele>
        <time>2019-11-21T12:22:49Z</time>
      </trkpt>
      <trkpt lat="46.77124" lon="5.60463">
        <ele>308.7</ele>
        <time>2019-11-21T12:23:11Z</time>
      </trkpt>
      <trkpt lat="46.77128" lon="5.6046">
        <ele>310.1</ele>
        <time>2019-11-21T12:23:17Z</time>
      </trkpt>
      <trkpt lat="46.77131" lon="5.60455">
        <ele>311.5</ele>
        <time>2019-11-21T12:23:22Z</time>
      </trkpt>
      <trkpt lat="46.77134" lon="5.60449">
        <ele>312.5</ele>
        <time>2019-11-21T12:23:28Z</time>
      </trkpt>
      <trkpt lat="46.77135" lon="5.60442">
        <ele>313.2</ele>
        <time>2019-11-21T12:23:33Z</time>
      </trkpt>
      <trkpt lat="46.77138" lon="5.60436">
        <ele>314</ele>
        <time>2019-11-21T12:23:39Z</time>
      </trkpt>
      <trkpt lat="46.77138" lon="5.60429">
        <ele>315.1</ele>
        <time>2019-11-21T12:23:44Z</time>
      </trkpt>
      <trkpt lat="46.77139" lon="5.60423">
        <ele>316.2</ele>
        <time>2019-11-21T12:23:48Z</time>
      </trkpt>
      <trkpt lat="46.77139" lon="5.60415">
        <ele>317.4</ele>
        <time>2019-11-21T12:23:52Z</time>
      </trkpt>
      <trkpt lat="46.77138" lon="5.60408">
        <ele>318.2</ele>
        <time>2019-11-21T12:23:55Z</time>
      </trkpt>
      <trkpt lat="46.7714" lon="5.60401">
        <ele>319.4</ele>
        <time>2019-11-21T12:24:00Z</time>
      </trkpt>
      <trkpt lat="46.77142" lon="5.60394">
        <ele>320.4</ele>
        <time>2019-11-21T12:24:05Z</time>
      </trkpt>
      <trkpt lat="46.77142" lon="5.60378">
        <ele>324.2</ele>
        <time>2019-11-21T12:24:21Z</time>
      </trkpt>
      <trkpt lat="46.77144" lon="5.6037">
        <ele>323.8</ele>
        <time>2019-11-21T12:24:25Z</time>
      </trkpt>
      <trkpt lat="46.77145" lon="5.60363">
        <ele>323.5</ele>
        <time>2019-11-21T12:24:28Z</time>
      </trkpt>
      <trkpt lat="46.77146" lon="5.60356">
        <ele>322.9</ele>
        <time>2019-11-21T12:24:33Z</time>
      </trkpt>
      <trkpt lat="46.77145" lon="5.60349">
        <ele>322.3</ele>
        <time>2019-11-21T12:24:40Z</time>
      </trkpt>
      <trkpt lat="46.77144" lon="5.60342">
        <ele>322.1</ele>
        <time>2019-11-21T12:24:46Z</time>
      </trkpt>
      <trkpt lat="46.77142" lon="5.60336">
        <ele>322.9</ele>
        <time>2019-11-21T12:24:58Z</time>
      </trkpt>
      <trkpt lat="46.77138" lon="5.60332">
        <ele>323.7</ele>
        <time>2019-11-21T12:25:04Z</time>
      </trkpt>
      <trkpt lat="46.77133" lon="5.60331">
        <ele>324.7</ele>
        <time>2019-11-21T12:25:11Z</time>
      </trkpt>
      <trkpt lat="46.77127" lon="5.60331">
        <ele>324.9</ele>
        <time>2019-11-21T12:25:16Z</time>
      </trkpt>
      <trkpt lat="46.77123" lon="5.60328">
        <ele>320.3</ele>
        <time>2019-11-21T12:25:26Z</time>
      </trkpt>
      <trkpt lat="46.77119" lon="5.60323">
        <ele>314.6</ele>
        <time>2019-11-21T12:25:34Z</time>
      </trkpt>
      <trkpt lat="46.77115" lon="5.60318">
        <ele>310.2</ele>
        <time>2019-11-21T12:25:40Z</time>
      </trkpt>
      <trkpt lat="46.77111" lon="5.60316">
        <ele>307.3</ele>
        <time>2019-11-21T12:25:44Z</time>
      </trkpt>
      <trkpt lat="46.77107" lon="5.60313">
        <ele>302.5</ele>
        <time>2019-11-21T12:25:51Z</time>
      </trkpt>
      <trkpt lat="46.77102" lon="5.60309">
        <ele>298.7</ele>
        <time>2019-11-21T12:25:57Z</time>
      </trkpt>
      <trkpt lat="46.77097" lon="5.60309">
        <ele>295.8</ele>
        <time>2019-11-21T12:26:02Z</time>
      </trkpt>
      <trkpt lat="46.77092" lon="5.60312">
        <ele>293.9</ele>
        <time>2019-11-21T12:26:06Z</time>
      </trkpt>
      <trkpt lat="46.77087" lon="5.60316">
        <ele>292.1</ele>
        <time>2019-11-21T12:26:10Z</time>
      </trkpt>
      <trkpt lat="46.77081" lon="5.60319">
        <ele>290.6</ele>
        <time>2019-11-21T12:26:14Z</time>
      </trkpt>
      <trkpt lat="46.77076" lon="5.60319">
        <ele>289.4</ele>
        <time>2019-11-21T12:26:18Z</time>
      </trkpt>
      <trkpt lat="46.77071" lon="5.60319">
        <ele>288.6</ele>
        <time>2019-11-21T12:26:22Z</time>
      </trkpt>
      <trkpt lat="46.77066" lon="5.60319">
        <ele>288</ele>
        <time>2019-11-21T12:26:26Z</time>
      </trkpt>
      <trkpt lat="46.77061" lon="5.60318">
        <ele>287.2</ele>
        <time>2019-11-21T12:26:31Z</time>
      </trkpt>
      <trkpt lat="46.77057" lon="5.60315">
        <ele>285.7</ele>
        <time>2019-11-21T12:26:37Z</time>
      </trkpt>
      <trkpt lat="46.77052" lon="5.60311">
        <ele>283.3</ele>
        <time>2019-11-21T12:26:45Z</time>
      </trkpt>
      <trkpt lat="46.77048" lon="5.60312">
        <ele>282</ele>
        <time>2019-11-21T12:26:49Z</time>
      </trkpt>
      <trkpt lat="46.77042" lon="5.60312">
        <ele>280.9</ele>
        <time>2019-11-21T12:26:53Z</time>
      </trkpt>
      <trkpt lat="46.77037" lon="5.60313">
        <ele>279.9</ele>
        <time>2019-11-21T12:26:57Z</time>
      </trkpt>
      <trkpt lat="46.77031" lon="5.60315">
        <ele>279.2</ele>
        <time>2019-11-21T12:27:01Z</time>
      </trkpt>
      <trkpt lat="46.77026" lon="5.60317">
        <ele>278.8</ele>
        <time>2019-11-21T12:27:04Z</time>
      </trkpt>
      <trkpt lat="46.77021" lon="5.60318">
        <ele>278.4</ele>
        <time>2019-11-21T12:27:08Z</time>
      </trkpt>
      <trkpt lat="46.77016" lon="5.60319">
        <ele>277.6</ele>
        <time>2019-11-21T12:27:13Z</time>
      </trkpt>
      <trkpt lat="46.77011" lon="5.6032">
        <ele>276.9</ele>
        <time>2019-11-21T12:27:17Z</time>
      </trkpt>
      <trkpt lat="46.77006" lon="5.60321">
        <ele>276.2</ele>
        <time>2019-11-21T12:27:21Z</time>
      </trkpt>
      <trkpt lat="46.77001" lon="5.60321">
        <ele>275.4</ele>
        <time>2019-11-21T12:27:25Z</time>
      </trkpt>
      <trkpt lat="46.76996" lon="5.60321">
        <ele>274.4</ele>
        <time>2019-11-21T12:27:30Z</time>
      </trkpt>
      <trkpt lat="46.76991" lon="5.60319">
        <ele>273.3</ele>
        <time>2019-11-21T12:27:35Z</time>
      </trkpt>
      <trkpt lat="46.76986" lon="5.60316">
        <ele>272.3</ele>
        <time>2019-11-21T12:27:41Z</time>
      </trkpt>
      <trkpt lat="46.76983" lon="5.60311">
        <ele>271</ele>
        <time>2019-11-21T12:27:49Z</time>
      </trkpt>
      <trkpt lat="46.76977" lon="5.60308">
        <ele>270.1</ele>
        <time>2019-11-21T12:27:53Z</time>
      </trkpt>
      <trkpt lat="46.76973" lon="5.60309">
        <ele>269.4</ele>
        <time>2019-11-21T12:27:56Z</time>
      </trkpt>
      <trkpt lat="46.76968" lon="5.6031">
        <ele>268.4</ele>
        <time>2019-11-21T12:28:00Z</time>
      </trkpt>
      <trkpt lat="46.76962" lon="5.60308">
        <ele>267.2</ele>
        <time>2019-11-21T12:28:04Z</time>
      </trkpt>
      <trkpt lat="46.76957" lon="5.60305">
        <ele>265.8</ele>
        <time>2019-11-21T12:28:09Z</time>
      </trkpt>
      <trkpt lat="46.76952" lon="5.60301">
        <ele>263.3</ele>
        <time>2019-11-21T12:28:16Z</time>
      </trkpt>
      <trkpt lat="46.76948" lon="5.60298">
        <ele>262.6</ele>
        <time>2019-11-21T12:28:18Z</time>
      </trkpt>
      <trkpt lat="46.76943" lon="5.60294">
        <ele>261.3</ele>
        <time>2019-11-21T12:28:23Z</time>
      </trkpt>
      <trkpt lat="46.76938" lon="5.6029">
        <ele>261</ele>
        <time>2019-11-21T12:28:29Z</time>
      </trkpt>
      <trkpt lat="46.76933" lon="5.60288">
        <ele>261.3</ele>
        <time>2019-11-21T12:28:34Z</time>
      </trkpt>
      <trkpt lat="46.76929" lon="5.60285">
        <ele>261.6</ele>
        <time>2019-11-21T12:28:37Z</time>
      </trkpt>
      <trkpt lat="46.76924" lon="5.60282">
        <ele>262.1</ele>
        <time>2019-11-21T12:28:41Z</time>
      </trkpt>
      <trkpt lat="46.76919" lon="5.60279">
        <ele>262.5</ele>
        <time>2019-11-21T12:28:44Z</time>
      </trkpt>
      <trkpt lat="46.76914" lon="5.60277">
        <ele>263.7</ele>
        <time>2019-11-21T12:28:49Z</time>
      </trkpt>
      <trkpt lat="46.76909" lon="5.60275">
        <ele>264.5</ele>
        <time>2019-11-21T12:28:52Z</time>
      </trkpt>
      <trkpt lat="46.76905" lon="5.60272">
        <ele>265.2</ele>
        <time>2019-11-21T12:28:55Z</time>
      </trkpt>
      <trkpt lat="46.76901" lon="5.60268">
        <ele>266</ele>
        <time>2019-11-21T12:28:58Z</time>
      </trkpt>
      <trkpt lat="46.76896" lon="5.60269">
        <ele>266.3</ele>
        <time>2019-11-21T12:29:07Z</time>
      </trkpt>
      <trkpt lat="46.76891" lon="5.60269">
        <ele>265.3</ele>
        <time>2019-11-21T12:29:12Z</time>
      </trkpt>
      <trkpt lat="46.76886" lon="5.60267">
        <ele>264</ele>
        <time>2019-11-21T12:29:17Z</time>
      </trkpt>
      <trkpt lat="46.7688" lon="5.60265">
        <ele>262.6</ele>
        <time>2019-11-21T12:29:22Z</time>
      </trkpt>
      <trkpt lat="46.76876" lon="5.60261">
        <ele>261</ele>
        <time>2019-11-21T12:29:27Z</time>
      </trkpt>
      <trkpt lat="46.76872" lon="5.60256">
        <ele>259.6</ele>
        <time>2019-11-21T12:29:32Z</time>
      </trkpt>
      <trkpt lat="46.76868" lon="5.60251">
        <ele>258.8</ele>
        <time>2019-11-21T12:29:36Z</time>
      </trkpt>
      <trkpt lat="46.76864" lon="5.60246">
        <ele>258.4</ele>
        <time>2019-11-21T12:29:40Z</time>
      </trkpt>
      <trkpt lat="46.76859" lon="5.60242">
        <ele>257.9</ele>
        <time>2019-11-21T12:29:44Z</time>
      </trkpt>
      <trkpt lat="46.76855" lon="5.60238">
        <ele>257.3</ele>
        <time>2019-11-21T12:29:48Z</time>
      </trkpt>
      <trkpt lat="46.7685" lon="5.60234">
        <ele>256.4</ele>
        <time>2019-11-21T12:29:54Z</time>
      </trkpt>
      <trkpt lat="46.76847" lon="5.6023">
        <ele>255.8</ele>
        <time>2019-11-21T12:29:58Z</time>
      </trkpt>
      <trkpt lat="46.76842" lon="5.60226">
        <ele>255.4</ele>
        <time>2019-11-21T12:30:02Z</time>
      </trkpt>
      <trkpt lat="46.76838" lon="5.60221">
        <ele>255</ele>
        <time>2019-11-21T12:30:06Z</time>
      </trkpt>
      <trkpt lat="46.76835" lon="5.60216">
        <ele>254.3</ele>
        <time>2019-11-21T12:30:11Z</time>
      </trkpt>
      <trkpt lat="46.76831" lon="5.60212">
        <ele>253.5</ele>
        <time>2019-11-21T12:30:17Z</time>
      </trkpt>
      <trkpt lat="46.76826" lon="5.60208">
        <ele>253</ele>
        <time>2019-11-21T12:30:22Z</time>
      </trkpt>
      <trkpt lat="46.76822" lon="5.60203">
        <ele>252.7</ele>
        <time>2019-11-21T12:30:27Z</time>
      </trkpt>
      <trkpt lat="46.76819" lon="5.60197">
        <ele>252.6</ele>
        <time>2019-11-21T12:30:30Z</time>
      </trkpt>
      <trkpt lat="46.76816" lon="5.6019">
        <ele>252.9</ele>
        <time>2019-11-21T12:30:33Z</time>
      </trkpt>
      <trkpt lat="46.76814" lon="5.60183">
        <ele>253.3</ele>
        <time>2019-11-21T12:30:36Z</time>
      </trkpt>
      <trkpt lat="46.7681" lon="5.60179">
        <ele>253.9</ele>
        <time>2019-11-21T12:30:42Z</time>
      </trkpt>
      <trkpt lat="46.76805" lon="5.60176">
        <ele>254</ele>
        <time>2019-11-21T12:30:48Z</time>
      </trkpt>
      <trkpt lat="46.76802" lon="5.60169">
        <ele>254.1</ele>
        <time>2019-11-21T12:30:52Z</time>
      </trkpt>
      <trkpt lat="46.76799" lon="5.60164">
        <ele>254.3</ele>
        <time>2019-11-21T12:30:55Z</time>
      </trkpt>
      <trkpt lat="46.76797" lon="5.60158">
        <ele>254.5</ele>
        <time>2019-11-21T12:31:00Z</time>
      </trkpt>
      <trkpt lat="46.76794" lon="5.60152">
        <ele>254.7</ele>
        <time>2019-11-21T12:31:05Z</time>
      </trkpt>
      <trkpt lat="46.76791" lon="5.60146">
        <ele>254.7</ele>
        <time>2019-11-21T12:31:09Z</time>
      </trkpt>
      <trkpt lat="46.76788" lon="5.6014">
        <ele>254.8</ele>
        <time>2019-11-21T12:31:14Z</time>
      </trkpt>
      <trkpt lat="46.76785" lon="5.60133">
        <ele>254.8</ele>
        <time>2019-11-21T12:31:19Z</time>
      </trkpt>
      <trkpt lat="46.76782" lon="5.60127">
        <ele>254.4</ele>
        <time>2019-11-21T12:31:23Z</time>
      </trkpt>
      <trkpt lat="46.76779" lon="5.60121">
        <ele>253.9</ele>
        <time>2019-11-21T12:31:27Z</time>
      </trkpt>
      <trkpt lat="46.76774" lon="5.60117">
        <ele>252.8</ele>
        <time>2019-11-21T12:31:32Z</time>
      </trkpt>
      <trkpt lat="46.7677" lon="5.60115">
        <ele>252.1</ele>
        <time>2019-11-21T12:31:35Z</time>
      </trkpt>
      <trkpt lat="46.76765" lon="5.60112">
        <ele>251.2</ele>
        <time>2019-11-21T12:31:38Z</time>
      </trkpt>
      <trkpt lat="46.76756" lon="5.60103">
        <ele>246.9</ele>
        <time>2019-11-21T12:31:51Z</time>
      </trkpt>
      <trkpt lat="46.76752" lon="5.60099">
        <ele>245.7</ele>
        <time>2019-11-21T12:31:57Z</time>
      </trkpt>
      <trkpt lat="46.76747" lon="5.60094">
        <ele>245.3</ele>
        <time>2019-11-21T12:32:01Z</time>
      </trkpt>
      <trkpt lat="46.76743" lon="5.60087">
        <ele>245.1</ele>
        <time>2019-11-21T12:32:05Z</time>
      </trkpt>
      <trkpt lat="46.7674" lon="5.60081">
        <ele>245.3</ele>
        <time>2019-11-21T12:32:08Z</time>
      </trkpt>
      <trkpt lat="46.76736" lon="5.60076">
        <ele>245.7</ele>
        <time>2019-11-21T12:32:11Z</time>
      </trkpt>
      <trkpt lat="46.76732" lon="5.6007">
        <ele>246.5</ele>
        <time>2019-11-21T12:32:14Z</time>
      </trkpt>
      <trkpt lat="46.76729" lon="5.60065">
        <ele>247.5</ele>
        <time>2019-11-21T12:32:18Z</time>
      </trkpt>
      <trkpt lat="46.76726" lon="5.6006">
        <ele>248.7</ele>
        <time>2019-11-21T12:32:23Z</time>
      </trkpt>
      <trkpt lat="46.76724" lon="5.60067">
        <ele>249.3</ele>
        <time>2019-11-21T12:32:31Z</time>
      </trkpt>
      <trkpt lat="46.76723" lon="5.60075">
        <ele>249.1</ele>
        <time>2019-11-21T12:32:34Z</time>
      </trkpt>
      <trkpt lat="46.76722" lon="5.60082">
        <ele>248.9</ele>
        <time>2019-11-21T12:32:37Z</time>
      </trkpt>
      <trkpt lat="46.76719" lon="5.60087">
        <ele>248.6</ele>
        <time>2019-11-21T12:32:40Z</time>
      </trkpt>
      <trkpt lat="46.76717" lon="5.60093">
        <ele>248.4</ele>
        <time>2019-11-21T12:32:43Z</time>
      </trkpt>
      <trkpt lat="46.76714" lon="5.60099">
        <ele>248.3</ele>
        <time>2019-11-21T12:32:47Z</time>
      </trkpt>
      <trkpt lat="46.76712" lon="5.60106">
        <ele>248.2</ele>
        <time>2019-11-21T12:32:51Z</time>
      </trkpt>
      <trkpt lat="46.76709" lon="5.60112">
        <ele>248</ele>
        <time>2019-11-21T12:32:55Z</time>
      </trkpt>
      <trkpt lat="46.76706" lon="5.60118">
        <ele>247.7</ele>
        <time>2019-11-21T12:32:59Z</time>
      </trkpt>
      <trkpt lat="46.76706" lon="5.60126">
        <ele>247.4</ele>
        <time>2019-11-21T12:33:04Z</time>
      </trkpt>
      <trkpt lat="46.76703" lon="5.60133">
        <ele>247.1</ele>
        <time>2019-11-21T12:33:09Z</time>
      </trkpt>
      <trkpt lat="46.76701" lon="5.60139">
        <ele>246.9</ele>
        <time>2019-11-21T12:33:13Z</time>
      </trkpt>
      <trkpt lat="46.767" lon="5.60147">
        <ele>246.8</ele>
        <time>2019-11-21T12:33:18Z</time>
      </trkpt>
      <trkpt lat="46.76699" lon="5.60154">
        <ele>246.7</ele>
        <time>2019-11-21T12:33:23Z</time>
      </trkpt>
      <trkpt lat="46.76695" lon="5.60151">
        <ele>247.6</ele>
        <time>2019-11-21T12:33:41Z</time>
      </trkpt>
      <trkpt lat="46.76692" lon="5.60159">
        <ele>248.2</ele>
        <time>2019-11-21T12:33:45Z</time>
      </trkpt>
      <trkpt lat="46.76691" lon="5.60166">
        <ele>248.5</ele>
        <time>2019-11-21T12:33:48Z</time>
      </trkpt>
      <trkpt lat="46.7669" lon="5.60172">
        <ele>248.8</ele>
        <time>2019-11-21T12:33:51Z</time>
      </trkpt>
      <trkpt lat="46.76689" lon="5.60178">
        <ele>249.1</ele>
        <time>2019-11-21T12:33:54Z</time>
      </trkpt>
      <trkpt lat="46.76687" lon="5.60187">
        <ele>249.3</ele>
        <time>2019-11-21T12:33:58Z</time>
      </trkpt>
      <trkpt lat="46.76687" lon="5.60194">
        <ele>249.4</ele>
        <time>2019-11-21T12:34:02Z</time>
      </trkpt>
      <trkpt lat="46.76685" lon="5.60201">
        <ele>249.3</ele>
        <time>2019-11-21T12:34:08Z</time>
      </trkpt>
      <trkpt lat="46.76683" lon="5.60209">
        <ele>249.1</ele>
        <time>2019-11-21T12:34:12Z</time>
      </trkpt>
      <trkpt lat="46.7668" lon="5.60215">
        <ele>249</ele>
        <time>2019-11-21T12:34:15Z</time>
      </trkpt>
      <trkpt lat="46.76677" lon="5.60221">
        <ele>248.6</ele>
        <time>2019-11-21T12:34:20Z</time>
      </trkpt>
      <trkpt lat="46.76674" lon="5.60228">
        <ele>248.6</ele>
        <time>2019-11-21T12:34:25Z</time>
      </trkpt>
      <trkpt lat="46.76671" lon="5.60235">
        <ele>248.6</ele>
        <time>2019-11-21T12:34:29Z</time>
      </trkpt>
      <trkpt lat="46.76669" lon="5.60241">
        <ele>248.6</ele>
        <time>2019-11-21T12:34:33Z</time>
      </trkpt>
      <trkpt lat="46.76667" lon="5.60248">
        <ele>248.6</ele>
        <time>2019-11-21T12:34:37Z</time>
      </trkpt>
      <trkpt lat="46.76664" lon="5.60256">
        <ele>248.5</ele>
        <time>2019-11-21T12:34:42Z</time>
      </trkpt>
      <trkpt lat="46.76663" lon="5.60262">
        <ele>248.6</ele>
        <time>2019-11-21T12:34:46Z</time>
      </trkpt>
      <trkpt lat="46.76659" lon="5.60269">
        <ele>248.8</ele>
        <time>2019-11-21T12:34:50Z</time>
      </trkpt>
      <trkpt lat="46.76657" lon="5.60275">
        <ele>249.1</ele>
        <time>2019-11-21T12:34:54Z</time>
      </trkpt>
      <trkpt lat="46.76656" lon="5.60282">
        <ele>249.2</ele>
        <time>2019-11-21T12:34:57Z</time>
      </trkpt>
      <trkpt lat="46.76654" lon="5.60289">
        <ele>249.4</ele>
        <time>2019-11-21T12:35:01Z</time>
      </trkpt>
      <trkpt lat="46.76651" lon="5.60295">
        <ele>249.6</ele>
        <time>2019-11-21T12:35:05Z</time>
      </trkpt>
      <trkpt lat="46.7665" lon="5.60302">
        <ele>249.7</ele>
        <time>2019-11-21T12:35:09Z</time>
      </trkpt>
      <trkpt lat="46.76647" lon="5.60309">
        <ele>249.6</ele>
        <time>2019-11-21T12:35:13Z</time>
      </trkpt>
      <trkpt lat="46.76645" lon="5.60316">
        <ele>249.7</ele>
        <time>2019-11-21T12:35:18Z</time>
      </trkpt>
      <trkpt lat="46.76643" lon="5.60322">
        <ele>249.9</ele>
        <time>2019-11-21T12:35:22Z</time>
      </trkpt>
      <trkpt lat="46.76641" lon="5.6033">
        <ele>250.1</ele>
        <time>2019-11-21T12:35:27Z</time>
      </trkpt>
      <trkpt lat="46.76639" lon="5.60337">
        <ele>250</ele>
        <time>2019-11-21T12:35:32Z</time>
      </trkpt>
      <trkpt lat="46.76637" lon="5.60344">
        <ele>249.8</ele>
        <time>2019-11-21T12:35:36Z</time>
      </trkpt>
      <trkpt lat="46.76635" lon="5.60351">
        <ele>249.5</ele>
        <time>2019-11-21T12:35:40Z</time>
      </trkpt>
      <trkpt lat="46.76633" lon="5.60358">
        <ele>249.4</ele>
        <time>2019-11-21T12:35:44Z</time>
      </trkpt>
      <trkpt lat="46.7663" lon="5.60363">
        <ele>249.3</ele>
        <time>2019-11-21T12:35:47Z</time>
      </trkpt>
      <trkpt lat="46.76627" lon="5.6037">
        <ele>249.4</ele>
        <time>2019-11-21T12:35:51Z</time>
      </trkpt>
      <trkpt lat="46.76626" lon="5.60378">
        <ele>249.4</ele>
        <time>2019-11-21T12:35:55Z</time>
      </trkpt>
      <trkpt lat="46.76623" lon="5.60385">
        <ele>249.5</ele>
        <time>2019-11-21T12:35:59Z</time>
      </trkpt>
      <trkpt lat="46.76621" lon="5.6039">
        <ele>249.6</ele>
        <time>2019-11-21T12:36:03Z</time>
      </trkpt>
      <trkpt lat="46.76619" lon="5.60397">
        <ele>249.7</ele>
        <time>2019-11-21T12:36:08Z</time>
      </trkpt>
      <trkpt lat="46.76618" lon="5.60405">
        <ele>250</ele>
        <time>2019-11-21T12:36:13Z</time>
      </trkpt>
      <trkpt lat="46.76614" lon="5.60411">
        <ele>250.7</ele>
        <time>2019-11-21T12:36:18Z</time>
      </trkpt>
      <trkpt lat="46.76612" lon="5.60418">
        <ele>251.3</ele>
        <time>2019-11-21T12:36:22Z</time>
      </trkpt>
      <trkpt lat="46.7661" lon="5.60424">
        <ele>252</ele>
        <time>2019-11-21T12:36:26Z</time>
      </trkpt>
      <trkpt lat="46.76607" lon="5.6043">
        <ele>253.4</ele>
        <time>2019-11-21T12:36:32Z</time>
      </trkpt>
      <trkpt lat="46.76604" lon="5.60436">
        <ele>254.6</ele>
        <time>2019-11-21T12:36:36Z</time>
      </trkpt>
      <trkpt lat="46.76602" lon="5.60442">
        <ele>255.4</ele>
        <time>2019-11-21T12:36:39Z</time>
      </trkpt>
      <trkpt lat="46.76598" lon="5.60449">
        <ele>256.1</ele>
        <time>2019-11-21T12:36:43Z</time>
      </trkpt>
      <trkpt lat="46.76597" lon="5.60455">
        <ele>256.4</ele>
        <time>2019-11-21T12:36:47Z</time>
      </trkpt>
      <trkpt lat="46.76596" lon="5.60462">
        <ele>256.4</ele>
        <time>2019-11-21T12:36:50Z</time>
      </trkpt>
      <trkpt lat="46.76594" lon="5.60469">
        <ele>256.4</ele>
        <time>2019-11-21T12:36:54Z</time>
      </trkpt>
      <trkpt lat="46.76592" lon="5.60477">
        <ele>256.1</ele>
        <time>2019-11-21T12:36:59Z</time>
      </trkpt>
      <trkpt lat="46.7659" lon="5.60483">
        <ele>255.8</ele>
        <time>2019-11-21T12:37:02Z</time>
      </trkpt>
      <trkpt lat="46.76589" lon="5.60491">
        <ele>255.2</ele>
        <time>2019-11-21T12:37:06Z</time>
      </trkpt>
      <trkpt lat="46.76585" lon="5.60496">
        <ele>254.5</ele>
        <time>2019-11-21T12:37:13Z</time>
      </trkpt>
      <trkpt lat="46.76581" lon="5.60502">
        <ele>254</ele>
        <time>2019-11-21T12:37:18Z</time>
      </trkpt>
      <trkpt lat="46.76579" lon="5.60511">
        <ele>253.5</ele>
        <time>2019-11-21T12:37:22Z</time>
      </trkpt>
      <trkpt lat="46.76577" lon="5.60518">
        <ele>253.2</ele>
        <time>2019-11-21T12:37:26Z</time>
      </trkpt>
      <trkpt lat="46.76575" lon="5.60525">
        <ele>253.2</ele>
        <time>2019-11-21T12:37:30Z</time>
      </trkpt>
      <trkpt lat="46.76574" lon="5.60532">
        <ele>253.3</ele>
        <time>2019-11-21T12:37:35Z</time>
      </trkpt>
      <trkpt lat="46.76573" lon="5.60539">
        <ele>253</ele>
        <time>2019-11-21T12:37:41Z</time>
      </trkpt>
      <trkpt lat="46.76571" lon="5.60546">
        <ele>252.4</ele>
        <time>2019-11-21T12:37:47Z</time>
      </trkpt>
      <trkpt lat="46.76568" lon="5.60551">
        <ele>251.1</ele>
        <time>2019-11-21T12:37:55Z</time>
      </trkpt>
      <trkpt lat="46.76565" lon="5.60555">
        <ele>246</ele>
        <time>2019-11-21T12:38:08Z</time>
      </trkpt>
      <trkpt lat="46.76563" lon="5.60562">
        <ele>243.3</ele>
        <time>2019-11-21T12:38:15Z</time>
      </trkpt>
      <trkpt lat="46.7656" lon="5.60567">
        <ele>241.5</ele>
        <time>2019-11-21T12:38:21Z</time>
      </trkpt>
      <trkpt lat="46.76556" lon="5.60574">
        <ele>239.5</ele>
        <time>2019-11-21T12:38:28Z</time>
      </trkpt>
      <trkpt lat="46.76553" lon="5.60579">
        <ele>238.5</ele>
        <time>2019-11-21T12:38:34Z</time>
      </trkpt>
      <trkpt lat="46.7655" lon="5.60585">
        <ele>238.1</ele>
        <time>2019-11-21T12:38:37Z</time>
      </trkpt>
      <trkpt lat="46.76546" lon="5.60592">
        <ele>238</ele>
        <time>2019-11-21T12:38:41Z</time>
      </trkpt>
      <trkpt lat="46.76542" lon="5.60598">
        <ele>238</ele>
        <time>2019-11-21T12:38:44Z</time>
      </trkpt>
      <trkpt lat="46.76539" lon="5.60604">
        <ele>238</ele>
        <time>2019-11-21T12:38:47Z</time>
      </trkpt>
      <trkpt lat="46.76536" lon="5.60611">
        <ele>238.2</ele>
        <time>2019-11-21T12:38:49Z</time>
      </trkpt>
      <trkpt lat="46.76532" lon="5.60617">
        <ele>238.6</ele>
        <time>2019-11-21T12:38:52Z</time>
      </trkpt>
      <trkpt lat="46.76527" lon="5.60622">
        <ele>239.5</ele>
        <time>2019-11-21T12:38:57Z</time>
      </trkpt>
      <trkpt lat="46.76524" lon="5.60628">
        <ele>240</ele>
        <time>2019-11-21T12:39:00Z</time>
      </trkpt>
      <trkpt lat="46.76521" lon="5.60636">
        <ele>240.3</ele>
        <time>2019-11-21T12:39:03Z</time>
      </trkpt>
      <trkpt lat="46.76519" lon="5.60642">
        <ele>240.5</ele>
        <time>2019-11-21T12:39:06Z</time>
      </trkpt>
      <trkpt lat="46.76514" lon="5.60647">
        <ele>240.4</ele>
        <time>2019-11-21T12:39:10Z</time>
      </trkpt>
      <trkpt lat="46.7651" lon="5.60652">
        <ele>240.1</ele>
        <time>2019-11-21T12:39:14Z</time>
      </trkpt>
      <trkpt lat="46.76507" lon="5.60658">
        <ele>239.9</ele>
        <time>2019-11-21T12:39:17Z</time>
      </trkpt>
      <trkpt lat="46.76504" lon="5.60665">
        <ele>239.8</ele>
        <time>2019-11-21T12:39:20Z</time>
      </trkpt>
      <trkpt lat="46.765" lon="5.6067">
        <ele>239.8</ele>
        <time>2019-11-21T12:39:23Z</time>
      </trkpt>
      <trkpt lat="46.76497" lon="5.60674">
        <ele>239.9</ele>
        <time>2019-11-21T12:39:27Z</time>
      </trkpt>
      <trkpt lat="46.76494" lon="5.60679">
        <ele>240.2</ele>
        <time>2019-11-21T12:39:30Z</time>
      </trkpt>
      <trkpt lat="46.7649" lon="5.60685">
        <ele>240.7</ele>
        <time>2019-11-21T12:39:34Z</time>
      </trkpt>
      <trkpt lat="46.76485" lon="5.6069">
        <ele>241.2</ele>
        <time>2019-11-21T12:39:38Z</time>
      </trkpt>
      <trkpt lat="46.7648" lon="5.60693">
        <ele>241.8</ele>
        <time>2019-11-21T12:39:43Z</time>
      </trkpt>
      <trkpt lat="46.76476" lon="5.60698">
        <ele>242.6</ele>
        <time>2019-11-21T12:39:49Z</time>
      </trkpt>
      <trkpt lat="46.76472" lon="5.60702">
        <ele>243</ele>
        <time>2019-11-21T12:39:53Z</time>
      </trkpt>
      <trkpt lat="46.76468" lon="5.60706">
        <ele>243.6</ele>
        <time>2019-11-21T12:40:08Z</time>
      </trkpt>
      <trkpt lat="46.76465" lon="5.6071">
        <ele>243</ele>
        <time>2019-11-21T12:40:15Z</time>
      </trkpt>
      <trkpt lat="46.76461" lon="5.60715">
        <ele>242.2</ele>
        <time>2019-11-21T12:40:23Z</time>
      </trkpt>
      <trkpt lat="46.76457" lon="5.60722">
        <ele>242.2</ele>
        <time>2019-11-21T12:40:25Z</time>
      </trkpt>
      <trkpt lat="46.76452" lon="5.60729">
        <ele>242.3</ele>
        <time>2019-11-21T12:40:27Z</time>
      </trkpt>
      <trkpt lat="46.76448" lon="5.60735">
        <ele>242.5</ele>
        <time>2019-11-21T12:40:29Z</time>
      </trkpt>
      <trkpt lat="46.76444" lon="5.6074">
        <ele>242.8</ele>
        <time>2019-11-21T12:40:31Z</time>
      </trkpt>
      <trkpt lat="46.76441" lon="5.60744">
        <ele>243.3</ele>
        <time>2019-11-21T12:40:33Z</time>
      </trkpt>
      <trkpt lat="46.76436" lon="5.60748">
        <ele>244.5</ele>
        <time>2019-11-21T12:40:38Z</time>
      </trkpt>
      <trkpt lat="46.76422" lon="5.60747">
        <ele>252.4</ele>
        <time>2019-11-21T12:41:39Z</time>
      </trkpt>
      <trkpt lat="46.7642" lon="5.60753">
        <ele>253.2</ele>
        <time>2019-11-21T12:41:43Z</time>
      </trkpt>
      <trkpt lat="46.76416" lon="5.60759">
        <ele>254</ele>
        <time>2019-11-21T12:41:48Z</time>
      </trkpt>
      <trkpt lat="46.76412" lon="5.60765">
        <ele>254.2</ele>
        <time>2019-11-21T12:41:52Z</time>
      </trkpt>
      <trkpt lat="46.7641" lon="5.60771">
        <ele>254.1</ele>
        <time>2019-11-21T12:41:55Z</time>
      </trkpt>
      <trkpt lat="46.76405" lon="5.60776">
        <ele>253.7</ele>
        <time>2019-11-21T12:42:00Z</time>
      </trkpt>
      <trkpt lat="46.76401" lon="5.60781">
        <ele>253</ele>
        <time>2019-11-21T12:42:04Z</time>
      </trkpt>
      <trkpt lat="46.76397" lon="5.60785">
        <ele>252.3</ele>
        <time>2019-11-21T12:42:08Z</time>
      </trkpt>
      <trkpt lat="46.76393" lon="5.60789">
        <ele>251.6</ele>
        <time>2019-11-21T12:42:12Z</time>
      </trkpt>
      <trkpt lat="46.76389" lon="5.60792">
        <ele>251.1</ele>
        <time>2019-11-21T12:42:15Z</time>
      </trkpt>
      <trkpt lat="46.76384" lon="5.60795">
        <ele>250.6</ele>
        <time>2019-11-21T12:42:18Z</time>
      </trkpt>
      <trkpt lat="46.7638" lon="5.60798">
        <ele>249.7</ele>
        <time>2019-11-21T12:42:22Z</time>
      </trkpt>
      <trkpt lat="46.76375" lon="5.60803">
        <ele>248.8</ele>
        <time>2019-11-21T12:42:26Z</time>
      </trkpt>
      <trkpt lat="46.76371" lon="5.60806">
        <ele>248.1</ele>
        <time>2019-11-21T12:42:29Z</time>
      </trkpt>
      <trkpt lat="46.76366" lon="5.60809">
        <ele>246.1</ele>
        <time>2019-11-21T12:42:37Z</time>
      </trkpt>
      <trkpt lat="46.76362" lon="5.60814">
        <ele>244.6</ele>
        <time>2019-11-21T12:42:42Z</time>
      </trkpt>
      <trkpt lat="46.7636" lon="5.6082">
        <ele>243.4</ele>
        <time>2019-11-21T12:42:46Z</time>
      </trkpt>
      <trkpt lat="46.76355" lon="5.60825">
        <ele>242.3</ele>
        <time>2019-11-21T12:42:50Z</time>
      </trkpt>
      <trkpt lat="46.76351" lon="5.60831">
        <ele>241.3</ele>
        <time>2019-11-21T12:42:54Z</time>
      </trkpt>
      <trkpt lat="46.76348" lon="5.60837">
        <ele>240.5</ele>
        <time>2019-11-21T12:42:58Z</time>
      </trkpt>
      <trkpt lat="46.76345" lon="5.60843">
        <ele>239.9</ele>
        <time>2019-11-21T12:43:01Z</time>
      </trkpt>
      <trkpt lat="46.76341" lon="5.60849">
        <ele>239.4</ele>
        <time>2019-11-21T12:43:04Z</time>
      </trkpt>
      <trkpt lat="46.76338" lon="5.60855">
        <ele>238.9</ele>
        <time>2019-11-21T12:43:07Z</time>
      </trkpt>
      <trkpt lat="46.76334" lon="5.60862">
        <ele>238.6</ele>
        <time>2019-11-21T12:43:10Z</time>
      </trkpt>
      <trkpt lat="46.7633" lon="5.60869">
        <ele>238.4</ele>
        <time>2019-11-21T12:43:13Z</time>
      </trkpt>
      <trkpt lat="46.76327" lon="5.60875">
        <ele>238.5</ele>
        <time>2019-11-21T12:43:15Z</time>
      </trkpt>
      <trkpt lat="46.76322" lon="5.6088">
        <ele>238.7</ele>
        <time>2019-11-21T12:43:17Z</time>
      </trkpt>
      <trkpt lat="46.76318" lon="5.60886">
        <ele>239</ele>
        <time>2019-11-21T12:43:19Z</time>
      </trkpt>
      <trkpt lat="46.76314" lon="5.60892">
        <ele>239.3</ele>
        <time>2019-11-21T12:43:21Z</time>
      </trkpt>
      <trkpt lat="46.7631" lon="5.60898">
        <ele>239.7</ele>
        <time>2019-11-21T12:43:24Z</time>
      </trkpt>
      <trkpt lat="46.76306" lon="5.60905">
        <ele>240.2</ele>
        <time>2019-11-21T12:43:27Z</time>
      </trkpt>
      <trkpt lat="46.76302" lon="5.60911">
        <ele>240.7</ele>
        <time>2019-11-21T12:43:31Z</time>
      </trkpt>
      <trkpt lat="46.76299" lon="5.60916">
        <ele>241.4</ele>
        <time>2019-11-21T12:43:35Z</time>
      </trkpt>
      <trkpt lat="46.76295" lon="5.60922">
        <ele>242</ele>
        <time>2019-11-21T12:43:39Z</time>
      </trkpt>
      <trkpt lat="46.76292" lon="5.60927">
        <ele>242.3</ele>
        <time>2019-11-21T12:43:42Z</time>
      </trkpt>
      <trkpt lat="46.7629" lon="5.60934">
        <ele>242.6</ele>
        <time>2019-11-21T12:43:46Z</time>
      </trkpt>
      <trkpt lat="46.76286" lon="5.60939">
        <ele>242.9</ele>
        <time>2019-11-21T12:43:50Z</time>
      </trkpt>
      <trkpt lat="46.76283" lon="5.60945">
        <ele>243.4</ele>
        <time>2019-11-21T12:43:55Z</time>
      </trkpt>
      <trkpt lat="46.76281" lon="5.60951">
        <ele>244.1</ele>
        <time>2019-11-21T12:44:00Z</time>
      </trkpt>
      <trkpt lat="46.76277" lon="5.60957">
        <ele>245.3</ele>
        <time>2019-11-21T12:44:05Z</time>
      </trkpt>
      <trkpt lat="46.76273" lon="5.60961">
        <ele>246.5</ele>
        <time>2019-11-21T12:44:09Z</time>
      </trkpt>
      <trkpt lat="46.76269" lon="5.60966">
        <ele>247.8</ele>
        <time>2019-11-21T12:44:14Z</time>
      </trkpt>
      <trkpt lat="46.76267" lon="5.60972">
        <ele>249.1</ele>
        <time>2019-11-21T12:44:19Z</time>
      </trkpt>
      <trkpt lat="46.76264" lon="5.60979">
        <ele>249.9</ele>
        <time>2019-11-21T12:44:23Z</time>
      </trkpt>
      <trkpt lat="46.76262" lon="5.60985">
        <ele>250.7</ele>
        <time>2019-11-21T12:44:30Z</time>
      </trkpt>
      <trkpt lat="46.76259" lon="5.60991">
        <ele>251</ele>
        <time>2019-11-21T12:44:34Z</time>
      </trkpt>
      <trkpt lat="46.76254" lon="5.60995">
        <ele>251.3</ele>
        <time>2019-11-21T12:44:38Z</time>
      </trkpt>
      <trkpt lat="46.7625" lon="5.60999">
        <ele>251.9</ele>
        <time>2019-11-21T12:44:42Z</time>
      </trkpt>
      <trkpt lat="46.76245" lon="5.61003">
        <ele>252.7</ele>
        <time>2019-11-21T12:44:46Z</time>
      </trkpt>
      <trkpt lat="46.76241" lon="5.61008">
        <ele>253.5</ele>
        <time>2019-11-21T12:44:51Z</time>
      </trkpt>
      <trkpt lat="46.76237" lon="5.61011">
        <ele>253.9</ele>
        <time>2019-11-21T12:44:55Z</time>
      </trkpt>
      <trkpt lat="46.76233" lon="5.61015">
        <ele>253.8</ele>
        <time>2019-11-21T12:45:00Z</time>
      </trkpt>
      <trkpt lat="46.7623" lon="5.6102">
        <ele>252.6</ele>
        <time>2019-11-21T12:45:08Z</time>
      </trkpt>
      <trkpt lat="46.76225" lon="5.6102">
        <ele>250.8</ele>
        <time>2019-11-21T12:45:18Z</time>
      </trkpt>
      <trkpt lat="46.7622" lon="5.61018">
        <ele>249.2</ele>
        <time>2019-11-21T12:45:25Z</time>
      </trkpt>
      <trkpt lat="46.76215" lon="5.61019">
        <ele>248.1</ele>
        <time>2019-11-21T12:45:32Z</time>
      </trkpt>
      <trkpt lat="46.76209" lon="5.61019">
        <ele>247.6</ele>
        <time>2019-11-21T12:45:36Z</time>
      </trkpt>
      <trkpt lat="46.76204" lon="5.61021">
        <ele>246.9</ele>
        <time>2019-11-21T12:45:41Z</time>
      </trkpt>
      <trkpt lat="46.762" lon="5.61025">
        <ele>246.7</ele>
        <time>2019-11-21T12:45:44Z</time>
      </trkpt>
      <trkpt lat="46.76195" lon="5.6103">
        <ele>246.1</ele>
        <time>2019-11-21T12:45:51Z</time>
      </trkpt>
      <trkpt lat="46.76191" lon="5.61034">
        <ele>245</ele>
        <time>2019-11-21T12:45:56Z</time>
      </trkpt>
      <trkpt lat="46.76187" lon="5.61042">
        <ele>244.1</ele>
        <time>2019-11-21T12:46:00Z</time>
      </trkpt>
      <trkpt lat="46.76185" lon="5.61049">
        <ele>243.6</ele>
        <time>2019-11-21T12:46:03Z</time>
      </trkpt>
      <trkpt lat="46.76181" lon="5.61056">
        <ele>243.3</ele>
        <time>2019-11-21T12:46:07Z</time>
      </trkpt>
      <trkpt lat="46.76178" lon="5.61062">
        <ele>243</ele>
        <time>2019-11-21T12:46:11Z</time>
      </trkpt>
      <trkpt lat="46.76173" lon="5.61068">
        <ele>242.9</ele>
        <time>2019-11-21T12:46:14Z</time>
      </trkpt>
      <trkpt lat="46.76169" lon="5.61074">
        <ele>242.8</ele>
        <time>2019-11-21T12:46:17Z</time>
      </trkpt>
      <trkpt lat="46.76165" lon="5.6108">
        <ele>242.9</ele>
        <time>2019-11-21T12:46:19Z</time>
      </trkpt>
      <trkpt lat="46.76161" lon="5.61086">
        <ele>243.1</ele>
        <time>2019-11-21T12:46:22Z</time>
      </trkpt>
      <trkpt lat="46.76157" lon="5.61089">
        <ele>243.1</ele>
        <time>2019-11-21T12:46:25Z</time>
      </trkpt>
      <trkpt lat="46.76152" lon="5.61093">
        <ele>243.2</ele>
        <time>2019-11-21T12:46:29Z</time>
      </trkpt>
      <trkpt lat="46.76148" lon="5.61096">
        <ele>243</ele>
        <time>2019-11-21T12:46:38Z</time>
      </trkpt>
      <trkpt lat="46.76143" lon="5.611">
        <ele>242.4</ele>
        <time>2019-11-21T12:46:44Z</time>
      </trkpt>
      <trkpt lat="46.7614" lon="5.61106">
        <ele>242.1</ele>
        <time>2019-11-21T12:46:46Z</time>
      </trkpt>
      <trkpt lat="46.76137" lon="5.61113">
        <ele>241.8</ele>
        <time>2019-11-21T12:46:49Z</time>
      </trkpt>
      <trkpt lat="46.76135" lon="5.6112">
        <ele>241.7</ele>
        <time>2019-11-21T12:46:52Z</time>
      </trkpt>
      <trkpt lat="46.76132" lon="5.61128">
        <ele>241.9</ele>
        <time>2019-11-21T12:46:55Z</time>
      </trkpt>
      <trkpt lat="46.76129" lon="5.61134">
        <ele>242.2</ele>
        <time>2019-11-21T12:46:59Z</time>
      </trkpt>
      <trkpt lat="46.76125" lon="5.61139">
        <ele>242.7</ele>
        <time>2019-11-21T12:47:03Z</time>
      </trkpt>
      <trkpt lat="46.76121" lon="5.61143">
        <ele>243.1</ele>
        <time>2019-11-21T12:47:06Z</time>
      </trkpt>
      <trkpt lat="46.76117" lon="5.61149">
        <ele>243.3</ele>
        <time>2019-11-21T12:47:10Z</time>
      </trkpt>
      <trkpt lat="46.76113" lon="5.61154">
        <ele>243.5</ele>
        <time>2019-11-21T12:47:14Z</time>
      </trkpt>
      <trkpt lat="46.7611" lon="5.6116">
        <ele>243.7</ele>
        <time>2019-11-21T12:47:19Z</time>
      </trkpt>
      <trkpt lat="46.76106" lon="5.61164">
        <ele>243.9</ele>
        <time>2019-11-21T12:47:25Z</time>
      </trkpt>
      <trkpt lat="46.76101" lon="5.61167">
        <ele>243.4</ele>
        <time>2019-11-21T12:47:31Z</time>
      </trkpt>
      <trkpt lat="46.76098" lon="5.61173">
        <ele>243.1</ele>
        <time>2019-11-21T12:47:34Z</time>
      </trkpt>
      <trkpt lat="46.76094" lon="5.6118">
        <ele>242.8</ele>
        <time>2019-11-21T12:47:37Z</time>
      </trkpt>
      <trkpt lat="46.76092" lon="5.61188">
        <ele>242.8</ele>
        <time>2019-11-21T12:47:40Z</time>
      </trkpt>
      <trkpt lat="46.7609" lon="5.61195">
        <ele>243.1</ele>
        <time>2019-11-21T12:47:43Z</time>
      </trkpt>
      <trkpt lat="46.76088" lon="5.61201">
        <ele>243.4</ele>
        <time>2019-11-21T12:47:46Z</time>
      </trkpt>
      <trkpt lat="46.76085" lon="5.61208">
        <ele>243.6</ele>
        <time>2019-11-21T12:47:49Z</time>
      </trkpt>
      <trkpt lat="46.76081" lon="5.61213">
        <ele>243.8</ele>
        <time>2019-11-21T12:47:52Z</time>
      </trkpt>
      <trkpt lat="46.76079" lon="5.61218">
        <ele>244.2</ele>
        <time>2019-11-21T12:47:55Z</time>
      </trkpt>
      <trkpt lat="46.76075" lon="5.61225">
        <ele>244.9</ele>
        <time>2019-11-21T12:48:00Z</time>
      </trkpt>
      <trkpt lat="46.76072" lon="5.61231">
        <ele>245.4</ele>
        <time>2019-11-21T12:48:04Z</time>
      </trkpt>
      <trkpt lat="46.7607" lon="5.61236">
        <ele>245.9</ele>
        <time>2019-11-21T12:48:08Z</time>
      </trkpt>
      <trkpt lat="46.76067" lon="5.61242">
        <ele>246.5</ele>
        <time>2019-11-21T12:48:13Z</time>
      </trkpt>
      <trkpt lat="46.76062" lon="5.61247">
        <ele>247</ele>
        <time>2019-11-21T12:48:17Z</time>
      </trkpt>
      <trkpt lat="46.76057" lon="5.61251">
        <ele>247.2</ele>
        <time>2019-11-21T12:48:21Z</time>
      </trkpt>
      <trkpt lat="46.76053" lon="5.61251">
        <ele>247.1</ele>
        <time>2019-11-21T12:48:28Z</time>
      </trkpt>
      <trkpt lat="46.76048" lon="5.61249">
        <ele>244.2</ele>
        <time>2019-11-21T12:48:40Z</time>
      </trkpt>
      <trkpt lat="46.76044" lon="5.61249">
        <ele>242.6</ele>
        <time>2019-11-21T12:48:46Z</time>
      </trkpt>
      <trkpt lat="46.7604" lon="5.61252">
        <ele>238.2</ele>
        <time>2019-11-21T12:49:03Z</time>
      </trkpt>
      <trkpt lat="46.76038" lon="5.61258">
        <ele>238.5</ele>
        <time>2019-11-21T12:49:11Z</time>
      </trkpt>
      <trkpt lat="46.76033" lon="5.61268">
        <ele>238.8</ele>
        <time>2019-11-21T12:49:13Z</time>
      </trkpt>
      <trkpt lat="46.76029" lon="5.61277">
        <ele>239.1</ele>
        <time>2019-11-21T12:49:15Z</time>
      </trkpt>
      <trkpt lat="46.76026" lon="5.61286">
        <ele>239.5</ele>
        <time>2019-11-21T12:49:17Z</time>
      </trkpt>
      <trkpt lat="46.76022" lon="5.61293">
        <ele>239.8</ele>
        <time>2019-11-21T12:49:19Z</time>
      </trkpt>
      <trkpt lat="46.7602" lon="5.61299">
        <ele>240.1</ele>
        <time>2019-11-21T12:49:21Z</time>
      </trkpt>
      <trkpt lat="46.76016" lon="5.61306">
        <ele>240.7</ele>
        <time>2019-11-21T12:49:24Z</time>
      </trkpt>
      <trkpt lat="46.76012" lon="5.61311">
        <ele>241.3</ele>
        <time>2019-11-21T12:49:27Z</time>
      </trkpt>
      <trkpt lat="46.76008" lon="5.61316">
        <ele>242.2</ele>
        <time>2019-11-21T12:49:32Z</time>
      </trkpt>
      <trkpt lat="46.76006" lon="5.61321">
        <ele>242.8</ele>
        <time>2019-11-21T12:49:36Z</time>
      </trkpt>
      <trkpt lat="46.76004" lon="5.61328">
        <ele>243.5</ele>
        <time>2019-11-21T12:49:40Z</time>
      </trkpt>
      <trkpt lat="46.76002" lon="5.61334">
        <ele>243.9</ele>
        <time>2019-11-21T12:49:44Z</time>
      </trkpt>
      <trkpt lat="46.76" lon="5.61341">
        <ele>244.6</ele>
        <time>2019-11-21T12:49:49Z</time>
      </trkpt>
      <trkpt lat="46.75998" lon="5.61347">
        <ele>245.4</ele>
        <time>2019-11-21T12:49:54Z</time>
      </trkpt>
      <trkpt lat="46.75993" lon="5.61343">
        <ele>246.2</ele>
        <time>2019-11-21T12:50:00Z</time>
      </trkpt>
      <trkpt lat="46.75989" lon="5.61349">
        <ele>246.7</ele>
        <time>2019-11-21T12:50:05Z</time>
      </trkpt>
      <trkpt lat="46.75986" lon="5.61355">
        <ele>247</ele>
        <time>2019-11-21T12:50:08Z</time>
      </trkpt>
      <trkpt lat="46.75985" lon="5.61362">
        <ele>247.3</ele>
        <time>2019-11-21T12:50:11Z</time>
      </trkpt>
      <trkpt lat="46.75985" lon="5.61368">
        <ele>247.4</ele>
        <time>2019-11-21T12:50:14Z</time>
      </trkpt>
      <trkpt lat="46.75983" lon="5.61376">
        <ele>247.5</ele>
        <time>2019-11-21T12:50:18Z</time>
      </trkpt>
      <trkpt lat="46.75983" lon="5.61384">
        <ele>247.6</ele>
        <time>2019-11-21T12:50:22Z</time>
      </trkpt>
      <trkpt lat="46.75982" lon="5.61391">
        <ele>247.8</ele>
        <time>2019-11-21T12:50:25Z</time>
      </trkpt>
      <trkpt lat="46.75982" lon="5.61398">
        <ele>248</ele>
        <time>2019-11-21T12:50:29Z</time>
      </trkpt>
      <trkpt lat="46.7598" lon="5.61406">
        <ele>248.2</ele>
        <time>2019-11-21T12:50:33Z</time>
      </trkpt>
      <trkpt lat="46.75977" lon="5.61413">
        <ele>248.4</ele>
        <time>2019-11-21T12:50:37Z</time>
      </trkpt>
      <trkpt lat="46.75975" lon="5.61419">
        <ele>248.6</ele>
        <time>2019-11-21T12:50:41Z</time>
      </trkpt>
      <trkpt lat="46.75973" lon="5.61425">
        <ele>248.9</ele>
        <time>2019-11-21T12:50:45Z</time>
      </trkpt>
      <trkpt lat="46.75971" lon="5.61432">
        <ele>249.2</ele>
        <time>2019-11-21T12:50:49Z</time>
      </trkpt>
      <trkpt lat="46.75971" lon="5.61439">
        <ele>249.4</ele>
        <time>2019-11-21T12:50:53Z</time>
      </trkpt>
      <trkpt lat="46.75972" lon="5.61447">
        <ele>249.6</ele>
        <time>2019-11-21T12:50:58Z</time>
      </trkpt>
      <trkpt lat="46.75974" lon="5.61453">
        <ele>249.9</ele>
        <time>2019-11-21T12:51:03Z</time>
      </trkpt>
      <trkpt lat="46.75976" lon="5.61461">
        <ele>250.2</ele>
        <time>2019-11-21T12:51:08Z</time>
      </trkpt>
      <trkpt lat="46.75977" lon="5.61468">
        <ele>250.7</ele>
        <time>2019-11-21T12:51:13Z</time>
      </trkpt>
      <trkpt lat="46.75979" lon="5.61476">
        <ele>251.2</ele>
        <time>2019-11-21T12:51:18Z</time>
      </trkpt>
      <trkpt lat="46.75979" lon="5.61483">
        <ele>251.5</ele>
        <time>2019-11-21T12:51:23Z</time>
      </trkpt>
      <trkpt lat="46.75978" lon="5.6149">
        <ele>251.5</ele>
        <time>2019-11-21T12:51:28Z</time>
      </trkpt>
      <trkpt lat="46.75974" lon="5.61494">
        <ele>251.3</ele>
        <time>2019-11-21T12:51:34Z</time>
      </trkpt>
      <trkpt lat="46.75969" lon="5.61494">
        <ele>251</ele>
        <time>2019-11-21T12:51:37Z</time>
      </trkpt>
      <trkpt lat="46.75964" lon="5.61493">
        <ele>250.5</ele>
        <time>2019-11-21T12:51:40Z</time>
      </trkpt>
      <trkpt lat="46.75959" lon="5.6149">
        <ele>249.8</ele>
        <time>2019-11-21T12:51:44Z</time>
      </trkpt>
      <trkpt lat="46.75954" lon="5.61489">
        <ele>249</ele>
        <time>2019-11-21T12:51:48Z</time>
      </trkpt>
      <trkpt lat="46.75944" lon="5.61492">
        <ele>245.4</ele>
        <time>2019-11-21T12:52:02Z</time>
      </trkpt>
      <trkpt lat="46.75939" lon="5.61492">
        <ele>244.6</ele>
        <time>2019-11-21T12:52:07Z</time>
      </trkpt>
      <trkpt lat="46.75934" lon="5.61493">
        <ele>244</ele>
        <time>2019-11-21T12:52:11Z</time>
      </trkpt>
      <trkpt lat="46.75925" lon="5.61501">
        <ele>241.2</ele>
        <time>2019-11-21T12:52:29Z</time>
      </trkpt>
      <trkpt lat="46.75921" lon="5.61504">
        <ele>240.1</ele>
        <time>2019-11-21T12:52:38Z</time>
      </trkpt>
      <trkpt lat="46.75916" lon="5.6151">
        <ele>239.7</ele>
        <time>2019-11-21T12:52:41Z</time>
      </trkpt>
      <trkpt lat="46.75912" lon="5.61515">
        <ele>239.3</ele>
        <time>2019-11-21T12:52:44Z</time>
      </trkpt>
      <trkpt lat="46.75907" lon="5.61517">
        <ele>238.7</ele>
        <time>2019-11-21T12:52:49Z</time>
      </trkpt>
      <trkpt lat="46.75903" lon="5.61515">
        <ele>237.9</ele>
        <time>2019-11-21T12:52:56Z</time>
      </trkpt>
      <trkpt lat="46.75899" lon="5.61519">
        <ele>236.7</ele>
        <time>2019-11-21T12:53:09Z</time>
      </trkpt>
      <trkpt lat="46.75894" lon="5.61523">
        <ele>236.2</ele>
        <time>2019-11-21T12:53:13Z</time>
      </trkpt>
      <trkpt lat="46.75889" lon="5.61524">
        <ele>235.3</ele>
        <time>2019-11-21T12:53:18Z</time>
      </trkpt>
      <trkpt lat="46.75884" lon="5.61524">
        <ele>233.7</ele>
        <time>2019-11-21T12:53:25Z</time>
      </trkpt>
      <trkpt lat="46.75878" lon="5.61524">
        <ele>231.9</ele>
        <time>2019-11-21T12:53:31Z</time>
      </trkpt>
      <trkpt lat="46.75874" lon="5.61527">
        <ele>230.4</ele>
        <time>2019-11-21T12:53:36Z</time>
      </trkpt>
      <trkpt lat="46.75869" lon="5.61532">
        <ele>229.4</ele>
        <time>2019-11-21T12:53:40Z</time>
      </trkpt>
      <trkpt lat="46.75865" lon="5.61534">
        <ele>228.5</ele>
        <time>2019-11-21T12:53:45Z</time>
      </trkpt>
      <trkpt lat="46.7586" lon="5.61536">
        <ele>227.5</ele>
        <time>2019-11-21T12:53:50Z</time>
      </trkpt>
      <trkpt lat="46.75855" lon="5.61537">
        <ele>226.8</ele>
        <time>2019-11-21T12:53:55Z</time>
      </trkpt>
      <trkpt lat="46.7585" lon="5.6154">
        <ele>226</ele>
        <time>2019-11-21T12:54:00Z</time>
      </trkpt>
      <trkpt lat="46.75846" lon="5.61543">
        <ele>225.5</ele>
        <time>2019-11-21T12:54:04Z</time>
      </trkpt>
      <trkpt lat="46.7584" lon="5.61545">
        <ele>224.9</ele>
        <time>2019-11-21T12:54:08Z</time>
      </trkpt>
      <trkpt lat="46.75835" lon="5.61548">
        <ele>224.4</ele>
        <time>2019-11-21T12:54:12Z</time>
      </trkpt>
      <trkpt lat="46.7583" lon="5.61549">
        <ele>223.9</ele>
        <time>2019-11-21T12:54:16Z</time>
      </trkpt>
      <trkpt lat="46.75825" lon="5.6155">
        <ele>223.6</ele>
        <time>2019-11-21T12:54:21Z</time>
      </trkpt>
      <trkpt lat="46.75811" lon="5.61549">
        <ele>223.6</ele>
        <time>2019-11-21T12:54:31Z</time>
      </trkpt>
      <trkpt lat="46.75805" lon="5.61551">
        <ele>223.9</ele>
        <time>2019-11-21T12:54:34Z</time>
      </trkpt>
      <trkpt lat="46.75801" lon="5.61553">
        <ele>224.1</ele>
        <time>2019-11-21T12:54:37Z</time>
      </trkpt>
      <trkpt lat="46.75796" lon="5.61552">
        <ele>224.4</ele>
        <time>2019-11-21T12:54:41Z</time>
      </trkpt>
      <trkpt lat="46.75791" lon="5.61551">
        <ele>224.9</ele>
        <time>2019-11-21T12:54:47Z</time>
      </trkpt>
      <trkpt lat="46.7578" lon="5.61548">
        <ele>229.1</ele>
        <time>2019-11-21T12:54:59Z</time>
      </trkpt>
      <trkpt lat="46.75775" lon="5.61542">
        <ele>229.7</ele>
        <time>2019-11-21T12:55:02Z</time>
      </trkpt>
      <trkpt lat="46.75771" lon="5.61539">
        <ele>230.4</ele>
        <time>2019-11-21T12:55:05Z</time>
      </trkpt>
      <trkpt lat="46.75767" lon="5.61535">
        <ele>231.3</ele>
        <time>2019-11-21T12:55:09Z</time>
      </trkpt>
      <trkpt lat="46.75761" lon="5.61532">
        <ele>232</ele>
        <time>2019-11-21T12:55:13Z</time>
      </trkpt>
      <trkpt lat="46.75757" lon="5.61529">
        <ele>232.7</ele>
        <time>2019-11-21T12:55:17Z</time>
      </trkpt>
      <trkpt lat="46.75753" lon="5.61523">
        <ele>233.9</ele>
        <time>2019-11-21T12:55:22Z</time>
      </trkpt>
      <trkpt lat="46.7575" lon="5.61519">
        <ele>235.5</ele>
        <time>2019-11-21T12:55:27Z</time>
      </trkpt>
      <trkpt lat="46.75746" lon="5.61515">
        <ele>237.3</ele>
        <time>2019-11-21T12:55:32Z</time>
      </trkpt>
      <trkpt lat="46.7574" lon="5.61511">
        <ele>239</ele>
        <time>2019-11-21T12:55:37Z</time>
      </trkpt>
      <trkpt lat="46.75736" lon="5.61508">
        <ele>240.5</ele>
        <time>2019-11-21T12:55:42Z</time>
      </trkpt>
      <trkpt lat="46.75733" lon="5.61504">
        <ele>241.7</ele>
        <time>2019-11-21T12:55:47Z</time>
      </trkpt>
      <trkpt lat="46.7573" lon="5.61498">
        <ele>242.3</ele>
        <time>2019-11-21T12:55:50Z</time>
      </trkpt>
      <trkpt lat="46.75726" lon="5.61491">
        <ele>243.4</ele>
        <time>2019-11-21T12:55:55Z</time>
      </trkpt>
      <trkpt lat="46.75723" lon="5.61485">
        <ele>244.2</ele>
        <time>2019-11-21T12:55:59Z</time>
      </trkpt>
      <trkpt lat="46.75719" lon="5.61481">
        <ele>244.8</ele>
        <time>2019-11-21T12:56:02Z</time>
      </trkpt>
      <trkpt lat="46.75716" lon="5.61475">
        <ele>245.9</ele>
        <time>2019-11-21T12:56:07Z</time>
      </trkpt>
      <trkpt lat="46.75713" lon="5.61469">
        <ele>246.7</ele>
        <time>2019-11-21T12:56:11Z</time>
      </trkpt>
      <trkpt lat="46.75711" lon="5.61463">
        <ele>247.4</ele>
        <time>2019-11-21T12:56:15Z</time>
      </trkpt>
      <trkpt lat="46.75707" lon="5.61459">
        <ele>248.5</ele>
        <time>2019-11-21T12:56:21Z</time>
      </trkpt>
      <trkpt lat="46.75705" lon="5.61453">
        <ele>249.6</ele>
        <time>2019-11-21T12:56:27Z</time>
      </trkpt>
      <trkpt lat="46.75703" lon="5.61445">
        <ele>250.1</ele>
        <time>2019-11-21T12:56:32Z</time>
      </trkpt>
      <trkpt lat="46.757" lon="5.61439">
        <ele>250.3</ele>
        <time>2019-11-21T12:56:35Z</time>
      </trkpt>
      <trkpt lat="46.75698" lon="5.61433">
        <ele>250.8</ele>
        <time>2019-11-21T12:56:39Z</time>
      </trkpt>
      <trkpt lat="46.75693" lon="5.6142">
        <ele>254.9</ele>
        <time>2019-11-21T12:56:52Z</time>
      </trkpt>
      <trkpt lat="46.75691" lon="5.61413">
        <ele>255.8</ele>
        <time>2019-11-21T12:56:55Z</time>
      </trkpt>
      <trkpt lat="46.7569" lon="5.61406">
        <ele>256.7</ele>
        <time>2019-11-21T12:56:58Z</time>
      </trkpt>
      <trkpt lat="46.75683" lon="5.61391">
        <ele>262.2</ele>
        <time>2019-11-21T12:57:12Z</time>
      </trkpt>
      <trkpt lat="46.7568" lon="5.61386">
        <ele>263</ele>
        <time>2019-11-21T12:57:17Z</time>
      </trkpt>
      <trkpt lat="46.75674" lon="5.61381">
        <ele>264</ele>
        <time>2019-11-21T12:57:22Z</time>
      </trkpt>
      <trkpt lat="46.75671" lon="5.61375">
        <ele>264.8</ele>
        <time>2019-11-21T12:57:26Z</time>
      </trkpt>
      <trkpt lat="46.75669" lon="5.61369">
        <ele>265.4</ele>
        <time>2019-11-21T12:57:29Z</time>
      </trkpt>
      <trkpt lat="46.75666" lon="5.61362">
        <ele>265.9</ele>
        <time>2019-11-21T12:57:32Z</time>
      </trkpt>
      <trkpt lat="46.75661" lon="5.61356">
        <ele>266.4</ele>
        <time>2019-11-21T12:57:35Z</time>
      </trkpt>
      <trkpt lat="46.75657" lon="5.61351">
        <ele>266.9</ele>
        <time>2019-11-21T12:57:39Z</time>
      </trkpt>
      <trkpt lat="46.75655" lon="5.61344">
        <ele>266.8</ele>
        <time>2019-11-21T12:57:44Z</time>
      </trkpt>
      <trkpt lat="46.75653" lon="5.61337">
        <ele>265.4</ele>
        <time>2019-11-21T12:57:51Z</time>
      </trkpt>
      <trkpt lat="46.75642" lon="5.61308">
        <ele>265.8</ele>
        <time>2019-11-21T12:58:13Z</time>
      </trkpt>
      <trkpt lat="46.75639" lon="5.61301">
        <ele>266.2</ele>
        <time>2019-11-21T12:58:16Z</time>
      </trkpt>
      <trkpt lat="46.75636" lon="5.61295">
        <ele>267.3</ele>
        <time>2019-11-21T12:58:20Z</time>
      </trkpt>
      <trkpt lat="46.75633" lon="5.6129">
        <ele>268.4</ele>
        <time>2019-11-21T12:58:23Z</time>
      </trkpt>
      <trkpt lat="46.75631" lon="5.61284">
        <ele>270.3</ele>
        <time>2019-11-21T12:58:28Z</time>
      </trkpt>
      <trkpt lat="46.75617" lon="5.61267">
        <ele>273.3</ele>
        <time>2019-11-21T12:58:44Z</time>
      </trkpt>
      <trkpt lat="46.75612" lon="5.61264">
        <ele>272.1</ele>
        <time>2019-11-21T12:58:49Z</time>
      </trkpt>
      <trkpt lat="46.75608" lon="5.61262">
        <ele>270.6</ele>
        <time>2019-11-21T12:58:55Z</time>
      </trkpt>
      <trkpt lat="46.75604" lon="5.61257">
        <ele>269.9</ele>
        <time>2019-11-21T12:59:01Z</time>
      </trkpt>
      <trkpt lat="46.75597" lon="5.61238">
        <ele>264.9</ele>
        <time>2019-11-21T12:59:19Z</time>
      </trkpt>
      <trkpt lat="46.75592" lon="5.61235">
        <ele>261.9</ele>
        <time>2019-11-21T12:59:24Z</time>
      </trkpt>
      <trkpt lat="46.75585" lon="5.61235">
        <ele>260.5</ele>
        <time>2019-11-21T12:59:27Z</time>
      </trkpt>
      <trkpt lat="46.75579" lon="5.61234">
        <ele>259.4</ele>
        <time>2019-11-21T12:59:30Z</time>
      </trkpt>
      <trkpt lat="46.75574" lon="5.61232">
        <ele>258.2</ele>
        <time>2019-11-21T12:59:33Z</time>
      </trkpt>
      <trkpt lat="46.75572" lon="5.61227">
        <ele>255.8</ele>
        <time>2019-11-21T12:59:38Z</time>
      </trkpt>
      <trkpt lat="46.75571" lon="5.6122">
        <ele>253.3</ele>
        <time>2019-11-21T12:59:43Z</time>
      </trkpt>
      <trkpt lat="46.7557" lon="5.61213">
        <ele>250.4</ele>
        <time>2019-11-21T12:59:50Z</time>
      </trkpt>
      <trkpt lat="46.75569" lon="5.61206">
        <ele>248.8</ele>
        <time>2019-11-21T12:59:58Z</time>
      </trkpt>
      <trkpt lat="46.75566" lon="5.612">
        <ele>248.3</ele>
        <time>2019-11-21T13:00:03Z</time>
      </trkpt>
      <trkpt lat="46.75542" lon="5.61182">
        <ele>249.7</ele>
        <time>2019-11-21T13:00:17Z</time>
      </trkpt>
      <trkpt lat="46.75536" lon="5.61178">
        <ele>250.1</ele>
        <time>2019-11-21T13:00:21Z</time>
      </trkpt>
      <trkpt lat="46.75522" lon="5.61173">
        <ele>249.8</ele>
        <time>2019-11-21T13:00:33Z</time>
      </trkpt>
      <trkpt lat="46.75516" lon="5.61174">
        <ele>249.9</ele>
        <time>2019-11-21T13:00:37Z</time>
      </trkpt>
      <trkpt lat="46.75511" lon="5.61175">
        <ele>250.1</ele>
        <time>2019-11-21T13:00:41Z</time>
      </trkpt>
      <trkpt lat="46.75505" lon="5.61175">
        <ele>250.6</ele>
        <time>2019-11-21T13:00:45Z</time>
      </trkpt>
      <trkpt lat="46.755" lon="5.61177">
        <ele>251.3</ele>
        <time>2019-11-21T13:00:49Z</time>
      </trkpt>
      <trkpt lat="46.75499" lon="5.61184">
        <ele>251.6</ele>
        <time>2019-11-21T13:00:53Z</time>
      </trkpt>
      <trkpt lat="46.75497" lon="5.6119">
        <ele>250.6</ele>
        <time>2019-11-21T13:00:58Z</time>
      </trkpt>
      <trkpt lat="46.75492" lon="5.61194">
        <ele>249.4</ele>
        <time>2019-11-21T13:01:01Z</time>
      </trkpt>
      <trkpt lat="46.75487" lon="5.61195">
        <ele>247.2</ele>
        <time>2019-11-21T13:01:05Z</time>
      </trkpt>
      <trkpt lat="46.75483" lon="5.61192">
        <ele>245.2</ele>
        <time>2019-11-21T13:01:08Z</time>
      </trkpt>
      <trkpt lat="46.75479" lon="5.61203">
        <ele>238.1</ele>
        <time>2019-11-21T13:01:23Z</time>
      </trkpt>
      <trkpt lat="46.75475" lon="5.6122">
        <ele>234.8</ele>
        <time>2019-11-21T13:01:31Z</time>
      </trkpt>
      <trkpt lat="46.75475" lon="5.61228">
        <ele>234.4</ele>
        <time>2019-11-21T13:01:34Z</time>
      </trkpt>
      <trkpt lat="46.75475" lon="5.61235">
        <ele>233.9</ele>
        <time>2019-11-21T13:01:38Z</time>
      </trkpt>
      <trkpt lat="46.75475" lon="5.61242">
        <ele>232.8</ele>
        <time>2019-11-21T13:01:44Z</time>
      </trkpt>
      <trkpt lat="46.75472" lon="5.61248">
        <ele>230.9</ele>
        <time>2019-11-21T13:01:49Z</time>
      </trkpt>
      <trkpt lat="46.75469" lon="5.61253">
        <ele>227.7</ele>
        <time>2019-11-21T13:01:55Z</time>
      </trkpt>
      <trkpt lat="46.75464" lon="5.61257">
        <ele>225</ele>
        <time>2019-11-21T13:02:01Z</time>
      </trkpt>
      <trkpt lat="46.75459" lon="5.6126">
        <ele>225</ele>
        <time>2019-11-21T13:02:05Z</time>
      </trkpt>
      <trkpt lat="46.75454" lon="5.6126">
        <ele>225.8</ele>
        <time>2019-11-21T13:02:10Z</time>
      </trkpt>
      <trkpt lat="46.75449" lon="5.61262">
        <ele>226.5</ele>
        <time>2019-11-21T13:02:13Z</time>
      </trkpt>
      <trkpt lat="46.75443" lon="5.61263">
        <ele>226.9</ele>
        <time>2019-11-21T13:02:17Z</time>
      </trkpt>
      <trkpt lat="46.75437" lon="5.61261">
        <ele>226.9</ele>
        <time>2019-11-21T13:02:19Z</time>
      </trkpt>
      <trkpt lat="46.75409" lon="5.61278">
        <ele>224.3</ele>
        <time>2019-11-21T13:02:47Z</time>
      </trkpt>
      <trkpt lat="46.7541" lon="5.61285">
        <ele>225.5</ele>
        <time>2019-11-21T13:02:50Z</time>
      </trkpt>
      <trkpt lat="46.75409" lon="5.61293">
        <ele>227.9</ele>
        <time>2019-11-21T13:02:55Z</time>
      </trkpt>
      <trkpt lat="46.75408" lon="5.613">
        <ele>229.7</ele>
        <time>2019-11-21T13:02:59Z</time>
      </trkpt>
      <trkpt lat="46.75405" lon="5.61307">
        <ele>232.2</ele>
        <time>2019-11-21T13:03:04Z</time>
      </trkpt>
      <trkpt lat="46.75402" lon="5.61312">
        <ele>234</ele>
        <time>2019-11-21T13:03:09Z</time>
      </trkpt>
      <trkpt lat="46.75398" lon="5.61315">
        <ele>234.3</ele>
        <time>2019-11-21T13:03:12Z</time>
      </trkpt>
      <trkpt lat="46.75393" lon="5.61319">
        <ele>233.6</ele>
        <time>2019-11-21T13:03:19Z</time>
      </trkpt>
      <trkpt lat="46.75389" lon="5.61323">
        <ele>232.8</ele>
        <time>2019-11-21T13:03:23Z</time>
      </trkpt>
      <trkpt lat="46.75384" lon="5.61327">
        <ele>232.1</ele>
        <time>2019-11-21T13:03:26Z</time>
      </trkpt>
      <trkpt lat="46.75382" lon="5.61335">
        <ele>231.9</ele>
        <time>2019-11-21T13:03:29Z</time>
      </trkpt>
      <trkpt lat="46.75383" lon="5.61342">
        <ele>231.9</ele>
        <time>2019-11-21T13:03:32Z</time>
      </trkpt>
      <trkpt lat="46.75387" lon="5.61346">
        <ele>232.3</ele>
        <time>2019-11-21T13:03:36Z</time>
      </trkpt>
      <trkpt lat="46.7539" lon="5.61353">
        <ele>233.2</ele>
        <time>2019-11-21T13:03:41Z</time>
      </trkpt>
      <trkpt lat="46.75389" lon="5.6136">
        <ele>234.7</ele>
        <time>2019-11-21T13:03:47Z</time>
      </trkpt>
      <trkpt lat="46.7539" lon="5.61367">
        <ele>236.6</ele>
        <time>2019-11-21T13:03:54Z</time>
      </trkpt>
      <trkpt lat="46.75393" lon="5.61374">
        <ele>237.7</ele>
        <time>2019-11-21T13:03:59Z</time>
      </trkpt>
      <trkpt lat="46.75395" lon="5.61379">
        <ele>238.6</ele>
        <time>2019-11-21T13:04:04Z</time>
      </trkpt>
      <trkpt lat="46.75397" lon="5.61386">
        <ele>239.3</ele>
        <time>2019-11-21T13:04:10Z</time>
      </trkpt>
      <trkpt lat="46.75399" lon="5.61394">
        <ele>239.8</ele>
        <time>2019-11-21T13:04:14Z</time>
      </trkpt>
      <trkpt lat="46.754" lon="5.61402">
        <ele>240.2</ele>
        <time>2019-11-21T13:04:18Z</time>
      </trkpt>
      <trkpt lat="46.75402" lon="5.61408">
        <ele>240.7</ele>
        <time>2019-11-21T13:04:23Z</time>
      </trkpt>
      <trkpt lat="46.75402" lon="5.61415">
        <ele>241.7</ele>
        <time>2019-11-21T13:04:29Z</time>
      </trkpt>
      <trkpt lat="46.75406" lon="5.61412">
        <ele>243.4</ele>
        <time>2019-11-21T13:04:41Z</time>
      </trkpt>
    </trkseg>
  </trk>
</gpx>